<?xml version="1.0" encoding="UTF-8" standalone="no" ?>
<gpx xmlns="http://www.topografix.com/GPX/1/1" xmlns:xsi="http://www.w3.org/2001/XMLSchema-instance" xsi:schemaLocation="http://www.topografix.com/GPX/1/1 http://www.topografix.com/GPX/1/1/gpx.xsd" version="1.1" creator="VisuGPX - https://www.visugpx.com">
  <metadata>
    <name>83-D-Brignoles</name>
    <desc><![CDATA[83-D-Brignoles : les dolmens
2025-10-05--ORB]]></desc>
  </metadata>
  <trk>
    <name><![CDATA[2025-10-05-D-Brignoles]]></name>
    <extensions>
      <line xmlns="http://www.topografix.com/GPX/gpx_style/0/2">
        <width>4</width>
      </line>
    </extensions>
    <trkseg>
      <trkpt lat="43.42137" lon="6.05122">
        <ele>260.4</ele>
        <time>2025-10-05T07:54:43.000Z</time>
      </trkpt>
      <trkpt lat="43.42137" lon="6.05122">
        <ele>260.4</ele>
        <time>2025-10-05T07:54:44.000Z</time>
      </trkpt>
      <trkpt lat="43.42137" lon="6.05122">
        <ele>260.4</ele>
        <time>2025-10-05T07:54:45.000Z</time>
      </trkpt>
      <trkpt lat="43.42137" lon="6.05122">
        <ele>260.4</ele>
        <time>2025-10-05T07:54:46.000Z</time>
      </trkpt>
      <trkpt lat="43.42137" lon="6.05122">
        <ele>260.4</ele>
        <time>2025-10-05T07:54:47.000Z</time>
      </trkpt>
      <trkpt lat="43.42137" lon="6.05122">
        <ele>260.5</ele>
        <time>2025-10-05T07:54:48.000Z</time>
      </trkpt>
      <trkpt lat="43.42137" lon="6.05123">
        <ele>260.5</ele>
        <time>2025-10-05T07:54:49.000Z</time>
      </trkpt>
      <trkpt lat="43.42137" lon="6.05122">
        <ele>260.5</ele>
        <time>2025-10-05T07:54:54.000Z</time>
      </trkpt>
      <trkpt lat="43.42137" lon="6.05122">
        <ele>260.5</ele>
        <time>2025-10-05T07:54:55.000Z</time>
      </trkpt>
      <trkpt lat="43.42137" lon="6.05122">
        <ele>260.5</ele>
        <time>2025-10-05T07:54:56.000Z</time>
      </trkpt>
      <trkpt lat="43.42137" lon="6.05122">
        <ele>260.5</ele>
        <time>2025-10-05T07:55:00.000Z</time>
      </trkpt>
      <trkpt lat="43.42137" lon="6.05122">
        <ele>260.5</ele>
        <time>2025-10-05T07:55:01.000Z</time>
      </trkpt>
      <trkpt lat="43.4214" lon="6.05125">
        <ele>260</ele>
        <time>2025-10-05T07:55:14.000Z</time>
      </trkpt>
      <trkpt lat="43.4214" lon="6.05125">
        <ele>260</ele>
        <time>2025-10-05T07:55:15.000Z</time>
      </trkpt>
      <trkpt lat="43.4214" lon="6.05125">
        <ele>259.9</ele>
        <time>2025-10-05T07:55:16.000Z</time>
      </trkpt>
      <trkpt lat="43.4214" lon="6.05126">
        <ele>259.9</ele>
        <time>2025-10-05T07:55:17.000Z</time>
      </trkpt>
      <trkpt lat="43.4214" lon="6.05126">
        <ele>259.9</ele>
        <time>2025-10-05T07:55:18.000Z</time>
      </trkpt>
      <trkpt lat="43.42139" lon="6.05126">
        <ele>259.8</ele>
        <time>2025-10-05T07:55:19.000Z</time>
      </trkpt>
      <trkpt lat="43.42139" lon="6.05126">
        <ele>259.8</ele>
        <time>2025-10-05T07:55:20.000Z</time>
      </trkpt>
      <trkpt lat="43.4214" lon="6.05126">
        <ele>259.8</ele>
        <time>2025-10-05T07:55:21.000Z</time>
      </trkpt>
      <trkpt lat="43.4214" lon="6.05125">
        <ele>259.7</ele>
        <time>2025-10-05T07:55:25.000Z</time>
      </trkpt>
      <trkpt lat="43.42139" lon="6.05125">
        <ele>259.7</ele>
        <time>2025-10-05T07:55:26.000Z</time>
      </trkpt>
      <trkpt lat="43.42139" lon="6.05124">
        <ele>259.7</ele>
        <time>2025-10-05T07:55:27.000Z</time>
      </trkpt>
      <trkpt lat="43.42139" lon="6.05124">
        <ele>259.7</ele>
        <time>2025-10-05T07:55:32.000Z</time>
      </trkpt>
      <trkpt lat="43.42139" lon="6.05124">
        <ele>259.7</ele>
        <time>2025-10-05T07:55:32.000Z</time>
      </trkpt>
      <trkpt lat="43.42139" lon="6.05124">
        <ele>259.6</ele>
        <time>2025-10-05T07:55:33.000Z</time>
      </trkpt>
      <trkpt lat="43.42139" lon="6.05124">
        <ele>259.5</ele>
        <time>2025-10-05T07:57:34.000Z</time>
      </trkpt>
      <trkpt lat="43.42139" lon="6.05124">
        <ele>259.4</ele>
        <time>2025-10-05T07:57:35.000Z</time>
      </trkpt>
      <trkpt lat="43.42139" lon="6.05124">
        <ele>259.4</ele>
        <time>2025-10-05T07:57:36.000Z</time>
      </trkpt>
      <trkpt lat="43.42133" lon="6.05122">
        <ele>259.3</ele>
        <time>2025-10-05T07:58:02.000Z</time>
      </trkpt>
      <trkpt lat="43.42133" lon="6.05122">
        <ele>259.3</ele>
        <time>2025-10-05T07:58:03.000Z</time>
      </trkpt>
      <trkpt lat="43.42133" lon="6.05123">
        <ele>259.2</ele>
        <time>2025-10-05T07:58:07.000Z</time>
      </trkpt>
      <trkpt lat="43.42133" lon="6.05123">
        <ele>259.2</ele>
        <time>2025-10-05T07:58:08.000Z</time>
      </trkpt>
      <trkpt lat="43.42133" lon="6.05123">
        <ele>259.2</ele>
        <time>2025-10-05T07:58:12.000Z</time>
      </trkpt>
      <trkpt lat="43.42133" lon="6.05123">
        <ele>259.2</ele>
        <time>2025-10-05T07:58:13.000Z</time>
      </trkpt>
      <trkpt lat="43.42133" lon="6.05123">
        <ele>259.2</ele>
        <time>2025-10-05T07:58:14.000Z</time>
      </trkpt>
      <trkpt lat="43.42133" lon="6.05123">
        <ele>259.2</ele>
        <time>2025-10-05T07:58:15.000Z</time>
      </trkpt>
      <trkpt lat="43.42133" lon="6.05123">
        <ele>259.2</ele>
        <time>2025-10-05T07:58:16.000Z</time>
      </trkpt>
      <trkpt lat="43.42133" lon="6.05123">
        <ele>259.2</ele>
        <time>2025-10-05T07:58:17.000Z</time>
      </trkpt>
      <trkpt lat="43.42133" lon="6.05123">
        <ele>259.2</ele>
        <time>2025-10-05T07:58:18.000Z</time>
      </trkpt>
      <trkpt lat="43.42133" lon="6.05123">
        <ele>259.2</ele>
        <time>2025-10-05T07:58:19.000Z</time>
      </trkpt>
      <trkpt lat="43.42132" lon="6.05124">
        <ele>259.6</ele>
        <time>2025-10-05T07:59:42.000Z</time>
      </trkpt>
      <trkpt lat="43.42132" lon="6.05124">
        <ele>259.7</ele>
        <time>2025-10-05T07:59:43.000Z</time>
      </trkpt>
      <trkpt lat="43.42124" lon="6.05118">
        <ele>259.6</ele>
        <time>2025-10-05T07:59:53.000Z</time>
      </trkpt>
      <trkpt lat="43.42114" lon="6.05114">
        <ele>259</ele>
        <time>2025-10-05T08:00:01.000Z</time>
      </trkpt>
      <trkpt lat="43.42105" lon="6.05115">
        <ele>258</ele>
        <time>2025-10-05T08:00:09.000Z</time>
      </trkpt>
      <trkpt lat="43.42096" lon="6.05114">
        <ele>256.6</ele>
        <time>2025-10-05T08:00:28.000Z</time>
      </trkpt>
      <trkpt lat="43.42087" lon="6.05111">
        <ele>256.7</ele>
        <time>2025-10-05T08:00:36.000Z</time>
      </trkpt>
      <trkpt lat="43.42077" lon="6.05108">
        <ele>256.5</ele>
        <time>2025-10-05T08:00:44.000Z</time>
      </trkpt>
      <trkpt lat="43.42068" lon="6.05107">
        <ele>256.1</ele>
        <time>2025-10-05T08:00:52.000Z</time>
      </trkpt>
      <trkpt lat="43.42059" lon="6.05113">
        <ele>255.7</ele>
        <time>2025-10-05T08:00:59.000Z</time>
      </trkpt>
      <trkpt lat="43.42049" lon="6.05114">
        <ele>255.4</ele>
        <time>2025-10-05T08:01:05.000Z</time>
      </trkpt>
      <trkpt lat="43.42039" lon="6.05115">
        <ele>254.7</ele>
        <time>2025-10-05T08:01:14.000Z</time>
      </trkpt>
      <trkpt lat="43.42029" lon="6.05119">
        <ele>254.1</ele>
        <time>2025-10-05T08:01:23.000Z</time>
      </trkpt>
      <trkpt lat="43.4202" lon="6.05118">
        <ele>253.7</ele>
        <time>2025-10-05T08:01:30.000Z</time>
      </trkpt>
      <trkpt lat="43.42011" lon="6.05121">
        <ele>253.6</ele>
        <time>2025-10-05T08:01:39.000Z</time>
      </trkpt>
      <trkpt lat="43.42002" lon="6.05119">
        <ele>253.5</ele>
        <time>2025-10-05T08:01:50.000Z</time>
      </trkpt>
      <trkpt lat="43.41992" lon="6.05118">
        <ele>253.2</ele>
        <time>2025-10-05T08:01:58.000Z</time>
      </trkpt>
      <trkpt lat="43.41983" lon="6.05118">
        <ele>253.1</ele>
        <time>2025-10-05T08:02:04.000Z</time>
      </trkpt>
      <trkpt lat="43.41974" lon="6.05121">
        <ele>252.7</ele>
        <time>2025-10-05T08:02:12.000Z</time>
      </trkpt>
      <trkpt lat="43.41965" lon="6.05128">
        <ele>252.4</ele>
        <time>2025-10-05T08:02:20.000Z</time>
      </trkpt>
      <trkpt lat="43.41957" lon="6.05133">
        <ele>252.1</ele>
        <time>2025-10-05T08:02:26.000Z</time>
      </trkpt>
      <trkpt lat="43.41948" lon="6.05138">
        <ele>251.6</ele>
        <time>2025-10-05T08:02:32.000Z</time>
      </trkpt>
      <trkpt lat="43.41942" lon="6.05147">
        <ele>251.3</ele>
        <time>2025-10-05T08:02:39.000Z</time>
      </trkpt>
      <trkpt lat="43.41937" lon="6.05159">
        <ele>251.1</ele>
        <time>2025-10-05T08:02:46.000Z</time>
      </trkpt>
      <trkpt lat="43.41937" lon="6.05173">
        <ele>251.3</ele>
        <time>2025-10-05T08:02:54.000Z</time>
      </trkpt>
      <trkpt lat="43.41937" lon="6.05186">
        <ele>251.7</ele>
        <time>2025-10-05T08:03:02.000Z</time>
      </trkpt>
      <trkpt lat="43.41938" lon="6.05199">
        <ele>252.6</ele>
        <time>2025-10-05T08:03:10.000Z</time>
      </trkpt>
      <trkpt lat="43.41938" lon="6.05211">
        <ele>253.4</ele>
        <time>2025-10-05T08:03:18.000Z</time>
      </trkpt>
      <trkpt lat="43.4194" lon="6.05224">
        <ele>254.1</ele>
        <time>2025-10-05T08:03:26.000Z</time>
      </trkpt>
      <trkpt lat="43.41942" lon="6.05236">
        <ele>254.5</ele>
        <time>2025-10-05T08:03:34.000Z</time>
      </trkpt>
      <trkpt lat="43.41943" lon="6.05249">
        <ele>254.7</ele>
        <time>2025-10-05T08:03:42.000Z</time>
      </trkpt>
      <trkpt lat="43.41946" lon="6.05261">
        <ele>255.2</ele>
        <time>2025-10-05T08:03:50.000Z</time>
      </trkpt>
      <trkpt lat="43.41946" lon="6.05274">
        <ele>256.5</ele>
        <time>2025-10-05T08:03:59.000Z</time>
      </trkpt>
      <trkpt lat="43.41947" lon="6.05289">
        <ele>257.9</ele>
        <time>2025-10-05T08:04:08.000Z</time>
      </trkpt>
      <trkpt lat="43.41949" lon="6.05302">
        <ele>258.5</ele>
        <time>2025-10-05T08:04:16.000Z</time>
      </trkpt>
      <trkpt lat="43.41952" lon="6.05314">
        <ele>259.3</ele>
        <time>2025-10-05T08:04:25.000Z</time>
      </trkpt>
      <trkpt lat="43.41953" lon="6.05327">
        <ele>260</ele>
        <time>2025-10-05T08:04:33.000Z</time>
      </trkpt>
      <trkpt lat="43.41958" lon="6.05339">
        <ele>260.7</ele>
        <time>2025-10-05T08:04:40.000Z</time>
      </trkpt>
      <trkpt lat="43.4196" lon="6.05351">
        <ele>261.7</ele>
        <time>2025-10-05T08:04:50.000Z</time>
      </trkpt>
      <trkpt lat="43.41963" lon="6.05364">
        <ele>262.1</ele>
        <time>2025-10-05T08:04:59.000Z</time>
      </trkpt>
      <trkpt lat="43.41967" lon="6.05376">
        <ele>262.1</ele>
        <time>2025-10-05T08:05:13.000Z</time>
      </trkpt>
      <trkpt lat="43.4197" lon="6.05388">
        <ele>262.6</ele>
        <time>2025-10-05T08:05:21.000Z</time>
      </trkpt>
      <trkpt lat="43.41973" lon="6.054">
        <ele>263.4</ele>
        <time>2025-10-05T08:05:30.000Z</time>
      </trkpt>
      <trkpt lat="43.41979" lon="6.05411">
        <ele>264</ele>
        <time>2025-10-05T08:05:39.000Z</time>
      </trkpt>
      <trkpt lat="43.41981" lon="6.05423">
        <ele>264.4</ele>
        <time>2025-10-05T08:05:47.000Z</time>
      </trkpt>
      <trkpt lat="43.41984" lon="6.05436">
        <ele>265.1</ele>
        <time>2025-10-05T08:05:55.000Z</time>
      </trkpt>
      <trkpt lat="43.41988" lon="6.05449">
        <ele>265.5</ele>
        <time>2025-10-05T08:06:04.000Z</time>
      </trkpt>
      <trkpt lat="43.41991" lon="6.05461">
        <ele>266.3</ele>
        <time>2025-10-05T08:06:14.000Z</time>
      </trkpt>
      <trkpt lat="43.41994" lon="6.05473">
        <ele>266.6</ele>
        <time>2025-10-05T08:06:23.000Z</time>
      </trkpt>
      <trkpt lat="43.41996" lon="6.05487">
        <ele>266.7</ele>
        <time>2025-10-05T08:06:30.000Z</time>
      </trkpt>
      <trkpt lat="43.41998" lon="6.05499">
        <ele>266.8</ele>
        <time>2025-10-05T08:06:37.000Z</time>
      </trkpt>
      <trkpt lat="43.41999" lon="6.05511">
        <ele>266.7</ele>
        <time>2025-10-05T08:06:45.000Z</time>
      </trkpt>
      <trkpt lat="43.42003" lon="6.05523">
        <ele>266.4</ele>
        <time>2025-10-05T08:06:53.000Z</time>
      </trkpt>
      <trkpt lat="43.42003" lon="6.05537">
        <ele>265.8</ele>
        <time>2025-10-05T08:07:01.000Z</time>
      </trkpt>
      <trkpt lat="43.42004" lon="6.0555">
        <ele>264.7</ele>
        <time>2025-10-05T08:07:09.000Z</time>
      </trkpt>
      <trkpt lat="43.42007" lon="6.05563">
        <ele>263</ele>
        <time>2025-10-05T08:07:19.000Z</time>
      </trkpt>
      <trkpt lat="43.42009" lon="6.05575">
        <ele>262.4</ele>
        <time>2025-10-05T08:07:27.000Z</time>
      </trkpt>
      <trkpt lat="43.42011" lon="6.05588">
        <ele>261.6</ele>
        <time>2025-10-05T08:07:35.000Z</time>
      </trkpt>
      <trkpt lat="43.42012" lon="6.056">
        <ele>261</ele>
        <time>2025-10-05T08:07:43.000Z</time>
      </trkpt>
      <trkpt lat="43.42013" lon="6.05614">
        <ele>260.7</ele>
        <time>2025-10-05T08:07:51.000Z</time>
      </trkpt>
      <trkpt lat="43.42016" lon="6.05627">
        <ele>260.3</ele>
        <time>2025-10-05T08:07:59.000Z</time>
      </trkpt>
      <trkpt lat="43.42019" lon="6.0564">
        <ele>259.5</ele>
        <time>2025-10-05T08:08:07.000Z</time>
      </trkpt>
      <trkpt lat="43.42021" lon="6.05653">
        <ele>258.7</ele>
        <time>2025-10-05T08:08:15.000Z</time>
      </trkpt>
      <trkpt lat="43.42023" lon="6.05665">
        <ele>258</ele>
        <time>2025-10-05T08:08:23.000Z</time>
      </trkpt>
      <trkpt lat="43.42028" lon="6.05677">
        <ele>257.4</ele>
        <time>2025-10-05T08:08:31.000Z</time>
      </trkpt>
      <trkpt lat="43.4203" lon="6.05691">
        <ele>256.7</ele>
        <time>2025-10-05T08:08:40.000Z</time>
      </trkpt>
      <trkpt lat="43.42031" lon="6.05703">
        <ele>256.5</ele>
        <time>2025-10-05T08:08:47.000Z</time>
      </trkpt>
      <trkpt lat="43.42034" lon="6.05716">
        <ele>256.3</ele>
        <time>2025-10-05T08:08:54.000Z</time>
      </trkpt>
      <trkpt lat="43.42036" lon="6.05728">
        <ele>256.1</ele>
        <time>2025-10-05T08:09:01.000Z</time>
      </trkpt>
      <trkpt lat="43.42039" lon="6.05741">
        <ele>256</ele>
        <time>2025-10-05T08:09:09.000Z</time>
      </trkpt>
      <trkpt lat="43.42042" lon="6.05752">
        <ele>256</ele>
        <time>2025-10-05T08:09:16.000Z</time>
      </trkpt>
      <trkpt lat="43.42043" lon="6.05766">
        <ele>256</ele>
        <time>2025-10-05T08:09:24.000Z</time>
      </trkpt>
      <trkpt lat="43.42046" lon="6.05779">
        <ele>256.2</ele>
        <time>2025-10-05T08:09:32.000Z</time>
      </trkpt>
      <trkpt lat="43.42048" lon="6.05792">
        <ele>256.5</ele>
        <time>2025-10-05T08:09:41.000Z</time>
      </trkpt>
      <trkpt lat="43.42051" lon="6.05805">
        <ele>256.5</ele>
        <time>2025-10-05T08:09:49.000Z</time>
      </trkpt>
      <trkpt lat="43.42055" lon="6.05818">
        <ele>256.4</ele>
        <time>2025-10-05T08:09:57.000Z</time>
      </trkpt>
      <trkpt lat="43.42057" lon="6.0583">
        <ele>256.5</ele>
        <time>2025-10-05T08:10:05.000Z</time>
      </trkpt>
      <trkpt lat="43.4206" lon="6.05842">
        <ele>257</ele>
        <time>2025-10-05T08:10:14.000Z</time>
      </trkpt>
      <trkpt lat="43.42064" lon="6.05853">
        <ele>258</ele>
        <time>2025-10-05T08:10:22.000Z</time>
      </trkpt>
      <trkpt lat="43.42067" lon="6.05865">
        <ele>258.6</ele>
        <time>2025-10-05T08:10:30.000Z</time>
      </trkpt>
      <trkpt lat="43.42069" lon="6.05878">
        <ele>258.8</ele>
        <time>2025-10-05T08:10:37.000Z</time>
      </trkpt>
      <trkpt lat="43.42072" lon="6.05889">
        <ele>258.8</ele>
        <time>2025-10-05T08:10:44.000Z</time>
      </trkpt>
      <trkpt lat="43.42075" lon="6.05902">
        <ele>259.1</ele>
        <time>2025-10-05T08:10:52.000Z</time>
      </trkpt>
      <trkpt lat="43.42078" lon="6.05914">
        <ele>259.4</ele>
        <time>2025-10-05T08:11:00.000Z</time>
      </trkpt>
      <trkpt lat="43.42081" lon="6.05926">
        <ele>259.5</ele>
        <time>2025-10-05T08:11:09.000Z</time>
      </trkpt>
      <trkpt lat="43.42084" lon="6.05938">
        <ele>259.6</ele>
        <time>2025-10-05T08:11:16.000Z</time>
      </trkpt>
      <trkpt lat="43.42088" lon="6.0595">
        <ele>259.9</ele>
        <time>2025-10-05T08:11:25.000Z</time>
      </trkpt>
      <trkpt lat="43.4209" lon="6.05962">
        <ele>259.8</ele>
        <time>2025-10-05T08:11:33.000Z</time>
      </trkpt>
      <trkpt lat="43.42093" lon="6.05974">
        <ele>259.9</ele>
        <time>2025-10-05T08:11:40.000Z</time>
      </trkpt>
      <trkpt lat="43.42095" lon="6.05987">
        <ele>260.2</ele>
        <time>2025-10-05T08:11:47.000Z</time>
      </trkpt>
      <trkpt lat="43.42097" lon="6.06001">
        <ele>260.8</ele>
        <time>2025-10-05T08:11:55.000Z</time>
      </trkpt>
      <trkpt lat="43.421" lon="6.06013">
        <ele>261.1</ele>
        <time>2025-10-05T08:12:03.000Z</time>
      </trkpt>
      <trkpt lat="43.42103" lon="6.06025">
        <ele>261.1</ele>
        <time>2025-10-05T08:12:11.000Z</time>
      </trkpt>
      <trkpt lat="43.42105" lon="6.06038">
        <ele>261.1</ele>
        <time>2025-10-05T08:12:19.000Z</time>
      </trkpt>
      <trkpt lat="43.42108" lon="6.0605">
        <ele>260.9</ele>
        <time>2025-10-05T08:12:26.000Z</time>
      </trkpt>
      <trkpt lat="43.4211" lon="6.06062">
        <ele>260.6</ele>
        <time>2025-10-05T08:12:34.000Z</time>
      </trkpt>
      <trkpt lat="43.4211" lon="6.06075">
        <ele>260.2</ele>
        <time>2025-10-05T08:12:42.000Z</time>
      </trkpt>
      <trkpt lat="43.42112" lon="6.06087">
        <ele>259.5</ele>
        <time>2025-10-05T08:12:49.000Z</time>
      </trkpt>
      <trkpt lat="43.42115" lon="6.061">
        <ele>258.4</ele>
        <time>2025-10-05T08:12:57.000Z</time>
      </trkpt>
      <trkpt lat="43.42117" lon="6.06113">
        <ele>257</ele>
        <time>2025-10-05T08:13:05.000Z</time>
      </trkpt>
      <trkpt lat="43.42119" lon="6.06126">
        <ele>256.2</ele>
        <time>2025-10-05T08:13:13.000Z</time>
      </trkpt>
      <trkpt lat="43.42122" lon="6.06139">
        <ele>255.8</ele>
        <time>2025-10-05T08:13:21.000Z</time>
      </trkpt>
      <trkpt lat="43.42127" lon="6.06152">
        <ele>255.8</ele>
        <time>2025-10-05T08:13:29.000Z</time>
      </trkpt>
      <trkpt lat="43.42131" lon="6.06163">
        <ele>255.7</ele>
        <time>2025-10-05T08:13:38.000Z</time>
      </trkpt>
      <trkpt lat="43.42135" lon="6.06174">
        <ele>255.8</ele>
        <time>2025-10-05T08:13:46.000Z</time>
      </trkpt>
      <trkpt lat="43.4214" lon="6.06187">
        <ele>256.3</ele>
        <time>2025-10-05T08:13:54.000Z</time>
      </trkpt>
      <trkpt lat="43.42145" lon="6.06198">
        <ele>256.7</ele>
        <time>2025-10-05T08:14:02.000Z</time>
      </trkpt>
      <trkpt lat="43.42149" lon="6.06211">
        <ele>257</ele>
        <time>2025-10-05T08:14:10.000Z</time>
      </trkpt>
      <trkpt lat="43.4215" lon="6.06224">
        <ele>257.3</ele>
        <time>2025-10-05T08:14:18.000Z</time>
      </trkpt>
      <trkpt lat="43.42152" lon="6.06236">
        <ele>257.1</ele>
        <time>2025-10-05T08:14:26.000Z</time>
      </trkpt>
      <trkpt lat="43.42152" lon="6.06249">
        <ele>256.6</ele>
        <time>2025-10-05T08:14:34.000Z</time>
      </trkpt>
      <trkpt lat="43.42152" lon="6.06262">
        <ele>255.5</ele>
        <time>2025-10-05T08:14:42.000Z</time>
      </trkpt>
      <trkpt lat="43.42152" lon="6.06275">
        <ele>254.6</ele>
        <time>2025-10-05T08:14:50.000Z</time>
      </trkpt>
      <trkpt lat="43.42152" lon="6.06288">
        <ele>253.8</ele>
        <time>2025-10-05T08:14:57.000Z</time>
      </trkpt>
      <trkpt lat="43.42153" lon="6.063">
        <ele>252.9</ele>
        <time>2025-10-05T08:15:04.000Z</time>
      </trkpt>
      <trkpt lat="43.42153" lon="6.06314">
        <ele>252</ele>
        <time>2025-10-05T08:15:13.000Z</time>
      </trkpt>
      <trkpt lat="43.42153" lon="6.06327">
        <ele>251.6</ele>
        <time>2025-10-05T08:15:21.000Z</time>
      </trkpt>
      <trkpt lat="43.42155" lon="6.06339">
        <ele>251.2</ele>
        <time>2025-10-05T08:15:29.000Z</time>
      </trkpt>
      <trkpt lat="43.4216" lon="6.06352">
        <ele>251.1</ele>
        <time>2025-10-05T08:15:36.000Z</time>
      </trkpt>
      <trkpt lat="43.42163" lon="6.06365">
        <ele>251</ele>
        <time>2025-10-05T08:15:44.000Z</time>
      </trkpt>
      <trkpt lat="43.42165" lon="6.06378">
        <ele>250.9</ele>
        <time>2025-10-05T08:15:52.000Z</time>
      </trkpt>
      <trkpt lat="43.42166" lon="6.06391">
        <ele>250.7</ele>
        <time>2025-10-05T08:16:00.000Z</time>
      </trkpt>
      <trkpt lat="43.42169" lon="6.06403">
        <ele>250.5</ele>
        <time>2025-10-05T08:16:07.000Z</time>
      </trkpt>
      <trkpt lat="43.42172" lon="6.06415">
        <ele>250.5</ele>
        <time>2025-10-05T08:16:14.000Z</time>
      </trkpt>
      <trkpt lat="43.42174" lon="6.06428">
        <ele>250.5</ele>
        <time>2025-10-05T08:16:22.000Z</time>
      </trkpt>
      <trkpt lat="43.42176" lon="6.06441">
        <ele>251</ele>
        <time>2025-10-05T08:16:30.000Z</time>
      </trkpt>
      <trkpt lat="43.42179" lon="6.06453">
        <ele>251</ele>
        <time>2025-10-05T08:16:37.000Z</time>
      </trkpt>
      <trkpt lat="43.42181" lon="6.06466">
        <ele>250.8</ele>
        <time>2025-10-05T08:16:45.000Z</time>
      </trkpt>
      <trkpt lat="43.42183" lon="6.06479">
        <ele>250.5</ele>
        <time>2025-10-05T08:16:53.000Z</time>
      </trkpt>
      <trkpt lat="43.42185" lon="6.06491">
        <ele>250.1</ele>
        <time>2025-10-05T08:17:00.000Z</time>
      </trkpt>
      <trkpt lat="43.42189" lon="6.06503">
        <ele>249.7</ele>
        <time>2025-10-05T08:17:07.000Z</time>
      </trkpt>
      <trkpt lat="43.42193" lon="6.06516">
        <ele>249.7</ele>
        <time>2025-10-05T08:17:16.000Z</time>
      </trkpt>
      <trkpt lat="43.42203" lon="6.06517">
        <ele>249.8</ele>
        <time>2025-10-05T08:17:26.000Z</time>
      </trkpt>
      <trkpt lat="43.42212" lon="6.06516">
        <ele>250.3</ele>
        <time>2025-10-05T08:17:34.000Z</time>
      </trkpt>
      <trkpt lat="43.42221" lon="6.06519">
        <ele>251.3</ele>
        <time>2025-10-05T08:17:44.000Z</time>
      </trkpt>
      <trkpt lat="43.42229" lon="6.06524">
        <ele>252.2</ele>
        <time>2025-10-05T08:17:52.000Z</time>
      </trkpt>
      <trkpt lat="43.42239" lon="6.06522">
        <ele>253.1</ele>
        <time>2025-10-05T08:18:00.000Z</time>
      </trkpt>
      <trkpt lat="43.42249" lon="6.06524">
        <ele>253.6</ele>
        <time>2025-10-05T08:18:07.000Z</time>
      </trkpt>
      <trkpt lat="43.42258" lon="6.06523">
        <ele>254</ele>
        <time>2025-10-05T08:18:18.000Z</time>
      </trkpt>
      <trkpt lat="43.42264" lon="6.06514">
        <ele>254.8</ele>
        <time>2025-10-05T08:18:30.000Z</time>
      </trkpt>
      <trkpt lat="43.42263" lon="6.06512">
        <ele>254.9</ele>
        <time>2025-10-05T08:18:37.000Z</time>
      </trkpt>
      <trkpt lat="43.42263" lon="6.06511">
        <ele>254.9</ele>
        <time>2025-10-05T08:18:38.000Z</time>
      </trkpt>
      <trkpt lat="43.42263" lon="6.06511">
        <ele>254.8</ele>
        <time>2025-10-05T08:18:49.000Z</time>
      </trkpt>
      <trkpt lat="43.42263" lon="6.06511">
        <ele>254.9</ele>
        <time>2025-10-05T08:18:50.000Z</time>
      </trkpt>
      <trkpt lat="43.42263" lon="6.06511">
        <ele>254.9</ele>
        <time>2025-10-05T08:18:51.000Z</time>
      </trkpt>
      <trkpt lat="43.42263" lon="6.06511">
        <ele>255</ele>
        <time>2025-10-05T08:18:52.000Z</time>
      </trkpt>
      <trkpt lat="43.42263" lon="6.06511">
        <ele>255.2</ele>
        <time>2025-10-05T08:18:53.000Z</time>
      </trkpt>
      <trkpt lat="43.42263" lon="6.06512">
        <ele>255.3</ele>
        <time>2025-10-05T08:18:54.000Z</time>
      </trkpt>
      <trkpt lat="43.42262" lon="6.06511">
        <ele>255.6</ele>
        <time>2025-10-05T08:18:57.000Z</time>
      </trkpt>
      <trkpt lat="43.42262" lon="6.06511">
        <ele>255.6</ele>
        <time>2025-10-05T08:18:58.000Z</time>
      </trkpt>
      <trkpt lat="43.42262" lon="6.06512">
        <ele>255.6</ele>
        <time>2025-10-05T08:18:59.000Z</time>
      </trkpt>
      <trkpt lat="43.42262" lon="6.06512">
        <ele>255.6</ele>
        <time>2025-10-05T08:19:00.000Z</time>
      </trkpt>
      <trkpt lat="43.42262" lon="6.06512">
        <ele>255.6</ele>
        <time>2025-10-05T08:19:01.000Z</time>
      </trkpt>
      <trkpt lat="43.42262" lon="6.06512">
        <ele>255.6</ele>
        <time>2025-10-05T08:19:02.000Z</time>
      </trkpt>
      <trkpt lat="43.42262" lon="6.06512">
        <ele>255.6</ele>
        <time>2025-10-05T08:19:03.000Z</time>
      </trkpt>
      <trkpt lat="43.42262" lon="6.06512">
        <ele>255.6</ele>
        <time>2025-10-05T08:19:04.000Z</time>
      </trkpt>
      <trkpt lat="43.42262" lon="6.06513">
        <ele>255.5</ele>
        <time>2025-10-05T08:19:05.000Z</time>
      </trkpt>
      <trkpt lat="43.42262" lon="6.06513">
        <ele>255.5</ele>
        <time>2025-10-05T08:19:06.000Z</time>
      </trkpt>
      <trkpt lat="43.42262" lon="6.06513">
        <ele>255.5</ele>
        <time>2025-10-05T08:19:12.000Z</time>
      </trkpt>
      <trkpt lat="43.42263" lon="6.06512">
        <ele>255.5</ele>
        <time>2025-10-05T08:19:13.000Z</time>
      </trkpt>
      <trkpt lat="43.42263" lon="6.0651">
        <ele>255.4</ele>
        <time>2025-10-05T08:19:17.000Z</time>
      </trkpt>
      <trkpt lat="43.42262" lon="6.06509">
        <ele>255.4</ele>
        <time>2025-10-05T08:19:18.000Z</time>
      </trkpt>
      <trkpt lat="43.42262" lon="6.0651">
        <ele>255.2</ele>
        <time>2025-10-05T08:19:34.000Z</time>
      </trkpt>
      <trkpt lat="43.42262" lon="6.06511">
        <ele>255.2</ele>
        <time>2025-10-05T08:19:35.000Z</time>
      </trkpt>
      <trkpt lat="43.42262" lon="6.06511">
        <ele>255.2</ele>
        <time>2025-10-05T08:19:36.000Z</time>
      </trkpt>
      <trkpt lat="43.42262" lon="6.06511">
        <ele>255.2</ele>
        <time>2025-10-05T08:19:37.000Z</time>
      </trkpt>
      <trkpt lat="43.42262" lon="6.06511">
        <ele>255.2</ele>
        <time>2025-10-05T08:19:38.000Z</time>
      </trkpt>
      <trkpt lat="43.42262" lon="6.06512">
        <ele>255.2</ele>
        <time>2025-10-05T08:19:39.000Z</time>
      </trkpt>
      <trkpt lat="43.4226" lon="6.06512">
        <ele>255.2</ele>
        <time>2025-10-05T08:19:49.000Z</time>
      </trkpt>
      <trkpt lat="43.4226" lon="6.06512">
        <ele>255.2</ele>
        <time>2025-10-05T08:19:50.000Z</time>
      </trkpt>
      <trkpt lat="43.4226" lon="6.06513">
        <ele>255.2</ele>
        <time>2025-10-05T08:19:51.000Z</time>
      </trkpt>
      <trkpt lat="43.42262" lon="6.06514">
        <ele>255.2</ele>
        <time>2025-10-05T08:19:59.000Z</time>
      </trkpt>
      <trkpt lat="43.42262" lon="6.06514">
        <ele>255.2</ele>
        <time>2025-10-05T08:20:00.000Z</time>
      </trkpt>
      <trkpt lat="43.42262" lon="6.06515">
        <ele>255.2</ele>
        <time>2025-10-05T08:20:01.000Z</time>
      </trkpt>
      <trkpt lat="43.42262" lon="6.06515">
        <ele>255.2</ele>
        <time>2025-10-05T08:20:02.000Z</time>
      </trkpt>
      <trkpt lat="43.42262" lon="6.06515">
        <ele>255.2</ele>
        <time>2025-10-05T08:20:03.000Z</time>
      </trkpt>
      <trkpt lat="43.42262" lon="6.06515">
        <ele>255.2</ele>
        <time>2025-10-05T08:20:04.000Z</time>
      </trkpt>
      <trkpt lat="43.42262" lon="6.06515">
        <ele>255</ele>
        <time>2025-10-05T08:20:12.000Z</time>
      </trkpt>
      <trkpt lat="43.42262" lon="6.06515">
        <ele>255</ele>
        <time>2025-10-05T08:20:13.000Z</time>
      </trkpt>
      <trkpt lat="43.42262" lon="6.06515">
        <ele>254.6</ele>
        <time>2025-10-05T08:20:27.000Z</time>
      </trkpt>
      <trkpt lat="43.42262" lon="6.06515">
        <ele>254.6</ele>
        <time>2025-10-05T08:20:28.000Z</time>
      </trkpt>
      <trkpt lat="43.42268" lon="6.06512">
        <ele>254.8</ele>
        <time>2025-10-05T08:20:50.000Z</time>
      </trkpt>
      <trkpt lat="43.42268" lon="6.06512">
        <ele>254.8</ele>
        <time>2025-10-05T08:20:51.000Z</time>
      </trkpt>
      <trkpt lat="43.42269" lon="6.06512">
        <ele>254.8</ele>
        <time>2025-10-05T08:20:52.000Z</time>
      </trkpt>
      <trkpt lat="43.4227" lon="6.06513">
        <ele>254.8</ele>
        <time>2025-10-05T08:20:53.000Z</time>
      </trkpt>
      <trkpt lat="43.4227" lon="6.06512">
        <ele>254.9</ele>
        <time>2025-10-05T08:20:54.000Z</time>
      </trkpt>
      <trkpt lat="43.42278" lon="6.06506">
        <ele>255.7</ele>
        <time>2025-10-05T08:21:06.000Z</time>
      </trkpt>
      <trkpt lat="43.42284" lon="6.06495">
        <ele>256.6</ele>
        <time>2025-10-05T08:21:16.000Z</time>
      </trkpt>
      <trkpt lat="43.4229" lon="6.06486">
        <ele>256.9</ele>
        <time>2025-10-05T08:21:23.000Z</time>
      </trkpt>
      <trkpt lat="43.42298" lon="6.06479">
        <ele>257.1</ele>
        <time>2025-10-05T08:21:33.000Z</time>
      </trkpt>
      <trkpt lat="43.42306" lon="6.06472">
        <ele>257.6</ele>
        <time>2025-10-05T08:21:43.000Z</time>
      </trkpt>
      <trkpt lat="43.42313" lon="6.06462">
        <ele>258.3</ele>
        <time>2025-10-05T08:21:52.000Z</time>
      </trkpt>
      <trkpt lat="43.42321" lon="6.06454">
        <ele>258.8</ele>
        <time>2025-10-05T08:22:01.000Z</time>
      </trkpt>
      <trkpt lat="43.42329" lon="6.06447">
        <ele>259.7</ele>
        <time>2025-10-05T08:22:12.000Z</time>
      </trkpt>
      <trkpt lat="43.42335" lon="6.06437">
        <ele>260.1</ele>
        <time>2025-10-05T08:22:16.000Z</time>
      </trkpt>
      <trkpt lat="43.42344" lon="6.0643">
        <ele>260.6</ele>
        <time>2025-10-05T08:22:26.000Z</time>
      </trkpt>
      <trkpt lat="43.42351" lon="6.06423">
        <ele>260.6</ele>
        <time>2025-10-05T08:22:35.000Z</time>
      </trkpt>
      <trkpt lat="43.4236" lon="6.06416">
        <ele>260.5</ele>
        <time>2025-10-05T08:22:45.000Z</time>
      </trkpt>
      <trkpt lat="43.42368" lon="6.06409">
        <ele>260.6</ele>
        <time>2025-10-05T08:22:52.000Z</time>
      </trkpt>
      <trkpt lat="43.42376" lon="6.06403">
        <ele>261.1</ele>
        <time>2025-10-05T08:23:01.000Z</time>
      </trkpt>
      <trkpt lat="43.42385" lon="6.06407">
        <ele>261.2</ele>
        <time>2025-10-05T08:23:09.000Z</time>
      </trkpt>
      <trkpt lat="43.42394" lon="6.06412">
        <ele>261.3</ele>
        <time>2025-10-05T08:23:20.000Z</time>
      </trkpt>
      <trkpt lat="43.42404" lon="6.06415">
        <ele>261.7</ele>
        <time>2025-10-05T08:23:29.000Z</time>
      </trkpt>
      <trkpt lat="43.42414" lon="6.06414">
        <ele>262.3</ele>
        <time>2025-10-05T08:23:37.000Z</time>
      </trkpt>
      <trkpt lat="43.42423" lon="6.0641">
        <ele>262.5</ele>
        <time>2025-10-05T08:23:47.000Z</time>
      </trkpt>
      <trkpt lat="43.42431" lon="6.06406">
        <ele>262.4</ele>
        <time>2025-10-05T08:23:57.000Z</time>
      </trkpt>
      <trkpt lat="43.42441" lon="6.064">
        <ele>262.3</ele>
        <time>2025-10-05T08:24:06.000Z</time>
      </trkpt>
      <trkpt lat="43.4245" lon="6.06395">
        <ele>262.3</ele>
        <time>2025-10-05T08:24:13.000Z</time>
      </trkpt>
      <trkpt lat="43.42459" lon="6.06394">
        <ele>262.4</ele>
        <time>2025-10-05T08:24:21.000Z</time>
      </trkpt>
      <trkpt lat="43.42469" lon="6.06392">
        <ele>262.6</ele>
        <time>2025-10-05T08:24:30.000Z</time>
      </trkpt>
      <trkpt lat="43.42478" lon="6.06388">
        <ele>262.8</ele>
        <time>2025-10-05T08:24:37.000Z</time>
      </trkpt>
      <trkpt lat="43.42487" lon="6.06386">
        <ele>263.1</ele>
        <time>2025-10-05T08:24:45.000Z</time>
      </trkpt>
      <trkpt lat="43.42496" lon="6.06382">
        <ele>263.2</ele>
        <time>2025-10-05T08:24:53.000Z</time>
      </trkpt>
      <trkpt lat="43.42505" lon="6.06376">
        <ele>263.4</ele>
        <time>2025-10-05T08:25:02.000Z</time>
      </trkpt>
      <trkpt lat="43.42514" lon="6.06373">
        <ele>263.9</ele>
        <time>2025-10-05T08:25:11.000Z</time>
      </trkpt>
      <trkpt lat="43.42524" lon="6.06371">
        <ele>264.6</ele>
        <time>2025-10-05T08:25:20.000Z</time>
      </trkpt>
      <trkpt lat="43.42533" lon="6.06366">
        <ele>265.3</ele>
        <time>2025-10-05T08:25:28.000Z</time>
      </trkpt>
      <trkpt lat="43.42543" lon="6.06363">
        <ele>266.6</ele>
        <time>2025-10-05T08:25:38.000Z</time>
      </trkpt>
      <trkpt lat="43.4255" lon="6.06356">
        <ele>267.7</ele>
        <time>2025-10-05T08:25:46.000Z</time>
      </trkpt>
      <trkpt lat="43.42558" lon="6.06348">
        <ele>268.2</ele>
        <time>2025-10-05T08:25:55.000Z</time>
      </trkpt>
      <trkpt lat="43.42567" lon="6.06343">
        <ele>268.6</ele>
        <time>2025-10-05T08:26:06.000Z</time>
      </trkpt>
      <trkpt lat="43.42575" lon="6.06337">
        <ele>269</ele>
        <time>2025-10-05T08:26:17.000Z</time>
      </trkpt>
      <trkpt lat="43.42582" lon="6.06329">
        <ele>269.5</ele>
        <time>2025-10-05T08:26:28.000Z</time>
      </trkpt>
      <trkpt lat="43.42591" lon="6.06322">
        <ele>270.2</ele>
        <time>2025-10-05T08:26:38.000Z</time>
      </trkpt>
      <trkpt lat="43.426" lon="6.06318">
        <ele>270.9</ele>
        <time>2025-10-05T08:26:48.000Z</time>
      </trkpt>
      <trkpt lat="43.42609" lon="6.06315">
        <ele>271.3</ele>
        <time>2025-10-05T08:26:56.000Z</time>
      </trkpt>
      <trkpt lat="43.42619" lon="6.06317">
        <ele>271.5</ele>
        <time>2025-10-05T08:27:05.000Z</time>
      </trkpt>
      <trkpt lat="43.42627" lon="6.06321">
        <ele>271.7</ele>
        <time>2025-10-05T08:27:16.000Z</time>
      </trkpt>
      <trkpt lat="43.42637" lon="6.06325">
        <ele>272.1</ele>
        <time>2025-10-05T08:27:28.000Z</time>
      </trkpt>
      <trkpt lat="43.42646" lon="6.06326">
        <ele>272.5</ele>
        <time>2025-10-05T08:27:37.000Z</time>
      </trkpt>
      <trkpt lat="43.42656" lon="6.06327">
        <ele>273.1</ele>
        <time>2025-10-05T08:27:51.000Z</time>
      </trkpt>
      <trkpt lat="43.42665" lon="6.06329">
        <ele>273.4</ele>
        <time>2025-10-05T08:27:58.000Z</time>
      </trkpt>
      <trkpt lat="43.42674" lon="6.06334">
        <ele>273.9</ele>
        <time>2025-10-05T08:28:08.000Z</time>
      </trkpt>
      <trkpt lat="43.42683" lon="6.06334">
        <ele>275.5</ele>
        <time>2025-10-05T08:28:18.000Z</time>
      </trkpt>
      <trkpt lat="43.42683" lon="6.06334">
        <ele>276.1</ele>
        <time>2025-10-05T08:28:22.000Z</time>
      </trkpt>
      <trkpt lat="43.42684" lon="6.06334">
        <ele>276.2</ele>
        <time>2025-10-05T08:28:23.000Z</time>
      </trkpt>
      <trkpt lat="43.42684" lon="6.06332">
        <ele>276.5</ele>
        <time>2025-10-05T08:28:27.000Z</time>
      </trkpt>
      <trkpt lat="43.42684" lon="6.06332">
        <ele>276.5</ele>
        <time>2025-10-05T08:28:28.000Z</time>
      </trkpt>
      <trkpt lat="43.42683" lon="6.06326">
        <ele>276.4</ele>
        <time>2025-10-05T08:28:35.000Z</time>
      </trkpt>
      <trkpt lat="43.42683" lon="6.06326">
        <ele>276.4</ele>
        <time>2025-10-05T08:28:36.000Z</time>
      </trkpt>
      <trkpt lat="43.42683" lon="6.06326">
        <ele>276.4</ele>
        <time>2025-10-05T08:28:37.000Z</time>
      </trkpt>
      <trkpt lat="43.42683" lon="6.06326">
        <ele>276.4</ele>
        <time>2025-10-05T08:28:38.000Z</time>
      </trkpt>
      <trkpt lat="43.42683" lon="6.06326">
        <ele>276.4</ele>
        <time>2025-10-05T08:28:39.000Z</time>
      </trkpt>
      <trkpt lat="43.42683" lon="6.06326">
        <ele>276.4</ele>
        <time>2025-10-05T08:28:42.000Z</time>
      </trkpt>
      <trkpt lat="43.42683" lon="6.06326">
        <ele>276.4</ele>
        <time>2025-10-05T08:28:43.000Z</time>
      </trkpt>
      <trkpt lat="43.42683" lon="6.06326">
        <ele>276.5</ele>
        <time>2025-10-05T08:28:44.000Z</time>
      </trkpt>
      <trkpt lat="43.42682" lon="6.06325">
        <ele>276.2</ele>
        <time>2025-10-05T08:29:02.000Z</time>
      </trkpt>
      <trkpt lat="43.42682" lon="6.06325">
        <ele>276.2</ele>
        <time>2025-10-05T08:29:03.000Z</time>
      </trkpt>
      <trkpt lat="43.42682" lon="6.06325">
        <ele>276.2</ele>
        <time>2025-10-05T08:29:04.000Z</time>
      </trkpt>
      <trkpt lat="43.42682" lon="6.06325">
        <ele>276.3</ele>
        <time>2025-10-05T08:29:07.000Z</time>
      </trkpt>
      <trkpt lat="43.42682" lon="6.06325">
        <ele>276.4</ele>
        <time>2025-10-05T08:29:08.000Z</time>
      </trkpt>
      <trkpt lat="43.42682" lon="6.06324">
        <ele>276.9</ele>
        <time>2025-10-05T08:29:22.000Z</time>
      </trkpt>
      <trkpt lat="43.42682" lon="6.06323">
        <ele>276.9</ele>
        <time>2025-10-05T08:29:23.000Z</time>
      </trkpt>
      <trkpt lat="43.4269" lon="6.06315">
        <ele>276.8</ele>
        <time>2025-10-05T08:29:39.000Z</time>
      </trkpt>
      <trkpt lat="43.42696" lon="6.06304">
        <ele>277.6</ele>
        <time>2025-10-05T08:29:51.000Z</time>
      </trkpt>
      <trkpt lat="43.42697" lon="6.06292">
        <ele>279</ele>
        <time>2025-10-05T08:30:03.000Z</time>
      </trkpt>
      <trkpt lat="43.42699" lon="6.06279">
        <ele>280.4</ele>
        <time>2025-10-05T08:30:16.000Z</time>
      </trkpt>
      <trkpt lat="43.42702" lon="6.06267">
        <ele>282.2</ele>
        <time>2025-10-05T08:30:32.000Z</time>
      </trkpt>
      <trkpt lat="43.42705" lon="6.06254">
        <ele>285.2</ele>
        <time>2025-10-05T08:30:52.000Z</time>
      </trkpt>
      <trkpt lat="43.42709" lon="6.06243">
        <ele>289</ele>
        <time>2025-10-05T08:31:17.000Z</time>
      </trkpt>
      <trkpt lat="43.42712" lon="6.06231">
        <ele>292.9</ele>
        <time>2025-10-05T08:31:42.000Z</time>
      </trkpt>
      <trkpt lat="43.42716" lon="6.0622">
        <ele>295.8</ele>
        <time>2025-10-05T08:32:12.000Z</time>
      </trkpt>
      <trkpt lat="43.42719" lon="6.06208">
        <ele>298.8</ele>
        <time>2025-10-05T08:32:32.000Z</time>
      </trkpt>
      <trkpt lat="43.4272" lon="6.06195">
        <ele>300.1</ele>
        <time>2025-10-05T08:32:47.000Z</time>
      </trkpt>
      <trkpt lat="43.42721" lon="6.06183">
        <ele>301.6</ele>
        <time>2025-10-05T08:33:07.000Z</time>
      </trkpt>
      <trkpt lat="43.42721" lon="6.06183">
        <ele>301.6</ele>
        <time>2025-10-05T08:33:08.000Z</time>
      </trkpt>
      <trkpt lat="43.42722" lon="6.06182">
        <ele>301.6</ele>
        <time>2025-10-05T08:33:09.000Z</time>
      </trkpt>
      <trkpt lat="43.42722" lon="6.06181">
        <ele>301.6</ele>
        <time>2025-10-05T08:33:10.000Z</time>
      </trkpt>
      <trkpt lat="43.42722" lon="6.0618">
        <ele>301.6</ele>
        <time>2025-10-05T08:33:11.000Z</time>
      </trkpt>
      <trkpt lat="43.42726" lon="6.06169">
        <ele>302.2</ele>
        <time>2025-10-05T08:33:22.000Z</time>
      </trkpt>
      <trkpt lat="43.42729" lon="6.06156">
        <ele>303.1</ele>
        <time>2025-10-05T08:33:32.000Z</time>
      </trkpt>
      <trkpt lat="43.4273" lon="6.06144">
        <ele>303.7</ele>
        <time>2025-10-05T08:33:42.000Z</time>
      </trkpt>
      <trkpt lat="43.42732" lon="6.06132">
        <ele>303.8</ele>
        <time>2025-10-05T08:33:52.000Z</time>
      </trkpt>
      <trkpt lat="43.42734" lon="6.06119">
        <ele>304.4</ele>
        <time>2025-10-05T08:34:05.000Z</time>
      </trkpt>
      <trkpt lat="43.42737" lon="6.06108">
        <ele>307</ele>
        <time>2025-10-05T08:34:30.000Z</time>
      </trkpt>
      <trkpt lat="43.42737" lon="6.06108">
        <ele>307</ele>
        <time>2025-10-05T08:34:31.000Z</time>
      </trkpt>
      <trkpt lat="43.42737" lon="6.06108">
        <ele>307.1</ele>
        <time>2025-10-05T08:34:32.000Z</time>
      </trkpt>
      <trkpt lat="43.42737" lon="6.06108">
        <ele>307.1</ele>
        <time>2025-10-05T08:34:33.000Z</time>
      </trkpt>
      <trkpt lat="43.42742" lon="6.06097">
        <ele>309.4</ele>
        <time>2025-10-05T08:34:52.000Z</time>
      </trkpt>
      <trkpt lat="43.42747" lon="6.06087">
        <ele>312</ele>
        <time>2025-10-05T08:35:10.000Z</time>
      </trkpt>
      <trkpt lat="43.42748" lon="6.06077">
        <ele>314.1</ele>
        <time>2025-10-05T08:35:30.000Z</time>
      </trkpt>
      <trkpt lat="43.42748" lon="6.06077">
        <ele>314.2</ele>
        <time>2025-10-05T08:35:31.000Z</time>
      </trkpt>
      <trkpt lat="43.42747" lon="6.06076">
        <ele>314.9</ele>
        <time>2025-10-05T08:35:38.000Z</time>
      </trkpt>
      <trkpt lat="43.42747" lon="6.06075">
        <ele>314.9</ele>
        <time>2025-10-05T08:35:39.000Z</time>
      </trkpt>
      <trkpt lat="43.42751" lon="6.06064">
        <ele>317.4</ele>
        <time>2025-10-05T08:36:06.000Z</time>
      </trkpt>
      <trkpt lat="43.42756" lon="6.06053">
        <ele>320.6</ele>
        <time>2025-10-05T08:36:30.000Z</time>
      </trkpt>
      <trkpt lat="43.42761" lon="6.06043">
        <ele>322.2</ele>
        <time>2025-10-05T08:36:53.000Z</time>
      </trkpt>
      <trkpt lat="43.42766" lon="6.06031">
        <ele>324</ele>
        <time>2025-10-05T08:37:11.000Z</time>
      </trkpt>
      <trkpt lat="43.42766" lon="6.06018">
        <ele>325.8</ele>
        <time>2025-10-05T08:37:27.000Z</time>
      </trkpt>
      <trkpt lat="43.42772" lon="6.06008">
        <ele>327.1</ele>
        <time>2025-10-05T08:37:40.000Z</time>
      </trkpt>
      <trkpt lat="43.42775" lon="6.05996">
        <ele>328.4</ele>
        <time>2025-10-05T08:37:52.000Z</time>
      </trkpt>
      <trkpt lat="43.42777" lon="6.05983">
        <ele>329.6</ele>
        <time>2025-10-05T08:38:03.000Z</time>
      </trkpt>
      <trkpt lat="43.42771" lon="6.05973">
        <ele>330.1</ele>
        <time>2025-10-05T08:38:19.000Z</time>
      </trkpt>
      <trkpt lat="43.42764" lon="6.05975">
        <ele>330.3</ele>
        <time>2025-10-05T08:38:32.000Z</time>
      </trkpt>
      <trkpt lat="43.42764" lon="6.05976">
        <ele>330.3</ele>
        <time>2025-10-05T08:38:33.000Z</time>
      </trkpt>
      <trkpt lat="43.42764" lon="6.05976">
        <ele>330.4</ele>
        <time>2025-10-05T08:38:37.000Z</time>
      </trkpt>
      <trkpt lat="43.42764" lon="6.05977">
        <ele>330.4</ele>
        <time>2025-10-05T08:38:38.000Z</time>
      </trkpt>
      <trkpt lat="43.42763" lon="6.05978">
        <ele>330.5</ele>
        <time>2025-10-05T08:38:39.000Z</time>
      </trkpt>
      <trkpt lat="43.42763" lon="6.05979">
        <ele>330.5</ele>
        <time>2025-10-05T08:38:44.000Z</time>
      </trkpt>
      <trkpt lat="43.42763" lon="6.05979">
        <ele>330.5</ele>
        <time>2025-10-05T08:38:45.000Z</time>
      </trkpt>
      <trkpt lat="43.42763" lon="6.05979">
        <ele>330.5</ele>
        <time>2025-10-05T08:38:46.000Z</time>
      </trkpt>
      <trkpt lat="43.42763" lon="6.05979">
        <ele>330.6</ele>
        <time>2025-10-05T08:38:49.000Z</time>
      </trkpt>
      <trkpt lat="43.42763" lon="6.05979">
        <ele>330.5</ele>
        <time>2025-10-05T08:38:50.000Z</time>
      </trkpt>
      <trkpt lat="43.42763" lon="6.05979">
        <ele>330.5</ele>
        <time>2025-10-05T08:38:51.000Z</time>
      </trkpt>
      <trkpt lat="43.42763" lon="6.05978">
        <ele>330.6</ele>
        <time>2025-10-05T08:39:00.000Z</time>
      </trkpt>
      <trkpt lat="43.42763" lon="6.05978">
        <ele>330.6</ele>
        <time>2025-10-05T08:39:01.000Z</time>
      </trkpt>
      <trkpt lat="43.42763" lon="6.05978">
        <ele>330.6</ele>
        <time>2025-10-05T08:39:13.000Z</time>
      </trkpt>
      <trkpt lat="43.42763" lon="6.05978">
        <ele>330.6</ele>
        <time>2025-10-05T08:39:14.000Z</time>
      </trkpt>
      <trkpt lat="43.42763" lon="6.05978">
        <ele>330.6</ele>
        <time>2025-10-05T08:39:17.000Z</time>
      </trkpt>
      <trkpt lat="43.42763" lon="6.05978">
        <ele>330.6</ele>
        <time>2025-10-05T08:39:18.000Z</time>
      </trkpt>
      <trkpt lat="43.42763" lon="6.05978">
        <ele>330.6</ele>
        <time>2025-10-05T08:39:19.000Z</time>
      </trkpt>
      <trkpt lat="43.42763" lon="6.05978">
        <ele>330.6</ele>
        <time>2025-10-05T08:39:24.000Z</time>
      </trkpt>
      <trkpt lat="43.42763" lon="6.05978">
        <ele>330.6</ele>
        <time>2025-10-05T08:39:25.000Z</time>
      </trkpt>
      <trkpt lat="43.42763" lon="6.05978">
        <ele>330.6</ele>
        <time>2025-10-05T08:39:26.000Z</time>
      </trkpt>
      <trkpt lat="43.42763" lon="6.05978">
        <ele>330.6</ele>
        <time>2025-10-05T08:39:27.000Z</time>
      </trkpt>
      <trkpt lat="43.42763" lon="6.05978">
        <ele>330.6</ele>
        <time>2025-10-05T08:39:28.000Z</time>
      </trkpt>
      <trkpt lat="43.42763" lon="6.0598">
        <ele>330.5</ele>
        <time>2025-10-05T08:41:08.000Z</time>
      </trkpt>
      <trkpt lat="43.42763" lon="6.05981">
        <ele>330.5</ele>
        <time>2025-10-05T08:41:09.000Z</time>
      </trkpt>
      <trkpt lat="43.42763" lon="6.05981">
        <ele>330.5</ele>
        <time>2025-10-05T08:41:10.000Z</time>
      </trkpt>
      <trkpt lat="43.42763" lon="6.05981">
        <ele>330.5</ele>
        <time>2025-10-05T08:41:11.000Z</time>
      </trkpt>
      <trkpt lat="43.42763" lon="6.05983">
        <ele>330.5</ele>
        <time>2025-10-05T08:43:00.000Z</time>
      </trkpt>
      <trkpt lat="43.42763" lon="6.05983">
        <ele>330.6</ele>
        <time>2025-10-05T08:43:01.000Z</time>
      </trkpt>
      <trkpt lat="43.42763" lon="6.05983">
        <ele>330.6</ele>
        <time>2025-10-05T08:43:02.000Z</time>
      </trkpt>
      <trkpt lat="43.42763" lon="6.05983">
        <ele>330.6</ele>
        <time>2025-10-05T08:43:03.000Z</time>
      </trkpt>
      <trkpt lat="43.42763" lon="6.05983">
        <ele>330.7</ele>
        <time>2025-10-05T08:43:04.000Z</time>
      </trkpt>
      <trkpt lat="43.42762" lon="6.05983">
        <ele>329.8</ele>
        <time>2025-10-05T08:45:19.000Z</time>
      </trkpt>
      <trkpt lat="43.42762" lon="6.05983">
        <ele>329.8</ele>
        <time>2025-10-05T08:45:20.000Z</time>
      </trkpt>
      <trkpt lat="43.42762" lon="6.05983">
        <ele>329.8</ele>
        <time>2025-10-05T08:45:21.000Z</time>
      </trkpt>
      <trkpt lat="43.42762" lon="6.05983">
        <ele>329.8</ele>
        <time>2025-10-05T08:45:22.000Z</time>
      </trkpt>
      <trkpt lat="43.42762" lon="6.05983">
        <ele>329.8</ele>
        <time>2025-10-05T08:45:23.000Z</time>
      </trkpt>
      <trkpt lat="43.42762" lon="6.05983">
        <ele>329.8</ele>
        <time>2025-10-05T08:45:24.000Z</time>
      </trkpt>
      <trkpt lat="43.42762" lon="6.05984">
        <ele>329.6</ele>
        <time>2025-10-05T08:46:25.000Z</time>
      </trkpt>
      <trkpt lat="43.42762" lon="6.05984">
        <ele>329.6</ele>
        <time>2025-10-05T08:46:26.000Z</time>
      </trkpt>
      <trkpt lat="43.42762" lon="6.05984">
        <ele>329.6</ele>
        <time>2025-10-05T08:46:27.000Z</time>
      </trkpt>
      <trkpt lat="43.42762" lon="6.05984">
        <ele>329.6</ele>
        <time>2025-10-05T08:46:28.000Z</time>
      </trkpt>
      <trkpt lat="43.42762" lon="6.05984">
        <ele>329.6</ele>
        <time>2025-10-05T08:46:29.000Z</time>
      </trkpt>
      <trkpt lat="43.42762" lon="6.05982">
        <ele>329.4</ele>
        <time>2025-10-05T08:46:44.000Z</time>
      </trkpt>
      <trkpt lat="43.42762" lon="6.05982">
        <ele>329.3</ele>
        <time>2025-10-05T08:46:45.000Z</time>
      </trkpt>
      <trkpt lat="43.42762" lon="6.05982">
        <ele>329.4</ele>
        <time>2025-10-05T08:46:46.000Z</time>
      </trkpt>
      <trkpt lat="43.4276" lon="6.05979">
        <ele>329.5</ele>
        <time>2025-10-05T08:47:00.000Z</time>
      </trkpt>
      <trkpt lat="43.4276" lon="6.05979">
        <ele>329.5</ele>
        <time>2025-10-05T08:47:01.000Z</time>
      </trkpt>
      <trkpt lat="43.4276" lon="6.05979">
        <ele>329.5</ele>
        <time>2025-10-05T08:47:07.000Z</time>
      </trkpt>
      <trkpt lat="43.42761" lon="6.05979">
        <ele>329.5</ele>
        <time>2025-10-05T08:47:08.000Z</time>
      </trkpt>
      <trkpt lat="43.42762" lon="6.05966">
        <ele>329.5</ele>
        <time>2025-10-05T08:47:26.000Z</time>
      </trkpt>
      <trkpt lat="43.42753" lon="6.05969">
        <ele>329.8</ele>
        <time>2025-10-05T08:48:07.000Z</time>
      </trkpt>
      <trkpt lat="43.4275" lon="6.05957">
        <ele>329.8</ele>
        <time>2025-10-05T08:48:48.000Z</time>
      </trkpt>
      <trkpt lat="43.42742" lon="6.05951">
        <ele>330</ele>
        <time>2025-10-05T08:48:59.000Z</time>
      </trkpt>
      <trkpt lat="43.42733" lon="6.0595">
        <ele>330.4</ele>
        <time>2025-10-05T08:49:10.000Z</time>
      </trkpt>
      <trkpt lat="43.42724" lon="6.05955">
        <ele>330.4</ele>
        <time>2025-10-05T08:49:22.000Z</time>
      </trkpt>
      <trkpt lat="43.42715" lon="6.05954">
        <ele>330.1</ele>
        <time>2025-10-05T08:49:34.000Z</time>
      </trkpt>
      <trkpt lat="43.42706" lon="6.05957">
        <ele>329.8</ele>
        <time>2025-10-05T08:49:47.000Z</time>
      </trkpt>
      <trkpt lat="43.42697" lon="6.05956">
        <ele>329.3</ele>
        <time>2025-10-05T08:50:14.000Z</time>
      </trkpt>
      <trkpt lat="43.42688" lon="6.05955">
        <ele>329.6</ele>
        <time>2025-10-05T08:50:40.000Z</time>
      </trkpt>
      <trkpt lat="43.42681" lon="6.05946">
        <ele>330</ele>
        <time>2025-10-05T08:50:58.000Z</time>
      </trkpt>
      <trkpt lat="43.42673" lon="6.05939">
        <ele>329.7</ele>
        <time>2025-10-05T08:51:21.000Z</time>
      </trkpt>
      <trkpt lat="43.42664" lon="6.05936">
        <ele>329.6</ele>
        <time>2025-10-05T08:51:40.000Z</time>
      </trkpt>
      <trkpt lat="43.42655" lon="6.05934">
        <ele>329.3</ele>
        <time>2025-10-05T08:51:58.000Z</time>
      </trkpt>
      <trkpt lat="43.42647" lon="6.05926">
        <ele>329.2</ele>
        <time>2025-10-05T08:52:19.000Z</time>
      </trkpt>
      <trkpt lat="43.42642" lon="6.05926">
        <ele>329.2</ele>
        <time>2025-10-05T08:52:30.000Z</time>
      </trkpt>
      <trkpt lat="43.42642" lon="6.05926">
        <ele>329.2</ele>
        <time>2025-10-05T08:52:31.000Z</time>
      </trkpt>
      <trkpt lat="43.42642" lon="6.05926">
        <ele>329.3</ele>
        <time>2025-10-05T08:52:34.000Z</time>
      </trkpt>
      <trkpt lat="43.42641" lon="6.05926">
        <ele>329.3</ele>
        <time>2025-10-05T08:52:35.000Z</time>
      </trkpt>
      <trkpt lat="43.42641" lon="6.05926">
        <ele>329.3</ele>
        <time>2025-10-05T08:52:36.000Z</time>
      </trkpt>
      <trkpt lat="43.42632" lon="6.05923">
        <ele>329.4</ele>
        <time>2025-10-05T08:52:53.000Z</time>
      </trkpt>
      <trkpt lat="43.42631" lon="6.05926">
        <ele>329.4</ele>
        <time>2025-10-05T08:53:02.000Z</time>
      </trkpt>
      <trkpt lat="43.42631" lon="6.05926">
        <ele>329.4</ele>
        <time>2025-10-05T08:53:03.000Z</time>
      </trkpt>
      <trkpt lat="43.42631" lon="6.05925">
        <ele>329.4</ele>
        <time>2025-10-05T08:53:07.000Z</time>
      </trkpt>
      <trkpt lat="43.4263" lon="6.05925">
        <ele>329.4</ele>
        <time>2025-10-05T08:53:08.000Z</time>
      </trkpt>
      <trkpt lat="43.42629" lon="6.05925">
        <ele>329.4</ele>
        <time>2025-10-05T08:53:09.000Z</time>
      </trkpt>
      <trkpt lat="43.4262" lon="6.05926">
        <ele>329.4</ele>
        <time>2025-10-05T08:53:20.000Z</time>
      </trkpt>
      <trkpt lat="43.42611" lon="6.05929">
        <ele>329.4</ele>
        <time>2025-10-05T08:53:32.000Z</time>
      </trkpt>
      <trkpt lat="43.42602" lon="6.0593">
        <ele>329.3</ele>
        <time>2025-10-05T08:53:47.000Z</time>
      </trkpt>
      <trkpt lat="43.42596" lon="6.05933">
        <ele>329.4</ele>
        <time>2025-10-05T08:54:05.000Z</time>
      </trkpt>
      <trkpt lat="43.42595" lon="6.05936">
        <ele>329.4</ele>
        <time>2025-10-05T08:54:06.000Z</time>
      </trkpt>
      <trkpt lat="43.42595" lon="6.05937">
        <ele>329.5</ele>
        <time>2025-10-05T08:54:12.000Z</time>
      </trkpt>
      <trkpt lat="43.42595" lon="6.05937">
        <ele>329.5</ele>
        <time>2025-10-05T08:54:13.000Z</time>
      </trkpt>
      <trkpt lat="43.42595" lon="6.05937">
        <ele>329.5</ele>
        <time>2025-10-05T08:54:14.000Z</time>
      </trkpt>
      <trkpt lat="43.42595" lon="6.05937">
        <ele>329.6</ele>
        <time>2025-10-05T08:54:15.000Z</time>
      </trkpt>
      <trkpt lat="43.42595" lon="6.05937">
        <ele>329.6</ele>
        <time>2025-10-05T08:54:16.000Z</time>
      </trkpt>
      <trkpt lat="43.42595" lon="6.05937">
        <ele>329.6</ele>
        <time>2025-10-05T08:54:17.000Z</time>
      </trkpt>
      <trkpt lat="43.42595" lon="6.05937">
        <ele>329.7</ele>
        <time>2025-10-05T08:54:30.000Z</time>
      </trkpt>
      <trkpt lat="43.42595" lon="6.05937">
        <ele>329.7</ele>
        <time>2025-10-05T08:54:31.000Z</time>
      </trkpt>
      <trkpt lat="43.42595" lon="6.05937">
        <ele>329.8</ele>
        <time>2025-10-05T08:54:32.000Z</time>
      </trkpt>
      <trkpt lat="43.42595" lon="6.05937">
        <ele>329.8</ele>
        <time>2025-10-05T08:54:33.000Z</time>
      </trkpt>
      <trkpt lat="43.42595" lon="6.05937">
        <ele>329.8</ele>
        <time>2025-10-05T08:54:34.000Z</time>
      </trkpt>
      <trkpt lat="43.42595" lon="6.05938">
        <ele>329.9</ele>
        <time>2025-10-05T08:54:48.000Z</time>
      </trkpt>
      <trkpt lat="43.42595" lon="6.05938">
        <ele>329.9</ele>
        <time>2025-10-05T08:54:49.000Z</time>
      </trkpt>
      <trkpt lat="43.42586" lon="6.05935">
        <ele>330.1</ele>
        <time>2025-10-05T08:55:05.000Z</time>
      </trkpt>
      <trkpt lat="43.42576" lon="6.05938">
        <ele>330.8</ele>
        <time>2025-10-05T08:55:20.000Z</time>
      </trkpt>
      <trkpt lat="43.42568" lon="6.05934">
        <ele>332.6</ele>
        <time>2025-10-05T08:55:41.000Z</time>
      </trkpt>
      <trkpt lat="43.42558" lon="6.05935">
        <ele>335.2</ele>
        <time>2025-10-05T08:56:22.000Z</time>
      </trkpt>
      <trkpt lat="43.4255" lon="6.05931">
        <ele>335.6</ele>
        <time>2025-10-05T08:56:43.000Z</time>
      </trkpt>
      <trkpt lat="43.42544" lon="6.05926">
        <ele>336</ele>
        <time>2025-10-05T08:57:00.000Z</time>
      </trkpt>
      <trkpt lat="43.42544" lon="6.05927">
        <ele>336</ele>
        <time>2025-10-05T08:57:01.000Z</time>
      </trkpt>
      <trkpt lat="43.42543" lon="6.05927">
        <ele>336.2</ele>
        <time>2025-10-05T08:57:05.000Z</time>
      </trkpt>
      <trkpt lat="43.42543" lon="6.05927">
        <ele>336.2</ele>
        <time>2025-10-05T08:57:06.000Z</time>
      </trkpt>
      <trkpt lat="43.42542" lon="6.05927">
        <ele>336.2</ele>
        <time>2025-10-05T08:57:07.000Z</time>
      </trkpt>
      <trkpt lat="43.42533" lon="6.05931">
        <ele>337.1</ele>
        <time>2025-10-05T08:57:26.000Z</time>
      </trkpt>
      <trkpt lat="43.42527" lon="6.0594">
        <ele>338.8</ele>
        <time>2025-10-05T08:57:44.000Z</time>
      </trkpt>
      <trkpt lat="43.4252" lon="6.05949">
        <ele>339.4</ele>
        <time>2025-10-05T08:58:05.000Z</time>
      </trkpt>
      <trkpt lat="43.42514" lon="6.05959">
        <ele>339.9</ele>
        <time>2025-10-05T08:58:20.000Z</time>
      </trkpt>
      <trkpt lat="43.42508" lon="6.05968">
        <ele>341</ele>
        <time>2025-10-05T08:58:39.000Z</time>
      </trkpt>
      <trkpt lat="43.425" lon="6.05975">
        <ele>343.3</ele>
        <time>2025-10-05T08:58:59.000Z</time>
      </trkpt>
      <trkpt lat="43.42497" lon="6.05987">
        <ele>344.3</ele>
        <time>2025-10-05T08:59:11.000Z</time>
      </trkpt>
      <trkpt lat="43.42488" lon="6.05988">
        <ele>344.9</ele>
        <time>2025-10-05T08:59:27.000Z</time>
      </trkpt>
      <trkpt lat="43.42479" lon="6.05987">
        <ele>346.5</ele>
        <time>2025-10-05T08:59:43.000Z</time>
      </trkpt>
      <trkpt lat="43.42472" lon="6.05996">
        <ele>348.1</ele>
        <time>2025-10-05T09:00:00.000Z</time>
      </trkpt>
      <trkpt lat="43.42471" lon="6.06001">
        <ele>348.6</ele>
        <time>2025-10-05T09:00:10.000Z</time>
      </trkpt>
      <trkpt lat="43.42471" lon="6.06001">
        <ele>348.6</ele>
        <time>2025-10-05T09:00:11.000Z</time>
      </trkpt>
      <trkpt lat="43.42471" lon="6.06001">
        <ele>348.6</ele>
        <time>2025-10-05T09:00:12.000Z</time>
      </trkpt>
      <trkpt lat="43.42471" lon="6.06001">
        <ele>348.6</ele>
        <time>2025-10-05T09:00:13.000Z</time>
      </trkpt>
      <trkpt lat="43.42471" lon="6.06001">
        <ele>348.6</ele>
        <time>2025-10-05T09:00:14.000Z</time>
      </trkpt>
      <trkpt lat="43.42471" lon="6.06001">
        <ele>348.6</ele>
        <time>2025-10-05T09:00:15.000Z</time>
      </trkpt>
      <trkpt lat="43.42471" lon="6.06001">
        <ele>348.6</ele>
        <time>2025-10-05T09:00:16.000Z</time>
      </trkpt>
      <trkpt lat="43.42471" lon="6.06001">
        <ele>348.6</ele>
        <time>2025-10-05T09:00:17.000Z</time>
      </trkpt>
      <trkpt lat="43.42471" lon="6.06001">
        <ele>348.5</ele>
        <time>2025-10-05T09:00:23.000Z</time>
      </trkpt>
      <trkpt lat="43.42471" lon="6.06001">
        <ele>348.5</ele>
        <time>2025-10-05T09:00:24.000Z</time>
      </trkpt>
      <trkpt lat="43.42471" lon="6.06001">
        <ele>348.5</ele>
        <time>2025-10-05T09:00:25.000Z</time>
      </trkpt>
      <trkpt lat="43.42471" lon="6.06001">
        <ele>348.6</ele>
        <time>2025-10-05T09:00:26.000Z</time>
      </trkpt>
      <trkpt lat="43.42471" lon="6.06001">
        <ele>348.7</ele>
        <time>2025-10-05T09:00:32.000Z</time>
      </trkpt>
      <trkpt lat="43.42471" lon="6.06002">
        <ele>348.7</ele>
        <time>2025-10-05T09:00:33.000Z</time>
      </trkpt>
      <trkpt lat="43.42472" lon="6.06002">
        <ele>348.9</ele>
        <time>2025-10-05T09:00:37.000Z</time>
      </trkpt>
      <trkpt lat="43.42472" lon="6.06002">
        <ele>348.9</ele>
        <time>2025-10-05T09:00:38.000Z</time>
      </trkpt>
      <trkpt lat="43.42472" lon="6.06002">
        <ele>348.9</ele>
        <time>2025-10-05T09:00:39.000Z</time>
      </trkpt>
      <trkpt lat="43.42472" lon="6.06002">
        <ele>349</ele>
        <time>2025-10-05T09:00:53.000Z</time>
      </trkpt>
      <trkpt lat="43.42472" lon="6.06002">
        <ele>349</ele>
        <time>2025-10-05T09:00:54.000Z</time>
      </trkpt>
      <trkpt lat="43.42472" lon="6.06002">
        <ele>349</ele>
        <time>2025-10-05T09:00:55.000Z</time>
      </trkpt>
      <trkpt lat="43.42472" lon="6.06002">
        <ele>348.9</ele>
        <time>2025-10-05T09:00:56.000Z</time>
      </trkpt>
      <trkpt lat="43.42472" lon="6.06002">
        <ele>348.9</ele>
        <time>2025-10-05T09:00:57.000Z</time>
      </trkpt>
      <trkpt lat="43.42472" lon="6.06002">
        <ele>348.7</ele>
        <time>2025-10-05T09:01:13.000Z</time>
      </trkpt>
      <trkpt lat="43.42472" lon="6.06002">
        <ele>348.7</ele>
        <time>2025-10-05T09:01:14.000Z</time>
      </trkpt>
      <trkpt lat="43.42472" lon="6.06002">
        <ele>348.7</ele>
        <time>2025-10-05T09:01:15.000Z</time>
      </trkpt>
      <trkpt lat="43.42472" lon="6.06002">
        <ele>348.7</ele>
        <time>2025-10-05T09:01:16.000Z</time>
      </trkpt>
      <trkpt lat="43.42472" lon="6.06002">
        <ele>348.5</ele>
        <time>2025-10-05T09:01:50.000Z</time>
      </trkpt>
      <trkpt lat="43.42472" lon="6.06002">
        <ele>348.5</ele>
        <time>2025-10-05T09:01:51.000Z</time>
      </trkpt>
      <trkpt lat="43.42472" lon="6.06002">
        <ele>348.5</ele>
        <time>2025-10-05T09:01:52.000Z</time>
      </trkpt>
      <trkpt lat="43.42472" lon="6.06002">
        <ele>348.5</ele>
        <time>2025-10-05T09:01:53.000Z</time>
      </trkpt>
      <trkpt lat="43.42472" lon="6.06002">
        <ele>348.5</ele>
        <time>2025-10-05T09:01:54.000Z</time>
      </trkpt>
      <trkpt lat="43.42472" lon="6.06002">
        <ele>348.4</ele>
        <time>2025-10-05T09:01:58.000Z</time>
      </trkpt>
      <trkpt lat="43.42472" lon="6.06002">
        <ele>348.4</ele>
        <time>2025-10-05T09:01:59.000Z</time>
      </trkpt>
      <trkpt lat="43.42472" lon="6.06002">
        <ele>348.3</ele>
        <time>2025-10-05T09:02:00.000Z</time>
      </trkpt>
      <trkpt lat="43.42472" lon="6.06002">
        <ele>348.3</ele>
        <time>2025-10-05T09:02:01.000Z</time>
      </trkpt>
      <trkpt lat="43.42472" lon="6.06002">
        <ele>348.3</ele>
        <time>2025-10-05T09:02:23.000Z</time>
      </trkpt>
      <trkpt lat="43.42472" lon="6.06002">
        <ele>348.3</ele>
        <time>2025-10-05T09:02:24.000Z</time>
      </trkpt>
      <trkpt lat="43.42472" lon="6.06002">
        <ele>348.3</ele>
        <time>2025-10-05T09:02:25.000Z</time>
      </trkpt>
      <trkpt lat="43.42472" lon="6.06002">
        <ele>348.3</ele>
        <time>2025-10-05T09:02:26.000Z</time>
      </trkpt>
      <trkpt lat="43.42472" lon="6.06002">
        <ele>348.3</ele>
        <time>2025-10-05T09:02:27.000Z</time>
      </trkpt>
      <trkpt lat="43.42472" lon="6.06002">
        <ele>348.3</ele>
        <time>2025-10-05T09:02:38.000Z</time>
      </trkpt>
      <trkpt lat="43.42472" lon="6.06002">
        <ele>348.2</ele>
        <time>2025-10-05T09:02:39.000Z</time>
      </trkpt>
      <trkpt lat="43.42472" lon="6.06002">
        <ele>348.2</ele>
        <time>2025-10-05T09:02:40.000Z</time>
      </trkpt>
      <trkpt lat="43.42472" lon="6.06002">
        <ele>348.2</ele>
        <time>2025-10-05T09:02:41.000Z</time>
      </trkpt>
      <trkpt lat="43.42472" lon="6.06002">
        <ele>348.2</ele>
        <time>2025-10-05T09:02:57.000Z</time>
      </trkpt>
      <trkpt lat="43.42472" lon="6.06002">
        <ele>348.2</ele>
        <time>2025-10-05T09:02:58.000Z</time>
      </trkpt>
      <trkpt lat="43.42472" lon="6.06002">
        <ele>348.2</ele>
        <time>2025-10-05T09:02:59.000Z</time>
      </trkpt>
      <trkpt lat="43.42472" lon="6.06002">
        <ele>348.2</ele>
        <time>2025-10-05T09:03:00.000Z</time>
      </trkpt>
      <trkpt lat="43.42472" lon="6.06002">
        <ele>348.2</ele>
        <time>2025-10-05T09:03:01.000Z</time>
      </trkpt>
      <trkpt lat="43.42472" lon="6.06002">
        <ele>348.2</ele>
        <time>2025-10-05T09:03:02.000Z</time>
      </trkpt>
      <trkpt lat="43.42472" lon="6.06002">
        <ele>348.2</ele>
        <time>2025-10-05T09:03:03.000Z</time>
      </trkpt>
      <trkpt lat="43.42472" lon="6.06002">
        <ele>348.2</ele>
        <time>2025-10-05T09:03:04.000Z</time>
      </trkpt>
      <trkpt lat="43.42472" lon="6.06002">
        <ele>348.2</ele>
        <time>2025-10-05T09:03:05.000Z</time>
      </trkpt>
      <trkpt lat="43.42472" lon="6.06002">
        <ele>348.2</ele>
        <time>2025-10-05T09:03:06.000Z</time>
      </trkpt>
      <trkpt lat="43.42473" lon="6.06002">
        <ele>348.3</ele>
        <time>2025-10-05T09:03:17.000Z</time>
      </trkpt>
      <trkpt lat="43.42473" lon="6.06002">
        <ele>348.3</ele>
        <time>2025-10-05T09:03:18.000Z</time>
      </trkpt>
      <trkpt lat="43.42473" lon="6.06002">
        <ele>348.3</ele>
        <time>2025-10-05T09:03:19.000Z</time>
      </trkpt>
      <trkpt lat="43.42473" lon="6.06002">
        <ele>348.4</ele>
        <time>2025-10-05T09:03:20.000Z</time>
      </trkpt>
      <trkpt lat="43.42473" lon="6.06002">
        <ele>348.4</ele>
        <time>2025-10-05T09:03:21.000Z</time>
      </trkpt>
      <trkpt lat="43.42473" lon="6.06002">
        <ele>348.4</ele>
        <time>2025-10-05T09:03:22.000Z</time>
      </trkpt>
      <trkpt lat="43.42473" lon="6.06002">
        <ele>347</ele>
        <time>2025-10-05T09:05:10.000Z</time>
      </trkpt>
      <trkpt lat="43.42473" lon="6.06002">
        <ele>347</ele>
        <time>2025-10-05T09:05:11.000Z</time>
      </trkpt>
      <trkpt lat="43.42473" lon="6.06002">
        <ele>347</ele>
        <time>2025-10-05T09:05:12.000Z</time>
      </trkpt>
      <trkpt lat="43.42473" lon="6.06002">
        <ele>346.9</ele>
        <time>2025-10-05T09:05:13.000Z</time>
      </trkpt>
      <trkpt lat="43.42473" lon="6.06002">
        <ele>346.9</ele>
        <time>2025-10-05T09:05:14.000Z</time>
      </trkpt>
      <trkpt lat="43.42473" lon="6.06002">
        <ele>346.8</ele>
        <time>2025-10-05T09:05:23.000Z</time>
      </trkpt>
      <trkpt lat="43.42473" lon="6.06002">
        <ele>346.8</ele>
        <time>2025-10-05T09:05:24.000Z</time>
      </trkpt>
      <trkpt lat="43.42473" lon="6.06002">
        <ele>346.8</ele>
        <time>2025-10-05T09:05:25.000Z</time>
      </trkpt>
      <trkpt lat="43.42472" lon="6.06002">
        <ele>346.7</ele>
        <time>2025-10-05T09:05:26.000Z</time>
      </trkpt>
      <trkpt lat="43.42472" lon="6.06002">
        <ele>346.7</ele>
        <time>2025-10-05T09:05:27.000Z</time>
      </trkpt>
      <trkpt lat="43.42472" lon="6.06002">
        <ele>346.7</ele>
        <time>2025-10-05T09:05:28.000Z</time>
      </trkpt>
      <trkpt lat="43.42472" lon="6.06002">
        <ele>346.7</ele>
        <time>2025-10-05T09:05:29.000Z</time>
      </trkpt>
      <trkpt lat="43.42472" lon="6.06002">
        <ele>346.6</ele>
        <time>2025-10-05T09:05:30.000Z</time>
      </trkpt>
      <trkpt lat="43.42472" lon="6.06002">
        <ele>346.6</ele>
        <time>2025-10-05T09:05:31.000Z</time>
      </trkpt>
      <trkpt lat="43.42473" lon="6.06002">
        <ele>346.5</ele>
        <time>2025-10-05T09:05:40.000Z</time>
      </trkpt>
      <trkpt lat="43.42473" lon="6.06002">
        <ele>346.5</ele>
        <time>2025-10-05T09:05:41.000Z</time>
      </trkpt>
      <trkpt lat="43.42473" lon="6.06002">
        <ele>346.5</ele>
        <time>2025-10-05T09:05:42.000Z</time>
      </trkpt>
      <trkpt lat="43.42473" lon="6.06002">
        <ele>346.5</ele>
        <time>2025-10-05T09:05:43.000Z</time>
      </trkpt>
      <trkpt lat="43.42473" lon="6.06002">
        <ele>346.5</ele>
        <time>2025-10-05T09:06:08.000Z</time>
      </trkpt>
      <trkpt lat="43.42473" lon="6.06002">
        <ele>346.5</ele>
        <time>2025-10-05T09:06:09.000Z</time>
      </trkpt>
      <trkpt lat="43.42473" lon="6.06002">
        <ele>346.5</ele>
        <time>2025-10-05T09:06:10.000Z</time>
      </trkpt>
      <trkpt lat="43.42472" lon="6.06002">
        <ele>346.5</ele>
        <time>2025-10-05T09:06:11.000Z</time>
      </trkpt>
      <trkpt lat="43.42473" lon="6.06002">
        <ele>346.6</ele>
        <time>2025-10-05T09:06:20.000Z</time>
      </trkpt>
      <trkpt lat="43.42473" lon="6.06002">
        <ele>346.6</ele>
        <time>2025-10-05T09:06:21.000Z</time>
      </trkpt>
      <trkpt lat="43.42473" lon="6.06">
        <ele>346.5</ele>
        <time>2025-10-05T09:06:33.000Z</time>
      </trkpt>
      <trkpt lat="43.42473" lon="6.06">
        <ele>346.5</ele>
        <time>2025-10-05T09:06:34.000Z</time>
      </trkpt>
      <trkpt lat="43.42472" lon="6.06">
        <ele>346.3</ele>
        <time>2025-10-05T09:06:57.000Z</time>
      </trkpt>
      <trkpt lat="43.42472" lon="6.06">
        <ele>346.2</ele>
        <time>2025-10-05T09:06:58.000Z</time>
      </trkpt>
      <trkpt lat="43.42472" lon="6.06">
        <ele>346.2</ele>
        <time>2025-10-05T09:06:59.000Z</time>
      </trkpt>
      <trkpt lat="43.42472" lon="6.06">
        <ele>346.2</ele>
        <time>2025-10-05T09:07:00.000Z</time>
      </trkpt>
      <trkpt lat="43.42472" lon="6.06">
        <ele>346.2</ele>
        <time>2025-10-05T09:07:01.000Z</time>
      </trkpt>
      <trkpt lat="43.42472" lon="6.06">
        <ele>346.2</ele>
        <time>2025-10-05T09:07:04.000Z</time>
      </trkpt>
      <trkpt lat="43.42472" lon="6.06">
        <ele>346.2</ele>
        <time>2025-10-05T09:07:05.000Z</time>
      </trkpt>
      <trkpt lat="43.42472" lon="6.06">
        <ele>346.2</ele>
        <time>2025-10-05T09:07:06.000Z</time>
      </trkpt>
      <trkpt lat="43.42472" lon="6.06">
        <ele>346.1</ele>
        <time>2025-10-05T09:07:09.000Z</time>
      </trkpt>
      <trkpt lat="43.42472" lon="6.06">
        <ele>346.1</ele>
        <time>2025-10-05T09:07:10.000Z</time>
      </trkpt>
      <trkpt lat="43.42472" lon="6.06">
        <ele>346.1</ele>
        <time>2025-10-05T09:07:11.000Z</time>
      </trkpt>
      <trkpt lat="43.42472" lon="6.06">
        <ele>346</ele>
        <time>2025-10-05T09:07:22.000Z</time>
      </trkpt>
      <trkpt lat="43.42472" lon="6.06">
        <ele>346</ele>
        <time>2025-10-05T09:07:23.000Z</time>
      </trkpt>
      <trkpt lat="43.42472" lon="6.06">
        <ele>346</ele>
        <time>2025-10-05T09:07:27.000Z</time>
      </trkpt>
      <trkpt lat="43.42472" lon="6.06">
        <ele>346</ele>
        <time>2025-10-05T09:07:28.000Z</time>
      </trkpt>
      <trkpt lat="43.42472" lon="6.06">
        <ele>346</ele>
        <time>2025-10-05T09:07:32.000Z</time>
      </trkpt>
      <trkpt lat="43.42473" lon="6.06">
        <ele>346</ele>
        <time>2025-10-05T09:07:33.000Z</time>
      </trkpt>
      <trkpt lat="43.42481" lon="6.05995">
        <ele>345.6</ele>
        <time>2025-10-05T09:07:55.000Z</time>
      </trkpt>
      <trkpt lat="43.4249" lon="6.05997">
        <ele>344.9</ele>
        <time>2025-10-05T09:08:08.000Z</time>
      </trkpt>
      <trkpt lat="43.42499" lon="6.06001">
        <ele>344</ele>
        <time>2025-10-05T09:08:17.000Z</time>
      </trkpt>
      <trkpt lat="43.42501" lon="6.05987">
        <ele>342.4</ele>
        <time>2025-10-05T09:08:28.000Z</time>
      </trkpt>
      <trkpt lat="43.42508" lon="6.05977">
        <ele>341.4</ele>
        <time>2025-10-05T09:08:39.000Z</time>
      </trkpt>
      <trkpt lat="43.42517" lon="6.05972">
        <ele>339.3</ele>
        <time>2025-10-05T09:09:00.000Z</time>
      </trkpt>
      <trkpt lat="43.42517" lon="6.0597">
        <ele>338.7</ele>
        <time>2025-10-05T09:09:07.000Z</time>
      </trkpt>
      <trkpt lat="43.42517" lon="6.0597">
        <ele>338.6</ele>
        <time>2025-10-05T09:09:08.000Z</time>
      </trkpt>
      <trkpt lat="43.42511" lon="6.0597">
        <ele>338.1</ele>
        <time>2025-10-05T09:10:02.000Z</time>
      </trkpt>
      <trkpt lat="43.42511" lon="6.05969">
        <ele>338.1</ele>
        <time>2025-10-05T09:10:03.000Z</time>
      </trkpt>
      <trkpt lat="43.42512" lon="6.05969">
        <ele>338.1</ele>
        <time>2025-10-05T09:10:04.000Z</time>
      </trkpt>
      <trkpt lat="43.42512" lon="6.05969">
        <ele>338.1</ele>
        <time>2025-10-05T09:10:05.000Z</time>
      </trkpt>
      <trkpt lat="43.42513" lon="6.05968">
        <ele>338.1</ele>
        <time>2025-10-05T09:10:06.000Z</time>
      </trkpt>
      <trkpt lat="43.42512" lon="6.05968">
        <ele>338.1</ele>
        <time>2025-10-05T09:10:07.000Z</time>
      </trkpt>
      <trkpt lat="43.42513" lon="6.05969">
        <ele>338.1</ele>
        <time>2025-10-05T09:10:08.000Z</time>
      </trkpt>
      <trkpt lat="43.42513" lon="6.05969">
        <ele>338.1</ele>
        <time>2025-10-05T09:10:09.000Z</time>
      </trkpt>
      <trkpt lat="43.42513" lon="6.0597">
        <ele>338</ele>
        <time>2025-10-05T09:10:10.000Z</time>
      </trkpt>
      <trkpt lat="43.42512" lon="6.0597">
        <ele>338</ele>
        <time>2025-10-05T09:10:11.000Z</time>
      </trkpt>
      <trkpt lat="43.42511" lon="6.05967">
        <ele>338.1</ele>
        <time>2025-10-05T09:10:18.000Z</time>
      </trkpt>
      <trkpt lat="43.42511" lon="6.05966">
        <ele>338.1</ele>
        <time>2025-10-05T09:10:19.000Z</time>
      </trkpt>
      <trkpt lat="43.4251" lon="6.05964">
        <ele>338.2</ele>
        <time>2025-10-05T09:10:22.000Z</time>
      </trkpt>
      <trkpt lat="43.4251" lon="6.05964">
        <ele>338.2</ele>
        <time>2025-10-05T09:10:23.000Z</time>
      </trkpt>
      <trkpt lat="43.4251" lon="6.05963">
        <ele>338.3</ele>
        <time>2025-10-05T09:10:37.000Z</time>
      </trkpt>
      <trkpt lat="43.4251" lon="6.05963">
        <ele>338.3</ele>
        <time>2025-10-05T09:10:38.000Z</time>
      </trkpt>
      <trkpt lat="43.4252" lon="6.05961">
        <ele>338.3</ele>
        <time>2025-10-05T09:10:49.000Z</time>
      </trkpt>
      <trkpt lat="43.42528" lon="6.05954">
        <ele>337.6</ele>
        <time>2025-10-05T09:11:02.000Z</time>
      </trkpt>
      <trkpt lat="43.42535" lon="6.05946">
        <ele>336.1</ele>
        <time>2025-10-05T09:11:20.000Z</time>
      </trkpt>
      <trkpt lat="43.42542" lon="6.05937">
        <ele>334.6</ele>
        <time>2025-10-05T09:11:36.000Z</time>
      </trkpt>
      <trkpt lat="43.42551" lon="6.05936">
        <ele>332.6</ele>
        <time>2025-10-05T09:12:04.000Z</time>
      </trkpt>
      <trkpt lat="43.42559" lon="6.05943">
        <ele>331.5</ele>
        <time>2025-10-05T09:12:21.000Z</time>
      </trkpt>
      <trkpt lat="43.42568" lon="6.05942">
        <ele>330.8</ele>
        <time>2025-10-05T09:12:44.000Z</time>
      </trkpt>
      <trkpt lat="43.42576" lon="6.05948">
        <ele>328.9</ele>
        <time>2025-10-05T09:13:13.000Z</time>
      </trkpt>
      <trkpt lat="43.42577" lon="6.05947">
        <ele>328.8</ele>
        <time>2025-10-05T09:13:15.000Z</time>
      </trkpt>
      <trkpt lat="43.42577" lon="6.05947">
        <ele>328.7</ele>
        <time>2025-10-05T09:13:16.000Z</time>
      </trkpt>
      <trkpt lat="43.42577" lon="6.05946">
        <ele>328.7</ele>
        <time>2025-10-05T09:13:17.000Z</time>
      </trkpt>
      <trkpt lat="43.42577" lon="6.05946">
        <ele>328.6</ele>
        <time>2025-10-05T09:13:18.000Z</time>
      </trkpt>
      <trkpt lat="43.42577" lon="6.05945">
        <ele>328.6</ele>
        <time>2025-10-05T09:13:19.000Z</time>
      </trkpt>
      <trkpt lat="43.42577" lon="6.05945">
        <ele>328.5</ele>
        <time>2025-10-05T09:13:20.000Z</time>
      </trkpt>
      <trkpt lat="43.42577" lon="6.05945">
        <ele>328.5</ele>
        <time>2025-10-05T09:13:21.000Z</time>
      </trkpt>
      <trkpt lat="43.42577" lon="6.05945">
        <ele>328.4</ele>
        <time>2025-10-05T09:13:22.000Z</time>
      </trkpt>
      <trkpt lat="43.42578" lon="6.05946">
        <ele>328.3</ele>
        <time>2025-10-05T09:13:27.000Z</time>
      </trkpt>
      <trkpt lat="43.42578" lon="6.05946">
        <ele>328.3</ele>
        <time>2025-10-05T09:13:28.000Z</time>
      </trkpt>
      <trkpt lat="43.42587" lon="6.05941">
        <ele>327.7</ele>
        <time>2025-10-05T09:13:48.000Z</time>
      </trkpt>
      <trkpt lat="43.42596" lon="6.05943">
        <ele>327.2</ele>
        <time>2025-10-05T09:14:07.000Z</time>
      </trkpt>
      <trkpt lat="43.42605" lon="6.05942">
        <ele>326.9</ele>
        <time>2025-10-05T09:14:28.000Z</time>
      </trkpt>
      <trkpt lat="43.42614" lon="6.05939">
        <ele>326.8</ele>
        <time>2025-10-05T09:14:44.000Z</time>
      </trkpt>
      <trkpt lat="43.42623" lon="6.05936">
        <ele>327</ele>
        <time>2025-10-05T09:14:56.000Z</time>
      </trkpt>
      <trkpt lat="43.42632" lon="6.05934">
        <ele>327.5</ele>
        <time>2025-10-05T09:15:11.000Z</time>
      </trkpt>
      <trkpt lat="43.42641" lon="6.05936">
        <ele>327.5</ele>
        <time>2025-10-05T09:15:26.000Z</time>
      </trkpt>
      <trkpt lat="43.42648" lon="6.05937">
        <ele>327.5</ele>
        <time>2025-10-05T09:15:40.000Z</time>
      </trkpt>
      <trkpt lat="43.42648" lon="6.05937">
        <ele>327.4</ele>
        <time>2025-10-05T09:15:41.000Z</time>
      </trkpt>
      <trkpt lat="43.42648" lon="6.05937">
        <ele>327.4</ele>
        <time>2025-10-05T09:15:42.000Z</time>
      </trkpt>
      <trkpt lat="43.42648" lon="6.05937">
        <ele>327.4</ele>
        <time>2025-10-05T09:15:43.000Z</time>
      </trkpt>
      <trkpt lat="43.42657" lon="6.05939">
        <ele>327.4</ele>
        <time>2025-10-05T09:16:00.000Z</time>
      </trkpt>
      <trkpt lat="43.42664" lon="6.05943">
        <ele>327.3</ele>
        <time>2025-10-05T09:16:19.000Z</time>
      </trkpt>
      <trkpt lat="43.42664" lon="6.05943">
        <ele>327.3</ele>
        <time>2025-10-05T09:16:20.000Z</time>
      </trkpt>
      <trkpt lat="43.42664" lon="6.05943">
        <ele>327.4</ele>
        <time>2025-10-05T09:16:21.000Z</time>
      </trkpt>
      <trkpt lat="43.42664" lon="6.05943">
        <ele>327.4</ele>
        <time>2025-10-05T09:16:22.000Z</time>
      </trkpt>
      <trkpt lat="43.42664" lon="6.05944">
        <ele>327.4</ele>
        <time>2025-10-05T09:16:23.000Z</time>
      </trkpt>
      <trkpt lat="43.42666" lon="6.05939">
        <ele>327.6</ele>
        <time>2025-10-05T09:16:45.000Z</time>
      </trkpt>
      <trkpt lat="43.42666" lon="6.05939">
        <ele>327.6</ele>
        <time>2025-10-05T09:16:46.000Z</time>
      </trkpt>
      <trkpt lat="43.42666" lon="6.05939">
        <ele>327.8</ele>
        <time>2025-10-05T09:16:50.000Z</time>
      </trkpt>
      <trkpt lat="43.42666" lon="6.05939">
        <ele>327.8</ele>
        <time>2025-10-05T09:16:51.000Z</time>
      </trkpt>
      <trkpt lat="43.42666" lon="6.05939">
        <ele>327.8</ele>
        <time>2025-10-05T09:16:52.000Z</time>
      </trkpt>
      <trkpt lat="43.42666" lon="6.05939">
        <ele>327.9</ele>
        <time>2025-10-05T09:16:54.000Z</time>
      </trkpt>
      <trkpt lat="43.42666" lon="6.05939">
        <ele>328.1</ele>
        <time>2025-10-05T09:17:00.000Z</time>
      </trkpt>
      <trkpt lat="43.42666" lon="6.05939">
        <ele>328.2</ele>
        <time>2025-10-05T09:17:01.000Z</time>
      </trkpt>
      <trkpt lat="43.42666" lon="6.05939">
        <ele>328.3</ele>
        <time>2025-10-05T09:17:05.000Z</time>
      </trkpt>
      <trkpt lat="43.42666" lon="6.05939">
        <ele>328.4</ele>
        <time>2025-10-05T09:17:06.000Z</time>
      </trkpt>
      <trkpt lat="43.42666" lon="6.05939">
        <ele>328.4</ele>
        <time>2025-10-05T09:17:07.000Z</time>
      </trkpt>
      <trkpt lat="43.42665" lon="6.05939">
        <ele>328.8</ele>
        <time>2025-10-05T09:17:22.000Z</time>
      </trkpt>
      <trkpt lat="43.42665" lon="6.05939">
        <ele>328.9</ele>
        <time>2025-10-05T09:17:23.000Z</time>
      </trkpt>
      <trkpt lat="43.42672" lon="6.05946">
        <ele>328.7</ele>
        <time>2025-10-05T09:17:45.000Z</time>
      </trkpt>
      <trkpt lat="43.42682" lon="6.05949">
        <ele>328.7</ele>
        <time>2025-10-05T09:18:04.000Z</time>
      </trkpt>
      <trkpt lat="43.42689" lon="6.05956">
        <ele>328.9</ele>
        <time>2025-10-05T09:18:24.000Z</time>
      </trkpt>
      <trkpt lat="43.42689" lon="6.05956">
        <ele>328.9</ele>
        <time>2025-10-05T09:18:25.000Z</time>
      </trkpt>
      <trkpt lat="43.42689" lon="6.05956">
        <ele>328.9</ele>
        <time>2025-10-05T09:18:26.000Z</time>
      </trkpt>
      <trkpt lat="43.4269" lon="6.05956">
        <ele>328.9</ele>
        <time>2025-10-05T09:18:27.000Z</time>
      </trkpt>
      <trkpt lat="43.42691" lon="6.05956">
        <ele>328.9</ele>
        <time>2025-10-05T09:18:28.000Z</time>
      </trkpt>
      <trkpt lat="43.42691" lon="6.05957">
        <ele>328.9</ele>
        <time>2025-10-05T09:18:29.000Z</time>
      </trkpt>
      <trkpt lat="43.42692" lon="6.05957">
        <ele>329</ele>
        <time>2025-10-05T09:18:39.000Z</time>
      </trkpt>
      <trkpt lat="43.42692" lon="6.05957">
        <ele>329</ele>
        <time>2025-10-05T09:18:40.000Z</time>
      </trkpt>
      <trkpt lat="43.42692" lon="6.05957">
        <ele>329</ele>
        <time>2025-10-05T09:18:41.000Z</time>
      </trkpt>
      <trkpt lat="43.42692" lon="6.05957">
        <ele>329.1</ele>
        <time>2025-10-05T09:18:45.000Z</time>
      </trkpt>
      <trkpt lat="43.42692" lon="6.05957">
        <ele>329.1</ele>
        <time>2025-10-05T09:18:46.000Z</time>
      </trkpt>
      <trkpt lat="43.42693" lon="6.05958">
        <ele>329.1</ele>
        <time>2025-10-05T09:18:47.000Z</time>
      </trkpt>
      <trkpt lat="43.42701" lon="6.05964">
        <ele>329.3</ele>
        <time>2025-10-05T09:19:15.000Z</time>
      </trkpt>
      <trkpt lat="43.4271" lon="6.05967">
        <ele>329.2</ele>
        <time>2025-10-05T09:19:28.000Z</time>
      </trkpt>
      <trkpt lat="43.42717" lon="6.05959">
        <ele>329.4</ele>
        <time>2025-10-05T09:19:42.000Z</time>
      </trkpt>
      <trkpt lat="43.42726" lon="6.0596">
        <ele>330.1</ele>
        <time>2025-10-05T09:19:59.000Z</time>
      </trkpt>
      <trkpt lat="43.42735" lon="6.05957">
        <ele>331.1</ele>
        <time>2025-10-05T09:20:12.000Z</time>
      </trkpt>
      <trkpt lat="43.42744" lon="6.05959">
        <ele>331.8</ele>
        <time>2025-10-05T09:20:30.000Z</time>
      </trkpt>
      <trkpt lat="43.42751" lon="6.05967">
        <ele>331.9</ele>
        <time>2025-10-05T09:20:55.000Z</time>
      </trkpt>
      <trkpt lat="43.42752" lon="6.05967">
        <ele>331.9</ele>
        <time>2025-10-05T09:20:59.000Z</time>
      </trkpt>
      <trkpt lat="43.42752" lon="6.05967">
        <ele>331.9</ele>
        <time>2025-10-05T09:21:00.000Z</time>
      </trkpt>
      <trkpt lat="43.42752" lon="6.05967">
        <ele>331.9</ele>
        <time>2025-10-05T09:21:01.000Z</time>
      </trkpt>
      <trkpt lat="43.42752" lon="6.05967">
        <ele>331.9</ele>
        <time>2025-10-05T09:21:02.000Z</time>
      </trkpt>
      <trkpt lat="43.42752" lon="6.05968">
        <ele>331.9</ele>
        <time>2025-10-05T09:21:03.000Z</time>
      </trkpt>
      <trkpt lat="43.42761" lon="6.05973">
        <ele>331.5</ele>
        <time>2025-10-05T09:21:25.000Z</time>
      </trkpt>
      <trkpt lat="43.42761" lon="6.05977">
        <ele>331.4</ele>
        <time>2025-10-05T09:21:32.000Z</time>
      </trkpt>
      <trkpt lat="43.42761" lon="6.05977">
        <ele>331.4</ele>
        <time>2025-10-05T09:21:33.000Z</time>
      </trkpt>
      <trkpt lat="43.42761" lon="6.05977">
        <ele>331.4</ele>
        <time>2025-10-05T09:21:34.000Z</time>
      </trkpt>
      <trkpt lat="43.42761" lon="6.05977">
        <ele>331.4</ele>
        <time>2025-10-05T09:21:35.000Z</time>
      </trkpt>
      <trkpt lat="43.42761" lon="6.05977">
        <ele>331.3</ele>
        <time>2025-10-05T09:21:36.000Z</time>
      </trkpt>
      <trkpt lat="43.42761" lon="6.05978">
        <ele>331.3</ele>
        <time>2025-10-05T09:21:37.000Z</time>
      </trkpt>
      <trkpt lat="43.42767" lon="6.05976">
        <ele>330.7</ele>
        <time>2025-10-05T09:21:50.000Z</time>
      </trkpt>
      <trkpt lat="43.42767" lon="6.05976">
        <ele>330.7</ele>
        <time>2025-10-05T09:21:51.000Z</time>
      </trkpt>
      <trkpt lat="43.42768" lon="6.05975">
        <ele>330.3</ele>
        <time>2025-10-05T09:22:02.000Z</time>
      </trkpt>
      <trkpt lat="43.42768" lon="6.05975">
        <ele>330.3</ele>
        <time>2025-10-05T09:22:03.000Z</time>
      </trkpt>
      <trkpt lat="43.42766" lon="6.05977">
        <ele>330.2</ele>
        <time>2025-10-05T09:22:07.000Z</time>
      </trkpt>
      <trkpt lat="43.42766" lon="6.05977">
        <ele>330.2</ele>
        <time>2025-10-05T09:22:08.000Z</time>
      </trkpt>
      <trkpt lat="43.42767" lon="6.05977">
        <ele>330.2</ele>
        <time>2025-10-05T09:22:14.000Z</time>
      </trkpt>
      <trkpt lat="43.42767" lon="6.05977">
        <ele>330.1</ele>
        <time>2025-10-05T09:22:15.000Z</time>
      </trkpt>
      <trkpt lat="43.42767" lon="6.05976">
        <ele>330.1</ele>
        <time>2025-10-05T09:22:16.000Z</time>
      </trkpt>
      <trkpt lat="43.42767" lon="6.05976">
        <ele>330.1</ele>
        <time>2025-10-05T09:22:19.000Z</time>
      </trkpt>
      <trkpt lat="43.42767" lon="6.05976">
        <ele>330</ele>
        <time>2025-10-05T09:22:20.000Z</time>
      </trkpt>
      <trkpt lat="43.42767" lon="6.05976">
        <ele>330</ele>
        <time>2025-10-05T09:22:21.000Z</time>
      </trkpt>
      <trkpt lat="43.42767" lon="6.05976">
        <ele>330.1</ele>
        <time>2025-10-05T09:22:39.000Z</time>
      </trkpt>
      <trkpt lat="43.42767" lon="6.05976">
        <ele>330.1</ele>
        <time>2025-10-05T09:22:40.000Z</time>
      </trkpt>
      <trkpt lat="43.42766" lon="6.05976">
        <ele>330.1</ele>
        <time>2025-10-05T09:22:41.000Z</time>
      </trkpt>
      <trkpt lat="43.42774" lon="6.05985">
        <ele>330.1</ele>
        <time>2025-10-05T09:22:54.000Z</time>
      </trkpt>
      <trkpt lat="43.42775" lon="6.05997">
        <ele>329.8</ele>
        <time>2025-10-05T09:23:02.000Z</time>
      </trkpt>
      <trkpt lat="43.4278" lon="6.06">
        <ele>329.3</ele>
        <time>2025-10-05T09:23:12.000Z</time>
      </trkpt>
      <trkpt lat="43.42781" lon="6.06">
        <ele>329.2</ele>
        <time>2025-10-05T09:23:13.000Z</time>
      </trkpt>
      <trkpt lat="43.42782" lon="6.05999">
        <ele>329.2</ele>
        <time>2025-10-05T09:23:14.000Z</time>
      </trkpt>
      <trkpt lat="43.42782" lon="6.05999">
        <ele>329.2</ele>
        <time>2025-10-05T09:23:15.000Z</time>
      </trkpt>
      <trkpt lat="43.42783" lon="6.05999">
        <ele>329.1</ele>
        <time>2025-10-05T09:23:16.000Z</time>
      </trkpt>
      <trkpt lat="43.42793" lon="6.05997">
        <ele>328.7</ele>
        <time>2025-10-05T09:23:27.000Z</time>
      </trkpt>
      <trkpt lat="43.42796" lon="6.05997">
        <ele>328.3</ele>
        <time>2025-10-05T09:23:30.000Z</time>
      </trkpt>
      <trkpt lat="43.42796" lon="6.05997">
        <ele>328.2</ele>
        <time>2025-10-05T09:23:31.000Z</time>
      </trkpt>
      <trkpt lat="43.42797" lon="6.05997">
        <ele>328.1</ele>
        <time>2025-10-05T09:23:32.000Z</time>
      </trkpt>
      <trkpt lat="43.42797" lon="6.05997">
        <ele>328</ele>
        <time>2025-10-05T09:23:33.000Z</time>
      </trkpt>
      <trkpt lat="43.42797" lon="6.05997">
        <ele>327.8</ele>
        <time>2025-10-05T09:23:34.000Z</time>
      </trkpt>
      <trkpt lat="43.42797" lon="6.05997">
        <ele>327.7</ele>
        <time>2025-10-05T09:23:35.000Z</time>
      </trkpt>
      <trkpt lat="43.42797" lon="6.05997">
        <ele>327.6</ele>
        <time>2025-10-05T09:23:36.000Z</time>
      </trkpt>
      <trkpt lat="43.42797" lon="6.05997">
        <ele>327.5</ele>
        <time>2025-10-05T09:23:37.000Z</time>
      </trkpt>
      <trkpt lat="43.42796" lon="6.05996">
        <ele>327.2</ele>
        <time>2025-10-05T09:23:42.000Z</time>
      </trkpt>
      <trkpt lat="43.42796" lon="6.05995">
        <ele>327.2</ele>
        <time>2025-10-05T09:23:43.000Z</time>
      </trkpt>
      <trkpt lat="43.42796" lon="6.05996">
        <ele>327.1</ele>
        <time>2025-10-05T09:23:44.000Z</time>
      </trkpt>
      <trkpt lat="43.42796" lon="6.05996">
        <ele>327.1</ele>
        <time>2025-10-05T09:23:45.000Z</time>
      </trkpt>
      <trkpt lat="43.42796" lon="6.05996">
        <ele>327.1</ele>
        <time>2025-10-05T09:23:46.000Z</time>
      </trkpt>
      <trkpt lat="43.42796" lon="6.05996">
        <ele>327</ele>
        <time>2025-10-05T09:23:47.000Z</time>
      </trkpt>
      <trkpt lat="43.42796" lon="6.05996">
        <ele>326.9</ele>
        <time>2025-10-05T09:23:48.000Z</time>
      </trkpt>
      <trkpt lat="43.42806" lon="6.05992">
        <ele>326</ele>
        <time>2025-10-05T09:24:00.000Z</time>
      </trkpt>
      <trkpt lat="43.42815" lon="6.05997">
        <ele>324.7</ele>
        <time>2025-10-05T09:24:10.000Z</time>
      </trkpt>
      <trkpt lat="43.42823" lon="6.06002">
        <ele>323.6</ele>
        <time>2025-10-05T09:24:22.000Z</time>
      </trkpt>
      <trkpt lat="43.42832" lon="6.06008">
        <ele>322.9</ele>
        <time>2025-10-05T09:24:31.000Z</time>
      </trkpt>
      <trkpt lat="43.42838" lon="6.06018">
        <ele>321.8</ele>
        <time>2025-10-05T09:24:42.000Z</time>
      </trkpt>
      <trkpt lat="43.42842" lon="6.0603">
        <ele>320.1</ele>
        <time>2025-10-05T09:24:54.000Z</time>
      </trkpt>
      <trkpt lat="43.42846" lon="6.06041">
        <ele>318</ele>
        <time>2025-10-05T09:25:04.000Z</time>
      </trkpt>
      <trkpt lat="43.42854" lon="6.06048">
        <ele>315.8</ele>
        <time>2025-10-05T09:25:15.000Z</time>
      </trkpt>
      <trkpt lat="43.42863" lon="6.06053">
        <ele>314.6</ele>
        <time>2025-10-05T09:25:23.000Z</time>
      </trkpt>
      <trkpt lat="43.42867" lon="6.06065">
        <ele>313</ele>
        <time>2025-10-05T09:25:34.000Z</time>
      </trkpt>
      <trkpt lat="43.4287" lon="6.06076">
        <ele>311.2</ele>
        <time>2025-10-05T09:25:49.000Z</time>
      </trkpt>
      <trkpt lat="43.42868" lon="6.06088">
        <ele>309.6</ele>
        <time>2025-10-05T09:26:04.000Z</time>
      </trkpt>
      <trkpt lat="43.42866" lon="6.06101">
        <ele>308.5</ele>
        <time>2025-10-05T09:26:15.000Z</time>
      </trkpt>
      <trkpt lat="43.42863" lon="6.06113">
        <ele>307.1</ele>
        <time>2025-10-05T09:26:30.000Z</time>
      </trkpt>
      <trkpt lat="43.42862" lon="6.06127">
        <ele>306.4</ele>
        <time>2025-10-05T09:26:41.000Z</time>
      </trkpt>
      <trkpt lat="43.42866" lon="6.06139">
        <ele>305.4</ele>
        <time>2025-10-05T09:26:50.000Z</time>
      </trkpt>
      <trkpt lat="43.42868" lon="6.06151">
        <ele>303.7</ele>
        <time>2025-10-05T09:27:00.000Z</time>
      </trkpt>
      <trkpt lat="43.4287" lon="6.06163">
        <ele>302.1</ele>
        <time>2025-10-05T09:27:10.000Z</time>
      </trkpt>
      <trkpt lat="43.4287" lon="6.06176">
        <ele>300.8</ele>
        <time>2025-10-05T09:27:27.000Z</time>
      </trkpt>
      <trkpt lat="43.42871" lon="6.06188">
        <ele>299.4</ele>
        <time>2025-10-05T09:27:39.000Z</time>
      </trkpt>
      <trkpt lat="43.42873" lon="6.06201">
        <ele>297.6</ele>
        <time>2025-10-05T09:27:54.000Z</time>
      </trkpt>
      <trkpt lat="43.42872" lon="6.06213">
        <ele>296.8</ele>
        <time>2025-10-05T09:28:03.000Z</time>
      </trkpt>
      <trkpt lat="43.42869" lon="6.06225">
        <ele>296</ele>
        <time>2025-10-05T09:28:13.000Z</time>
      </trkpt>
      <trkpt lat="43.4286" lon="6.06226">
        <ele>295.2</ele>
        <time>2025-10-05T09:28:24.000Z</time>
      </trkpt>
      <trkpt lat="43.42853" lon="6.06234">
        <ele>293.9</ele>
        <time>2025-10-05T09:28:36.000Z</time>
      </trkpt>
      <trkpt lat="43.42854" lon="6.06245">
        <ele>293</ele>
        <time>2025-10-05T09:28:45.000Z</time>
      </trkpt>
      <trkpt lat="43.42855" lon="6.06247">
        <ele>292.9</ele>
        <time>2025-10-05T09:28:46.000Z</time>
      </trkpt>
      <trkpt lat="43.42855" lon="6.06247">
        <ele>292.8</ele>
        <time>2025-10-05T09:28:47.000Z</time>
      </trkpt>
      <trkpt lat="43.42855" lon="6.06248">
        <ele>292.8</ele>
        <time>2025-10-05T09:28:48.000Z</time>
      </trkpt>
      <trkpt lat="43.42856" lon="6.0625">
        <ele>292.7</ele>
        <time>2025-10-05T09:28:49.000Z</time>
      </trkpt>
      <trkpt lat="43.42859" lon="6.06262">
        <ele>291.8</ele>
        <time>2025-10-05T09:28:59.000Z</time>
      </trkpt>
      <trkpt lat="43.42866" lon="6.0627">
        <ele>289.4</ele>
        <time>2025-10-05T09:29:11.000Z</time>
      </trkpt>
      <trkpt lat="43.42876" lon="6.06268">
        <ele>288.7</ele>
        <time>2025-10-05T09:29:21.000Z</time>
      </trkpt>
      <trkpt lat="43.42883" lon="6.06275">
        <ele>286.8</ele>
        <time>2025-10-05T09:29:34.000Z</time>
      </trkpt>
      <trkpt lat="43.42891" lon="6.06282">
        <ele>283.2</ele>
        <time>2025-10-05T09:29:55.000Z</time>
      </trkpt>
      <trkpt lat="43.429" lon="6.0628">
        <ele>280.9</ele>
        <time>2025-10-05T09:30:12.000Z</time>
      </trkpt>
      <trkpt lat="43.42909" lon="6.06283">
        <ele>278.5</ele>
        <time>2025-10-05T09:30:32.000Z</time>
      </trkpt>
      <trkpt lat="43.42916" lon="6.06292">
        <ele>277.2</ele>
        <time>2025-10-05T09:30:43.000Z</time>
      </trkpt>
      <trkpt lat="43.42925" lon="6.06295">
        <ele>275.5</ele>
        <time>2025-10-05T09:30:55.000Z</time>
      </trkpt>
      <trkpt lat="43.42927" lon="6.06293">
        <ele>274.8</ele>
        <time>2025-10-05T09:31:05.000Z</time>
      </trkpt>
      <trkpt lat="43.42927" lon="6.06293">
        <ele>274.8</ele>
        <time>2025-10-05T09:31:06.000Z</time>
      </trkpt>
      <trkpt lat="43.42927" lon="6.06293">
        <ele>274.7</ele>
        <time>2025-10-05T09:31:07.000Z</time>
      </trkpt>
      <trkpt lat="43.42927" lon="6.06292">
        <ele>274.6</ele>
        <time>2025-10-05T09:31:14.000Z</time>
      </trkpt>
      <trkpt lat="43.42927" lon="6.06292">
        <ele>274.6</ele>
        <time>2025-10-05T09:31:15.000Z</time>
      </trkpt>
      <trkpt lat="43.42927" lon="6.06292">
        <ele>274.5</ele>
        <time>2025-10-05T09:31:16.000Z</time>
      </trkpt>
      <trkpt lat="43.42927" lon="6.06292">
        <ele>274.5</ele>
        <time>2025-10-05T09:31:17.000Z</time>
      </trkpt>
      <trkpt lat="43.42927" lon="6.06292">
        <ele>274.5</ele>
        <time>2025-10-05T09:31:18.000Z</time>
      </trkpt>
      <trkpt lat="43.42927" lon="6.06292">
        <ele>274.5</ele>
        <time>2025-10-05T09:31:19.000Z</time>
      </trkpt>
      <trkpt lat="43.42929" lon="6.0629">
        <ele>274.2</ele>
        <time>2025-10-05T09:31:30.000Z</time>
      </trkpt>
      <trkpt lat="43.42929" lon="6.06289">
        <ele>274.2</ele>
        <time>2025-10-05T09:31:31.000Z</time>
      </trkpt>
      <trkpt lat="43.42938" lon="6.06291">
        <ele>273.1</ele>
        <time>2025-10-05T09:31:47.000Z</time>
      </trkpt>
      <trkpt lat="43.42946" lon="6.06299">
        <ele>271.8</ele>
        <time>2025-10-05T09:32:00.000Z</time>
      </trkpt>
      <trkpt lat="43.42951" lon="6.06309">
        <ele>270.9</ele>
        <time>2025-10-05T09:32:11.000Z</time>
      </trkpt>
      <trkpt lat="43.42959" lon="6.06316">
        <ele>270.6</ele>
        <time>2025-10-05T09:32:21.000Z</time>
      </trkpt>
      <trkpt lat="43.42968" lon="6.06315">
        <ele>270.4</ele>
        <time>2025-10-05T09:32:31.000Z</time>
      </trkpt>
      <trkpt lat="43.42977" lon="6.06312">
        <ele>270</ele>
        <time>2025-10-05T09:32:40.000Z</time>
      </trkpt>
      <trkpt lat="43.42986" lon="6.06315">
        <ele>269.5</ele>
        <time>2025-10-05T09:32:51.000Z</time>
      </trkpt>
      <trkpt lat="43.42995" lon="6.06318">
        <ele>268.6</ele>
        <time>2025-10-05T09:33:02.000Z</time>
      </trkpt>
      <trkpt lat="43.43005" lon="6.06317">
        <ele>267.5</ele>
        <time>2025-10-05T09:33:13.000Z</time>
      </trkpt>
      <trkpt lat="43.43014" lon="6.06315">
        <ele>267.3</ele>
        <time>2025-10-05T09:33:25.000Z</time>
      </trkpt>
      <trkpt lat="43.43023" lon="6.06317">
        <ele>266.7</ele>
        <time>2025-10-05T09:33:37.000Z</time>
      </trkpt>
      <trkpt lat="43.4303" lon="6.06327">
        <ele>266.7</ele>
        <time>2025-10-05T09:33:47.000Z</time>
      </trkpt>
      <trkpt lat="43.43032" lon="6.06339">
        <ele>266.2</ele>
        <time>2025-10-05T09:33:59.000Z</time>
      </trkpt>
      <trkpt lat="43.43038" lon="6.06349">
        <ele>265.8</ele>
        <time>2025-10-05T09:34:10.000Z</time>
      </trkpt>
      <trkpt lat="43.43047" lon="6.06355">
        <ele>265.7</ele>
        <time>2025-10-05T09:34:20.000Z</time>
      </trkpt>
      <trkpt lat="43.43057" lon="6.06356">
        <ele>265.5</ele>
        <time>2025-10-05T09:34:29.000Z</time>
      </trkpt>
      <trkpt lat="43.43066" lon="6.06359">
        <ele>265.1</ele>
        <time>2025-10-05T09:34:38.000Z</time>
      </trkpt>
      <trkpt lat="43.43074" lon="6.06366">
        <ele>264.7</ele>
        <time>2025-10-05T09:34:47.000Z</time>
      </trkpt>
      <trkpt lat="43.43078" lon="6.06377">
        <ele>264.5</ele>
        <time>2025-10-05T09:34:56.000Z</time>
      </trkpt>
      <trkpt lat="43.43081" lon="6.0639">
        <ele>263.8</ele>
        <time>2025-10-05T09:35:07.000Z</time>
      </trkpt>
      <trkpt lat="43.43084" lon="6.06403">
        <ele>263.4</ele>
        <time>2025-10-05T09:35:18.000Z</time>
      </trkpt>
      <trkpt lat="43.43085" lon="6.06415">
        <ele>263.2</ele>
        <time>2025-10-05T09:35:25.000Z</time>
      </trkpt>
      <trkpt lat="43.43088" lon="6.06428">
        <ele>262.4</ele>
        <time>2025-10-05T09:35:36.000Z</time>
      </trkpt>
      <trkpt lat="43.43094" lon="6.06439">
        <ele>261.4</ele>
        <time>2025-10-05T09:35:46.000Z</time>
      </trkpt>
      <trkpt lat="43.43098" lon="6.06451">
        <ele>260.7</ele>
        <time>2025-10-05T09:35:56.000Z</time>
      </trkpt>
      <trkpt lat="43.43102" lon="6.06463">
        <ele>260.3</ele>
        <time>2025-10-05T09:36:07.000Z</time>
      </trkpt>
      <trkpt lat="43.43105" lon="6.06476">
        <ele>260.1</ele>
        <time>2025-10-05T09:36:17.000Z</time>
      </trkpt>
      <trkpt lat="43.43108" lon="6.06489">
        <ele>259.4</ele>
        <time>2025-10-05T09:36:29.000Z</time>
      </trkpt>
      <trkpt lat="43.43116" lon="6.06496">
        <ele>258.2</ele>
        <time>2025-10-05T09:36:40.000Z</time>
      </trkpt>
      <trkpt lat="43.43123" lon="6.06505">
        <ele>257.9</ele>
        <time>2025-10-05T09:36:52.000Z</time>
      </trkpt>
      <trkpt lat="43.43129" lon="6.06514">
        <ele>257.4</ele>
        <time>2025-10-05T09:37:02.000Z</time>
      </trkpt>
      <trkpt lat="43.43135" lon="6.06523">
        <ele>257.1</ele>
        <time>2025-10-05T09:37:09.000Z</time>
      </trkpt>
      <trkpt lat="43.43142" lon="6.06532">
        <ele>256.6</ele>
        <time>2025-10-05T09:37:17.000Z</time>
      </trkpt>
      <trkpt lat="43.43148" lon="6.06542">
        <ele>255.6</ele>
        <time>2025-10-05T09:37:27.000Z</time>
      </trkpt>
      <trkpt lat="43.43155" lon="6.06551">
        <ele>255.3</ele>
        <time>2025-10-05T09:37:39.000Z</time>
      </trkpt>
      <trkpt lat="43.43161" lon="6.06561">
        <ele>254.9</ele>
        <time>2025-10-05T09:37:50.000Z</time>
      </trkpt>
      <trkpt lat="43.43169" lon="6.06568">
        <ele>253.5</ele>
        <time>2025-10-05T09:38:00.000Z</time>
      </trkpt>
      <trkpt lat="43.43176" lon="6.06576">
        <ele>251.9</ele>
        <time>2025-10-05T09:38:14.000Z</time>
      </trkpt>
      <trkpt lat="43.43176" lon="6.06576">
        <ele>251.9</ele>
        <time>2025-10-05T09:38:15.000Z</time>
      </trkpt>
      <trkpt lat="43.43176" lon="6.06576">
        <ele>251.8</ele>
        <time>2025-10-05T09:38:16.000Z</time>
      </trkpt>
      <trkpt lat="43.43176" lon="6.06575">
        <ele>252.2</ele>
        <time>2025-10-05T09:38:28.000Z</time>
      </trkpt>
      <trkpt lat="43.43176" lon="6.06575">
        <ele>252.2</ele>
        <time>2025-10-05T09:38:29.000Z</time>
      </trkpt>
      <trkpt lat="43.43176" lon="6.06575">
        <ele>252.3</ele>
        <time>2025-10-05T09:38:30.000Z</time>
      </trkpt>
      <trkpt lat="43.43176" lon="6.06575">
        <ele>252.4</ele>
        <time>2025-10-05T09:38:31.000Z</time>
      </trkpt>
      <trkpt lat="43.43179" lon="6.06572">
        <ele>251.8</ele>
        <time>2025-10-05T09:39:17.000Z</time>
      </trkpt>
      <trkpt lat="43.43179" lon="6.06572">
        <ele>251.9</ele>
        <time>2025-10-05T09:39:18.000Z</time>
      </trkpt>
      <trkpt lat="43.43179" lon="6.06573">
        <ele>251.9</ele>
        <time>2025-10-05T09:39:19.000Z</time>
      </trkpt>
      <trkpt lat="43.43182" lon="6.06585">
        <ele>251.9</ele>
        <time>2025-10-05T09:39:29.000Z</time>
      </trkpt>
      <trkpt lat="43.43184" lon="6.06598">
        <ele>251.8</ele>
        <time>2025-10-05T09:39:38.000Z</time>
      </trkpt>
      <trkpt lat="43.43186" lon="6.0661">
        <ele>251.4</ele>
        <time>2025-10-05T09:39:49.000Z</time>
      </trkpt>
      <trkpt lat="43.43189" lon="6.06623">
        <ele>250.8</ele>
        <time>2025-10-05T09:40:00.000Z</time>
      </trkpt>
      <trkpt lat="43.43196" lon="6.06633">
        <ele>250.5</ele>
        <time>2025-10-05T09:40:09.000Z</time>
      </trkpt>
      <trkpt lat="43.43199" lon="6.06646">
        <ele>250.1</ele>
        <time>2025-10-05T09:40:19.000Z</time>
      </trkpt>
      <trkpt lat="43.43201" lon="6.06659">
        <ele>248.9</ele>
        <time>2025-10-05T09:40:31.000Z</time>
      </trkpt>
      <trkpt lat="43.43204" lon="6.06671">
        <ele>248.7</ele>
        <time>2025-10-05T09:40:40.000Z</time>
      </trkpt>
      <trkpt lat="43.43208" lon="6.06683">
        <ele>249</ele>
        <time>2025-10-05T09:40:49.000Z</time>
      </trkpt>
      <trkpt lat="43.43211" lon="6.06695">
        <ele>249.1</ele>
        <time>2025-10-05T09:40:58.000Z</time>
      </trkpt>
      <trkpt lat="43.43219" lon="6.06702">
        <ele>248.5</ele>
        <time>2025-10-05T09:41:06.000Z</time>
      </trkpt>
      <trkpt lat="43.43225" lon="6.06713">
        <ele>247.8</ele>
        <time>2025-10-05T09:41:14.000Z</time>
      </trkpt>
      <trkpt lat="43.43231" lon="6.06724">
        <ele>247.7</ele>
        <time>2025-10-05T09:41:23.000Z</time>
      </trkpt>
      <trkpt lat="43.43236" lon="6.06735">
        <ele>248.3</ele>
        <time>2025-10-05T09:41:34.000Z</time>
      </trkpt>
      <trkpt lat="43.43242" lon="6.06746">
        <ele>248.6</ele>
        <time>2025-10-05T09:41:43.000Z</time>
      </trkpt>
      <trkpt lat="43.43247" lon="6.06757">
        <ele>248.6</ele>
        <time>2025-10-05T09:41:53.000Z</time>
      </trkpt>
      <trkpt lat="43.4325" lon="6.06769">
        <ele>248.7</ele>
        <time>2025-10-05T09:42:01.000Z</time>
      </trkpt>
      <trkpt lat="43.43253" lon="6.06772">
        <ele>249.4</ele>
        <time>2025-10-05T09:42:22.000Z</time>
      </trkpt>
      <trkpt lat="43.43253" lon="6.06772">
        <ele>249.4</ele>
        <time>2025-10-05T09:42:23.000Z</time>
      </trkpt>
      <trkpt lat="43.43253" lon="6.06772">
        <ele>249.4</ele>
        <time>2025-10-05T09:42:24.000Z</time>
      </trkpt>
      <trkpt lat="43.43253" lon="6.06772">
        <ele>249.4</ele>
        <time>2025-10-05T09:42:25.000Z</time>
      </trkpt>
      <trkpt lat="43.43253" lon="6.06772">
        <ele>249.4</ele>
        <time>2025-10-05T09:42:26.000Z</time>
      </trkpt>
      <trkpt lat="43.43254" lon="6.06772">
        <ele>249.6</ele>
        <time>2025-10-05T09:42:40.000Z</time>
      </trkpt>
      <trkpt lat="43.43254" lon="6.06772">
        <ele>249.6</ele>
        <time>2025-10-05T09:42:41.000Z</time>
      </trkpt>
      <trkpt lat="43.43253" lon="6.06771">
        <ele>249.7</ele>
        <time>2025-10-05T09:42:42.000Z</time>
      </trkpt>
      <trkpt lat="43.43253" lon="6.06771">
        <ele>249.7</ele>
        <time>2025-10-05T09:42:43.000Z</time>
      </trkpt>
      <trkpt lat="43.43256" lon="6.06783">
        <ele>250.2</ele>
        <time>2025-10-05T09:42:57.000Z</time>
      </trkpt>
      <trkpt lat="43.43256" lon="6.06782">
        <ele>250</ele>
        <time>2025-10-05T09:43:02.000Z</time>
      </trkpt>
      <trkpt lat="43.43256" lon="6.06782">
        <ele>250</ele>
        <time>2025-10-05T09:43:03.000Z</time>
      </trkpt>
      <trkpt lat="43.43256" lon="6.06782">
        <ele>250</ele>
        <time>2025-10-05T09:43:04.000Z</time>
      </trkpt>
      <trkpt lat="43.43257" lon="6.06781">
        <ele>249.8</ele>
        <time>2025-10-05T09:43:10.000Z</time>
      </trkpt>
      <trkpt lat="43.43257" lon="6.06781">
        <ele>249.7</ele>
        <time>2025-10-05T09:43:11.000Z</time>
      </trkpt>
      <trkpt lat="43.43257" lon="6.06781">
        <ele>249.7</ele>
        <time>2025-10-05T09:43:14.000Z</time>
      </trkpt>
      <trkpt lat="43.43257" lon="6.06781">
        <ele>249.7</ele>
        <time>2025-10-05T09:43:15.000Z</time>
      </trkpt>
      <trkpt lat="43.43257" lon="6.06781">
        <ele>249.7</ele>
        <time>2025-10-05T09:43:16.000Z</time>
      </trkpt>
      <trkpt lat="43.43258" lon="6.06781">
        <ele>249.8</ele>
        <time>2025-10-05T09:43:22.000Z</time>
      </trkpt>
      <trkpt lat="43.43258" lon="6.06782">
        <ele>249.8</ele>
        <time>2025-10-05T09:43:23.000Z</time>
      </trkpt>
      <trkpt lat="43.43258" lon="6.06782">
        <ele>249.7</ele>
        <time>2025-10-05T09:43:27.000Z</time>
      </trkpt>
      <trkpt lat="43.43258" lon="6.06782">
        <ele>249.7</ele>
        <time>2025-10-05T09:43:28.000Z</time>
      </trkpt>
      <trkpt lat="43.43258" lon="6.06782">
        <ele>249.6</ele>
        <time>2025-10-05T09:43:29.000Z</time>
      </trkpt>
      <trkpt lat="43.4326" lon="6.06783">
        <ele>249.6</ele>
        <time>2025-10-05T09:43:37.000Z</time>
      </trkpt>
      <trkpt lat="43.4326" lon="6.06783">
        <ele>249.6</ele>
        <time>2025-10-05T09:43:38.000Z</time>
      </trkpt>
      <trkpt lat="43.4326" lon="6.06783">
        <ele>249.6</ele>
        <time>2025-10-05T09:43:39.000Z</time>
      </trkpt>
      <trkpt lat="43.4326" lon="6.06783">
        <ele>249.6</ele>
        <time>2025-10-05T09:43:40.000Z</time>
      </trkpt>
      <trkpt lat="43.4326" lon="6.06783">
        <ele>249.6</ele>
        <time>2025-10-05T09:43:41.000Z</time>
      </trkpt>
      <trkpt lat="43.4326" lon="6.06783">
        <ele>249.6</ele>
        <time>2025-10-05T09:43:42.000Z</time>
      </trkpt>
      <trkpt lat="43.4326" lon="6.06783">
        <ele>249.7</ele>
        <time>2025-10-05T09:43:47.000Z</time>
      </trkpt>
      <trkpt lat="43.4326" lon="6.06783">
        <ele>249.7</ele>
        <time>2025-10-05T09:43:48.000Z</time>
      </trkpt>
      <trkpt lat="43.4326" lon="6.06783">
        <ele>249.8</ele>
        <time>2025-10-05T09:43:49.000Z</time>
      </trkpt>
      <trkpt lat="43.4326" lon="6.06783">
        <ele>249.8</ele>
        <time>2025-10-05T09:43:50.000Z</time>
      </trkpt>
      <trkpt lat="43.4326" lon="6.06783">
        <ele>249.8</ele>
        <time>2025-10-05T09:43:51.000Z</time>
      </trkpt>
      <trkpt lat="43.43261" lon="6.06784">
        <ele>250.7</ele>
        <time>2025-10-05T09:45:24.000Z</time>
      </trkpt>
      <trkpt lat="43.43262" lon="6.06784">
        <ele>250.8</ele>
        <time>2025-10-05T09:45:25.000Z</time>
      </trkpt>
      <trkpt lat="43.43262" lon="6.06784">
        <ele>250.8</ele>
        <time>2025-10-05T09:45:26.000Z</time>
      </trkpt>
      <trkpt lat="43.43262" lon="6.06784">
        <ele>250.8</ele>
        <time>2025-10-05T09:45:27.000Z</time>
      </trkpt>
      <trkpt lat="43.43262" lon="6.06784">
        <ele>250.8</ele>
        <time>2025-10-05T09:45:28.000Z</time>
      </trkpt>
      <trkpt lat="43.43263" lon="6.06786">
        <ele>250.9</ele>
        <time>2025-10-05T09:45:32.000Z</time>
      </trkpt>
      <trkpt lat="43.43263" lon="6.06788">
        <ele>250.9</ele>
        <time>2025-10-05T09:45:33.000Z</time>
      </trkpt>
      <trkpt lat="43.43264" lon="6.068">
        <ele>251</ele>
        <time>2025-10-05T09:45:42.000Z</time>
      </trkpt>
      <trkpt lat="43.43265" lon="6.06813">
        <ele>251</ele>
        <time>2025-10-05T09:45:52.000Z</time>
      </trkpt>
      <trkpt lat="43.43265" lon="6.06825">
        <ele>250.8</ele>
        <time>2025-10-05T09:46:01.000Z</time>
      </trkpt>
      <trkpt lat="43.4327" lon="6.06837">
        <ele>250.2</ele>
        <time>2025-10-05T09:46:11.000Z</time>
      </trkpt>
      <trkpt lat="43.43272" lon="6.0685">
        <ele>249.3</ele>
        <time>2025-10-05T09:46:21.000Z</time>
      </trkpt>
      <trkpt lat="43.43276" lon="6.06863">
        <ele>248.4</ele>
        <time>2025-10-05T09:46:30.000Z</time>
      </trkpt>
      <trkpt lat="43.43278" lon="6.06876">
        <ele>247.4</ele>
        <time>2025-10-05T09:46:40.000Z</time>
      </trkpt>
      <trkpt lat="43.43279" lon="6.06888">
        <ele>246.5</ele>
        <time>2025-10-05T09:46:48.000Z</time>
      </trkpt>
      <trkpt lat="43.43279" lon="6.06901">
        <ele>245.3</ele>
        <time>2025-10-05T09:46:58.000Z</time>
      </trkpt>
      <trkpt lat="43.4328" lon="6.06913">
        <ele>244.3</ele>
        <time>2025-10-05T09:47:08.000Z</time>
      </trkpt>
      <trkpt lat="43.4328" lon="6.06926">
        <ele>243.1</ele>
        <time>2025-10-05T09:47:16.000Z</time>
      </trkpt>
      <trkpt lat="43.43281" lon="6.06939">
        <ele>242</ele>
        <time>2025-10-05T09:47:26.000Z</time>
      </trkpt>
      <trkpt lat="43.43282" lon="6.06952">
        <ele>241.5</ele>
        <time>2025-10-05T09:47:36.000Z</time>
      </trkpt>
      <trkpt lat="43.43282" lon="6.06965">
        <ele>241.2</ele>
        <time>2025-10-05T09:47:46.000Z</time>
      </trkpt>
      <trkpt lat="43.43283" lon="6.06967">
        <ele>240.9</ele>
        <time>2025-10-05T09:47:54.000Z</time>
      </trkpt>
      <trkpt lat="43.43283" lon="6.06967">
        <ele>240.9</ele>
        <time>2025-10-05T09:47:55.000Z</time>
      </trkpt>
      <trkpt lat="43.43283" lon="6.06967">
        <ele>240.8</ele>
        <time>2025-10-05T09:47:56.000Z</time>
      </trkpt>
      <trkpt lat="43.43284" lon="6.06968">
        <ele>240.4</ele>
        <time>2025-10-05T09:48:12.000Z</time>
      </trkpt>
      <trkpt lat="43.43284" lon="6.06968">
        <ele>240.4</ele>
        <time>2025-10-05T09:48:13.000Z</time>
      </trkpt>
      <trkpt lat="43.43284" lon="6.06968">
        <ele>240.4</ele>
        <time>2025-10-05T09:48:14.000Z</time>
      </trkpt>
      <trkpt lat="43.43284" lon="6.06968">
        <ele>240.4</ele>
        <time>2025-10-05T09:48:15.000Z</time>
      </trkpt>
      <trkpt lat="43.43284" lon="6.06968">
        <ele>240.4</ele>
        <time>2025-10-05T09:48:16.000Z</time>
      </trkpt>
      <trkpt lat="43.43284" lon="6.06967">
        <ele>240.6</ele>
        <time>2025-10-05T09:49:15.000Z</time>
      </trkpt>
      <trkpt lat="43.43284" lon="6.06967">
        <ele>240.7</ele>
        <time>2025-10-05T09:49:16.000Z</time>
      </trkpt>
      <trkpt lat="43.43284" lon="6.06967">
        <ele>240.7</ele>
        <time>2025-10-05T09:49:17.000Z</time>
      </trkpt>
      <trkpt lat="43.43284" lon="6.06967">
        <ele>240.7</ele>
        <time>2025-10-05T09:49:18.000Z</time>
      </trkpt>
      <trkpt lat="43.43283" lon="6.06969">
        <ele>240.7</ele>
        <time>2025-10-05T09:49:29.000Z</time>
      </trkpt>
      <trkpt lat="43.43283" lon="6.0697">
        <ele>240.7</ele>
        <time>2025-10-05T09:49:30.000Z</time>
      </trkpt>
      <trkpt lat="43.43283" lon="6.0697">
        <ele>240.7</ele>
        <time>2025-10-05T09:49:31.000Z</time>
      </trkpt>
      <trkpt lat="43.4328" lon="6.06982">
        <ele>240.7</ele>
        <time>2025-10-05T09:49:43.000Z</time>
      </trkpt>
      <trkpt lat="43.43277" lon="6.06994">
        <ele>240.8</ele>
        <time>2025-10-05T09:49:53.000Z</time>
      </trkpt>
      <trkpt lat="43.43274" lon="6.06999">
        <ele>241</ele>
        <time>2025-10-05T09:50:08.000Z</time>
      </trkpt>
      <trkpt lat="43.43274" lon="6.06999">
        <ele>241</ele>
        <time>2025-10-05T09:50:09.000Z</time>
      </trkpt>
      <trkpt lat="43.43274" lon="6.06999">
        <ele>241</ele>
        <time>2025-10-05T09:50:10.000Z</time>
      </trkpt>
      <trkpt lat="43.43274" lon="6.06999">
        <ele>241.1</ele>
        <time>2025-10-05T09:50:11.000Z</time>
      </trkpt>
      <trkpt lat="43.43274" lon="6.06999">
        <ele>241.1</ele>
        <time>2025-10-05T09:50:12.000Z</time>
      </trkpt>
      <trkpt lat="43.43264" lon="6.07">
        <ele>242.1</ele>
        <time>2025-10-05T09:50:24.000Z</time>
      </trkpt>
      <trkpt lat="43.43257" lon="6.07007">
        <ele>244.4</ele>
        <time>2025-10-05T09:50:36.000Z</time>
      </trkpt>
      <trkpt lat="43.43251" lon="6.07018">
        <ele>245.9</ele>
        <time>2025-10-05T09:50:47.000Z</time>
      </trkpt>
      <trkpt lat="43.43246" lon="6.07029">
        <ele>246.3</ele>
        <time>2025-10-05T09:50:58.000Z</time>
      </trkpt>
      <trkpt lat="43.43241" lon="6.0704">
        <ele>246.9</ele>
        <time>2025-10-05T09:51:15.000Z</time>
      </trkpt>
      <trkpt lat="43.43238" lon="6.07046">
        <ele>248.2</ele>
        <time>2025-10-05T09:51:28.000Z</time>
      </trkpt>
      <trkpt lat="43.43238" lon="6.07046">
        <ele>248.3</ele>
        <time>2025-10-05T09:51:29.000Z</time>
      </trkpt>
      <trkpt lat="43.43239" lon="6.07047">
        <ele>249.3</ele>
        <time>2025-10-05T09:51:43.000Z</time>
      </trkpt>
      <trkpt lat="43.43239" lon="6.07047">
        <ele>249.3</ele>
        <time>2025-10-05T09:51:44.000Z</time>
      </trkpt>
      <trkpt lat="43.43239" lon="6.07047">
        <ele>249.3</ele>
        <time>2025-10-05T09:51:45.000Z</time>
      </trkpt>
      <trkpt lat="43.43239" lon="6.07047">
        <ele>249.3</ele>
        <time>2025-10-05T09:51:46.000Z</time>
      </trkpt>
      <trkpt lat="43.43239" lon="6.07048">
        <ele>249.3</ele>
        <time>2025-10-05T09:52:17.000Z</time>
      </trkpt>
      <trkpt lat="43.43239" lon="6.07048">
        <ele>249.3</ele>
        <time>2025-10-05T09:52:18.000Z</time>
      </trkpt>
      <trkpt lat="43.43239" lon="6.07048">
        <ele>249.2</ele>
        <time>2025-10-05T09:52:19.000Z</time>
      </trkpt>
      <trkpt lat="43.43239" lon="6.07048">
        <ele>249.2</ele>
        <time>2025-10-05T09:52:20.000Z</time>
      </trkpt>
      <trkpt lat="43.43239" lon="6.07048">
        <ele>249.2</ele>
        <time>2025-10-05T09:52:21.000Z</time>
      </trkpt>
      <trkpt lat="43.43239" lon="6.07048">
        <ele>249.2</ele>
        <time>2025-10-05T09:52:22.000Z</time>
      </trkpt>
      <trkpt lat="43.43239" lon="6.07048">
        <ele>249.1</ele>
        <time>2025-10-05T09:52:30.000Z</time>
      </trkpt>
      <trkpt lat="43.43239" lon="6.07048">
        <ele>249.1</ele>
        <time>2025-10-05T09:52:31.000Z</time>
      </trkpt>
      <trkpt lat="43.43233" lon="6.07057">
        <ele>249.3</ele>
        <time>2025-10-05T09:52:44.000Z</time>
      </trkpt>
      <trkpt lat="43.43224" lon="6.07064">
        <ele>250.2</ele>
        <time>2025-10-05T09:52:56.000Z</time>
      </trkpt>
      <trkpt lat="43.43217" lon="6.07072">
        <ele>251.4</ele>
        <time>2025-10-05T09:53:06.000Z</time>
      </trkpt>
      <trkpt lat="43.43208" lon="6.07077">
        <ele>253.1</ele>
        <time>2025-10-05T09:53:21.000Z</time>
      </trkpt>
      <trkpt lat="43.43201" lon="6.07084">
        <ele>254.4</ele>
        <time>2025-10-05T09:53:33.000Z</time>
      </trkpt>
      <trkpt lat="43.43194" lon="6.07093">
        <ele>255.4</ele>
        <time>2025-10-05T09:53:43.000Z</time>
      </trkpt>
      <trkpt lat="43.43185" lon="6.07096">
        <ele>258.7</ele>
        <time>2025-10-05T09:54:14.000Z</time>
      </trkpt>
      <trkpt lat="43.43176" lon="6.07097">
        <ele>260</ele>
        <time>2025-10-05T09:54:29.000Z</time>
      </trkpt>
      <trkpt lat="43.43167" lon="6.07103">
        <ele>260.6</ele>
        <time>2025-10-05T09:54:41.000Z</time>
      </trkpt>
      <trkpt lat="43.43158" lon="6.07106">
        <ele>261.3</ele>
        <time>2025-10-05T09:54:53.000Z</time>
      </trkpt>
      <trkpt lat="43.43149" lon="6.07111">
        <ele>262.9</ele>
        <time>2025-10-05T09:55:07.000Z</time>
      </trkpt>
      <trkpt lat="43.43142" lon="6.07119">
        <ele>264.2</ele>
        <time>2025-10-05T09:55:24.000Z</time>
      </trkpt>
      <trkpt lat="43.43136" lon="6.07124">
        <ele>266</ele>
        <time>2025-10-05T09:55:34.000Z</time>
      </trkpt>
      <trkpt lat="43.43136" lon="6.07124">
        <ele>266.2</ele>
        <time>2025-10-05T09:55:35.000Z</time>
      </trkpt>
      <trkpt lat="43.43136" lon="6.07124">
        <ele>266.4</ele>
        <time>2025-10-05T09:55:36.000Z</time>
      </trkpt>
      <trkpt lat="43.43136" lon="6.07125">
        <ele>266.5</ele>
        <time>2025-10-05T09:55:37.000Z</time>
      </trkpt>
      <trkpt lat="43.43135" lon="6.07125">
        <ele>266.7</ele>
        <time>2025-10-05T09:55:38.000Z</time>
      </trkpt>
      <trkpt lat="43.43135" lon="6.07125">
        <ele>266.9</ele>
        <time>2025-10-05T09:55:39.000Z</time>
      </trkpt>
      <trkpt lat="43.43135" lon="6.07131">
        <ele>267.8</ele>
        <time>2025-10-05T09:55:50.000Z</time>
      </trkpt>
      <trkpt lat="43.43135" lon="6.07131">
        <ele>267.9</ele>
        <time>2025-10-05T09:55:51.000Z</time>
      </trkpt>
      <trkpt lat="43.43135" lon="6.07131">
        <ele>268.2</ele>
        <time>2025-10-05T09:56:08.000Z</time>
      </trkpt>
      <trkpt lat="43.43134" lon="6.07131">
        <ele>268.2</ele>
        <time>2025-10-05T09:56:09.000Z</time>
      </trkpt>
      <trkpt lat="43.43125" lon="6.07134">
        <ele>268.2</ele>
        <time>2025-10-05T09:56:21.000Z</time>
      </trkpt>
      <trkpt lat="43.43116" lon="6.07133">
        <ele>270.8</ele>
        <time>2025-10-05T09:56:40.000Z</time>
      </trkpt>
      <trkpt lat="43.4311" lon="6.07133">
        <ele>272.9</ele>
        <time>2025-10-05T09:56:55.000Z</time>
      </trkpt>
      <trkpt lat="43.4311" lon="6.07133">
        <ele>273</ele>
        <time>2025-10-05T09:56:56.000Z</time>
      </trkpt>
      <trkpt lat="43.4311" lon="6.07133">
        <ele>273</ele>
        <time>2025-10-05T09:56:57.000Z</time>
      </trkpt>
      <trkpt lat="43.4311" lon="6.07133">
        <ele>273.1</ele>
        <time>2025-10-05T09:56:58.000Z</time>
      </trkpt>
      <trkpt lat="43.43101" lon="6.07139">
        <ele>275.2</ele>
        <time>2025-10-05T09:57:14.000Z</time>
      </trkpt>
      <trkpt lat="43.43097" lon="6.0715">
        <ele>276.4</ele>
        <time>2025-10-05T09:57:23.000Z</time>
      </trkpt>
      <trkpt lat="43.43092" lon="6.07161">
        <ele>277.3</ele>
        <time>2025-10-05T09:57:32.000Z</time>
      </trkpt>
      <trkpt lat="43.43087" lon="6.07171">
        <ele>278.2</ele>
        <time>2025-10-05T09:58:00.000Z</time>
      </trkpt>
      <trkpt lat="43.43087" lon="6.07171">
        <ele>278.2</ele>
        <time>2025-10-05T09:58:01.000Z</time>
      </trkpt>
      <trkpt lat="43.43087" lon="6.07178">
        <ele>278.3</ele>
        <time>2025-10-05T09:58:22.000Z</time>
      </trkpt>
      <trkpt lat="43.43087" lon="6.07177">
        <ele>278.3</ele>
        <time>2025-10-05T09:58:23.000Z</time>
      </trkpt>
      <trkpt lat="43.4309" lon="6.0717">
        <ele>278.3</ele>
        <time>2025-10-05T09:58:29.000Z</time>
      </trkpt>
      <trkpt lat="43.4309" lon="6.0717">
        <ele>278.3</ele>
        <time>2025-10-05T09:58:30.000Z</time>
      </trkpt>
      <trkpt lat="43.4309" lon="6.0717">
        <ele>278.3</ele>
        <time>2025-10-05T09:58:31.000Z</time>
      </trkpt>
      <trkpt lat="43.43092" lon="6.07168">
        <ele>278.4</ele>
        <time>2025-10-05T09:58:40.000Z</time>
      </trkpt>
      <trkpt lat="43.43092" lon="6.07169">
        <ele>278.4</ele>
        <time>2025-10-05T09:58:41.000Z</time>
      </trkpt>
      <trkpt lat="43.43093" lon="6.0717">
        <ele>278.3</ele>
        <time>2025-10-05T09:58:45.000Z</time>
      </trkpt>
      <trkpt lat="43.43093" lon="6.0717">
        <ele>278.3</ele>
        <time>2025-10-05T09:58:46.000Z</time>
      </trkpt>
      <trkpt lat="43.43093" lon="6.0717">
        <ele>278.3</ele>
        <time>2025-10-05T09:58:47.000Z</time>
      </trkpt>
      <trkpt lat="43.43093" lon="6.0717">
        <ele>278.3</ele>
        <time>2025-10-05T09:58:48.000Z</time>
      </trkpt>
      <trkpt lat="43.43093" lon="6.07171">
        <ele>278.3</ele>
        <time>2025-10-05T09:58:49.000Z</time>
      </trkpt>
      <trkpt lat="43.43093" lon="6.07171">
        <ele>278.3</ele>
        <time>2025-10-05T09:58:50.000Z</time>
      </trkpt>
      <trkpt lat="43.43094" lon="6.07171">
        <ele>278.3</ele>
        <time>2025-10-05T09:58:51.000Z</time>
      </trkpt>
      <trkpt lat="43.43094" lon="6.07171">
        <ele>278.3</ele>
        <time>2025-10-05T09:58:52.000Z</time>
      </trkpt>
      <trkpt lat="43.43098" lon="6.07172">
        <ele>280</ele>
        <time>2025-10-05T10:00:12.000Z</time>
      </trkpt>
      <trkpt lat="43.43098" lon="6.07172">
        <ele>280</ele>
        <time>2025-10-05T10:00:13.000Z</time>
      </trkpt>
      <trkpt lat="43.43098" lon="6.07172">
        <ele>280</ele>
        <time>2025-10-05T10:00:14.000Z</time>
      </trkpt>
      <trkpt lat="43.43098" lon="6.07172">
        <ele>280</ele>
        <time>2025-10-05T10:00:15.000Z</time>
      </trkpt>
      <trkpt lat="43.43098" lon="6.07172">
        <ele>280</ele>
        <time>2025-10-05T10:00:16.000Z</time>
      </trkpt>
      <trkpt lat="43.43097" lon="6.07172">
        <ele>280.2</ele>
        <time>2025-10-05T10:00:35.000Z</time>
      </trkpt>
      <trkpt lat="43.43097" lon="6.07172">
        <ele>280.2</ele>
        <time>2025-10-05T10:00:36.000Z</time>
      </trkpt>
      <trkpt lat="43.43097" lon="6.07172">
        <ele>280.2</ele>
        <time>2025-10-05T10:00:37.000Z</time>
      </trkpt>
      <trkpt lat="43.43097" lon="6.07172">
        <ele>280.3</ele>
        <time>2025-10-05T10:00:38.000Z</time>
      </trkpt>
      <trkpt lat="43.43097" lon="6.07172">
        <ele>280.3</ele>
        <time>2025-10-05T10:00:39.000Z</time>
      </trkpt>
      <trkpt lat="43.43097" lon="6.07171">
        <ele>280</ele>
        <time>2025-10-05T10:01:15.000Z</time>
      </trkpt>
      <trkpt lat="43.43097" lon="6.07171">
        <ele>280</ele>
        <time>2025-10-05T10:01:16.000Z</time>
      </trkpt>
      <trkpt lat="43.43097" lon="6.07171">
        <ele>280</ele>
        <time>2025-10-05T10:01:22.000Z</time>
      </trkpt>
      <trkpt lat="43.43097" lon="6.07171">
        <ele>280</ele>
        <time>2025-10-05T10:01:23.000Z</time>
      </trkpt>
      <trkpt lat="43.43096" lon="6.07172">
        <ele>280</ele>
        <time>2025-10-05T10:01:27.000Z</time>
      </trkpt>
      <trkpt lat="43.43096" lon="6.07172">
        <ele>280.1</ele>
        <time>2025-10-05T10:01:28.000Z</time>
      </trkpt>
      <trkpt lat="43.43093" lon="6.07174">
        <ele>280.3</ele>
        <time>2025-10-05T10:01:37.000Z</time>
      </trkpt>
      <trkpt lat="43.43093" lon="6.07174">
        <ele>280.3</ele>
        <time>2025-10-05T10:01:38.000Z</time>
      </trkpt>
      <trkpt lat="43.43092" lon="6.07174">
        <ele>281</ele>
        <time>2025-10-05T10:01:52.000Z</time>
      </trkpt>
      <trkpt lat="43.43092" lon="6.07174">
        <ele>281</ele>
        <time>2025-10-05T10:01:53.000Z</time>
      </trkpt>
      <trkpt lat="43.43092" lon="6.07174">
        <ele>281</ele>
        <time>2025-10-05T10:01:54.000Z</time>
      </trkpt>
      <trkpt lat="43.43092" lon="6.07174">
        <ele>281.1</ele>
        <time>2025-10-05T10:01:55.000Z</time>
      </trkpt>
      <trkpt lat="43.43092" lon="6.07174">
        <ele>281.1</ele>
        <time>2025-10-05T10:01:56.000Z</time>
      </trkpt>
      <trkpt lat="43.43092" lon="6.07174">
        <ele>281.1</ele>
        <time>2025-10-05T10:01:57.000Z</time>
      </trkpt>
      <trkpt lat="43.43092" lon="6.07174">
        <ele>281.1</ele>
        <time>2025-10-05T10:01:58.000Z</time>
      </trkpt>
      <trkpt lat="43.43092" lon="6.07174">
        <ele>281.1</ele>
        <time>2025-10-05T10:01:59.000Z</time>
      </trkpt>
      <trkpt lat="43.43092" lon="6.07174">
        <ele>281.1</ele>
        <time>2025-10-05T10:02:00.000Z</time>
      </trkpt>
      <trkpt lat="43.43092" lon="6.07174">
        <ele>281.1</ele>
        <time>2025-10-05T10:02:01.000Z</time>
      </trkpt>
      <trkpt lat="43.43091" lon="6.07172">
        <ele>281.5</ele>
        <time>2025-10-05T10:02:42.000Z</time>
      </trkpt>
      <trkpt lat="43.4309" lon="6.07172">
        <ele>281.5</ele>
        <time>2025-10-05T10:02:43.000Z</time>
      </trkpt>
      <trkpt lat="43.4309" lon="6.07172">
        <ele>281.5</ele>
        <time>2025-10-05T10:02:44.000Z</time>
      </trkpt>
      <trkpt lat="43.4309" lon="6.07172">
        <ele>281.5</ele>
        <time>2025-10-05T10:02:45.000Z</time>
      </trkpt>
      <trkpt lat="43.4309" lon="6.07172">
        <ele>281.6</ele>
        <time>2025-10-05T10:02:46.000Z</time>
      </trkpt>
      <trkpt lat="43.4309" lon="6.07172">
        <ele>281.6</ele>
        <time>2025-10-05T10:02:54.000Z</time>
      </trkpt>
      <trkpt lat="43.4309" lon="6.07172">
        <ele>281.6</ele>
        <time>2025-10-05T10:02:55.000Z</time>
      </trkpt>
      <trkpt lat="43.4309" lon="6.07172">
        <ele>281.6</ele>
        <time>2025-10-05T10:02:56.000Z</time>
      </trkpt>
      <trkpt lat="43.4309" lon="6.07172">
        <ele>281.6</ele>
        <time>2025-10-05T10:02:57.000Z</time>
      </trkpt>
      <trkpt lat="43.4309" lon="6.07172">
        <ele>281.7</ele>
        <time>2025-10-05T10:02:58.000Z</time>
      </trkpt>
      <trkpt lat="43.4309" lon="6.07172">
        <ele>281.7</ele>
        <time>2025-10-05T10:02:59.000Z</time>
      </trkpt>
      <trkpt lat="43.4309" lon="6.07172">
        <ele>281.7</ele>
        <time>2025-10-05T10:03:00.000Z</time>
      </trkpt>
      <trkpt lat="43.4309" lon="6.07171">
        <ele>281.8</ele>
        <time>2025-10-05T10:03:01.000Z</time>
      </trkpt>
      <trkpt lat="43.43091" lon="6.0717">
        <ele>282</ele>
        <time>2025-10-05T10:03:05.000Z</time>
      </trkpt>
      <trkpt lat="43.43091" lon="6.0717">
        <ele>282.1</ele>
        <time>2025-10-05T10:03:06.000Z</time>
      </trkpt>
      <trkpt lat="43.43091" lon="6.0717">
        <ele>282.1</ele>
        <time>2025-10-05T10:03:07.000Z</time>
      </trkpt>
      <trkpt lat="43.43091" lon="6.0717">
        <ele>282.4</ele>
        <time>2025-10-05T10:03:10.000Z</time>
      </trkpt>
      <trkpt lat="43.43091" lon="6.0717">
        <ele>282.5</ele>
        <time>2025-10-05T10:03:11.000Z</time>
      </trkpt>
      <trkpt lat="43.43088" lon="6.07171">
        <ele>282.3</ele>
        <time>2025-10-05T10:03:23.000Z</time>
      </trkpt>
      <trkpt lat="43.43088" lon="6.07171">
        <ele>282.3</ele>
        <time>2025-10-05T10:03:24.000Z</time>
      </trkpt>
      <trkpt lat="43.43089" lon="6.07171">
        <ele>282</ele>
        <time>2025-10-05T10:03:27.000Z</time>
      </trkpt>
      <trkpt lat="43.4309" lon="6.07171">
        <ele>281.9</ele>
        <time>2025-10-05T10:03:28.000Z</time>
      </trkpt>
      <trkpt lat="43.43094" lon="6.07171">
        <ele>281.4</ele>
        <time>2025-10-05T10:03:37.000Z</time>
      </trkpt>
      <trkpt lat="43.43094" lon="6.07171">
        <ele>281.6</ele>
        <time>2025-10-05T10:03:38.000Z</time>
      </trkpt>
      <trkpt lat="43.43094" lon="6.07171">
        <ele>281.7</ele>
        <time>2025-10-05T10:03:39.000Z</time>
      </trkpt>
      <trkpt lat="43.43093" lon="6.07171">
        <ele>282</ele>
        <time>2025-10-05T10:04:02.000Z</time>
      </trkpt>
      <trkpt lat="43.43094" lon="6.07171">
        <ele>282</ele>
        <time>2025-10-05T10:04:03.000Z</time>
      </trkpt>
      <trkpt lat="43.43093" lon="6.0717">
        <ele>282</ele>
        <time>2025-10-05T10:04:07.000Z</time>
      </trkpt>
      <trkpt lat="43.43093" lon="6.0717">
        <ele>282</ele>
        <time>2025-10-05T10:04:08.000Z</time>
      </trkpt>
      <trkpt lat="43.43093" lon="6.07171">
        <ele>281.9</ele>
        <time>2025-10-05T10:04:12.000Z</time>
      </trkpt>
      <trkpt lat="43.43094" lon="6.07173">
        <ele>281.9</ele>
        <time>2025-10-05T10:04:13.000Z</time>
      </trkpt>
      <trkpt lat="43.43098" lon="6.07186">
        <ele>281.8</ele>
        <time>2025-10-05T10:04:22.000Z</time>
      </trkpt>
      <trkpt lat="43.43102" lon="6.07196">
        <ele>281.1</ele>
        <time>2025-10-05T10:04:37.000Z</time>
      </trkpt>
      <trkpt lat="43.43102" lon="6.07196">
        <ele>280</ele>
        <time>2025-10-05T10:04:42.000Z</time>
      </trkpt>
      <trkpt lat="43.43102" lon="6.07196">
        <ele>279.7</ele>
        <time>2025-10-05T10:04:43.000Z</time>
      </trkpt>
      <trkpt lat="43.43102" lon="6.07195">
        <ele>279.3</ele>
        <time>2025-10-05T10:04:47.000Z</time>
      </trkpt>
      <trkpt lat="43.43102" lon="6.07195">
        <ele>279.2</ele>
        <time>2025-10-05T10:04:48.000Z</time>
      </trkpt>
      <trkpt lat="43.43102" lon="6.07194">
        <ele>279.2</ele>
        <time>2025-10-05T10:04:49.000Z</time>
      </trkpt>
      <trkpt lat="43.43109" lon="6.07203">
        <ele>277.8</ele>
        <time>2025-10-05T10:05:11.000Z</time>
      </trkpt>
      <trkpt lat="43.43116" lon="6.07214">
        <ele>277.3</ele>
        <time>2025-10-05T10:05:20.000Z</time>
      </trkpt>
      <trkpt lat="43.43123" lon="6.07223">
        <ele>276.5</ele>
        <time>2025-10-05T10:05:30.000Z</time>
      </trkpt>
      <trkpt lat="43.43129" lon="6.07232">
        <ele>275.5</ele>
        <time>2025-10-05T10:05:39.000Z</time>
      </trkpt>
      <trkpt lat="43.43134" lon="6.07244">
        <ele>274.4</ele>
        <time>2025-10-05T10:05:49.000Z</time>
      </trkpt>
      <trkpt lat="43.43142" lon="6.07253">
        <ele>273.4</ele>
        <time>2025-10-05T10:06:00.000Z</time>
      </trkpt>
      <trkpt lat="43.43151" lon="6.07258">
        <ele>271.8</ele>
        <time>2025-10-05T10:06:09.000Z</time>
      </trkpt>
      <trkpt lat="43.43157" lon="6.07267">
        <ele>270.7</ele>
        <time>2025-10-05T10:06:18.000Z</time>
      </trkpt>
      <trkpt lat="43.43162" lon="6.07277">
        <ele>269.6</ele>
        <time>2025-10-05T10:06:29.000Z</time>
      </trkpt>
      <trkpt lat="43.43171" lon="6.07279">
        <ele>267.7</ele>
        <time>2025-10-05T10:06:44.000Z</time>
      </trkpt>
      <trkpt lat="43.43176" lon="6.07267">
        <ele>266.2</ele>
        <time>2025-10-05T10:06:55.000Z</time>
      </trkpt>
      <trkpt lat="43.43177" lon="6.07254">
        <ele>265.7</ele>
        <time>2025-10-05T10:07:04.000Z</time>
      </trkpt>
      <trkpt lat="43.4318" lon="6.07242">
        <ele>265</ele>
        <time>2025-10-05T10:07:12.000Z</time>
      </trkpt>
      <trkpt lat="43.43181" lon="6.07229">
        <ele>263.8</ele>
        <time>2025-10-05T10:07:22.000Z</time>
      </trkpt>
      <trkpt lat="43.43186" lon="6.07218">
        <ele>262</ele>
        <time>2025-10-05T10:07:33.000Z</time>
      </trkpt>
      <trkpt lat="43.43189" lon="6.07205">
        <ele>260.9</ele>
        <time>2025-10-05T10:07:43.000Z</time>
      </trkpt>
      <trkpt lat="43.43195" lon="6.07195">
        <ele>260.1</ele>
        <time>2025-10-05T10:07:53.000Z</time>
      </trkpt>
      <trkpt lat="43.43201" lon="6.07186">
        <ele>259.4</ele>
        <time>2025-10-05T10:08:05.000Z</time>
      </trkpt>
      <trkpt lat="43.43207" lon="6.07175">
        <ele>258.5</ele>
        <time>2025-10-05T10:08:16.000Z</time>
      </trkpt>
      <trkpt lat="43.43214" lon="6.07166">
        <ele>255.5</ele>
        <time>2025-10-05T10:08:31.000Z</time>
      </trkpt>
      <trkpt lat="43.4322" lon="6.07155">
        <ele>253.4</ele>
        <time>2025-10-05T10:08:41.000Z</time>
      </trkpt>
      <trkpt lat="43.43226" lon="6.07144">
        <ele>253</ele>
        <time>2025-10-05T10:08:50.000Z</time>
      </trkpt>
      <trkpt lat="43.43234" lon="6.07135">
        <ele>252.9</ele>
        <time>2025-10-05T10:08:59.000Z</time>
      </trkpt>
      <trkpt lat="43.43242" lon="6.07126">
        <ele>252.9</ele>
        <time>2025-10-05T10:09:07.000Z</time>
      </trkpt>
      <trkpt lat="43.43238" lon="6.07119">
        <ele>252.7</ele>
        <time>2025-10-05T10:09:32.000Z</time>
      </trkpt>
      <trkpt lat="43.43238" lon="6.07119">
        <ele>252.7</ele>
        <time>2025-10-05T10:09:33.000Z</time>
      </trkpt>
      <trkpt lat="43.43236" lon="6.07119">
        <ele>252.7</ele>
        <time>2025-10-05T10:09:37.000Z</time>
      </trkpt>
      <trkpt lat="43.43236" lon="6.07119">
        <ele>252.7</ele>
        <time>2025-10-05T10:09:38.000Z</time>
      </trkpt>
      <trkpt lat="43.43243" lon="6.0711">
        <ele>252.7</ele>
        <time>2025-10-05T10:09:46.000Z</time>
      </trkpt>
      <trkpt lat="43.43249" lon="6.071">
        <ele>252.5</ele>
        <time>2025-10-05T10:09:53.000Z</time>
      </trkpt>
      <trkpt lat="43.43253" lon="6.07088">
        <ele>252.3</ele>
        <time>2025-10-05T10:10:01.000Z</time>
      </trkpt>
      <trkpt lat="43.43259" lon="6.07078">
        <ele>252</ele>
        <time>2025-10-05T10:10:10.000Z</time>
      </trkpt>
      <trkpt lat="43.43265" lon="6.07068">
        <ele>251.6</ele>
        <time>2025-10-05T10:10:18.000Z</time>
      </trkpt>
      <trkpt lat="43.43271" lon="6.07057">
        <ele>251.3</ele>
        <time>2025-10-05T10:10:27.000Z</time>
      </trkpt>
      <trkpt lat="43.43276" lon="6.07046">
        <ele>251</ele>
        <time>2025-10-05T10:10:36.000Z</time>
      </trkpt>
      <trkpt lat="43.43277" lon="6.07034">
        <ele>250.4</ele>
        <time>2025-10-05T10:10:47.000Z</time>
      </trkpt>
      <trkpt lat="43.43282" lon="6.07023">
        <ele>250.2</ele>
        <time>2025-10-05T10:10:55.000Z</time>
      </trkpt>
      <trkpt lat="43.43284" lon="6.07009">
        <ele>250</ele>
        <time>2025-10-05T10:11:05.000Z</time>
      </trkpt>
      <trkpt lat="43.43285" lon="6.06997">
        <ele>249.9</ele>
        <time>2025-10-05T10:11:15.000Z</time>
      </trkpt>
      <trkpt lat="43.43276" lon="6.07001">
        <ele>250</ele>
        <time>2025-10-05T10:11:33.000Z</time>
      </trkpt>
      <trkpt lat="43.43273" lon="6.07014">
        <ele>250</ele>
        <time>2025-10-05T10:11:41.000Z</time>
      </trkpt>
      <trkpt lat="43.43273" lon="6.07014">
        <ele>250</ele>
        <time>2025-10-05T10:11:45.000Z</time>
      </trkpt>
      <trkpt lat="43.43273" lon="6.07015">
        <ele>250</ele>
        <time>2025-10-05T10:11:46.000Z</time>
      </trkpt>
      <trkpt lat="43.43273" lon="6.07015">
        <ele>250</ele>
        <time>2025-10-05T10:11:47.000Z</time>
      </trkpt>
      <trkpt lat="43.43273" lon="6.07015">
        <ele>250</ele>
        <time>2025-10-05T10:11:48.000Z</time>
      </trkpt>
      <trkpt lat="43.43273" lon="6.07015">
        <ele>250</ele>
        <time>2025-10-05T10:11:49.000Z</time>
      </trkpt>
      <trkpt lat="43.43279" lon="6.07015">
        <ele>249.9</ele>
        <time>2025-10-05T10:12:05.000Z</time>
      </trkpt>
      <trkpt lat="43.43279" lon="6.07015">
        <ele>249.9</ele>
        <time>2025-10-05T10:12:06.000Z</time>
      </trkpt>
      <trkpt lat="43.43279" lon="6.07015">
        <ele>249.9</ele>
        <time>2025-10-05T10:12:07.000Z</time>
      </trkpt>
      <trkpt lat="43.43279" lon="6.07015">
        <ele>249.8</ele>
        <time>2025-10-05T10:12:10.000Z</time>
      </trkpt>
      <trkpt lat="43.43279" lon="6.07015">
        <ele>249.8</ele>
        <time>2025-10-05T10:12:11.000Z</time>
      </trkpt>
      <trkpt lat="43.43278" lon="6.07011">
        <ele>249.7</ele>
        <time>2025-10-05T10:12:29.000Z</time>
      </trkpt>
      <trkpt lat="43.43278" lon="6.07011">
        <ele>249.7</ele>
        <time>2025-10-05T10:12:30.000Z</time>
      </trkpt>
      <trkpt lat="43.43278" lon="6.07011">
        <ele>249.7</ele>
        <time>2025-10-05T10:12:31.000Z</time>
      </trkpt>
      <trkpt lat="43.43276" lon="6.07012">
        <ele>249.7</ele>
        <time>2025-10-05T10:12:37.000Z</time>
      </trkpt>
      <trkpt lat="43.43275" lon="6.07013">
        <ele>249.7</ele>
        <time>2025-10-05T10:12:38.000Z</time>
      </trkpt>
      <trkpt lat="43.43275" lon="6.07013">
        <ele>249.7</ele>
        <time>2025-10-05T10:12:39.000Z</time>
      </trkpt>
      <trkpt lat="43.43275" lon="6.07013">
        <ele>249.7</ele>
        <time>2025-10-05T10:12:42.000Z</time>
      </trkpt>
      <trkpt lat="43.43275" lon="6.07013">
        <ele>249.7</ele>
        <time>2025-10-05T10:12:43.000Z</time>
      </trkpt>
      <trkpt lat="43.43276" lon="6.07009">
        <ele>249.7</ele>
        <time>2025-10-05T10:12:50.000Z</time>
      </trkpt>
      <trkpt lat="43.43276" lon="6.07008">
        <ele>249.7</ele>
        <time>2025-10-05T10:12:51.000Z</time>
      </trkpt>
      <trkpt lat="43.43277" lon="6.07006">
        <ele>249.7</ele>
        <time>2025-10-05T10:12:52.000Z</time>
      </trkpt>
      <trkpt lat="43.43281" lon="6.06995">
        <ele>249.7</ele>
        <time>2025-10-05T10:13:00.000Z</time>
      </trkpt>
      <trkpt lat="43.43285" lon="6.06983">
        <ele>249.7</ele>
        <time>2025-10-05T10:13:08.000Z</time>
      </trkpt>
      <trkpt lat="43.43288" lon="6.06971">
        <ele>249.6</ele>
        <time>2025-10-05T10:13:17.000Z</time>
      </trkpt>
      <trkpt lat="43.4329" lon="6.06958">
        <ele>249.6</ele>
        <time>2025-10-05T10:13:26.000Z</time>
      </trkpt>
      <trkpt lat="43.43289" lon="6.06945">
        <ele>249.7</ele>
        <time>2025-10-05T10:13:35.000Z</time>
      </trkpt>
      <trkpt lat="43.43289" lon="6.06933">
        <ele>249.7</ele>
        <time>2025-10-05T10:13:45.000Z</time>
      </trkpt>
      <trkpt lat="43.43287" lon="6.06921">
        <ele>250.6</ele>
        <time>2025-10-05T10:14:04.000Z</time>
      </trkpt>
      <trkpt lat="43.43287" lon="6.06921">
        <ele>250.6</ele>
        <time>2025-10-05T10:14:05.000Z</time>
      </trkpt>
      <trkpt lat="43.43287" lon="6.06921">
        <ele>250.6</ele>
        <time>2025-10-05T10:14:06.000Z</time>
      </trkpt>
      <trkpt lat="43.43287" lon="6.06921">
        <ele>250.6</ele>
        <time>2025-10-05T10:14:09.000Z</time>
      </trkpt>
      <trkpt lat="43.43287" lon="6.06921">
        <ele>250.6</ele>
        <time>2025-10-05T10:14:10.000Z</time>
      </trkpt>
      <trkpt lat="43.43287" lon="6.0692">
        <ele>250.7</ele>
        <time>2025-10-05T10:14:11.000Z</time>
      </trkpt>
      <trkpt lat="43.43287" lon="6.0692">
        <ele>250.7</ele>
        <time>2025-10-05T10:14:12.000Z</time>
      </trkpt>
      <trkpt lat="43.43287" lon="6.0692">
        <ele>250.7</ele>
        <time>2025-10-05T10:14:13.000Z</time>
      </trkpt>
      <trkpt lat="43.43287" lon="6.0692">
        <ele>250.7</ele>
        <time>2025-10-05T10:14:14.000Z</time>
      </trkpt>
      <trkpt lat="43.43287" lon="6.06919">
        <ele>251</ele>
        <time>2025-10-05T10:14:20.000Z</time>
      </trkpt>
      <trkpt lat="43.43286" lon="6.06919">
        <ele>251</ele>
        <time>2025-10-05T10:14:21.000Z</time>
      </trkpt>
      <trkpt lat="43.43286" lon="6.06919">
        <ele>251</ele>
        <time>2025-10-05T10:14:22.000Z</time>
      </trkpt>
      <trkpt lat="43.43286" lon="6.06919">
        <ele>251.1</ele>
        <time>2025-10-05T10:14:23.000Z</time>
      </trkpt>
      <trkpt lat="43.43286" lon="6.06919">
        <ele>251.1</ele>
        <time>2025-10-05T10:14:24.000Z</time>
      </trkpt>
      <trkpt lat="43.43285" lon="6.06918">
        <ele>251.1</ele>
        <time>2025-10-05T10:14:37.000Z</time>
      </trkpt>
      <trkpt lat="43.43285" lon="6.06918">
        <ele>251.1</ele>
        <time>2025-10-05T10:14:38.000Z</time>
      </trkpt>
      <trkpt lat="43.43285" lon="6.06918">
        <ele>251.1</ele>
        <time>2025-10-05T10:14:39.000Z</time>
      </trkpt>
      <trkpt lat="43.43285" lon="6.06918">
        <ele>251.1</ele>
        <time>2025-10-05T10:14:40.000Z</time>
      </trkpt>
      <trkpt lat="43.43285" lon="6.06918">
        <ele>251.1</ele>
        <time>2025-10-05T10:14:41.000Z</time>
      </trkpt>
      <trkpt lat="43.43285" lon="6.06918">
        <ele>251.1</ele>
        <time>2025-10-05T10:14:42.000Z</time>
      </trkpt>
      <trkpt lat="43.43285" lon="6.06917">
        <ele>251.1</ele>
        <time>2025-10-05T10:14:45.000Z</time>
      </trkpt>
      <trkpt lat="43.43285" lon="6.06916">
        <ele>251.1</ele>
        <time>2025-10-05T10:14:46.000Z</time>
      </trkpt>
      <trkpt lat="43.43284" lon="6.06905">
        <ele>251.9</ele>
        <time>2025-10-05T10:15:02.000Z</time>
      </trkpt>
      <trkpt lat="43.43284" lon="6.06905">
        <ele>252</ele>
        <time>2025-10-05T10:15:03.000Z</time>
      </trkpt>
      <trkpt lat="43.43284" lon="6.06905">
        <ele>252.1</ele>
        <time>2025-10-05T10:15:04.000Z</time>
      </trkpt>
      <trkpt lat="43.43285" lon="6.06901">
        <ele>252.5</ele>
        <time>2025-10-05T10:15:08.000Z</time>
      </trkpt>
      <trkpt lat="43.43285" lon="6.069">
        <ele>252.6</ele>
        <time>2025-10-05T10:15:09.000Z</time>
      </trkpt>
      <trkpt lat="43.43285" lon="6.06886">
        <ele>253.6</ele>
        <time>2025-10-05T10:15:19.000Z</time>
      </trkpt>
      <trkpt lat="43.43283" lon="6.06874">
        <ele>255.3</ele>
        <time>2025-10-05T10:15:29.000Z</time>
      </trkpt>
      <trkpt lat="43.43281" lon="6.06861">
        <ele>256.9</ele>
        <time>2025-10-05T10:15:42.000Z</time>
      </trkpt>
      <trkpt lat="43.43278" lon="6.06849">
        <ele>258.1</ele>
        <time>2025-10-05T10:15:53.000Z</time>
      </trkpt>
      <trkpt lat="43.43276" lon="6.06837">
        <ele>259</ele>
        <time>2025-10-05T10:16:03.000Z</time>
      </trkpt>
      <trkpt lat="43.43272" lon="6.06826">
        <ele>259.8</ele>
        <time>2025-10-05T10:16:13.000Z</time>
      </trkpt>
      <trkpt lat="43.4327" lon="6.06813">
        <ele>260.1</ele>
        <time>2025-10-05T10:16:23.000Z</time>
      </trkpt>
      <trkpt lat="43.43267" lon="6.06801">
        <ele>260.7</ele>
        <time>2025-10-05T10:16:33.000Z</time>
      </trkpt>
      <trkpt lat="43.43265" lon="6.06788">
        <ele>261.4</ele>
        <time>2025-10-05T10:16:43.000Z</time>
      </trkpt>
      <trkpt lat="43.43261" lon="6.06777">
        <ele>261.9</ele>
        <time>2025-10-05T10:16:58.000Z</time>
      </trkpt>
      <trkpt lat="43.43259" lon="6.06766">
        <ele>262.2</ele>
        <time>2025-10-05T10:17:22.000Z</time>
      </trkpt>
      <trkpt lat="43.43259" lon="6.06766">
        <ele>262.3</ele>
        <time>2025-10-05T10:17:23.000Z</time>
      </trkpt>
      <trkpt lat="43.43259" lon="6.06766">
        <ele>262.4</ele>
        <time>2025-10-05T10:17:27.000Z</time>
      </trkpt>
      <trkpt lat="43.43259" lon="6.06766">
        <ele>262.4</ele>
        <time>2025-10-05T10:17:28.000Z</time>
      </trkpt>
      <trkpt lat="43.43259" lon="6.06766">
        <ele>262.4</ele>
        <time>2025-10-05T10:17:29.000Z</time>
      </trkpt>
      <trkpt lat="43.43259" lon="6.06766">
        <ele>262.5</ele>
        <time>2025-10-05T10:17:30.000Z</time>
      </trkpt>
      <trkpt lat="43.43259" lon="6.06766">
        <ele>262.5</ele>
        <time>2025-10-05T10:17:31.000Z</time>
      </trkpt>
      <trkpt lat="43.43259" lon="6.06766">
        <ele>262.5</ele>
        <time>2025-10-05T10:17:32.000Z</time>
      </trkpt>
      <trkpt lat="43.43259" lon="6.06766">
        <ele>262.5</ele>
        <time>2025-10-05T10:17:35.000Z</time>
      </trkpt>
      <trkpt lat="43.43259" lon="6.06766">
        <ele>262.5</ele>
        <time>2025-10-05T10:17:36.000Z</time>
      </trkpt>
      <trkpt lat="43.43259" lon="6.06766">
        <ele>262.5</ele>
        <time>2025-10-05T10:17:39.000Z</time>
      </trkpt>
      <trkpt lat="43.43259" lon="6.06766">
        <ele>262.5</ele>
        <time>2025-10-05T10:17:40.000Z</time>
      </trkpt>
      <trkpt lat="43.43259" lon="6.06766">
        <ele>262.4</ele>
        <time>2025-10-05T10:17:41.000Z</time>
      </trkpt>
      <trkpt lat="43.43259" lon="6.06766">
        <ele>262.4</ele>
        <time>2025-10-05T10:17:42.000Z</time>
      </trkpt>
      <trkpt lat="43.43259" lon="6.06766">
        <ele>262.3</ele>
        <time>2025-10-05T10:17:43.000Z</time>
      </trkpt>
      <trkpt lat="43.43259" lon="6.06766">
        <ele>262.2</ele>
        <time>2025-10-05T10:17:44.000Z</time>
      </trkpt>
      <trkpt lat="43.43253" lon="6.0676">
        <ele>261.8</ele>
        <time>2025-10-05T10:18:04.000Z</time>
      </trkpt>
      <trkpt lat="43.43253" lon="6.0676">
        <ele>261.8</ele>
        <time>2025-10-05T10:18:05.000Z</time>
      </trkpt>
      <trkpt lat="43.43253" lon="6.0676">
        <ele>261.8</ele>
        <time>2025-10-05T10:18:06.000Z</time>
      </trkpt>
      <trkpt lat="43.43253" lon="6.0676">
        <ele>261.8</ele>
        <time>2025-10-05T10:18:09.000Z</time>
      </trkpt>
      <trkpt lat="43.43252" lon="6.0676">
        <ele>261.8</ele>
        <time>2025-10-05T10:18:10.000Z</time>
      </trkpt>
      <trkpt lat="43.43252" lon="6.06761">
        <ele>261.8</ele>
        <time>2025-10-05T10:18:11.000Z</time>
      </trkpt>
      <trkpt lat="43.43252" lon="6.06761">
        <ele>261.7</ele>
        <time>2025-10-05T10:18:20.000Z</time>
      </trkpt>
      <trkpt lat="43.43252" lon="6.06761">
        <ele>261.8</ele>
        <time>2025-10-05T10:18:21.000Z</time>
      </trkpt>
      <trkpt lat="43.43252" lon="6.06762">
        <ele>261.8</ele>
        <time>2025-10-05T10:18:24.000Z</time>
      </trkpt>
      <trkpt lat="43.43251" lon="6.06762">
        <ele>261.9</ele>
        <time>2025-10-05T10:18:25.000Z</time>
      </trkpt>
      <trkpt lat="43.43252" lon="6.06762">
        <ele>261.9</ele>
        <time>2025-10-05T10:18:26.000Z</time>
      </trkpt>
      <trkpt lat="43.43252" lon="6.06762">
        <ele>262</ele>
        <time>2025-10-05T10:18:30.000Z</time>
      </trkpt>
      <trkpt lat="43.43252" lon="6.06762">
        <ele>262</ele>
        <time>2025-10-05T10:18:31.000Z</time>
      </trkpt>
      <trkpt lat="43.43252" lon="6.06762">
        <ele>262</ele>
        <time>2025-10-05T10:18:32.000Z</time>
      </trkpt>
      <trkpt lat="43.43252" lon="6.06763">
        <ele>262.1</ele>
        <time>2025-10-05T10:19:04.000Z</time>
      </trkpt>
      <trkpt lat="43.43252" lon="6.06763">
        <ele>262.1</ele>
        <time>2025-10-05T10:19:05.000Z</time>
      </trkpt>
      <trkpt lat="43.43252" lon="6.06763">
        <ele>262.1</ele>
        <time>2025-10-05T10:19:06.000Z</time>
      </trkpt>
      <trkpt lat="43.43252" lon="6.06763">
        <ele>262.1</ele>
        <time>2025-10-05T10:19:07.000Z</time>
      </trkpt>
      <trkpt lat="43.43252" lon="6.06763">
        <ele>262.1</ele>
        <time>2025-10-05T10:19:08.000Z</time>
      </trkpt>
      <trkpt lat="43.43252" lon="6.06763">
        <ele>262.1</ele>
        <time>2025-10-05T10:19:09.000Z</time>
      </trkpt>
      <trkpt lat="43.43253" lon="6.06762">
        <ele>261.8</ele>
        <time>2025-10-05T10:19:58.000Z</time>
      </trkpt>
      <trkpt lat="43.43252" lon="6.06762">
        <ele>261.8</ele>
        <time>2025-10-05T10:19:59.000Z</time>
      </trkpt>
      <trkpt lat="43.43252" lon="6.06762">
        <ele>261.8</ele>
        <time>2025-10-05T10:20:02.000Z</time>
      </trkpt>
      <trkpt lat="43.43252" lon="6.06762">
        <ele>261.8</ele>
        <time>2025-10-05T10:20:03.000Z</time>
      </trkpt>
      <trkpt lat="43.43252" lon="6.06762">
        <ele>261.8</ele>
        <time>2025-10-05T10:20:04.000Z</time>
      </trkpt>
      <trkpt lat="43.43252" lon="6.06762">
        <ele>261.5</ele>
        <time>2025-10-05T10:20:20.000Z</time>
      </trkpt>
      <trkpt lat="43.43252" lon="6.06761">
        <ele>261.5</ele>
        <time>2025-10-05T10:20:21.000Z</time>
      </trkpt>
      <trkpt lat="43.43246" lon="6.0675">
        <ele>261.4</ele>
        <time>2025-10-05T10:20:29.000Z</time>
      </trkpt>
      <trkpt lat="43.4324" lon="6.06738">
        <ele>261.4</ele>
        <time>2025-10-05T10:20:37.000Z</time>
      </trkpt>
      <trkpt lat="43.43236" lon="6.06727">
        <ele>261.3</ele>
        <time>2025-10-05T10:20:45.000Z</time>
      </trkpt>
      <trkpt lat="43.4323" lon="6.06716">
        <ele>261.4</ele>
        <time>2025-10-05T10:20:53.000Z</time>
      </trkpt>
      <trkpt lat="43.43224" lon="6.06705">
        <ele>261.4</ele>
        <time>2025-10-05T10:21:02.000Z</time>
      </trkpt>
      <trkpt lat="43.43217" lon="6.06695">
        <ele>261.4</ele>
        <time>2025-10-05T10:21:14.000Z</time>
      </trkpt>
      <trkpt lat="43.4321" lon="6.06685">
        <ele>261.7</ele>
        <time>2025-10-05T10:21:21.000Z</time>
      </trkpt>
      <trkpt lat="43.43206" lon="6.06673">
        <ele>262.4</ele>
        <time>2025-10-05T10:21:30.000Z</time>
      </trkpt>
      <trkpt lat="43.43204" lon="6.0666">
        <ele>263.2</ele>
        <time>2025-10-05T10:21:39.000Z</time>
      </trkpt>
      <trkpt lat="43.43203" lon="6.06647">
        <ele>263.1</ele>
        <time>2025-10-05T10:21:50.000Z</time>
      </trkpt>
      <trkpt lat="43.43202" lon="6.06634">
        <ele>263.2</ele>
        <time>2025-10-05T10:21:58.000Z</time>
      </trkpt>
      <trkpt lat="43.43199" lon="6.06621">
        <ele>263.1</ele>
        <time>2025-10-05T10:22:08.000Z</time>
      </trkpt>
      <trkpt lat="43.43194" lon="6.06608">
        <ele>263</ele>
        <time>2025-10-05T10:22:16.000Z</time>
      </trkpt>
      <trkpt lat="43.4319" lon="6.06596">
        <ele>263.3</ele>
        <time>2025-10-05T10:22:26.000Z</time>
      </trkpt>
      <trkpt lat="43.43186" lon="6.06584">
        <ele>263.8</ele>
        <time>2025-10-05T10:22:37.000Z</time>
      </trkpt>
      <trkpt lat="43.43183" lon="6.06572">
        <ele>264.2</ele>
        <time>2025-10-05T10:22:48.000Z</time>
      </trkpt>
      <trkpt lat="43.43177" lon="6.0656">
        <ele>264.9</ele>
        <time>2025-10-05T10:22:56.000Z</time>
      </trkpt>
      <trkpt lat="43.43173" lon="6.06549">
        <ele>265.1</ele>
        <time>2025-10-05T10:23:04.000Z</time>
      </trkpt>
      <trkpt lat="43.43168" lon="6.06538">
        <ele>265.5</ele>
        <time>2025-10-05T10:23:13.000Z</time>
      </trkpt>
      <trkpt lat="43.43167" lon="6.06526">
        <ele>265.9</ele>
        <time>2025-10-05T10:23:23.000Z</time>
      </trkpt>
      <trkpt lat="43.43164" lon="6.06514">
        <ele>266.5</ele>
        <time>2025-10-05T10:23:32.000Z</time>
      </trkpt>
      <trkpt lat="43.43161" lon="6.06501">
        <ele>267.2</ele>
        <time>2025-10-05T10:23:42.000Z</time>
      </trkpt>
      <trkpt lat="43.43159" lon="6.06488">
        <ele>267.4</ele>
        <time>2025-10-05T10:23:49.000Z</time>
      </trkpt>
      <trkpt lat="43.43154" lon="6.06475">
        <ele>267.7</ele>
        <time>2025-10-05T10:23:59.000Z</time>
      </trkpt>
      <trkpt lat="43.43151" lon="6.06462">
        <ele>267.8</ele>
        <time>2025-10-05T10:24:07.000Z</time>
      </trkpt>
      <trkpt lat="43.43148" lon="6.06449">
        <ele>267.9</ele>
        <time>2025-10-05T10:24:16.000Z</time>
      </trkpt>
      <trkpt lat="43.43147" lon="6.06436">
        <ele>267.9</ele>
        <time>2025-10-05T10:24:24.000Z</time>
      </trkpt>
      <trkpt lat="43.43147" lon="6.06423">
        <ele>267.9</ele>
        <time>2025-10-05T10:24:34.000Z</time>
      </trkpt>
      <trkpt lat="43.43145" lon="6.0641">
        <ele>268.1</ele>
        <time>2025-10-05T10:24:43.000Z</time>
      </trkpt>
      <trkpt lat="43.43145" lon="6.06397">
        <ele>268.6</ele>
        <time>2025-10-05T10:24:52.000Z</time>
      </trkpt>
      <trkpt lat="43.43143" lon="6.06385">
        <ele>268.9</ele>
        <time>2025-10-05T10:25:00.000Z</time>
      </trkpt>
      <trkpt lat="43.43142" lon="6.06372">
        <ele>269</ele>
        <time>2025-10-05T10:25:09.000Z</time>
      </trkpt>
      <trkpt lat="43.43141" lon="6.06359">
        <ele>269.2</ele>
        <time>2025-10-05T10:25:18.000Z</time>
      </trkpt>
      <trkpt lat="43.43139" lon="6.06346">
        <ele>269.5</ele>
        <time>2025-10-05T10:25:28.000Z</time>
      </trkpt>
      <trkpt lat="43.43135" lon="6.06334">
        <ele>270.1</ele>
        <time>2025-10-05T10:25:38.000Z</time>
      </trkpt>
      <trkpt lat="43.43134" lon="6.06321">
        <ele>270.9</ele>
        <time>2025-10-05T10:25:47.000Z</time>
      </trkpt>
      <trkpt lat="43.43131" lon="6.06308">
        <ele>271.6</ele>
        <time>2025-10-05T10:25:57.000Z</time>
      </trkpt>
      <trkpt lat="43.4313" lon="6.06295">
        <ele>272.5</ele>
        <time>2025-10-05T10:26:08.000Z</time>
      </trkpt>
      <trkpt lat="43.43133" lon="6.06283">
        <ele>272.6</ele>
        <time>2025-10-05T10:26:18.000Z</time>
      </trkpt>
      <trkpt lat="43.4313" lon="6.0627">
        <ele>272.6</ele>
        <time>2025-10-05T10:26:28.000Z</time>
      </trkpt>
      <trkpt lat="43.4313" lon="6.06258">
        <ele>272.6</ele>
        <time>2025-10-05T10:26:37.000Z</time>
      </trkpt>
      <trkpt lat="43.43131" lon="6.06245">
        <ele>272.7</ele>
        <time>2025-10-05T10:26:48.000Z</time>
      </trkpt>
      <trkpt lat="43.43128" lon="6.06232">
        <ele>272.8</ele>
        <time>2025-10-05T10:26:59.000Z</time>
      </trkpt>
      <trkpt lat="43.43128" lon="6.06219">
        <ele>273.1</ele>
        <time>2025-10-05T10:27:09.000Z</time>
      </trkpt>
      <trkpt lat="43.43128" lon="6.06206">
        <ele>273.7</ele>
        <time>2025-10-05T10:27:17.000Z</time>
      </trkpt>
      <trkpt lat="43.43126" lon="6.06193">
        <ele>274.6</ele>
        <time>2025-10-05T10:27:27.000Z</time>
      </trkpt>
      <trkpt lat="43.4313" lon="6.0618">
        <ele>274.9</ele>
        <time>2025-10-05T10:27:37.000Z</time>
      </trkpt>
      <trkpt lat="43.43134" lon="6.06169">
        <ele>274.9</ele>
        <time>2025-10-05T10:27:46.000Z</time>
      </trkpt>
      <trkpt lat="43.43136" lon="6.06157">
        <ele>275.2</ele>
        <time>2025-10-05T10:27:54.000Z</time>
      </trkpt>
      <trkpt lat="43.43139" lon="6.06144">
        <ele>275.3</ele>
        <time>2025-10-05T10:28:03.000Z</time>
      </trkpt>
      <trkpt lat="43.43141" lon="6.06131">
        <ele>275.4</ele>
        <time>2025-10-05T10:28:13.000Z</time>
      </trkpt>
      <trkpt lat="43.4314" lon="6.06118">
        <ele>275.6</ele>
        <time>2025-10-05T10:28:22.000Z</time>
      </trkpt>
      <trkpt lat="43.43142" lon="6.06105">
        <ele>275.9</ele>
        <time>2025-10-05T10:28:34.000Z</time>
      </trkpt>
      <trkpt lat="43.43146" lon="6.06092">
        <ele>276.3</ele>
        <time>2025-10-05T10:28:44.000Z</time>
      </trkpt>
      <trkpt lat="43.43149" lon="6.06081">
        <ele>276.5</ele>
        <time>2025-10-05T10:28:51.000Z</time>
      </trkpt>
      <trkpt lat="43.43155" lon="6.0607">
        <ele>276.5</ele>
        <time>2025-10-05T10:28:59.000Z</time>
      </trkpt>
      <trkpt lat="43.43156" lon="6.06056">
        <ele>276.5</ele>
        <time>2025-10-05T10:29:08.000Z</time>
      </trkpt>
      <trkpt lat="43.43158" lon="6.06044">
        <ele>276.5</ele>
        <time>2025-10-05T10:29:16.000Z</time>
      </trkpt>
      <trkpt lat="43.43159" lon="6.06031">
        <ele>276.4</ele>
        <time>2025-10-05T10:29:24.000Z</time>
      </trkpt>
      <trkpt lat="43.43161" lon="6.06017">
        <ele>276.3</ele>
        <time>2025-10-05T10:29:34.000Z</time>
      </trkpt>
      <trkpt lat="43.43164" lon="6.06005">
        <ele>276.2</ele>
        <time>2025-10-05T10:29:43.000Z</time>
      </trkpt>
      <trkpt lat="43.43169" lon="6.05994">
        <ele>276</ele>
        <time>2025-10-05T10:29:51.000Z</time>
      </trkpt>
      <trkpt lat="43.43173" lon="6.05982">
        <ele>275.6</ele>
        <time>2025-10-05T10:29:59.000Z</time>
      </trkpt>
      <trkpt lat="43.43176" lon="6.05969">
        <ele>275.4</ele>
        <time>2025-10-05T10:30:08.000Z</time>
      </trkpt>
      <trkpt lat="43.4318" lon="6.05957">
        <ele>275.5</ele>
        <time>2025-10-05T10:30:17.000Z</time>
      </trkpt>
      <trkpt lat="43.43181" lon="6.05944">
        <ele>275.7</ele>
        <time>2025-10-05T10:30:26.000Z</time>
      </trkpt>
      <trkpt lat="43.43185" lon="6.05933">
        <ele>275.8</ele>
        <time>2025-10-05T10:30:35.000Z</time>
      </trkpt>
      <trkpt lat="43.43184" lon="6.0592">
        <ele>275.8</ele>
        <time>2025-10-05T10:30:44.000Z</time>
      </trkpt>
      <trkpt lat="43.4319" lon="6.0591">
        <ele>275.7</ele>
        <time>2025-10-05T10:30:52.000Z</time>
      </trkpt>
      <trkpt lat="43.43195" lon="6.05898">
        <ele>275.6</ele>
        <time>2025-10-05T10:31:01.000Z</time>
      </trkpt>
      <trkpt lat="43.43196" lon="6.05885">
        <ele>275.3</ele>
        <time>2025-10-05T10:31:11.000Z</time>
      </trkpt>
      <trkpt lat="43.43195" lon="6.05872">
        <ele>275.6</ele>
        <time>2025-10-05T10:31:21.000Z</time>
      </trkpt>
      <trkpt lat="43.43197" lon="6.0586">
        <ele>275.7</ele>
        <time>2025-10-05T10:31:29.000Z</time>
      </trkpt>
      <trkpt lat="43.43199" lon="6.05847">
        <ele>275.9</ele>
        <time>2025-10-05T10:31:39.000Z</time>
      </trkpt>
      <trkpt lat="43.432" lon="6.05839">
        <ele>275.9</ele>
        <time>2025-10-05T10:31:47.000Z</time>
      </trkpt>
      <trkpt lat="43.432" lon="6.05838">
        <ele>276</ele>
        <time>2025-10-05T10:31:48.000Z</time>
      </trkpt>
      <trkpt lat="43.432" lon="6.05837">
        <ele>276</ele>
        <time>2025-10-05T10:31:49.000Z</time>
      </trkpt>
      <trkpt lat="43.432" lon="6.05836">
        <ele>276</ele>
        <time>2025-10-05T10:31:50.000Z</time>
      </trkpt>
      <trkpt lat="43.432" lon="6.05835">
        <ele>276</ele>
        <time>2025-10-05T10:31:51.000Z</time>
      </trkpt>
      <trkpt lat="43.432" lon="6.05833">
        <ele>276</ele>
        <time>2025-10-05T10:31:52.000Z</time>
      </trkpt>
      <trkpt lat="43.43201" lon="6.0582">
        <ele>276.2</ele>
        <time>2025-10-05T10:32:04.000Z</time>
      </trkpt>
      <trkpt lat="43.43205" lon="6.05809">
        <ele>276.3</ele>
        <time>2025-10-05T10:32:11.000Z</time>
      </trkpt>
      <trkpt lat="43.43209" lon="6.05797">
        <ele>276.3</ele>
        <time>2025-10-05T10:32:20.000Z</time>
      </trkpt>
      <trkpt lat="43.43211" lon="6.05784">
        <ele>276.3</ele>
        <time>2025-10-05T10:32:29.000Z</time>
      </trkpt>
      <trkpt lat="43.43212" lon="6.05771">
        <ele>276.4</ele>
        <time>2025-10-05T10:32:38.000Z</time>
      </trkpt>
      <trkpt lat="43.43213" lon="6.05757">
        <ele>276.5</ele>
        <time>2025-10-05T10:32:47.000Z</time>
      </trkpt>
      <trkpt lat="43.43214" lon="6.05744">
        <ele>276.5</ele>
        <time>2025-10-05T10:32:56.000Z</time>
      </trkpt>
      <trkpt lat="43.43215" lon="6.05731">
        <ele>276.5</ele>
        <time>2025-10-05T10:33:10.000Z</time>
      </trkpt>
      <trkpt lat="43.43216" lon="6.05725">
        <ele>276.5</ele>
        <time>2025-10-05T10:33:22.000Z</time>
      </trkpt>
      <trkpt lat="43.43216" lon="6.05725">
        <ele>276.5</ele>
        <time>2025-10-05T10:33:23.000Z</time>
      </trkpt>
      <trkpt lat="43.43216" lon="6.05727">
        <ele>276.5</ele>
        <time>2025-10-05T10:33:30.000Z</time>
      </trkpt>
      <trkpt lat="43.43217" lon="6.05727">
        <ele>276.5</ele>
        <time>2025-10-05T10:33:31.000Z</time>
      </trkpt>
      <trkpt lat="43.43216" lon="6.05737">
        <ele>276.4</ele>
        <time>2025-10-05T10:33:43.000Z</time>
      </trkpt>
      <trkpt lat="43.43216" lon="6.05737">
        <ele>276.4</ele>
        <time>2025-10-05T10:33:44.000Z</time>
      </trkpt>
      <trkpt lat="43.43217" lon="6.05735">
        <ele>276.4</ele>
        <time>2025-10-05T10:34:00.000Z</time>
      </trkpt>
      <trkpt lat="43.43217" lon="6.05735">
        <ele>276.4</ele>
        <time>2025-10-05T10:34:01.000Z</time>
      </trkpt>
      <trkpt lat="43.43217" lon="6.05735">
        <ele>276.4</ele>
        <time>2025-10-05T10:34:02.000Z</time>
      </trkpt>
      <trkpt lat="43.43217" lon="6.05735">
        <ele>276.4</ele>
        <time>2025-10-05T10:34:03.000Z</time>
      </trkpt>
      <trkpt lat="43.43216" lon="6.05734">
        <ele>276.4</ele>
        <time>2025-10-05T10:34:40.000Z</time>
      </trkpt>
      <trkpt lat="43.43217" lon="6.05733">
        <ele>276.3</ele>
        <time>2025-10-05T10:34:41.000Z</time>
      </trkpt>
      <trkpt lat="43.43216" lon="6.05726">
        <ele>276.2</ele>
        <time>2025-10-05T10:34:52.000Z</time>
      </trkpt>
      <trkpt lat="43.43216" lon="6.05726">
        <ele>276.2</ele>
        <time>2025-10-05T10:34:53.000Z</time>
      </trkpt>
      <trkpt lat="43.43216" lon="6.05726">
        <ele>276.2</ele>
        <time>2025-10-05T10:34:54.000Z</time>
      </trkpt>
      <trkpt lat="43.43216" lon="6.05724">
        <ele>276.2</ele>
        <time>2025-10-05T10:35:02.000Z</time>
      </trkpt>
      <trkpt lat="43.43217" lon="6.05723">
        <ele>276.3</ele>
        <time>2025-10-05T10:35:03.000Z</time>
      </trkpt>
      <trkpt lat="43.4322" lon="6.05709">
        <ele>276.3</ele>
        <time>2025-10-05T10:35:12.000Z</time>
      </trkpt>
      <trkpt lat="43.43221" lon="6.05696">
        <ele>276.3</ele>
        <time>2025-10-05T10:35:20.000Z</time>
      </trkpt>
      <trkpt lat="43.43222" lon="6.05684">
        <ele>276.2</ele>
        <time>2025-10-05T10:35:29.000Z</time>
      </trkpt>
      <trkpt lat="43.43221" lon="6.0567">
        <ele>276.2</ele>
        <time>2025-10-05T10:35:37.000Z</time>
      </trkpt>
      <trkpt lat="43.43221" lon="6.05657">
        <ele>275.9</ele>
        <time>2025-10-05T10:35:49.000Z</time>
      </trkpt>
      <trkpt lat="43.43223" lon="6.05644">
        <ele>275.5</ele>
        <time>2025-10-05T10:35:58.000Z</time>
      </trkpt>
      <trkpt lat="43.43224" lon="6.05631">
        <ele>275.1</ele>
        <time>2025-10-05T10:36:06.000Z</time>
      </trkpt>
      <trkpt lat="43.43227" lon="6.05619">
        <ele>275.1</ele>
        <time>2025-10-05T10:36:13.000Z</time>
      </trkpt>
      <trkpt lat="43.43231" lon="6.05607">
        <ele>275.3</ele>
        <time>2025-10-05T10:36:20.000Z</time>
      </trkpt>
      <trkpt lat="43.43231" lon="6.05593">
        <ele>275.5</ele>
        <time>2025-10-05T10:36:28.000Z</time>
      </trkpt>
      <trkpt lat="43.43233" lon="6.05581">
        <ele>275.8</ele>
        <time>2025-10-05T10:36:37.000Z</time>
      </trkpt>
      <trkpt lat="43.43234" lon="6.05567">
        <ele>275.9</ele>
        <time>2025-10-05T10:36:46.000Z</time>
      </trkpt>
      <trkpt lat="43.43238" lon="6.05555">
        <ele>275.8</ele>
        <time>2025-10-05T10:36:54.000Z</time>
      </trkpt>
      <trkpt lat="43.4324" lon="6.05542">
        <ele>275.8</ele>
        <time>2025-10-05T10:37:01.000Z</time>
      </trkpt>
      <trkpt lat="43.43243" lon="6.05529">
        <ele>275.7</ele>
        <time>2025-10-05T10:37:10.000Z</time>
      </trkpt>
      <trkpt lat="43.43247" lon="6.05517">
        <ele>275.4</ele>
        <time>2025-10-05T10:37:18.000Z</time>
      </trkpt>
      <trkpt lat="43.43252" lon="6.05506">
        <ele>274.9</ele>
        <time>2025-10-05T10:37:26.000Z</time>
      </trkpt>
      <trkpt lat="43.43255" lon="6.05494">
        <ele>273.9</ele>
        <time>2025-10-05T10:37:35.000Z</time>
      </trkpt>
      <trkpt lat="43.4326" lon="6.05482">
        <ele>272.7</ele>
        <time>2025-10-05T10:37:45.000Z</time>
      </trkpt>
      <trkpt lat="43.43261" lon="6.0547">
        <ele>271.8</ele>
        <time>2025-10-05T10:37:55.000Z</time>
      </trkpt>
      <trkpt lat="43.43267" lon="6.05459">
        <ele>271.1</ele>
        <time>2025-10-05T10:38:04.000Z</time>
      </trkpt>
      <trkpt lat="43.4327" lon="6.05447">
        <ele>270.4</ele>
        <time>2025-10-05T10:38:13.000Z</time>
      </trkpt>
      <trkpt lat="43.43275" lon="6.05436">
        <ele>269.8</ele>
        <time>2025-10-05T10:38:21.000Z</time>
      </trkpt>
      <trkpt lat="43.43277" lon="6.05424">
        <ele>269.4</ele>
        <time>2025-10-05T10:38:30.000Z</time>
      </trkpt>
      <trkpt lat="43.43283" lon="6.05414">
        <ele>269</ele>
        <time>2025-10-05T10:38:39.000Z</time>
      </trkpt>
      <trkpt lat="43.43285" lon="6.05401">
        <ele>268.9</ele>
        <time>2025-10-05T10:38:46.000Z</time>
      </trkpt>
      <trkpt lat="43.4329" lon="6.0539">
        <ele>268.8</ele>
        <time>2025-10-05T10:38:55.000Z</time>
      </trkpt>
      <trkpt lat="43.43296" lon="6.05381">
        <ele>268.7</ele>
        <time>2025-10-05T10:39:04.000Z</time>
      </trkpt>
      <trkpt lat="43.43303" lon="6.05372">
        <ele>268.8</ele>
        <time>2025-10-05T10:39:11.000Z</time>
      </trkpt>
      <trkpt lat="43.43308" lon="6.05361">
        <ele>268.8</ele>
        <time>2025-10-05T10:39:19.000Z</time>
      </trkpt>
      <trkpt lat="43.43313" lon="6.0535">
        <ele>269</ele>
        <time>2025-10-05T10:39:26.000Z</time>
      </trkpt>
      <trkpt lat="43.43318" lon="6.05339">
        <ele>269.2</ele>
        <time>2025-10-05T10:39:35.000Z</time>
      </trkpt>
      <trkpt lat="43.43322" lon="6.05326">
        <ele>269.2</ele>
        <time>2025-10-05T10:39:44.000Z</time>
      </trkpt>
      <trkpt lat="43.43327" lon="6.05315">
        <ele>269</ele>
        <time>2025-10-05T10:39:52.000Z</time>
      </trkpt>
      <trkpt lat="43.43331" lon="6.05303">
        <ele>268.9</ele>
        <time>2025-10-05T10:40:00.000Z</time>
      </trkpt>
      <trkpt lat="43.43336" lon="6.05291">
        <ele>268.4</ele>
        <time>2025-10-05T10:40:09.000Z</time>
      </trkpt>
      <trkpt lat="43.43339" lon="6.05279">
        <ele>267.9</ele>
        <time>2025-10-05T10:40:17.000Z</time>
      </trkpt>
      <trkpt lat="43.43343" lon="6.05267">
        <ele>267.4</ele>
        <time>2025-10-05T10:40:25.000Z</time>
      </trkpt>
      <trkpt lat="43.43348" lon="6.05256">
        <ele>267.3</ele>
        <time>2025-10-05T10:40:32.000Z</time>
      </trkpt>
      <trkpt lat="43.43353" lon="6.05245">
        <ele>267.3</ele>
        <time>2025-10-05T10:40:40.000Z</time>
      </trkpt>
      <trkpt lat="43.43357" lon="6.05233">
        <ele>267.3</ele>
        <time>2025-10-05T10:40:49.000Z</time>
      </trkpt>
      <trkpt lat="43.43361" lon="6.05221">
        <ele>267.2</ele>
        <time>2025-10-05T10:40:58.000Z</time>
      </trkpt>
      <trkpt lat="43.43365" lon="6.05209">
        <ele>267</ele>
        <time>2025-10-05T10:41:07.000Z</time>
      </trkpt>
      <trkpt lat="43.4337" lon="6.05197">
        <ele>267.1</ele>
        <time>2025-10-05T10:41:15.000Z</time>
      </trkpt>
      <trkpt lat="43.43375" lon="6.05186">
        <ele>267.2</ele>
        <time>2025-10-05T10:41:23.000Z</time>
      </trkpt>
      <trkpt lat="43.43378" lon="6.05174">
        <ele>267.4</ele>
        <time>2025-10-05T10:41:32.000Z</time>
      </trkpt>
      <trkpt lat="43.4338" lon="6.05161">
        <ele>267.8</ele>
        <time>2025-10-05T10:41:41.000Z</time>
      </trkpt>
      <trkpt lat="43.43384" lon="6.05149">
        <ele>268.4</ele>
        <time>2025-10-05T10:41:50.000Z</time>
      </trkpt>
      <trkpt lat="43.43388" lon="6.05138">
        <ele>269.2</ele>
        <time>2025-10-05T10:41:59.000Z</time>
      </trkpt>
      <trkpt lat="43.4339" lon="6.05125">
        <ele>269.9</ele>
        <time>2025-10-05T10:42:08.000Z</time>
      </trkpt>
      <trkpt lat="43.43391" lon="6.05117">
        <ele>270.5</ele>
        <time>2025-10-05T10:42:22.000Z</time>
      </trkpt>
      <trkpt lat="43.43391" lon="6.05117">
        <ele>270.6</ele>
        <time>2025-10-05T10:42:23.000Z</time>
      </trkpt>
      <trkpt lat="43.43392" lon="6.05116">
        <ele>270.9</ele>
        <time>2025-10-05T10:42:35.000Z</time>
      </trkpt>
      <trkpt lat="43.43392" lon="6.05116">
        <ele>270.9</ele>
        <time>2025-10-05T10:42:36.000Z</time>
      </trkpt>
      <trkpt lat="43.43392" lon="6.05116">
        <ele>270.9</ele>
        <time>2025-10-05T10:42:37.000Z</time>
      </trkpt>
      <trkpt lat="43.43392" lon="6.05115">
        <ele>270.9</ele>
        <time>2025-10-05T10:42:45.000Z</time>
      </trkpt>
      <trkpt lat="43.43392" lon="6.05115">
        <ele>270.9</ele>
        <time>2025-10-05T10:42:46.000Z</time>
      </trkpt>
      <trkpt lat="43.43392" lon="6.05115">
        <ele>270.9</ele>
        <time>2025-10-05T10:42:47.000Z</time>
      </trkpt>
      <trkpt lat="43.43392" lon="6.05115">
        <ele>270.9</ele>
        <time>2025-10-05T10:43:18.000Z</time>
      </trkpt>
      <trkpt lat="43.43392" lon="6.05115">
        <ele>270.9</ele>
        <time>2025-10-05T10:43:19.000Z</time>
      </trkpt>
      <trkpt lat="43.43392" lon="6.05115">
        <ele>270.9</ele>
        <time>2025-10-05T10:43:20.000Z</time>
      </trkpt>
      <trkpt lat="43.43392" lon="6.05115">
        <ele>270.9</ele>
        <time>2025-10-05T10:43:21.000Z</time>
      </trkpt>
      <trkpt lat="43.43392" lon="6.05115">
        <ele>270.9</ele>
        <time>2025-10-05T10:43:22.000Z</time>
      </trkpt>
      <trkpt lat="43.43392" lon="6.05115">
        <ele>270.7</ele>
        <time>2025-10-05T10:43:35.000Z</time>
      </trkpt>
      <trkpt lat="43.43392" lon="6.05115">
        <ele>270.7</ele>
        <time>2025-10-05T10:43:36.000Z</time>
      </trkpt>
      <trkpt lat="43.43392" lon="6.05115">
        <ele>270.7</ele>
        <time>2025-10-05T10:43:37.000Z</time>
      </trkpt>
      <trkpt lat="43.43392" lon="6.05115">
        <ele>270.7</ele>
        <time>2025-10-05T10:43:38.000Z</time>
      </trkpt>
      <trkpt lat="43.43392" lon="6.05115">
        <ele>270.7</ele>
        <time>2025-10-05T10:43:59.000Z</time>
      </trkpt>
      <trkpt lat="43.43392" lon="6.05115">
        <ele>270.8</ele>
        <time>2025-10-05T10:44:00.000Z</time>
      </trkpt>
      <trkpt lat="43.43392" lon="6.05115">
        <ele>270.8</ele>
        <time>2025-10-05T10:44:01.000Z</time>
      </trkpt>
      <trkpt lat="43.43392" lon="6.05115">
        <ele>270.8</ele>
        <time>2025-10-05T10:44:02.000Z</time>
      </trkpt>
      <trkpt lat="43.43392" lon="6.05115">
        <ele>270.8</ele>
        <time>2025-10-05T10:44:03.000Z</time>
      </trkpt>
      <trkpt lat="43.43392" lon="6.05115">
        <ele>270.8</ele>
        <time>2025-10-05T10:44:07.000Z</time>
      </trkpt>
      <trkpt lat="43.43392" lon="6.05115">
        <ele>270.8</ele>
        <time>2025-10-05T10:44:08.000Z</time>
      </trkpt>
      <trkpt lat="43.43392" lon="6.05115">
        <ele>270.8</ele>
        <time>2025-10-05T10:44:09.000Z</time>
      </trkpt>
      <trkpt lat="43.43392" lon="6.05115">
        <ele>270.8</ele>
        <time>2025-10-05T10:44:10.000Z</time>
      </trkpt>
      <trkpt lat="43.43392" lon="6.05115">
        <ele>270.8</ele>
        <time>2025-10-05T10:44:11.000Z</time>
      </trkpt>
      <trkpt lat="43.43392" lon="6.05114">
        <ele>270.8</ele>
        <time>2025-10-05T10:44:12.000Z</time>
      </trkpt>
      <trkpt lat="43.43392" lon="6.05113">
        <ele>270.8</ele>
        <time>2025-10-05T10:44:13.000Z</time>
      </trkpt>
      <trkpt lat="43.43393" lon="6.05111">
        <ele>270.8</ele>
        <time>2025-10-05T10:44:14.000Z</time>
      </trkpt>
      <trkpt lat="43.43399" lon="6.051">
        <ele>270.8</ele>
        <time>2025-10-05T10:44:22.000Z</time>
      </trkpt>
      <trkpt lat="43.43403" lon="6.05089">
        <ele>270.8</ele>
        <time>2025-10-05T10:44:29.000Z</time>
      </trkpt>
      <trkpt lat="43.43406" lon="6.05077">
        <ele>270.8</ele>
        <time>2025-10-05T10:44:37.000Z</time>
      </trkpt>
      <trkpt lat="43.43409" lon="6.05063">
        <ele>270.8</ele>
        <time>2025-10-05T10:44:47.000Z</time>
      </trkpt>
      <trkpt lat="43.43414" lon="6.05052">
        <ele>270.5</ele>
        <time>2025-10-05T10:44:55.000Z</time>
      </trkpt>
      <trkpt lat="43.43415" lon="6.05039">
        <ele>269.9</ele>
        <time>2025-10-05T10:45:03.000Z</time>
      </trkpt>
      <trkpt lat="43.43418" lon="6.05027">
        <ele>269.2</ele>
        <time>2025-10-05T10:45:11.000Z</time>
      </trkpt>
      <trkpt lat="43.43419" lon="6.05015">
        <ele>268.5</ele>
        <time>2025-10-05T10:45:19.000Z</time>
      </trkpt>
      <trkpt lat="43.43421" lon="6.05001">
        <ele>267.8</ele>
        <time>2025-10-05T10:45:28.000Z</time>
      </trkpt>
      <trkpt lat="43.43425" lon="6.0499">
        <ele>267.3</ele>
        <time>2025-10-05T10:45:35.000Z</time>
      </trkpt>
      <trkpt lat="43.43427" lon="6.04977">
        <ele>266.8</ele>
        <time>2025-10-05T10:45:43.000Z</time>
      </trkpt>
      <trkpt lat="43.4343" lon="6.04965">
        <ele>266.7</ele>
        <time>2025-10-05T10:45:51.000Z</time>
      </trkpt>
      <trkpt lat="43.43431" lon="6.04952">
        <ele>266.6</ele>
        <time>2025-10-05T10:45:59.000Z</time>
      </trkpt>
      <trkpt lat="43.43434" lon="6.04939">
        <ele>266.5</ele>
        <time>2025-10-05T10:46:07.000Z</time>
      </trkpt>
      <trkpt lat="43.43434" lon="6.04925">
        <ele>266.5</ele>
        <time>2025-10-05T10:46:15.000Z</time>
      </trkpt>
      <trkpt lat="43.43432" lon="6.04912">
        <ele>266.5</ele>
        <time>2025-10-05T10:46:24.000Z</time>
      </trkpt>
      <trkpt lat="43.43431" lon="6.04898">
        <ele>266.8</ele>
        <time>2025-10-05T10:46:33.000Z</time>
      </trkpt>
      <trkpt lat="43.43431" lon="6.04884">
        <ele>267.2</ele>
        <time>2025-10-05T10:46:42.000Z</time>
      </trkpt>
      <trkpt lat="43.43432" lon="6.04871">
        <ele>267.5</ele>
        <time>2025-10-05T10:46:52.000Z</time>
      </trkpt>
      <trkpt lat="43.43433" lon="6.04857">
        <ele>267.6</ele>
        <time>2025-10-05T10:47:02.000Z</time>
      </trkpt>
      <trkpt lat="43.43435" lon="6.04844">
        <ele>267.8</ele>
        <time>2025-10-05T10:47:11.000Z</time>
      </trkpt>
      <trkpt lat="43.43436" lon="6.04831">
        <ele>267.9</ele>
        <time>2025-10-05T10:47:19.000Z</time>
      </trkpt>
      <trkpt lat="43.43437" lon="6.04818">
        <ele>268.1</ele>
        <time>2025-10-05T10:47:28.000Z</time>
      </trkpt>
      <trkpt lat="43.43436" lon="6.04805">
        <ele>268.2</ele>
        <time>2025-10-05T10:47:36.000Z</time>
      </trkpt>
      <trkpt lat="43.4344" lon="6.04793">
        <ele>268.2</ele>
        <time>2025-10-05T10:47:43.000Z</time>
      </trkpt>
      <trkpt lat="43.43442" lon="6.04781">
        <ele>268.1</ele>
        <time>2025-10-05T10:47:51.000Z</time>
      </trkpt>
      <trkpt lat="43.43444" lon="6.04767">
        <ele>268.2</ele>
        <time>2025-10-05T10:47:59.000Z</time>
      </trkpt>
      <trkpt lat="43.43445" lon="6.04754">
        <ele>268.3</ele>
        <time>2025-10-05T10:48:08.000Z</time>
      </trkpt>
      <trkpt lat="43.43446" lon="6.0474">
        <ele>268.5</ele>
        <time>2025-10-05T10:48:18.000Z</time>
      </trkpt>
      <trkpt lat="43.43446" lon="6.04726">
        <ele>268.8</ele>
        <time>2025-10-05T10:48:26.000Z</time>
      </trkpt>
      <trkpt lat="43.43447" lon="6.04713">
        <ele>269</ele>
        <time>2025-10-05T10:48:34.000Z</time>
      </trkpt>
      <trkpt lat="43.43446" lon="6.047">
        <ele>269</ele>
        <time>2025-10-05T10:48:41.000Z</time>
      </trkpt>
      <trkpt lat="43.43448" lon="6.04687">
        <ele>269</ele>
        <time>2025-10-05T10:48:49.000Z</time>
      </trkpt>
      <trkpt lat="43.4345" lon="6.04673">
        <ele>269.2</ele>
        <time>2025-10-05T10:48:58.000Z</time>
      </trkpt>
      <trkpt lat="43.43453" lon="6.04661">
        <ele>269.3</ele>
        <time>2025-10-05T10:49:06.000Z</time>
      </trkpt>
      <trkpt lat="43.43456" lon="6.04648">
        <ele>269.5</ele>
        <time>2025-10-05T10:49:15.000Z</time>
      </trkpt>
      <trkpt lat="43.43458" lon="6.04636">
        <ele>269.7</ele>
        <time>2025-10-05T10:49:23.000Z</time>
      </trkpt>
      <trkpt lat="43.4346" lon="6.04623">
        <ele>269.8</ele>
        <time>2025-10-05T10:49:32.000Z</time>
      </trkpt>
      <trkpt lat="43.43463" lon="6.0461">
        <ele>269.9</ele>
        <time>2025-10-05T10:49:40.000Z</time>
      </trkpt>
      <trkpt lat="43.43464" lon="6.04596">
        <ele>270.2</ele>
        <time>2025-10-05T10:49:48.000Z</time>
      </trkpt>
      <trkpt lat="43.43465" lon="6.04584">
        <ele>270.3</ele>
        <time>2025-10-05T10:49:56.000Z</time>
      </trkpt>
      <trkpt lat="43.43468" lon="6.04572">
        <ele>270.4</ele>
        <time>2025-10-05T10:50:04.000Z</time>
      </trkpt>
      <trkpt lat="43.43473" lon="6.0456">
        <ele>270.5</ele>
        <time>2025-10-05T10:50:13.000Z</time>
      </trkpt>
      <trkpt lat="43.43475" lon="6.04546">
        <ele>270.8</ele>
        <time>2025-10-05T10:50:24.000Z</time>
      </trkpt>
      <trkpt lat="43.43482" lon="6.04539">
        <ele>270.9</ele>
        <time>2025-10-05T10:50:39.000Z</time>
      </trkpt>
      <trkpt lat="43.43481" lon="6.04537">
        <ele>270.8</ele>
        <time>2025-10-05T10:50:45.000Z</time>
      </trkpt>
      <trkpt lat="43.43481" lon="6.04537">
        <ele>270.8</ele>
        <time>2025-10-05T10:50:46.000Z</time>
      </trkpt>
      <trkpt lat="43.43481" lon="6.04537">
        <ele>270.8</ele>
        <time>2025-10-05T10:50:47.000Z</time>
      </trkpt>
      <trkpt lat="43.43481" lon="6.04536">
        <ele>270.8</ele>
        <time>2025-10-05T10:50:48.000Z</time>
      </trkpt>
      <trkpt lat="43.4348" lon="6.0454">
        <ele>270.6</ele>
        <time>2025-10-05T10:51:00.000Z</time>
      </trkpt>
      <trkpt lat="43.4348" lon="6.0454">
        <ele>270.6</ele>
        <time>2025-10-05T10:51:01.000Z</time>
      </trkpt>
      <trkpt lat="43.4348" lon="6.0454">
        <ele>270.5</ele>
        <time>2025-10-05T10:51:08.000Z</time>
      </trkpt>
      <trkpt lat="43.4348" lon="6.0454">
        <ele>270.5</ele>
        <time>2025-10-05T10:51:09.000Z</time>
      </trkpt>
      <trkpt lat="43.4348" lon="6.0454">
        <ele>270.5</ele>
        <time>2025-10-05T10:51:10.000Z</time>
      </trkpt>
      <trkpt lat="43.4348" lon="6.04539">
        <ele>270.5</ele>
        <time>2025-10-05T10:51:11.000Z</time>
      </trkpt>
      <trkpt lat="43.4348" lon="6.04537">
        <ele>270.5</ele>
        <time>2025-10-05T10:51:12.000Z</time>
      </trkpt>
      <trkpt lat="43.43481" lon="6.04536">
        <ele>270.5</ele>
        <time>2025-10-05T10:51:13.000Z</time>
      </trkpt>
      <trkpt lat="43.43481" lon="6.04534">
        <ele>270.5</ele>
        <time>2025-10-05T10:51:14.000Z</time>
      </trkpt>
      <trkpt lat="43.4348" lon="6.04523">
        <ele>270.5</ele>
        <time>2025-10-05T10:51:28.000Z</time>
      </trkpt>
      <trkpt lat="43.4348" lon="6.04523">
        <ele>270.5</ele>
        <time>2025-10-05T10:51:29.000Z</time>
      </trkpt>
      <trkpt lat="43.43479" lon="6.04522">
        <ele>270.5</ele>
        <time>2025-10-05T10:51:34.000Z</time>
      </trkpt>
      <trkpt lat="43.43479" lon="6.04522">
        <ele>270.5</ele>
        <time>2025-10-05T10:51:35.000Z</time>
      </trkpt>
      <trkpt lat="43.43479" lon="6.04521">
        <ele>270.5</ele>
        <time>2025-10-05T10:51:36.000Z</time>
      </trkpt>
      <trkpt lat="43.43478" lon="6.0452">
        <ele>270.5</ele>
        <time>2025-10-05T10:51:42.000Z</time>
      </trkpt>
      <trkpt lat="43.43478" lon="6.0452">
        <ele>270.5</ele>
        <time>2025-10-05T10:51:43.000Z</time>
      </trkpt>
      <trkpt lat="43.43478" lon="6.0452">
        <ele>270.5</ele>
        <time>2025-10-05T10:51:44.000Z</time>
      </trkpt>
      <trkpt lat="43.43478" lon="6.0452">
        <ele>270.5</ele>
        <time>2025-10-05T10:51:45.000Z</time>
      </trkpt>
      <trkpt lat="43.43478" lon="6.0452">
        <ele>270.4</ele>
        <time>2025-10-05T10:51:46.000Z</time>
      </trkpt>
      <trkpt lat="43.43479" lon="6.0452">
        <ele>270.4</ele>
        <time>2025-10-05T10:51:59.000Z</time>
      </trkpt>
      <trkpt lat="43.43479" lon="6.0452">
        <ele>270.4</ele>
        <time>2025-10-05T10:52:00.000Z</time>
      </trkpt>
      <trkpt lat="43.43479" lon="6.0452">
        <ele>270.4</ele>
        <time>2025-10-05T10:52:01.000Z</time>
      </trkpt>
      <trkpt lat="43.4348" lon="6.04519">
        <ele>270.4</ele>
        <time>2025-10-05T10:52:10.000Z</time>
      </trkpt>
      <trkpt lat="43.43481" lon="6.04518">
        <ele>270.4</ele>
        <time>2025-10-05T10:52:11.000Z</time>
      </trkpt>
      <trkpt lat="43.43486" lon="6.04507">
        <ele>270.5</ele>
        <time>2025-10-05T10:52:26.000Z</time>
      </trkpt>
      <trkpt lat="43.43489" lon="6.04495">
        <ele>270.7</ele>
        <time>2025-10-05T10:52:47.000Z</time>
      </trkpt>
      <trkpt lat="43.43492" lon="6.04482">
        <ele>270.7</ele>
        <time>2025-10-05T10:52:57.000Z</time>
      </trkpt>
      <trkpt lat="43.43494" lon="6.04469">
        <ele>270.7</ele>
        <time>2025-10-05T10:53:05.000Z</time>
      </trkpt>
      <trkpt lat="43.43494" lon="6.04456">
        <ele>270.7</ele>
        <time>2025-10-05T10:53:13.000Z</time>
      </trkpt>
      <trkpt lat="43.43494" lon="6.04443">
        <ele>270.7</ele>
        <time>2025-10-05T10:53:22.000Z</time>
      </trkpt>
      <trkpt lat="43.43494" lon="6.0443">
        <ele>270.9</ele>
        <time>2025-10-05T10:53:32.000Z</time>
      </trkpt>
      <trkpt lat="43.43491" lon="6.04418">
        <ele>270.9</ele>
        <time>2025-10-05T10:53:42.000Z</time>
      </trkpt>
      <trkpt lat="43.43489" lon="6.04406">
        <ele>270.9</ele>
        <time>2025-10-05T10:53:51.000Z</time>
      </trkpt>
      <trkpt lat="43.43491" lon="6.04392">
        <ele>270.9</ele>
        <time>2025-10-05T10:54:02.000Z</time>
      </trkpt>
      <trkpt lat="43.435" lon="6.04389">
        <ele>271</ele>
        <time>2025-10-05T10:54:13.000Z</time>
      </trkpt>
      <trkpt lat="43.43509" lon="6.04387">
        <ele>270.9</ele>
        <time>2025-10-05T10:54:22.000Z</time>
      </trkpt>
      <trkpt lat="43.43518" lon="6.04386">
        <ele>270.7</ele>
        <time>2025-10-05T10:54:31.000Z</time>
      </trkpt>
      <trkpt lat="43.43528" lon="6.04384">
        <ele>270.1</ele>
        <time>2025-10-05T10:54:40.000Z</time>
      </trkpt>
      <trkpt lat="43.43537" lon="6.04388">
        <ele>268.2</ele>
        <time>2025-10-05T10:54:56.000Z</time>
      </trkpt>
      <trkpt lat="43.43546" lon="6.04389">
        <ele>267.5</ele>
        <time>2025-10-05T10:55:05.000Z</time>
      </trkpt>
      <trkpt lat="43.43555" lon="6.04384">
        <ele>267.1</ele>
        <time>2025-10-05T10:55:13.000Z</time>
      </trkpt>
      <trkpt lat="43.43559" lon="6.04371">
        <ele>267</ele>
        <time>2025-10-05T10:55:23.000Z</time>
      </trkpt>
      <trkpt lat="43.43557" lon="6.04359">
        <ele>266.7</ele>
        <time>2025-10-05T10:55:34.000Z</time>
      </trkpt>
      <trkpt lat="43.43556" lon="6.04346">
        <ele>266.2</ele>
        <time>2025-10-05T10:55:42.000Z</time>
      </trkpt>
      <trkpt lat="43.43557" lon="6.04333">
        <ele>265.6</ele>
        <time>2025-10-05T10:55:51.000Z</time>
      </trkpt>
      <trkpt lat="43.4356" lon="6.0432">
        <ele>264.4</ele>
        <time>2025-10-05T10:56:02.000Z</time>
      </trkpt>
      <trkpt lat="43.43565" lon="6.04309">
        <ele>263.6</ele>
        <time>2025-10-05T10:56:12.000Z</time>
      </trkpt>
      <trkpt lat="43.43569" lon="6.04297">
        <ele>262.8</ele>
        <time>2025-10-05T10:56:22.000Z</time>
      </trkpt>
      <trkpt lat="43.43573" lon="6.04285">
        <ele>262.1</ele>
        <time>2025-10-05T10:56:31.000Z</time>
      </trkpt>
      <trkpt lat="43.43578" lon="6.04275">
        <ele>260.4</ele>
        <time>2025-10-05T10:56:45.000Z</time>
      </trkpt>
      <trkpt lat="43.43581" lon="6.04263">
        <ele>259.8</ele>
        <time>2025-10-05T10:56:58.000Z</time>
      </trkpt>
      <trkpt lat="43.43581" lon="6.0425">
        <ele>259</ele>
        <time>2025-10-05T10:57:07.000Z</time>
      </trkpt>
      <trkpt lat="43.43581" lon="6.04238">
        <ele>258.4</ele>
        <time>2025-10-05T10:57:16.000Z</time>
      </trkpt>
      <trkpt lat="43.43582" lon="6.04225">
        <ele>257.6</ele>
        <time>2025-10-05T10:57:26.000Z</time>
      </trkpt>
      <trkpt lat="43.43585" lon="6.04212">
        <ele>257.3</ele>
        <time>2025-10-05T10:57:39.000Z</time>
      </trkpt>
      <trkpt lat="43.43591" lon="6.04203">
        <ele>257</ele>
        <time>2025-10-05T10:57:51.000Z</time>
      </trkpt>
      <trkpt lat="43.43599" lon="6.04194">
        <ele>256.6</ele>
        <time>2025-10-05T10:58:03.000Z</time>
      </trkpt>
      <trkpt lat="43.43601" lon="6.04193">
        <ele>256.4</ele>
        <time>2025-10-05T10:58:09.000Z</time>
      </trkpt>
      <trkpt lat="43.43602" lon="6.04193">
        <ele>256.4</ele>
        <time>2025-10-05T10:58:10.000Z</time>
      </trkpt>
      <trkpt lat="43.43602" lon="6.04193">
        <ele>256.4</ele>
        <time>2025-10-05T10:58:11.000Z</time>
      </trkpt>
      <trkpt lat="43.43603" lon="6.04193">
        <ele>256.3</ele>
        <time>2025-10-05T10:58:12.000Z</time>
      </trkpt>
      <trkpt lat="43.43604" lon="6.04192">
        <ele>256.3</ele>
        <time>2025-10-05T10:58:13.000Z</time>
      </trkpt>
      <trkpt lat="43.43604" lon="6.04192">
        <ele>256.3</ele>
        <time>2025-10-05T10:58:14.000Z</time>
      </trkpt>
      <trkpt lat="43.43605" lon="6.04189">
        <ele>256.1</ele>
        <time>2025-10-05T10:58:22.000Z</time>
      </trkpt>
      <trkpt lat="43.43605" lon="6.04189">
        <ele>256</ele>
        <time>2025-10-05T10:58:23.000Z</time>
      </trkpt>
      <trkpt lat="43.43605" lon="6.04189">
        <ele>255.6</ele>
        <time>2025-10-05T10:58:34.000Z</time>
      </trkpt>
      <trkpt lat="43.43605" lon="6.04188">
        <ele>255.6</ele>
        <time>2025-10-05T10:58:35.000Z</time>
      </trkpt>
      <trkpt lat="43.43605" lon="6.04188">
        <ele>255.6</ele>
        <time>2025-10-05T10:58:36.000Z</time>
      </trkpt>
      <trkpt lat="43.43605" lon="6.04188">
        <ele>255.6</ele>
        <time>2025-10-05T10:58:37.000Z</time>
      </trkpt>
      <trkpt lat="43.43604" lon="6.04188">
        <ele>255.6</ele>
        <time>2025-10-05T10:58:38.000Z</time>
      </trkpt>
      <trkpt lat="43.43604" lon="6.04187">
        <ele>255.6</ele>
        <time>2025-10-05T10:58:39.000Z</time>
      </trkpt>
      <trkpt lat="43.43604" lon="6.04187">
        <ele>255.6</ele>
        <time>2025-10-05T10:58:40.000Z</time>
      </trkpt>
      <trkpt lat="43.43603" lon="6.04186">
        <ele>255.6</ele>
        <time>2025-10-05T10:58:41.000Z</time>
      </trkpt>
      <trkpt lat="43.43604" lon="6.04186">
        <ele>255.5</ele>
        <time>2025-10-05T10:58:50.000Z</time>
      </trkpt>
      <trkpt lat="43.43604" lon="6.04186">
        <ele>255.5</ele>
        <time>2025-10-05T10:58:51.000Z</time>
      </trkpt>
      <trkpt lat="43.43604" lon="6.04187">
        <ele>255.4</ele>
        <time>2025-10-05T10:58:57.000Z</time>
      </trkpt>
      <trkpt lat="43.43604" lon="6.04187">
        <ele>255.4</ele>
        <time>2025-10-05T10:58:58.000Z</time>
      </trkpt>
      <trkpt lat="43.43604" lon="6.04187">
        <ele>255.4</ele>
        <time>2025-10-05T10:58:59.000Z</time>
      </trkpt>
      <trkpt lat="43.43604" lon="6.04187">
        <ele>255.4</ele>
        <time>2025-10-05T10:59:00.000Z</time>
      </trkpt>
      <trkpt lat="43.43604" lon="6.04187">
        <ele>255.4</ele>
        <time>2025-10-05T10:59:01.000Z</time>
      </trkpt>
      <trkpt lat="43.43604" lon="6.04187">
        <ele>255.3</ele>
        <time>2025-10-05T10:59:14.000Z</time>
      </trkpt>
      <trkpt lat="43.43604" lon="6.04187">
        <ele>255.3</ele>
        <time>2025-10-05T10:59:15.000Z</time>
      </trkpt>
      <trkpt lat="43.43604" lon="6.04187">
        <ele>255.3</ele>
        <time>2025-10-05T10:59:16.000Z</time>
      </trkpt>
      <trkpt lat="43.43604" lon="6.04187">
        <ele>255.3</ele>
        <time>2025-10-05T10:59:17.000Z</time>
      </trkpt>
      <trkpt lat="43.43604" lon="6.04187">
        <ele>255.3</ele>
        <time>2025-10-05T10:59:18.000Z</time>
      </trkpt>
      <trkpt lat="43.43604" lon="6.04187">
        <ele>255.3</ele>
        <time>2025-10-05T10:59:19.000Z</time>
      </trkpt>
      <trkpt lat="43.43604" lon="6.04187">
        <ele>255.3</ele>
        <time>2025-10-05T10:59:20.000Z</time>
      </trkpt>
      <trkpt lat="43.43604" lon="6.04187">
        <ele>255.3</ele>
        <time>2025-10-05T10:59:21.000Z</time>
      </trkpt>
      <trkpt lat="43.43604" lon="6.04187">
        <ele>255.3</ele>
        <time>2025-10-05T10:59:22.000Z</time>
      </trkpt>
      <trkpt lat="43.43604" lon="6.04187">
        <ele>255.3</ele>
        <time>2025-10-05T10:59:23.000Z</time>
      </trkpt>
      <trkpt lat="43.43604" lon="6.04187">
        <ele>255.3</ele>
        <time>2025-10-05T10:59:30.000Z</time>
      </trkpt>
      <trkpt lat="43.43604" lon="6.04187">
        <ele>255.3</ele>
        <time>2025-10-05T10:59:31.000Z</time>
      </trkpt>
      <trkpt lat="43.43604" lon="6.04187">
        <ele>255.3</ele>
        <time>2025-10-05T10:59:32.000Z</time>
      </trkpt>
      <trkpt lat="43.43604" lon="6.04187">
        <ele>255.3</ele>
        <time>2025-10-05T10:59:33.000Z</time>
      </trkpt>
      <trkpt lat="43.43604" lon="6.04187">
        <ele>255.3</ele>
        <time>2025-10-05T10:59:42.000Z</time>
      </trkpt>
      <trkpt lat="43.43604" lon="6.04187">
        <ele>255.3</ele>
        <time>2025-10-05T10:59:43.000Z</time>
      </trkpt>
      <trkpt lat="43.43604" lon="6.04187">
        <ele>255.3</ele>
        <time>2025-10-05T10:59:44.000Z</time>
      </trkpt>
      <trkpt lat="43.43604" lon="6.04187">
        <ele>255.3</ele>
        <time>2025-10-05T10:59:45.000Z</time>
      </trkpt>
      <trkpt lat="43.43604" lon="6.04187">
        <ele>255.3</ele>
        <time>2025-10-05T10:59:46.000Z</time>
      </trkpt>
      <trkpt lat="43.43605" lon="6.04187">
        <ele>255.4</ele>
        <time>2025-10-05T10:59:57.000Z</time>
      </trkpt>
      <trkpt lat="43.43605" lon="6.04187">
        <ele>255.4</ele>
        <time>2025-10-05T10:59:58.000Z</time>
      </trkpt>
      <trkpt lat="43.43605" lon="6.04187">
        <ele>255.4</ele>
        <time>2025-10-05T10:59:59.000Z</time>
      </trkpt>
      <trkpt lat="43.43605" lon="6.04187">
        <ele>255.4</ele>
        <time>2025-10-05T11:00:00.000Z</time>
      </trkpt>
      <trkpt lat="43.43605" lon="6.04187">
        <ele>255.4</ele>
        <time>2025-10-05T11:00:01.000Z</time>
      </trkpt>
      <trkpt lat="43.43605" lon="6.04187">
        <ele>255.6</ele>
        <time>2025-10-05T11:00:57.000Z</time>
      </trkpt>
      <trkpt lat="43.43605" lon="6.04187">
        <ele>255.6</ele>
        <time>2025-10-05T11:00:58.000Z</time>
      </trkpt>
      <trkpt lat="43.43605" lon="6.04187">
        <ele>255.6</ele>
        <time>2025-10-05T11:00:59.000Z</time>
      </trkpt>
      <trkpt lat="43.43605" lon="6.04187">
        <ele>255.6</ele>
        <time>2025-10-05T11:01:00.000Z</time>
      </trkpt>
      <trkpt lat="43.43605" lon="6.04187">
        <ele>255.6</ele>
        <time>2025-10-05T11:01:01.000Z</time>
      </trkpt>
      <trkpt lat="43.43606" lon="6.04188">
        <ele>255.6</ele>
        <time>2025-10-05T11:01:17.000Z</time>
      </trkpt>
      <trkpt lat="43.43606" lon="6.04188">
        <ele>255.6</ele>
        <time>2025-10-05T11:01:18.000Z</time>
      </trkpt>
      <trkpt lat="43.43606" lon="6.04188">
        <ele>255.6</ele>
        <time>2025-10-05T11:01:19.000Z</time>
      </trkpt>
      <trkpt lat="43.43606" lon="6.04188">
        <ele>255.6</ele>
        <time>2025-10-05T11:01:20.000Z</time>
      </trkpt>
      <trkpt lat="43.43606" lon="6.04188">
        <ele>255.6</ele>
        <time>2025-10-05T11:01:21.000Z</time>
      </trkpt>
      <trkpt lat="43.43606" lon="6.04186">
        <ele>255.5</ele>
        <time>2025-10-05T11:01:35.000Z</time>
      </trkpt>
      <trkpt lat="43.43607" lon="6.04185">
        <ele>255.5</ele>
        <time>2025-10-05T11:01:36.000Z</time>
      </trkpt>
      <trkpt lat="43.43609" lon="6.04175">
        <ele>255.4</ele>
        <time>2025-10-05T11:01:52.000Z</time>
      </trkpt>
      <trkpt lat="43.43609" lon="6.04175">
        <ele>255.4</ele>
        <time>2025-10-05T11:01:53.000Z</time>
      </trkpt>
      <trkpt lat="43.43609" lon="6.04175">
        <ele>255.3</ele>
        <time>2025-10-05T11:01:54.000Z</time>
      </trkpt>
      <trkpt lat="43.43609" lon="6.04174">
        <ele>255.3</ele>
        <time>2025-10-05T11:01:55.000Z</time>
      </trkpt>
      <trkpt lat="43.43609" lon="6.04174">
        <ele>255.3</ele>
        <time>2025-10-05T11:01:56.000Z</time>
      </trkpt>
      <trkpt lat="43.43608" lon="6.0417">
        <ele>255.3</ele>
        <time>2025-10-05T11:02:05.000Z</time>
      </trkpt>
      <trkpt lat="43.43608" lon="6.04169">
        <ele>255.2</ele>
        <time>2025-10-05T11:02:06.000Z</time>
      </trkpt>
      <trkpt lat="43.43607" lon="6.04169">
        <ele>255.2</ele>
        <time>2025-10-05T11:02:07.000Z</time>
      </trkpt>
      <trkpt lat="43.43607" lon="6.04169">
        <ele>255.2</ele>
        <time>2025-10-05T11:02:08.000Z</time>
      </trkpt>
      <trkpt lat="43.43606" lon="6.04169">
        <ele>255.3</ele>
        <time>2025-10-05T11:02:15.000Z</time>
      </trkpt>
      <trkpt lat="43.43606" lon="6.04169">
        <ele>255.2</ele>
        <time>2025-10-05T11:02:16.000Z</time>
      </trkpt>
      <trkpt lat="43.43606" lon="6.04169">
        <ele>255.2</ele>
        <time>2025-10-05T11:02:17.000Z</time>
      </trkpt>
      <trkpt lat="43.43607" lon="6.0417">
        <ele>254.4</ele>
        <time>2025-10-05T11:02:37.000Z</time>
      </trkpt>
      <trkpt lat="43.43607" lon="6.0417">
        <ele>254.4</ele>
        <time>2025-10-05T11:02:38.000Z</time>
      </trkpt>
      <trkpt lat="43.43607" lon="6.0417">
        <ele>254.4</ele>
        <time>2025-10-05T11:02:39.000Z</time>
      </trkpt>
      <trkpt lat="43.43607" lon="6.0417">
        <ele>254.5</ele>
        <time>2025-10-05T11:02:40.000Z</time>
      </trkpt>
      <trkpt lat="43.43607" lon="6.0417">
        <ele>254.6</ele>
        <time>2025-10-05T11:02:41.000Z</time>
      </trkpt>
      <trkpt lat="43.43607" lon="6.04168">
        <ele>254.7</ele>
        <time>2025-10-05T11:02:45.000Z</time>
      </trkpt>
      <trkpt lat="43.43608" lon="6.04167">
        <ele>254.7</ele>
        <time>2025-10-05T11:02:46.000Z</time>
      </trkpt>
      <trkpt lat="43.43608" lon="6.04167">
        <ele>254.6</ele>
        <time>2025-10-05T11:02:47.000Z</time>
      </trkpt>
      <trkpt lat="43.43613" lon="6.04157">
        <ele>254.6</ele>
        <time>2025-10-05T11:02:57.000Z</time>
      </trkpt>
      <trkpt lat="43.43614" lon="6.04156">
        <ele>254.5</ele>
        <time>2025-10-05T11:03:03.000Z</time>
      </trkpt>
      <trkpt lat="43.43615" lon="6.04156">
        <ele>254.4</ele>
        <time>2025-10-05T11:03:04.000Z</time>
      </trkpt>
      <trkpt lat="43.43615" lon="6.04155">
        <ele>254.4</ele>
        <time>2025-10-05T11:03:05.000Z</time>
      </trkpt>
      <trkpt lat="43.43614" lon="6.04154">
        <ele>254.3</ele>
        <time>2025-10-05T11:03:06.000Z</time>
      </trkpt>
      <trkpt lat="43.43613" lon="6.04154">
        <ele>254.2</ele>
        <time>2025-10-05T11:03:09.000Z</time>
      </trkpt>
      <trkpt lat="43.43613" lon="6.04154">
        <ele>254.2</ele>
        <time>2025-10-05T11:03:10.000Z</time>
      </trkpt>
      <trkpt lat="43.43614" lon="6.04153">
        <ele>254.2</ele>
        <time>2025-10-05T11:03:11.000Z</time>
      </trkpt>
      <trkpt lat="43.43614" lon="6.04152">
        <ele>254.2</ele>
        <time>2025-10-05T11:03:12.000Z</time>
      </trkpt>
      <trkpt lat="43.43615" lon="6.04151">
        <ele>254.2</ele>
        <time>2025-10-05T11:03:13.000Z</time>
      </trkpt>
      <trkpt lat="43.43624" lon="6.04147">
        <ele>254</ele>
        <time>2025-10-05T11:03:19.000Z</time>
      </trkpt>
      <trkpt lat="43.43631" lon="6.04137">
        <ele>253.9</ele>
        <time>2025-10-05T11:03:29.000Z</time>
      </trkpt>
      <trkpt lat="43.43635" lon="6.04126">
        <ele>253.6</ele>
        <time>2025-10-05T11:03:43.000Z</time>
      </trkpt>
      <trkpt lat="43.43635" lon="6.04126">
        <ele>253.6</ele>
        <time>2025-10-05T11:03:44.000Z</time>
      </trkpt>
      <trkpt lat="43.43635" lon="6.04126">
        <ele>253.5</ele>
        <time>2025-10-05T11:03:47.000Z</time>
      </trkpt>
      <trkpt lat="43.43635" lon="6.04125">
        <ele>253.5</ele>
        <time>2025-10-05T11:03:48.000Z</time>
      </trkpt>
      <trkpt lat="43.43636" lon="6.04124">
        <ele>253.5</ele>
        <time>2025-10-05T11:03:49.000Z</time>
      </trkpt>
      <trkpt lat="43.43639" lon="6.04113">
        <ele>253.4</ele>
        <time>2025-10-05T11:03:58.000Z</time>
      </trkpt>
      <trkpt lat="43.43643" lon="6.04101">
        <ele>253.2</ele>
        <time>2025-10-05T11:04:08.000Z</time>
      </trkpt>
      <trkpt lat="43.43648" lon="6.04089">
        <ele>253.1</ele>
        <time>2025-10-05T11:04:19.000Z</time>
      </trkpt>
      <trkpt lat="43.43651" lon="6.04081">
        <ele>253.2</ele>
        <time>2025-10-05T11:04:33.000Z</time>
      </trkpt>
      <trkpt lat="43.43651" lon="6.04081">
        <ele>253.2</ele>
        <time>2025-10-05T11:04:34.000Z</time>
      </trkpt>
      <trkpt lat="43.43651" lon="6.04081">
        <ele>253.2</ele>
        <time>2025-10-05T11:04:39.000Z</time>
      </trkpt>
      <trkpt lat="43.43651" lon="6.0408">
        <ele>253.2</ele>
        <time>2025-10-05T11:04:40.000Z</time>
      </trkpt>
      <trkpt lat="43.43651" lon="6.04079">
        <ele>253.3</ele>
        <time>2025-10-05T11:04:41.000Z</time>
      </trkpt>
      <trkpt lat="43.43652" lon="6.04076">
        <ele>253.5</ele>
        <time>2025-10-05T11:04:50.000Z</time>
      </trkpt>
      <trkpt lat="43.43652" lon="6.04076">
        <ele>253.6</ele>
        <time>2025-10-05T11:04:51.000Z</time>
      </trkpt>
      <trkpt lat="43.43653" lon="6.04075">
        <ele>253.6</ele>
        <time>2025-10-05T11:04:52.000Z</time>
      </trkpt>
      <trkpt lat="43.43653" lon="6.04075">
        <ele>253.7</ele>
        <time>2025-10-05T11:04:53.000Z</time>
      </trkpt>
      <trkpt lat="43.4365" lon="6.04072">
        <ele>255.7</ele>
        <time>2025-10-05T11:05:14.000Z</time>
      </trkpt>
      <trkpt lat="43.4365" lon="6.04072">
        <ele>255.8</ele>
        <time>2025-10-05T11:05:15.000Z</time>
      </trkpt>
      <trkpt lat="43.4365" lon="6.04072">
        <ele>255.8</ele>
        <time>2025-10-05T11:05:16.000Z</time>
      </trkpt>
      <trkpt lat="43.4365" lon="6.04071">
        <ele>255.8</ele>
        <time>2025-10-05T11:05:20.000Z</time>
      </trkpt>
      <trkpt lat="43.4365" lon="6.04071">
        <ele>255.9</ele>
        <time>2025-10-05T11:05:21.000Z</time>
      </trkpt>
      <trkpt lat="43.43651" lon="6.04071">
        <ele>255.9</ele>
        <time>2025-10-05T11:05:22.000Z</time>
      </trkpt>
      <trkpt lat="43.43651" lon="6.04071">
        <ele>255.9</ele>
        <time>2025-10-05T11:05:23.000Z</time>
      </trkpt>
      <trkpt lat="43.43651" lon="6.04071">
        <ele>255.9</ele>
        <time>2025-10-05T11:05:24.000Z</time>
      </trkpt>
      <trkpt lat="43.43651" lon="6.04071">
        <ele>255.9</ele>
        <time>2025-10-05T11:05:25.000Z</time>
      </trkpt>
      <trkpt lat="43.43651" lon="6.04071">
        <ele>255.9</ele>
        <time>2025-10-05T11:05:26.000Z</time>
      </trkpt>
      <trkpt lat="43.43651" lon="6.04071">
        <ele>255.9</ele>
        <time>2025-10-05T11:05:27.000Z</time>
      </trkpt>
      <trkpt lat="43.43651" lon="6.04071">
        <ele>255.9</ele>
        <time>2025-10-05T11:05:28.000Z</time>
      </trkpt>
      <trkpt lat="43.43651" lon="6.04071">
        <ele>255.9</ele>
        <time>2025-10-05T11:05:29.000Z</time>
      </trkpt>
      <trkpt lat="43.43652" lon="6.04071">
        <ele>256.3</ele>
        <time>2025-10-05T11:05:50.000Z</time>
      </trkpt>
      <trkpt lat="43.43652" lon="6.04071">
        <ele>256.3</ele>
        <time>2025-10-05T11:05:51.000Z</time>
      </trkpt>
      <trkpt lat="43.43652" lon="6.04071">
        <ele>256.3</ele>
        <time>2025-10-05T11:05:52.000Z</time>
      </trkpt>
      <trkpt lat="43.43652" lon="6.04071">
        <ele>256.4</ele>
        <time>2025-10-05T11:05:57.000Z</time>
      </trkpt>
      <trkpt lat="43.43652" lon="6.04071">
        <ele>256.4</ele>
        <time>2025-10-05T11:05:58.000Z</time>
      </trkpt>
      <trkpt lat="43.43652" lon="6.04072">
        <ele>256.6</ele>
        <time>2025-10-05T11:06:14.000Z</time>
      </trkpt>
      <trkpt lat="43.43652" lon="6.04072">
        <ele>256.6</ele>
        <time>2025-10-05T11:06:15.000Z</time>
      </trkpt>
      <trkpt lat="43.43652" lon="6.04072">
        <ele>256.6</ele>
        <time>2025-10-05T11:06:16.000Z</time>
      </trkpt>
      <trkpt lat="43.43652" lon="6.04072">
        <ele>256.6</ele>
        <time>2025-10-05T11:06:17.000Z</time>
      </trkpt>
      <trkpt lat="43.43652" lon="6.04072">
        <ele>256.6</ele>
        <time>2025-10-05T11:06:18.000Z</time>
      </trkpt>
      <trkpt lat="43.43653" lon="6.04072">
        <ele>256.4</ele>
        <time>2025-10-05T11:07:05.000Z</time>
      </trkpt>
      <trkpt lat="43.43653" lon="6.04072">
        <ele>256.4</ele>
        <time>2025-10-05T11:07:06.000Z</time>
      </trkpt>
      <trkpt lat="43.43653" lon="6.04072">
        <ele>256.4</ele>
        <time>2025-10-05T11:07:07.000Z</time>
      </trkpt>
      <trkpt lat="43.43653" lon="6.04072">
        <ele>256.4</ele>
        <time>2025-10-05T11:07:08.000Z</time>
      </trkpt>
      <trkpt lat="43.43653" lon="6.04072">
        <ele>256.4</ele>
        <time>2025-10-05T11:07:14.000Z</time>
      </trkpt>
      <trkpt lat="43.43653" lon="6.04072">
        <ele>256.4</ele>
        <time>2025-10-05T11:07:15.000Z</time>
      </trkpt>
      <trkpt lat="43.43653" lon="6.04072">
        <ele>256.4</ele>
        <time>2025-10-05T11:07:16.000Z</time>
      </trkpt>
      <trkpt lat="43.43653" lon="6.04072">
        <ele>256.4</ele>
        <time>2025-10-05T11:07:17.000Z</time>
      </trkpt>
      <trkpt lat="43.43653" lon="6.04072">
        <ele>256.4</ele>
        <time>2025-10-05T11:07:18.000Z</time>
      </trkpt>
      <trkpt lat="43.43652" lon="6.04072">
        <ele>256.4</ele>
        <time>2025-10-05T11:07:22.000Z</time>
      </trkpt>
      <trkpt lat="43.43652" lon="6.04072">
        <ele>256.3</ele>
        <time>2025-10-05T11:07:23.000Z</time>
      </trkpt>
      <trkpt lat="43.43651" lon="6.04072">
        <ele>256.3</ele>
        <time>2025-10-05T11:07:29.000Z</time>
      </trkpt>
      <trkpt lat="43.43651" lon="6.04072">
        <ele>256.2</ele>
        <time>2025-10-05T11:07:30.000Z</time>
      </trkpt>
      <trkpt lat="43.43651" lon="6.04072">
        <ele>256.2</ele>
        <time>2025-10-05T11:07:31.000Z</time>
      </trkpt>
      <trkpt lat="43.43651" lon="6.04071">
        <ele>256.1</ele>
        <time>2025-10-05T11:07:44.000Z</time>
      </trkpt>
      <trkpt lat="43.43651" lon="6.04071">
        <ele>256.1</ele>
        <time>2025-10-05T11:07:45.000Z</time>
      </trkpt>
      <trkpt lat="43.43651" lon="6.04071">
        <ele>256.1</ele>
        <time>2025-10-05T11:07:46.000Z</time>
      </trkpt>
      <trkpt lat="43.43651" lon="6.04071">
        <ele>256.1</ele>
        <time>2025-10-05T11:07:50.000Z</time>
      </trkpt>
      <trkpt lat="43.43651" lon="6.04071">
        <ele>256.1</ele>
        <time>2025-10-05T11:07:51.000Z</time>
      </trkpt>
      <trkpt lat="43.43651" lon="6.04071">
        <ele>256</ele>
        <time>2025-10-05T11:08:29.000Z</time>
      </trkpt>
      <trkpt lat="43.43651" lon="6.04071">
        <ele>256</ele>
        <time>2025-10-05T11:08:30.000Z</time>
      </trkpt>
      <trkpt lat="43.43651" lon="6.04071">
        <ele>256</ele>
        <time>2025-10-05T11:08:31.000Z</time>
      </trkpt>
      <trkpt lat="43.43651" lon="6.04071">
        <ele>256</ele>
        <time>2025-10-05T11:08:35.000Z</time>
      </trkpt>
      <trkpt lat="43.43651" lon="6.04071">
        <ele>256</ele>
        <time>2025-10-05T11:08:36.000Z</time>
      </trkpt>
      <trkpt lat="43.43651" lon="6.04071">
        <ele>256</ele>
        <time>2025-10-05T11:08:37.000Z</time>
      </trkpt>
      <trkpt lat="43.43651" lon="6.04071">
        <ele>256.2</ele>
        <time>2025-10-05T11:09:39.000Z</time>
      </trkpt>
      <trkpt lat="43.43651" lon="6.04071">
        <ele>256.2</ele>
        <time>2025-10-05T11:09:40.000Z</time>
      </trkpt>
      <trkpt lat="43.43651" lon="6.04071">
        <ele>256.2</ele>
        <time>2025-10-05T11:09:41.000Z</time>
      </trkpt>
      <trkpt lat="43.43651" lon="6.04071">
        <ele>256.2</ele>
        <time>2025-10-05T11:09:42.000Z</time>
      </trkpt>
      <trkpt lat="43.43651" lon="6.04071">
        <ele>256.2</ele>
        <time>2025-10-05T11:09:43.000Z</time>
      </trkpt>
      <trkpt lat="43.43651" lon="6.04071">
        <ele>256.2</ele>
        <time>2025-10-05T11:09:44.000Z</time>
      </trkpt>
      <trkpt lat="43.4365" lon="6.04071">
        <ele>256.2</ele>
        <time>2025-10-05T11:09:45.000Z</time>
      </trkpt>
      <trkpt lat="43.4365" lon="6.04071">
        <ele>256.2</ele>
        <time>2025-10-05T11:09:46.000Z</time>
      </trkpt>
      <trkpt lat="43.43655" lon="6.04072">
        <ele>256.2</ele>
        <time>2025-10-05T11:10:04.000Z</time>
      </trkpt>
      <trkpt lat="43.43655" lon="6.04072">
        <ele>256.2</ele>
        <time>2025-10-05T11:10:05.000Z</time>
      </trkpt>
      <trkpt lat="43.43655" lon="6.04072">
        <ele>256.2</ele>
        <time>2025-10-05T11:10:06.000Z</time>
      </trkpt>
      <trkpt lat="43.43656" lon="6.04075">
        <ele>256.2</ele>
        <time>2025-10-05T11:10:12.000Z</time>
      </trkpt>
      <trkpt lat="43.43656" lon="6.04075">
        <ele>256.2</ele>
        <time>2025-10-05T11:10:13.000Z</time>
      </trkpt>
      <trkpt lat="43.43659" lon="6.04078">
        <ele>256.2</ele>
        <time>2025-10-05T11:10:27.000Z</time>
      </trkpt>
      <trkpt lat="43.43659" lon="6.04078">
        <ele>256.2</ele>
        <time>2025-10-05T11:10:28.000Z</time>
      </trkpt>
      <trkpt lat="43.4366" lon="6.04077">
        <ele>256.2</ele>
        <time>2025-10-05T11:10:29.000Z</time>
      </trkpt>
      <trkpt lat="43.4366" lon="6.04077">
        <ele>256.2</ele>
        <time>2025-10-05T11:10:30.000Z</time>
      </trkpt>
      <trkpt lat="43.4366" lon="6.04077">
        <ele>256.2</ele>
        <time>2025-10-05T11:10:31.000Z</time>
      </trkpt>
      <trkpt lat="43.43664" lon="6.04066">
        <ele>256.2</ele>
        <time>2025-10-05T11:10:46.000Z</time>
      </trkpt>
      <trkpt lat="43.43667" lon="6.04066">
        <ele>256.3</ele>
        <time>2025-10-05T11:11:22.000Z</time>
      </trkpt>
      <trkpt lat="43.43667" lon="6.04066">
        <ele>256.3</ele>
        <time>2025-10-05T11:11:23.000Z</time>
      </trkpt>
      <trkpt lat="43.43667" lon="6.04066">
        <ele>256.3</ele>
        <time>2025-10-05T11:11:24.000Z</time>
      </trkpt>
      <trkpt lat="43.43667" lon="6.04066">
        <ele>256.3</ele>
        <time>2025-10-05T11:11:25.000Z</time>
      </trkpt>
      <trkpt lat="43.43666" lon="6.04066">
        <ele>256.3</ele>
        <time>2025-10-05T11:11:26.000Z</time>
      </trkpt>
      <trkpt lat="43.43657" lon="6.04069">
        <ele>256.2</ele>
        <time>2025-10-05T11:11:36.000Z</time>
      </trkpt>
      <trkpt lat="43.43648" lon="6.04068">
        <ele>256.3</ele>
        <time>2025-10-05T11:11:48.000Z</time>
      </trkpt>
      <trkpt lat="43.4364" lon="6.04074">
        <ele>256.1</ele>
        <time>2025-10-05T11:11:58.000Z</time>
      </trkpt>
      <trkpt lat="43.43634" lon="6.04083">
        <ele>255.7</ele>
        <time>2025-10-05T11:12:09.000Z</time>
      </trkpt>
      <trkpt lat="43.43635" lon="6.04093">
        <ele>255.4</ele>
        <time>2025-10-05T11:12:19.000Z</time>
      </trkpt>
      <trkpt lat="43.43635" lon="6.04093">
        <ele>255.3</ele>
        <time>2025-10-05T11:12:20.000Z</time>
      </trkpt>
      <trkpt lat="43.43635" lon="6.04093">
        <ele>255.3</ele>
        <time>2025-10-05T11:12:21.000Z</time>
      </trkpt>
      <trkpt lat="43.43635" lon="6.04093">
        <ele>255.2</ele>
        <time>2025-10-05T11:12:22.000Z</time>
      </trkpt>
      <trkpt lat="43.43635" lon="6.04093">
        <ele>255.2</ele>
        <time>2025-10-05T11:12:23.000Z</time>
      </trkpt>
      <trkpt lat="43.43635" lon="6.04093">
        <ele>255.2</ele>
        <time>2025-10-05T11:12:24.000Z</time>
      </trkpt>
      <trkpt lat="43.43635" lon="6.04093">
        <ele>255.2</ele>
        <time>2025-10-05T11:12:25.000Z</time>
      </trkpt>
      <trkpt lat="43.43635" lon="6.04093">
        <ele>255.2</ele>
        <time>2025-10-05T11:12:26.000Z</time>
      </trkpt>
      <trkpt lat="43.43635" lon="6.04093">
        <ele>255.1</ele>
        <time>2025-10-05T11:12:27.000Z</time>
      </trkpt>
      <trkpt lat="43.43636" lon="6.04093">
        <ele>255.1</ele>
        <time>2025-10-05T11:12:28.000Z</time>
      </trkpt>
      <trkpt lat="43.43636" lon="6.04092">
        <ele>255.1</ele>
        <time>2025-10-05T11:12:29.000Z</time>
      </trkpt>
      <trkpt lat="43.43642" lon="6.04082">
        <ele>255.3</ele>
        <time>2025-10-05T11:12:39.000Z</time>
      </trkpt>
      <trkpt lat="43.4365" lon="6.04076">
        <ele>255.3</ele>
        <time>2025-10-05T11:12:47.000Z</time>
      </trkpt>
      <trkpt lat="43.43652" lon="6.04072">
        <ele>255.7</ele>
        <time>2025-10-05T11:13:02.000Z</time>
      </trkpt>
      <trkpt lat="43.43652" lon="6.04072">
        <ele>255.7</ele>
        <time>2025-10-05T11:13:03.000Z</time>
      </trkpt>
      <trkpt lat="43.43652" lon="6.04072">
        <ele>255.7</ele>
        <time>2025-10-05T11:13:07.000Z</time>
      </trkpt>
      <trkpt lat="43.43652" lon="6.04072">
        <ele>255.7</ele>
        <time>2025-10-05T11:13:08.000Z</time>
      </trkpt>
      <trkpt lat="43.43652" lon="6.04072">
        <ele>255.8</ele>
        <time>2025-10-05T11:13:09.000Z</time>
      </trkpt>
      <trkpt lat="43.43652" lon="6.04072">
        <ele>255.8</ele>
        <time>2025-10-05T11:13:12.000Z</time>
      </trkpt>
      <trkpt lat="43.43652" lon="6.04072">
        <ele>255.8</ele>
        <time>2025-10-05T11:13:13.000Z</time>
      </trkpt>
      <trkpt lat="43.43652" lon="6.04072">
        <ele>256</ele>
        <time>2025-10-05T11:13:17.000Z</time>
      </trkpt>
      <trkpt lat="43.43652" lon="6.04072">
        <ele>256</ele>
        <time>2025-10-05T11:13:18.000Z</time>
      </trkpt>
      <trkpt lat="43.43652" lon="6.04072">
        <ele>256</ele>
        <time>2025-10-05T11:13:19.000Z</time>
      </trkpt>
      <trkpt lat="43.43652" lon="6.04072">
        <ele>256</ele>
        <time>2025-10-05T11:13:20.000Z</time>
      </trkpt>
      <trkpt lat="43.43652" lon="6.04072">
        <ele>256</ele>
        <time>2025-10-05T11:13:21.000Z</time>
      </trkpt>
      <trkpt lat="43.43652" lon="6.04072">
        <ele>256.2</ele>
        <time>2025-10-05T11:13:49.000Z</time>
      </trkpt>
      <trkpt lat="43.43652" lon="6.04072">
        <ele>256.2</ele>
        <time>2025-10-05T11:13:50.000Z</time>
      </trkpt>
      <trkpt lat="43.43652" lon="6.04072">
        <ele>256.2</ele>
        <time>2025-10-05T11:13:51.000Z</time>
      </trkpt>
      <trkpt lat="43.43652" lon="6.04072">
        <ele>256.2</ele>
        <time>2025-10-05T11:13:54.000Z</time>
      </trkpt>
      <trkpt lat="43.43652" lon="6.04072">
        <ele>256.1</ele>
        <time>2025-10-05T11:13:55.000Z</time>
      </trkpt>
      <trkpt lat="43.43652" lon="6.04072">
        <ele>256.1</ele>
        <time>2025-10-05T11:13:56.000Z</time>
      </trkpt>
      <trkpt lat="43.43652" lon="6.04072">
        <ele>256.1</ele>
        <time>2025-10-05T11:15:02.000Z</time>
      </trkpt>
      <trkpt lat="43.43652" lon="6.04072">
        <ele>256.1</ele>
        <time>2025-10-05T11:15:03.000Z</time>
      </trkpt>
      <trkpt lat="43.43652" lon="6.04072">
        <ele>256.2</ele>
        <time>2025-10-05T11:15:04.000Z</time>
      </trkpt>
      <trkpt lat="43.43652" lon="6.04072">
        <ele>256.2</ele>
        <time>2025-10-05T11:15:05.000Z</time>
      </trkpt>
      <trkpt lat="43.43652" lon="6.04072">
        <ele>256.2</ele>
        <time>2025-10-05T11:15:06.000Z</time>
      </trkpt>
      <trkpt lat="43.43652" lon="6.04072">
        <ele>256.5</ele>
        <time>2025-10-05T11:19:35.000Z</time>
      </trkpt>
      <trkpt lat="43.43652" lon="6.04073">
        <ele>256.5</ele>
        <time>2025-10-05T11:19:36.000Z</time>
      </trkpt>
      <trkpt lat="43.43651" lon="6.04072">
        <ele>256.6</ele>
        <time>2025-10-05T11:19:42.000Z</time>
      </trkpt>
      <trkpt lat="43.43651" lon="6.04072">
        <ele>256.6</ele>
        <time>2025-10-05T11:19:43.000Z</time>
      </trkpt>
      <trkpt lat="43.43651" lon="6.04072">
        <ele>256.6</ele>
        <time>2025-10-05T11:19:44.000Z</time>
      </trkpt>
      <trkpt lat="43.43651" lon="6.04072">
        <ele>256.6</ele>
        <time>2025-10-05T11:20:04.000Z</time>
      </trkpt>
      <trkpt lat="43.43651" lon="6.04072">
        <ele>256.6</ele>
        <time>2025-10-05T11:20:05.000Z</time>
      </trkpt>
      <trkpt lat="43.43651" lon="6.04072">
        <ele>256.6</ele>
        <time>2025-10-05T11:20:06.000Z</time>
      </trkpt>
      <trkpt lat="43.43651" lon="6.04072">
        <ele>256.6</ele>
        <time>2025-10-05T11:20:07.000Z</time>
      </trkpt>
      <trkpt lat="43.43651" lon="6.04072">
        <ele>256.6</ele>
        <time>2025-10-05T11:20:08.000Z</time>
      </trkpt>
      <trkpt lat="43.43651" lon="6.04072">
        <ele>256.7</ele>
        <time>2025-10-05T11:21:05.000Z</time>
      </trkpt>
      <trkpt lat="43.43651" lon="6.04072">
        <ele>256.7</ele>
        <time>2025-10-05T11:21:06.000Z</time>
      </trkpt>
      <trkpt lat="43.43651" lon="6.04072">
        <ele>256.7</ele>
        <time>2025-10-05T11:21:07.000Z</time>
      </trkpt>
      <trkpt lat="43.43651" lon="6.04072">
        <ele>256.7</ele>
        <time>2025-10-05T11:21:08.000Z</time>
      </trkpt>
      <trkpt lat="43.43651" lon="6.04072">
        <ele>256.6</ele>
        <time>2025-10-05T11:21:27.000Z</time>
      </trkpt>
      <trkpt lat="43.43651" lon="6.04072">
        <ele>256.6</ele>
        <time>2025-10-05T11:21:28.000Z</time>
      </trkpt>
      <trkpt lat="43.43651" lon="6.04072">
        <ele>256.7</ele>
        <time>2025-10-05T11:21:29.000Z</time>
      </trkpt>
      <trkpt lat="43.43651" lon="6.04072">
        <ele>256.7</ele>
        <time>2025-10-05T11:21:30.000Z</time>
      </trkpt>
      <trkpt lat="43.43651" lon="6.04072">
        <ele>256.7</ele>
        <time>2025-10-05T11:21:31.000Z</time>
      </trkpt>
      <trkpt lat="43.43651" lon="6.04072">
        <ele>256.7</ele>
        <time>2025-10-05T11:21:35.000Z</time>
      </trkpt>
      <trkpt lat="43.43651" lon="6.04072">
        <ele>256.7</ele>
        <time>2025-10-05T11:21:36.000Z</time>
      </trkpt>
      <trkpt lat="43.43651" lon="6.04072">
        <ele>256.7</ele>
        <time>2025-10-05T11:21:37.000Z</time>
      </trkpt>
      <trkpt lat="43.43651" lon="6.04072">
        <ele>256.7</ele>
        <time>2025-10-05T11:21:42.000Z</time>
      </trkpt>
      <trkpt lat="43.43651" lon="6.04072">
        <ele>256.7</ele>
        <time>2025-10-05T11:21:43.000Z</time>
      </trkpt>
      <trkpt lat="43.43651" lon="6.04072">
        <ele>256.7</ele>
        <time>2025-10-05T11:21:44.000Z</time>
      </trkpt>
      <trkpt lat="43.43651" lon="6.04072">
        <ele>256.7</ele>
        <time>2025-10-05T11:21:45.000Z</time>
      </trkpt>
      <trkpt lat="43.43652" lon="6.04072">
        <ele>256.8</ele>
        <time>2025-10-05T11:21:46.000Z</time>
      </trkpt>
      <trkpt lat="43.43652" lon="6.04072">
        <ele>256.8</ele>
        <time>2025-10-05T11:21:47.000Z</time>
      </trkpt>
      <trkpt lat="43.43652" lon="6.04072">
        <ele>256.9</ele>
        <time>2025-10-05T11:21:55.000Z</time>
      </trkpt>
      <trkpt lat="43.43652" lon="6.04072">
        <ele>256.9</ele>
        <time>2025-10-05T11:21:56.000Z</time>
      </trkpt>
      <trkpt lat="43.43652" lon="6.04072">
        <ele>256.9</ele>
        <time>2025-10-05T11:21:57.000Z</time>
      </trkpt>
      <trkpt lat="43.43652" lon="6.04072">
        <ele>256.9</ele>
        <time>2025-10-05T11:21:58.000Z</time>
      </trkpt>
      <trkpt lat="43.43652" lon="6.04072">
        <ele>256.9</ele>
        <time>2025-10-05T11:21:59.000Z</time>
      </trkpt>
      <trkpt lat="43.43652" lon="6.04072">
        <ele>256.9</ele>
        <time>2025-10-05T11:22:00.000Z</time>
      </trkpt>
      <trkpt lat="43.43652" lon="6.04072">
        <ele>256.9</ele>
        <time>2025-10-05T11:22:01.000Z</time>
      </trkpt>
      <trkpt lat="43.43652" lon="6.04072">
        <ele>257.1</ele>
        <time>2025-10-05T11:22:07.000Z</time>
      </trkpt>
      <trkpt lat="43.43652" lon="6.04072">
        <ele>257.1</ele>
        <time>2025-10-05T11:22:08.000Z</time>
      </trkpt>
      <trkpt lat="43.43652" lon="6.04072">
        <ele>257.1</ele>
        <time>2025-10-05T11:22:09.000Z</time>
      </trkpt>
      <trkpt lat="43.43652" lon="6.04072">
        <ele>257.1</ele>
        <time>2025-10-05T11:22:10.000Z</time>
      </trkpt>
      <trkpt lat="43.43652" lon="6.04072">
        <ele>257.1</ele>
        <time>2025-10-05T11:22:11.000Z</time>
      </trkpt>
      <trkpt lat="43.43652" lon="6.04072">
        <ele>257.1</ele>
        <time>2025-10-05T11:23:00.000Z</time>
      </trkpt>
      <trkpt lat="43.43652" lon="6.04072">
        <ele>257.1</ele>
        <time>2025-10-05T11:23:01.000Z</time>
      </trkpt>
      <trkpt lat="43.43652" lon="6.04072">
        <ele>257.1</ele>
        <time>2025-10-05T11:23:02.000Z</time>
      </trkpt>
      <trkpt lat="43.43652" lon="6.04072">
        <ele>257.1</ele>
        <time>2025-10-05T11:23:03.000Z</time>
      </trkpt>
      <trkpt lat="43.43652" lon="6.04072">
        <ele>257.1</ele>
        <time>2025-10-05T11:23:37.000Z</time>
      </trkpt>
      <trkpt lat="43.43652" lon="6.04072">
        <ele>257.1</ele>
        <time>2025-10-05T11:23:38.000Z</time>
      </trkpt>
      <trkpt lat="43.43652" lon="6.04072">
        <ele>257.1</ele>
        <time>2025-10-05T11:23:39.000Z</time>
      </trkpt>
      <trkpt lat="43.43652" lon="6.04072">
        <ele>257.1</ele>
        <time>2025-10-05T11:23:40.000Z</time>
      </trkpt>
      <trkpt lat="43.43652" lon="6.04072">
        <ele>257.1</ele>
        <time>2025-10-05T11:23:41.000Z</time>
      </trkpt>
      <trkpt lat="43.43652" lon="6.04072">
        <ele>257.1</ele>
        <time>2025-10-05T11:23:52.000Z</time>
      </trkpt>
      <trkpt lat="43.43652" lon="6.04072">
        <ele>257.1</ele>
        <time>2025-10-05T11:23:53.000Z</time>
      </trkpt>
      <trkpt lat="43.43652" lon="6.04072">
        <ele>257.1</ele>
        <time>2025-10-05T11:23:54.000Z</time>
      </trkpt>
      <trkpt lat="43.43652" lon="6.04072">
        <ele>257.1</ele>
        <time>2025-10-05T11:23:55.000Z</time>
      </trkpt>
      <trkpt lat="43.43652" lon="6.04072">
        <ele>257.1</ele>
        <time>2025-10-05T11:23:56.000Z</time>
      </trkpt>
      <trkpt lat="43.43652" lon="6.04072">
        <ele>257.1</ele>
        <time>2025-10-05T11:24:24.000Z</time>
      </trkpt>
      <trkpt lat="43.43652" lon="6.04072">
        <ele>257.1</ele>
        <time>2025-10-05T11:24:25.000Z</time>
      </trkpt>
      <trkpt lat="43.43652" lon="6.04072">
        <ele>257.1</ele>
        <time>2025-10-05T11:24:26.000Z</time>
      </trkpt>
      <trkpt lat="43.43652" lon="6.04072">
        <ele>257.1</ele>
        <time>2025-10-05T11:24:27.000Z</time>
      </trkpt>
      <trkpt lat="43.43652" lon="6.04072">
        <ele>257.1</ele>
        <time>2025-10-05T11:24:28.000Z</time>
      </trkpt>
      <trkpt lat="43.43652" lon="6.04072">
        <ele>257.1</ele>
        <time>2025-10-05T11:24:29.000Z</time>
      </trkpt>
      <trkpt lat="43.43652" lon="6.04073">
        <ele>257.6</ele>
        <time>2025-10-05T11:26:23.000Z</time>
      </trkpt>
      <trkpt lat="43.43651" lon="6.04072">
        <ele>257.6</ele>
        <time>2025-10-05T11:26:24.000Z</time>
      </trkpt>
      <trkpt lat="43.43652" lon="6.04071">
        <ele>257.7</ele>
        <time>2025-10-05T11:26:34.000Z</time>
      </trkpt>
      <trkpt lat="43.43652" lon="6.04071">
        <ele>257.7</ele>
        <time>2025-10-05T11:26:35.000Z</time>
      </trkpt>
      <trkpt lat="43.43652" lon="6.04071">
        <ele>257.7</ele>
        <time>2025-10-05T11:26:36.000Z</time>
      </trkpt>
      <trkpt lat="43.43652" lon="6.04071">
        <ele>257.5</ele>
        <time>2025-10-05T11:27:05.000Z</time>
      </trkpt>
      <trkpt lat="43.43652" lon="6.04071">
        <ele>257.5</ele>
        <time>2025-10-05T11:27:06.000Z</time>
      </trkpt>
      <trkpt lat="43.43652" lon="6.04071">
        <ele>257.5</ele>
        <time>2025-10-05T11:27:07.000Z</time>
      </trkpt>
      <trkpt lat="43.43652" lon="6.04071">
        <ele>257.5</ele>
        <time>2025-10-05T11:27:08.000Z</time>
      </trkpt>
      <trkpt lat="43.43652" lon="6.04071">
        <ele>257.5</ele>
        <time>2025-10-05T11:27:09.000Z</time>
      </trkpt>
      <trkpt lat="43.43652" lon="6.04071">
        <ele>257.5</ele>
        <time>2025-10-05T11:27:20.000Z</time>
      </trkpt>
      <trkpt lat="43.43651" lon="6.0407">
        <ele>257.5</ele>
        <time>2025-10-05T11:27:21.000Z</time>
      </trkpt>
      <trkpt lat="43.43646" lon="6.04067">
        <ele>257.7</ele>
        <time>2025-10-05T11:27:37.000Z</time>
      </trkpt>
      <trkpt lat="43.43646" lon="6.04067">
        <ele>257.7</ele>
        <time>2025-10-05T11:27:38.000Z</time>
      </trkpt>
      <trkpt lat="43.43646" lon="6.04067">
        <ele>257.7</ele>
        <time>2025-10-05T11:27:39.000Z</time>
      </trkpt>
      <trkpt lat="43.43646" lon="6.04067">
        <ele>257.8</ele>
        <time>2025-10-05T11:27:45.000Z</time>
      </trkpt>
      <trkpt lat="43.43646" lon="6.04067">
        <ele>257.8</ele>
        <time>2025-10-05T11:27:46.000Z</time>
      </trkpt>
      <trkpt lat="43.43646" lon="6.04067">
        <ele>257.8</ele>
        <time>2025-10-05T11:27:47.000Z</time>
      </trkpt>
      <trkpt lat="43.43646" lon="6.04067">
        <ele>257.8</ele>
        <time>2025-10-05T11:27:48.000Z</time>
      </trkpt>
      <trkpt lat="43.43646" lon="6.04067">
        <ele>257.8</ele>
        <time>2025-10-05T11:27:49.000Z</time>
      </trkpt>
      <trkpt lat="43.43646" lon="6.04067">
        <ele>257.9</ele>
        <time>2025-10-05T11:28:04.000Z</time>
      </trkpt>
      <trkpt lat="43.43646" lon="6.04067">
        <ele>257.9</ele>
        <time>2025-10-05T11:28:05.000Z</time>
      </trkpt>
      <trkpt lat="43.43646" lon="6.04067">
        <ele>257.9</ele>
        <time>2025-10-05T11:28:06.000Z</time>
      </trkpt>
      <trkpt lat="43.43646" lon="6.04067">
        <ele>257.9</ele>
        <time>2025-10-05T11:28:07.000Z</time>
      </trkpt>
      <trkpt lat="43.43646" lon="6.04067">
        <ele>257.9</ele>
        <time>2025-10-05T11:28:08.000Z</time>
      </trkpt>
      <trkpt lat="43.43645" lon="6.04067">
        <ele>258.1</ele>
        <time>2025-10-05T11:28:44.000Z</time>
      </trkpt>
      <trkpt lat="43.43645" lon="6.04067">
        <ele>258.1</ele>
        <time>2025-10-05T11:28:45.000Z</time>
      </trkpt>
      <trkpt lat="43.43644" lon="6.04067">
        <ele>258.1</ele>
        <time>2025-10-05T11:28:46.000Z</time>
      </trkpt>
      <trkpt lat="43.43644" lon="6.04067">
        <ele>258.1</ele>
        <time>2025-10-05T11:28:47.000Z</time>
      </trkpt>
      <trkpt lat="43.43644" lon="6.04067">
        <ele>258.1</ele>
        <time>2025-10-05T11:28:48.000Z</time>
      </trkpt>
      <trkpt lat="43.43644" lon="6.04067">
        <ele>258.1</ele>
        <time>2025-10-05T11:28:49.000Z</time>
      </trkpt>
      <trkpt lat="43.43644" lon="6.04066">
        <ele>257.9</ele>
        <time>2025-10-05T11:29:24.000Z</time>
      </trkpt>
      <trkpt lat="43.43644" lon="6.04066">
        <ele>257.9</ele>
        <time>2025-10-05T11:29:25.000Z</time>
      </trkpt>
      <trkpt lat="43.43644" lon="6.04066">
        <ele>257.9</ele>
        <time>2025-10-05T11:29:26.000Z</time>
      </trkpt>
      <trkpt lat="43.43644" lon="6.04066">
        <ele>257.9</ele>
        <time>2025-10-05T11:29:35.000Z</time>
      </trkpt>
      <trkpt lat="43.43644" lon="6.04066">
        <ele>257.8</ele>
        <time>2025-10-05T11:29:36.000Z</time>
      </trkpt>
      <trkpt lat="43.43644" lon="6.04066">
        <ele>257.8</ele>
        <time>2025-10-05T11:29:42.000Z</time>
      </trkpt>
      <trkpt lat="43.43644" lon="6.04066">
        <ele>257.8</ele>
        <time>2025-10-05T11:29:43.000Z</time>
      </trkpt>
      <trkpt lat="43.43645" lon="6.04066">
        <ele>257.8</ele>
        <time>2025-10-05T11:29:44.000Z</time>
      </trkpt>
      <trkpt lat="43.43645" lon="6.04066">
        <ele>257.8</ele>
        <time>2025-10-05T11:29:45.000Z</time>
      </trkpt>
      <trkpt lat="43.43645" lon="6.04066">
        <ele>257.8</ele>
        <time>2025-10-05T11:29:46.000Z</time>
      </trkpt>
      <trkpt lat="43.43645" lon="6.04066">
        <ele>257.8</ele>
        <time>2025-10-05T11:29:47.000Z</time>
      </trkpt>
      <trkpt lat="43.43646" lon="6.04066">
        <ele>257.8</ele>
        <time>2025-10-05T11:29:48.000Z</time>
      </trkpt>
      <trkpt lat="43.4365" lon="6.04071">
        <ele>257.8</ele>
        <time>2025-10-05T11:30:04.000Z</time>
      </trkpt>
      <trkpt lat="43.4365" lon="6.04071">
        <ele>257.7</ele>
        <time>2025-10-05T11:30:05.000Z</time>
      </trkpt>
      <trkpt lat="43.4365" lon="6.04071">
        <ele>257.7</ele>
        <time>2025-10-05T11:30:06.000Z</time>
      </trkpt>
      <trkpt lat="43.4365" lon="6.04072">
        <ele>257.8</ele>
        <time>2025-10-05T11:30:39.000Z</time>
      </trkpt>
      <trkpt lat="43.4365" lon="6.04072">
        <ele>257.8</ele>
        <time>2025-10-05T11:30:40.000Z</time>
      </trkpt>
      <trkpt lat="43.4365" lon="6.04072">
        <ele>257.8</ele>
        <time>2025-10-05T11:30:41.000Z</time>
      </trkpt>
      <trkpt lat="43.4365" lon="6.04072">
        <ele>257.8</ele>
        <time>2025-10-05T11:30:44.000Z</time>
      </trkpt>
      <trkpt lat="43.4365" lon="6.04072">
        <ele>257.9</ele>
        <time>2025-10-05T11:30:45.000Z</time>
      </trkpt>
      <trkpt lat="43.4365" lon="6.04072">
        <ele>257.9</ele>
        <time>2025-10-05T11:30:46.000Z</time>
      </trkpt>
      <trkpt lat="43.4365" lon="6.04072">
        <ele>257.9</ele>
        <time>2025-10-05T11:30:47.000Z</time>
      </trkpt>
      <trkpt lat="43.4365" lon="6.04072">
        <ele>257.8</ele>
        <time>2025-10-05T11:30:48.000Z</time>
      </trkpt>
      <trkpt lat="43.4365" lon="6.04072">
        <ele>257.8</ele>
        <time>2025-10-05T11:30:49.000Z</time>
      </trkpt>
      <trkpt lat="43.4365" lon="6.04072">
        <ele>257.8</ele>
        <time>2025-10-05T11:30:50.000Z</time>
      </trkpt>
      <trkpt lat="43.43651" lon="6.04072">
        <ele>257.8</ele>
        <time>2025-10-05T11:30:51.000Z</time>
      </trkpt>
      <trkpt lat="43.43651" lon="6.04072">
        <ele>257.7</ele>
        <time>2025-10-05T11:30:52.000Z</time>
      </trkpt>
      <trkpt lat="43.43651" lon="6.04072">
        <ele>257.7</ele>
        <time>2025-10-05T11:30:53.000Z</time>
      </trkpt>
      <trkpt lat="43.43651" lon="6.04072">
        <ele>257.8</ele>
        <time>2025-10-05T11:30:54.000Z</time>
      </trkpt>
      <trkpt lat="43.43651" lon="6.04072">
        <ele>257.8</ele>
        <time>2025-10-05T11:30:55.000Z</time>
      </trkpt>
      <trkpt lat="43.43651" lon="6.04072">
        <ele>257.8</ele>
        <time>2025-10-05T11:30:56.000Z</time>
      </trkpt>
      <trkpt lat="43.43652" lon="6.04072">
        <ele>257.4</ele>
        <time>2025-10-05T11:31:52.000Z</time>
      </trkpt>
      <trkpt lat="43.43652" lon="6.04072">
        <ele>257.4</ele>
        <time>2025-10-05T11:31:53.000Z</time>
      </trkpt>
      <trkpt lat="43.43652" lon="6.04072">
        <ele>257.3</ele>
        <time>2025-10-05T11:31:57.000Z</time>
      </trkpt>
      <trkpt lat="43.43652" lon="6.04072">
        <ele>257.3</ele>
        <time>2025-10-05T11:31:58.000Z</time>
      </trkpt>
      <trkpt lat="43.43653" lon="6.04072">
        <ele>257.4</ele>
        <time>2025-10-05T11:33:27.000Z</time>
      </trkpt>
      <trkpt lat="43.43653" lon="6.04072">
        <ele>257.4</ele>
        <time>2025-10-05T11:33:28.000Z</time>
      </trkpt>
      <trkpt lat="43.43653" lon="6.04072">
        <ele>257.4</ele>
        <time>2025-10-05T11:33:29.000Z</time>
      </trkpt>
      <trkpt lat="43.43653" lon="6.04072">
        <ele>257.4</ele>
        <time>2025-10-05T11:33:30.000Z</time>
      </trkpt>
      <trkpt lat="43.43653" lon="6.04072">
        <ele>257.4</ele>
        <time>2025-10-05T11:33:31.000Z</time>
      </trkpt>
      <trkpt lat="43.43653" lon="6.04072">
        <ele>257.3</ele>
        <time>2025-10-05T11:33:35.000Z</time>
      </trkpt>
      <trkpt lat="43.43653" lon="6.04072">
        <ele>257.3</ele>
        <time>2025-10-05T11:33:36.000Z</time>
      </trkpt>
      <trkpt lat="43.43653" lon="6.04072">
        <ele>257.3</ele>
        <time>2025-10-05T11:33:37.000Z</time>
      </trkpt>
      <trkpt lat="43.43653" lon="6.04072">
        <ele>257.3</ele>
        <time>2025-10-05T11:33:43.000Z</time>
      </trkpt>
      <trkpt lat="43.43653" lon="6.04072">
        <ele>257.4</ele>
        <time>2025-10-05T11:33:44.000Z</time>
      </trkpt>
      <trkpt lat="43.43653" lon="6.04073">
        <ele>257.4</ele>
        <time>2025-10-05T11:33:50.000Z</time>
      </trkpt>
      <trkpt lat="43.43653" lon="6.04073">
        <ele>257.4</ele>
        <time>2025-10-05T11:33:51.000Z</time>
      </trkpt>
      <trkpt lat="43.43653" lon="6.04073">
        <ele>257.4</ele>
        <time>2025-10-05T11:33:52.000Z</time>
      </trkpt>
      <trkpt lat="43.43653" lon="6.04073">
        <ele>257.4</ele>
        <time>2025-10-05T11:33:53.000Z</time>
      </trkpt>
      <trkpt lat="43.43653" lon="6.04073">
        <ele>257.4</ele>
        <time>2025-10-05T11:33:54.000Z</time>
      </trkpt>
      <trkpt lat="43.43654" lon="6.04072">
        <ele>257.3</ele>
        <time>2025-10-05T11:34:12.000Z</time>
      </trkpt>
      <trkpt lat="43.43654" lon="6.04072">
        <ele>257.3</ele>
        <time>2025-10-05T11:34:13.000Z</time>
      </trkpt>
      <trkpt lat="43.43654" lon="6.04072">
        <ele>257.3</ele>
        <time>2025-10-05T11:34:20.000Z</time>
      </trkpt>
      <trkpt lat="43.43654" lon="6.04072">
        <ele>257.3</ele>
        <time>2025-10-05T11:34:21.000Z</time>
      </trkpt>
      <trkpt lat="43.43654" lon="6.04072">
        <ele>257.4</ele>
        <time>2025-10-05T11:34:27.000Z</time>
      </trkpt>
      <trkpt lat="43.43654" lon="6.04072">
        <ele>257.4</ele>
        <time>2025-10-05T11:34:28.000Z</time>
      </trkpt>
      <trkpt lat="43.43654" lon="6.04072">
        <ele>257.4</ele>
        <time>2025-10-05T11:34:29.000Z</time>
      </trkpt>
      <trkpt lat="43.43654" lon="6.04072">
        <ele>257.4</ele>
        <time>2025-10-05T11:34:30.000Z</time>
      </trkpt>
      <trkpt lat="43.43654" lon="6.04072">
        <ele>257.4</ele>
        <time>2025-10-05T11:34:31.000Z</time>
      </trkpt>
      <trkpt lat="43.43654" lon="6.04072">
        <ele>257.4</ele>
        <time>2025-10-05T11:34:44.000Z</time>
      </trkpt>
      <trkpt lat="43.43654" lon="6.04072">
        <ele>257.4</ele>
        <time>2025-10-05T11:34:45.000Z</time>
      </trkpt>
      <trkpt lat="43.43654" lon="6.04072">
        <ele>257.4</ele>
        <time>2025-10-05T11:34:46.000Z</time>
      </trkpt>
      <trkpt lat="43.43654" lon="6.04072">
        <ele>257.6</ele>
        <time>2025-10-05T11:34:54.000Z</time>
      </trkpt>
      <trkpt lat="43.43654" lon="6.04072">
        <ele>257.6</ele>
        <time>2025-10-05T11:34:55.000Z</time>
      </trkpt>
      <trkpt lat="43.43654" lon="6.04072">
        <ele>257.6</ele>
        <time>2025-10-05T11:34:56.000Z</time>
      </trkpt>
      <trkpt lat="43.43654" lon="6.04073">
        <ele>258.2</ele>
        <time>2025-10-05T11:36:09.000Z</time>
      </trkpt>
      <trkpt lat="43.43654" lon="6.04073">
        <ele>258.2</ele>
        <time>2025-10-05T11:36:10.000Z</time>
      </trkpt>
      <trkpt lat="43.43654" lon="6.04073">
        <ele>258.2</ele>
        <time>2025-10-05T11:36:11.000Z</time>
      </trkpt>
      <trkpt lat="43.43653" lon="6.04072">
        <ele>258.2</ele>
        <time>2025-10-05T11:36:17.000Z</time>
      </trkpt>
      <trkpt lat="43.43653" lon="6.04072">
        <ele>258.3</ele>
        <time>2025-10-05T11:36:18.000Z</time>
      </trkpt>
      <trkpt lat="43.43653" lon="6.04072">
        <ele>258.3</ele>
        <time>2025-10-05T11:36:19.000Z</time>
      </trkpt>
      <trkpt lat="43.43653" lon="6.04072">
        <ele>258.2</ele>
        <time>2025-10-05T11:36:28.000Z</time>
      </trkpt>
      <trkpt lat="43.43653" lon="6.04072">
        <ele>258.2</ele>
        <time>2025-10-05T11:36:29.000Z</time>
      </trkpt>
      <trkpt lat="43.43653" lon="6.04071">
        <ele>258.1</ele>
        <time>2025-10-05T11:36:34.000Z</time>
      </trkpt>
      <trkpt lat="43.43653" lon="6.04071">
        <ele>258.1</ele>
        <time>2025-10-05T11:36:35.000Z</time>
      </trkpt>
      <trkpt lat="43.43653" lon="6.04071">
        <ele>258.1</ele>
        <time>2025-10-05T11:36:36.000Z</time>
      </trkpt>
      <trkpt lat="43.43652" lon="6.04071">
        <ele>258</ele>
        <time>2025-10-05T11:36:50.000Z</time>
      </trkpt>
      <trkpt lat="43.43652" lon="6.04071">
        <ele>258</ele>
        <time>2025-10-05T11:36:51.000Z</time>
      </trkpt>
      <trkpt lat="43.43652" lon="6.04071">
        <ele>258</ele>
        <time>2025-10-05T11:36:52.000Z</time>
      </trkpt>
      <trkpt lat="43.43652" lon="6.04071">
        <ele>258</ele>
        <time>2025-10-05T11:36:53.000Z</time>
      </trkpt>
      <trkpt lat="43.43652" lon="6.04071">
        <ele>258</ele>
        <time>2025-10-05T11:36:54.000Z</time>
      </trkpt>
      <trkpt lat="43.43652" lon="6.04071">
        <ele>257.9</ele>
        <time>2025-10-05T11:37:00.000Z</time>
      </trkpt>
      <trkpt lat="43.43652" lon="6.04071">
        <ele>257.9</ele>
        <time>2025-10-05T11:37:01.000Z</time>
      </trkpt>
      <trkpt lat="43.43652" lon="6.04071">
        <ele>257.9</ele>
        <time>2025-10-05T11:37:04.000Z</time>
      </trkpt>
      <trkpt lat="43.43652" lon="6.04071">
        <ele>257.9</ele>
        <time>2025-10-05T11:37:05.000Z</time>
      </trkpt>
      <trkpt lat="43.43652" lon="6.04071">
        <ele>257.9</ele>
        <time>2025-10-05T11:37:06.000Z</time>
      </trkpt>
      <trkpt lat="43.43652" lon="6.04071">
        <ele>257.7</ele>
        <time>2025-10-05T11:37:23.000Z</time>
      </trkpt>
      <trkpt lat="43.43651" lon="6.04071">
        <ele>257.7</ele>
        <time>2025-10-05T11:37:24.000Z</time>
      </trkpt>
      <trkpt lat="43.43652" lon="6.04078">
        <ele>257.2</ele>
        <time>2025-10-05T11:37:40.000Z</time>
      </trkpt>
      <trkpt lat="43.43653" lon="6.04078">
        <ele>257.1</ele>
        <time>2025-10-05T11:37:41.000Z</time>
      </trkpt>
      <trkpt lat="43.43653" lon="6.04079">
        <ele>257</ele>
        <time>2025-10-05T11:37:42.000Z</time>
      </trkpt>
      <trkpt lat="43.43653" lon="6.04079">
        <ele>257</ele>
        <time>2025-10-05T11:37:43.000Z</time>
      </trkpt>
      <trkpt lat="43.43659" lon="6.04073">
        <ele>257.3</ele>
        <time>2025-10-05T11:38:10.000Z</time>
      </trkpt>
      <trkpt lat="43.4366" lon="6.04073">
        <ele>257.4</ele>
        <time>2025-10-05T11:38:11.000Z</time>
      </trkpt>
      <trkpt lat="43.43661" lon="6.04073">
        <ele>257.5</ele>
        <time>2025-10-05T11:38:12.000Z</time>
      </trkpt>
      <trkpt lat="43.43661" lon="6.04073">
        <ele>257.6</ele>
        <time>2025-10-05T11:38:13.000Z</time>
      </trkpt>
      <trkpt lat="43.43662" lon="6.04073">
        <ele>258</ele>
        <time>2025-10-05T11:38:17.000Z</time>
      </trkpt>
      <trkpt lat="43.43662" lon="6.04073">
        <ele>258.1</ele>
        <time>2025-10-05T11:38:18.000Z</time>
      </trkpt>
      <trkpt lat="43.43662" lon="6.04073">
        <ele>258.2</ele>
        <time>2025-10-05T11:38:19.000Z</time>
      </trkpt>
      <trkpt lat="43.43663" lon="6.04071">
        <ele>258.6</ele>
        <time>2025-10-05T11:38:24.000Z</time>
      </trkpt>
      <trkpt lat="43.43663" lon="6.0407">
        <ele>258.7</ele>
        <time>2025-10-05T11:38:25.000Z</time>
      </trkpt>
      <trkpt lat="43.43663" lon="6.04069">
        <ele>258.8</ele>
        <time>2025-10-05T11:38:26.000Z</time>
      </trkpt>
      <trkpt lat="43.43668" lon="6.04058">
        <ele>259.2</ele>
        <time>2025-10-05T11:38:38.000Z</time>
      </trkpt>
      <trkpt lat="43.43668" lon="6.04058">
        <ele>259.4</ele>
        <time>2025-10-05T11:38:45.000Z</time>
      </trkpt>
      <trkpt lat="43.43668" lon="6.04058">
        <ele>259.3</ele>
        <time>2025-10-05T11:38:46.000Z</time>
      </trkpt>
      <trkpt lat="43.43668" lon="6.04058">
        <ele>259.3</ele>
        <time>2025-10-05T11:38:47.000Z</time>
      </trkpt>
      <trkpt lat="43.43668" lon="6.04058">
        <ele>259.2</ele>
        <time>2025-10-05T11:38:50.000Z</time>
      </trkpt>
      <trkpt lat="43.43668" lon="6.04058">
        <ele>259.2</ele>
        <time>2025-10-05T11:38:51.000Z</time>
      </trkpt>
      <trkpt lat="43.43671" lon="6.04058">
        <ele>257.5</ele>
        <time>2025-10-05T11:39:15.000Z</time>
      </trkpt>
      <trkpt lat="43.43671" lon="6.04058">
        <ele>257.4</ele>
        <time>2025-10-05T11:39:16.000Z</time>
      </trkpt>
      <trkpt lat="43.4367" lon="6.04058">
        <ele>257.2</ele>
        <time>2025-10-05T11:39:23.000Z</time>
      </trkpt>
      <trkpt lat="43.43669" lon="6.04057">
        <ele>257.2</ele>
        <time>2025-10-05T11:39:24.000Z</time>
      </trkpt>
      <trkpt lat="43.43666" lon="6.04058">
        <ele>257.8</ele>
        <time>2025-10-05T11:39:37.000Z</time>
      </trkpt>
      <trkpt lat="43.43666" lon="6.04059">
        <ele>257.8</ele>
        <time>2025-10-05T11:39:38.000Z</time>
      </trkpt>
      <trkpt lat="43.43665" lon="6.04059">
        <ele>257.9</ele>
        <time>2025-10-05T11:39:39.000Z</time>
      </trkpt>
      <trkpt lat="43.43665" lon="6.04059">
        <ele>257.9</ele>
        <time>2025-10-05T11:39:40.000Z</time>
      </trkpt>
      <trkpt lat="43.43663" lon="6.0406">
        <ele>258</ele>
        <time>2025-10-05T11:39:41.000Z</time>
      </trkpt>
      <trkpt lat="43.43656" lon="6.04068">
        <ele>258.2</ele>
        <time>2025-10-05T11:39:53.000Z</time>
      </trkpt>
      <trkpt lat="43.4365" lon="6.04069">
        <ele>258</ele>
        <time>2025-10-05T11:40:23.000Z</time>
      </trkpt>
      <trkpt lat="43.4365" lon="6.04069">
        <ele>258</ele>
        <time>2025-10-05T11:40:24.000Z</time>
      </trkpt>
      <trkpt lat="43.4365" lon="6.0407">
        <ele>258.1</ele>
        <time>2025-10-05T11:40:27.000Z</time>
      </trkpt>
      <trkpt lat="43.4365" lon="6.0407">
        <ele>258.1</ele>
        <time>2025-10-05T11:40:28.000Z</time>
      </trkpt>
      <trkpt lat="43.4365" lon="6.0407">
        <ele>258.1</ele>
        <time>2025-10-05T11:40:29.000Z</time>
      </trkpt>
      <trkpt lat="43.4365" lon="6.0407">
        <ele>258.1</ele>
        <time>2025-10-05T11:40:30.000Z</time>
      </trkpt>
      <trkpt lat="43.4365" lon="6.0407">
        <ele>258.1</ele>
        <time>2025-10-05T11:40:31.000Z</time>
      </trkpt>
      <trkpt lat="43.4365" lon="6.0407">
        <ele>258.1</ele>
        <time>2025-10-05T11:41:15.000Z</time>
      </trkpt>
      <trkpt lat="43.4365" lon="6.0407">
        <ele>258.2</ele>
        <time>2025-10-05T11:41:16.000Z</time>
      </trkpt>
      <trkpt lat="43.43651" lon="6.04071">
        <ele>258.1</ele>
        <time>2025-10-05T11:41:27.000Z</time>
      </trkpt>
      <trkpt lat="43.43651" lon="6.04071">
        <ele>258.2</ele>
        <time>2025-10-05T11:41:28.000Z</time>
      </trkpt>
      <trkpt lat="43.43651" lon="6.04071">
        <ele>258.2</ele>
        <time>2025-10-05T11:41:29.000Z</time>
      </trkpt>
      <trkpt lat="43.43651" lon="6.04071">
        <ele>258.1</ele>
        <time>2025-10-05T11:41:33.000Z</time>
      </trkpt>
      <trkpt lat="43.43651" lon="6.04071">
        <ele>258.1</ele>
        <time>2025-10-05T11:41:34.000Z</time>
      </trkpt>
      <trkpt lat="43.43651" lon="6.04071">
        <ele>258.1</ele>
        <time>2025-10-05T11:41:35.000Z</time>
      </trkpt>
      <trkpt lat="43.43651" lon="6.04071">
        <ele>258.1</ele>
        <time>2025-10-05T11:41:36.000Z</time>
      </trkpt>
      <trkpt lat="43.43651" lon="6.04071">
        <ele>258.2</ele>
        <time>2025-10-05T11:41:55.000Z</time>
      </trkpt>
      <trkpt lat="43.43651" lon="6.04071">
        <ele>258.2</ele>
        <time>2025-10-05T11:41:56.000Z</time>
      </trkpt>
      <trkpt lat="43.43651" lon="6.04071">
        <ele>258.2</ele>
        <time>2025-10-05T11:41:57.000Z</time>
      </trkpt>
      <trkpt lat="43.43651" lon="6.04071">
        <ele>258.2</ele>
        <time>2025-10-05T11:41:58.000Z</time>
      </trkpt>
      <trkpt lat="43.43651" lon="6.04071">
        <ele>258.2</ele>
        <time>2025-10-05T11:41:59.000Z</time>
      </trkpt>
      <trkpt lat="43.43651" lon="6.04071">
        <ele>258.2</ele>
        <time>2025-10-05T11:43:12.000Z</time>
      </trkpt>
      <trkpt lat="43.43651" lon="6.04071">
        <ele>258.2</ele>
        <time>2025-10-05T11:43:13.000Z</time>
      </trkpt>
      <trkpt lat="43.43651" lon="6.04071">
        <ele>258.2</ele>
        <time>2025-10-05T11:43:14.000Z</time>
      </trkpt>
      <trkpt lat="43.43651" lon="6.04071">
        <ele>258.2</ele>
        <time>2025-10-05T11:43:15.000Z</time>
      </trkpt>
      <trkpt lat="43.43651" lon="6.04071">
        <ele>258.2</ele>
        <time>2025-10-05T11:43:16.000Z</time>
      </trkpt>
      <trkpt lat="43.43651" lon="6.04072">
        <ele>258.1</ele>
        <time>2025-10-05T11:43:37.000Z</time>
      </trkpt>
      <trkpt lat="43.43651" lon="6.04072">
        <ele>258.1</ele>
        <time>2025-10-05T11:43:38.000Z</time>
      </trkpt>
      <trkpt lat="43.43651" lon="6.04072">
        <ele>258.1</ele>
        <time>2025-10-05T11:43:39.000Z</time>
      </trkpt>
      <trkpt lat="43.43651" lon="6.04073">
        <ele>258.1</ele>
        <time>2025-10-05T11:43:40.000Z</time>
      </trkpt>
      <trkpt lat="43.43651" lon="6.04073">
        <ele>258.1</ele>
        <time>2025-10-05T11:43:41.000Z</time>
      </trkpt>
      <trkpt lat="43.43651" lon="6.04073">
        <ele>258.1</ele>
        <time>2025-10-05T11:43:45.000Z</time>
      </trkpt>
      <trkpt lat="43.43651" lon="6.04073">
        <ele>258.1</ele>
        <time>2025-10-05T11:43:46.000Z</time>
      </trkpt>
      <trkpt lat="43.43651" lon="6.04073">
        <ele>258.1</ele>
        <time>2025-10-05T11:43:50.000Z</time>
      </trkpt>
      <trkpt lat="43.43651" lon="6.04073">
        <ele>258.1</ele>
        <time>2025-10-05T11:43:51.000Z</time>
      </trkpt>
      <trkpt lat="43.43651" lon="6.04073">
        <ele>258.1</ele>
        <time>2025-10-05T11:43:52.000Z</time>
      </trkpt>
      <trkpt lat="43.4365" lon="6.04073">
        <ele>258.1</ele>
        <time>2025-10-05T11:43:53.000Z</time>
      </trkpt>
      <trkpt lat="43.4365" lon="6.04072">
        <ele>258.1</ele>
        <time>2025-10-05T11:43:54.000Z</time>
      </trkpt>
      <trkpt lat="43.43651" lon="6.04072">
        <ele>258.1</ele>
        <time>2025-10-05T11:44:00.000Z</time>
      </trkpt>
      <trkpt lat="43.43651" lon="6.04072">
        <ele>258.1</ele>
        <time>2025-10-05T11:44:01.000Z</time>
      </trkpt>
      <trkpt lat="43.43651" lon="6.04072">
        <ele>258.2</ele>
        <time>2025-10-05T11:44:15.000Z</time>
      </trkpt>
      <trkpt lat="43.4365" lon="6.04072">
        <ele>258.2</ele>
        <time>2025-10-05T11:44:16.000Z</time>
      </trkpt>
      <trkpt lat="43.43651" lon="6.04072">
        <ele>258.2</ele>
        <time>2025-10-05T11:44:25.000Z</time>
      </trkpt>
      <trkpt lat="43.43651" lon="6.04072">
        <ele>258.2</ele>
        <time>2025-10-05T11:44:26.000Z</time>
      </trkpt>
      <trkpt lat="43.43651" lon="6.04072">
        <ele>258.2</ele>
        <time>2025-10-05T11:44:27.000Z</time>
      </trkpt>
      <trkpt lat="43.43651" lon="6.04072">
        <ele>258.2</ele>
        <time>2025-10-05T11:44:28.000Z</time>
      </trkpt>
      <trkpt lat="43.43651" lon="6.04072">
        <ele>258.2</ele>
        <time>2025-10-05T11:44:29.000Z</time>
      </trkpt>
      <trkpt lat="43.43651" lon="6.04072">
        <ele>258.2</ele>
        <time>2025-10-05T11:44:30.000Z</time>
      </trkpt>
      <trkpt lat="43.43651" lon="6.04072">
        <ele>258.2</ele>
        <time>2025-10-05T11:44:31.000Z</time>
      </trkpt>
      <trkpt lat="43.4365" lon="6.04072">
        <ele>258.9</ele>
        <time>2025-10-05T11:47:43.000Z</time>
      </trkpt>
      <trkpt lat="43.4365" lon="6.04072">
        <ele>258.9</ele>
        <time>2025-10-05T11:47:44.000Z</time>
      </trkpt>
      <trkpt lat="43.4365" lon="6.04072">
        <ele>259.1</ele>
        <time>2025-10-05T11:47:52.000Z</time>
      </trkpt>
      <trkpt lat="43.4365" lon="6.04072">
        <ele>259.1</ele>
        <time>2025-10-05T11:47:53.000Z</time>
      </trkpt>
      <trkpt lat="43.4365" lon="6.04072">
        <ele>259.1</ele>
        <time>2025-10-05T11:47:54.000Z</time>
      </trkpt>
      <trkpt lat="43.4365" lon="6.04072">
        <ele>259.1</ele>
        <time>2025-10-05T11:47:55.000Z</time>
      </trkpt>
      <trkpt lat="43.4365" lon="6.04072">
        <ele>259.1</ele>
        <time>2025-10-05T11:47:56.000Z</time>
      </trkpt>
      <trkpt lat="43.4365" lon="6.04072">
        <ele>259.2</ele>
        <time>2025-10-05T11:48:02.000Z</time>
      </trkpt>
      <trkpt lat="43.4365" lon="6.04072">
        <ele>259.2</ele>
        <time>2025-10-05T11:48:03.000Z</time>
      </trkpt>
      <trkpt lat="43.4365" lon="6.04072">
        <ele>259.2</ele>
        <time>2025-10-05T11:48:04.000Z</time>
      </trkpt>
      <trkpt lat="43.4365" lon="6.04072">
        <ele>259.2</ele>
        <time>2025-10-05T11:48:05.000Z</time>
      </trkpt>
      <trkpt lat="43.4365" lon="6.04072">
        <ele>259.2</ele>
        <time>2025-10-05T11:48:06.000Z</time>
      </trkpt>
      <trkpt lat="43.4365" lon="6.04072">
        <ele>259.2</ele>
        <time>2025-10-05T11:48:07.000Z</time>
      </trkpt>
      <trkpt lat="43.4365" lon="6.04072">
        <ele>259.2</ele>
        <time>2025-10-05T11:48:08.000Z</time>
      </trkpt>
      <trkpt lat="43.4365" lon="6.04072">
        <ele>259.2</ele>
        <time>2025-10-05T11:48:09.000Z</time>
      </trkpt>
      <trkpt lat="43.4365" lon="6.04072">
        <ele>259.2</ele>
        <time>2025-10-05T11:48:12.000Z</time>
      </trkpt>
      <trkpt lat="43.4365" lon="6.04071">
        <ele>259.2</ele>
        <time>2025-10-05T11:48:13.000Z</time>
      </trkpt>
      <trkpt lat="43.43642" lon="6.04077">
        <ele>259.2</ele>
        <time>2025-10-05T11:48:30.000Z</time>
      </trkpt>
      <trkpt lat="43.43633" lon="6.04085">
        <ele>259</ele>
        <time>2025-10-05T11:48:39.000Z</time>
      </trkpt>
      <trkpt lat="43.43631" lon="6.04097">
        <ele>258.6</ele>
        <time>2025-10-05T11:48:51.000Z</time>
      </trkpt>
      <trkpt lat="43.43624" lon="6.04107">
        <ele>258.5</ele>
        <time>2025-10-05T11:49:03.000Z</time>
      </trkpt>
      <trkpt lat="43.43619" lon="6.04117">
        <ele>258.4</ele>
        <time>2025-10-05T11:49:13.000Z</time>
      </trkpt>
      <trkpt lat="43.43614" lon="6.04129">
        <ele>258.1</ele>
        <time>2025-10-05T11:49:26.000Z</time>
      </trkpt>
      <trkpt lat="43.4361" lon="6.04138">
        <ele>257.9</ele>
        <time>2025-10-05T11:49:37.000Z</time>
      </trkpt>
      <trkpt lat="43.4361" lon="6.04138">
        <ele>257.9</ele>
        <time>2025-10-05T11:49:38.000Z</time>
      </trkpt>
      <trkpt lat="43.4361" lon="6.04138">
        <ele>257.9</ele>
        <time>2025-10-05T11:49:39.000Z</time>
      </trkpt>
      <trkpt lat="43.43612" lon="6.0414">
        <ele>257.8</ele>
        <time>2025-10-05T11:49:48.000Z</time>
      </trkpt>
      <trkpt lat="43.43612" lon="6.04142">
        <ele>257.8</ele>
        <time>2025-10-05T11:49:49.000Z</time>
      </trkpt>
      <trkpt lat="43.43613" lon="6.04142">
        <ele>257.9</ele>
        <time>2025-10-05T11:49:53.000Z</time>
      </trkpt>
      <trkpt lat="43.43613" lon="6.04141">
        <ele>257.9</ele>
        <time>2025-10-05T11:49:54.000Z</time>
      </trkpt>
      <trkpt lat="43.43613" lon="6.04141">
        <ele>257.8</ele>
        <time>2025-10-05T11:50:17.000Z</time>
      </trkpt>
      <trkpt lat="43.43613" lon="6.04141">
        <ele>257.8</ele>
        <time>2025-10-05T11:50:18.000Z</time>
      </trkpt>
      <trkpt lat="43.43613" lon="6.04141">
        <ele>257.8</ele>
        <time>2025-10-05T11:50:19.000Z</time>
      </trkpt>
      <trkpt lat="43.43614" lon="6.0414">
        <ele>257.9</ele>
        <time>2025-10-05T11:50:25.000Z</time>
      </trkpt>
      <trkpt lat="43.43614" lon="6.0414">
        <ele>257.9</ele>
        <time>2025-10-05T11:50:26.000Z</time>
      </trkpt>
      <trkpt lat="43.43613" lon="6.04141">
        <ele>257.9</ele>
        <time>2025-10-05T11:50:27.000Z</time>
      </trkpt>
      <trkpt lat="43.43613" lon="6.04141">
        <ele>257.9</ele>
        <time>2025-10-05T11:50:28.000Z</time>
      </trkpt>
      <trkpt lat="43.43606" lon="6.0415">
        <ele>257.9</ele>
        <time>2025-10-05T11:50:40.000Z</time>
      </trkpt>
      <trkpt lat="43.436" lon="6.0416">
        <ele>258.1</ele>
        <time>2025-10-05T11:50:49.000Z</time>
      </trkpt>
      <trkpt lat="43.43598" lon="6.04168">
        <ele>258.4</ele>
        <time>2025-10-05T11:51:02.000Z</time>
      </trkpt>
      <trkpt lat="43.43599" lon="6.04168">
        <ele>258.4</ele>
        <time>2025-10-05T11:51:03.000Z</time>
      </trkpt>
      <trkpt lat="43.43599" lon="6.04168">
        <ele>258.4</ele>
        <time>2025-10-05T11:51:04.000Z</time>
      </trkpt>
      <trkpt lat="43.43599" lon="6.04168">
        <ele>258.4</ele>
        <time>2025-10-05T11:51:05.000Z</time>
      </trkpt>
      <trkpt lat="43.43599" lon="6.04169">
        <ele>258.4</ele>
        <time>2025-10-05T11:51:06.000Z</time>
      </trkpt>
      <trkpt lat="43.43599" lon="6.04182">
        <ele>258.8</ele>
        <time>2025-10-05T11:51:18.000Z</time>
      </trkpt>
      <trkpt lat="43.43592" lon="6.0419">
        <ele>259.4</ele>
        <time>2025-10-05T11:51:32.000Z</time>
      </trkpt>
      <trkpt lat="43.43584" lon="6.04198">
        <ele>260</ele>
        <time>2025-10-05T11:51:44.000Z</time>
      </trkpt>
      <trkpt lat="43.43579" lon="6.04209">
        <ele>260.7</ele>
        <time>2025-10-05T11:51:57.000Z</time>
      </trkpt>
      <trkpt lat="43.43576" lon="6.04221">
        <ele>261.2</ele>
        <time>2025-10-05T11:52:11.000Z</time>
      </trkpt>
      <trkpt lat="43.43574" lon="6.04234">
        <ele>261.4</ele>
        <time>2025-10-05T11:52:23.000Z</time>
      </trkpt>
      <trkpt lat="43.43572" lon="6.04246">
        <ele>262.1</ele>
        <time>2025-10-05T11:52:35.000Z</time>
      </trkpt>
      <trkpt lat="43.43575" lon="6.04258">
        <ele>262.6</ele>
        <time>2025-10-05T11:52:46.000Z</time>
      </trkpt>
      <trkpt lat="43.43576" lon="6.04271">
        <ele>263.4</ele>
        <time>2025-10-05T11:52:57.000Z</time>
      </trkpt>
      <trkpt lat="43.43571" lon="6.04281">
        <ele>264.6</ele>
        <time>2025-10-05T11:53:10.000Z</time>
      </trkpt>
      <trkpt lat="43.43566" lon="6.04293">
        <ele>266.6</ele>
        <time>2025-10-05T11:53:27.000Z</time>
      </trkpt>
      <trkpt lat="43.4356" lon="6.04304">
        <ele>267.3</ele>
        <time>2025-10-05T11:53:38.000Z</time>
      </trkpt>
      <trkpt lat="43.43557" lon="6.04315">
        <ele>267.8</ele>
        <time>2025-10-05T11:53:49.000Z</time>
      </trkpt>
      <trkpt lat="43.43554" lon="6.04327">
        <ele>268.3</ele>
        <time>2025-10-05T11:54:01.000Z</time>
      </trkpt>
      <trkpt lat="43.43549" lon="6.04338">
        <ele>269.3</ele>
        <time>2025-10-05T11:54:14.000Z</time>
      </trkpt>
      <trkpt lat="43.43549" lon="6.04351">
        <ele>270.2</ele>
        <time>2025-10-05T11:54:27.000Z</time>
      </trkpt>
      <trkpt lat="43.4355" lon="6.04364">
        <ele>270.8</ele>
        <time>2025-10-05T11:54:38.000Z</time>
      </trkpt>
      <trkpt lat="43.43551" lon="6.04377">
        <ele>271.2</ele>
        <time>2025-10-05T11:54:49.000Z</time>
      </trkpt>
      <trkpt lat="43.43545" lon="6.04386">
        <ele>271.5</ele>
        <time>2025-10-05T11:55:03.000Z</time>
      </trkpt>
      <trkpt lat="43.43535" lon="6.04383">
        <ele>271.9</ele>
        <time>2025-10-05T11:55:16.000Z</time>
      </trkpt>
      <trkpt lat="43.43526" lon="6.0438">
        <ele>272.3</ele>
        <time>2025-10-05T11:55:27.000Z</time>
      </trkpt>
      <trkpt lat="43.43516" lon="6.04381">
        <ele>273.5</ele>
        <time>2025-10-05T11:55:40.000Z</time>
      </trkpt>
      <trkpt lat="43.43507" lon="6.04382">
        <ele>274.7</ele>
        <time>2025-10-05T11:55:53.000Z</time>
      </trkpt>
      <trkpt lat="43.43497" lon="6.04385">
        <ele>275.3</ele>
        <time>2025-10-05T11:56:04.000Z</time>
      </trkpt>
      <trkpt lat="43.43487" lon="6.04387">
        <ele>275.5</ele>
        <time>2025-10-05T11:56:14.000Z</time>
      </trkpt>
      <trkpt lat="43.43483" lon="6.04393">
        <ele>275.7</ele>
        <time>2025-10-05T11:56:24.000Z</time>
      </trkpt>
      <trkpt lat="43.43483" lon="6.04393">
        <ele>275.7</ele>
        <time>2025-10-05T11:56:25.000Z</time>
      </trkpt>
      <trkpt lat="43.43483" lon="6.04393">
        <ele>275.8</ele>
        <time>2025-10-05T11:56:26.000Z</time>
      </trkpt>
      <trkpt lat="43.43483" lon="6.04393">
        <ele>275.9</ele>
        <time>2025-10-05T11:56:29.000Z</time>
      </trkpt>
      <trkpt lat="43.43483" lon="6.04393">
        <ele>275.9</ele>
        <time>2025-10-05T11:56:30.000Z</time>
      </trkpt>
      <trkpt lat="43.43483" lon="6.04393">
        <ele>275.9</ele>
        <time>2025-10-05T11:56:31.000Z</time>
      </trkpt>
      <trkpt lat="43.43483" lon="6.04393">
        <ele>276.1</ele>
        <time>2025-10-05T11:56:35.000Z</time>
      </trkpt>
      <trkpt lat="43.43483" lon="6.04393">
        <ele>276.1</ele>
        <time>2025-10-05T11:56:36.000Z</time>
      </trkpt>
      <trkpt lat="43.43483" lon="6.04393">
        <ele>276.2</ele>
        <time>2025-10-05T11:56:37.000Z</time>
      </trkpt>
      <trkpt lat="43.43483" lon="6.04393">
        <ele>276.1</ele>
        <time>2025-10-05T11:57:12.000Z</time>
      </trkpt>
      <trkpt lat="43.43483" lon="6.04393">
        <ele>276.1</ele>
        <time>2025-10-05T11:57:13.000Z</time>
      </trkpt>
      <trkpt lat="43.43483" lon="6.04393">
        <ele>276.1</ele>
        <time>2025-10-05T11:57:19.000Z</time>
      </trkpt>
      <trkpt lat="43.43483" lon="6.04393">
        <ele>276.1</ele>
        <time>2025-10-05T11:57:20.000Z</time>
      </trkpt>
      <trkpt lat="43.43483" lon="6.04393">
        <ele>276.1</ele>
        <time>2025-10-05T11:57:21.000Z</time>
      </trkpt>
      <trkpt lat="43.43483" lon="6.04394">
        <ele>276</ele>
        <time>2025-10-05T11:57:30.000Z</time>
      </trkpt>
      <trkpt lat="43.43483" lon="6.04394">
        <ele>276</ele>
        <time>2025-10-05T11:57:31.000Z</time>
      </trkpt>
      <trkpt lat="43.43483" lon="6.04394">
        <ele>276</ele>
        <time>2025-10-05T11:57:32.000Z</time>
      </trkpt>
      <trkpt lat="43.43483" lon="6.04394">
        <ele>276</ele>
        <time>2025-10-05T11:57:33.000Z</time>
      </trkpt>
      <trkpt lat="43.43483" lon="6.04394">
        <ele>276</ele>
        <time>2025-10-05T11:57:34.000Z</time>
      </trkpt>
      <trkpt lat="43.43483" lon="6.04393">
        <ele>276</ele>
        <time>2025-10-05T11:57:42.000Z</time>
      </trkpt>
      <trkpt lat="43.43483" lon="6.04393">
        <ele>276.1</ele>
        <time>2025-10-05T11:57:43.000Z</time>
      </trkpt>
      <trkpt lat="43.43483" lon="6.04393">
        <ele>276.3</ele>
        <time>2025-10-05T11:57:50.000Z</time>
      </trkpt>
      <trkpt lat="43.43483" lon="6.04393">
        <ele>276.3</ele>
        <time>2025-10-05T11:57:51.000Z</time>
      </trkpt>
      <trkpt lat="43.43483" lon="6.04394">
        <ele>276.3</ele>
        <time>2025-10-05T11:57:52.000Z</time>
      </trkpt>
      <trkpt lat="43.43483" lon="6.04394">
        <ele>276.4</ele>
        <time>2025-10-05T11:57:53.000Z</time>
      </trkpt>
      <trkpt lat="43.43483" lon="6.04394">
        <ele>276.3</ele>
        <time>2025-10-05T11:57:54.000Z</time>
      </trkpt>
      <trkpt lat="43.43485" lon="6.04407">
        <ele>276.3</ele>
        <time>2025-10-05T11:58:07.000Z</time>
      </trkpt>
      <trkpt lat="43.43489" lon="6.0442">
        <ele>276.2</ele>
        <time>2025-10-05T11:58:16.000Z</time>
      </trkpt>
      <trkpt lat="43.43491" lon="6.04433">
        <ele>276</ele>
        <time>2025-10-05T11:58:27.000Z</time>
      </trkpt>
      <trkpt lat="43.4349" lon="6.04446">
        <ele>275.9</ele>
        <time>2025-10-05T11:58:37.000Z</time>
      </trkpt>
      <trkpt lat="43.4349" lon="6.04459">
        <ele>275.7</ele>
        <time>2025-10-05T11:58:46.000Z</time>
      </trkpt>
      <trkpt lat="43.4349" lon="6.04473">
        <ele>275.5</ele>
        <time>2025-10-05T11:58:55.000Z</time>
      </trkpt>
      <trkpt lat="43.4349" lon="6.04485">
        <ele>275.2</ele>
        <time>2025-10-05T11:59:04.000Z</time>
      </trkpt>
      <trkpt lat="43.43487" lon="6.04497">
        <ele>275.1</ele>
        <time>2025-10-05T11:59:14.000Z</time>
      </trkpt>
      <trkpt lat="43.43485" lon="6.04511">
        <ele>274.9</ele>
        <time>2025-10-05T11:59:24.000Z</time>
      </trkpt>
      <trkpt lat="43.43483" lon="6.04524">
        <ele>274.7</ele>
        <time>2025-10-05T11:59:33.000Z</time>
      </trkpt>
      <trkpt lat="43.43479" lon="6.04535">
        <ele>274.7</ele>
        <time>2025-10-05T11:59:42.000Z</time>
      </trkpt>
      <trkpt lat="43.43473" lon="6.04546">
        <ele>274.5</ele>
        <time>2025-10-05T11:59:51.000Z</time>
      </trkpt>
      <trkpt lat="43.43468" lon="6.04557">
        <ele>274.5</ele>
        <time>2025-10-05T12:00:00.000Z</time>
      </trkpt>
      <trkpt lat="43.43464" lon="6.04569">
        <ele>274.4</ele>
        <time>2025-10-05T12:00:09.000Z</time>
      </trkpt>
      <trkpt lat="43.43462" lon="6.04581">
        <ele>274.4</ele>
        <time>2025-10-05T12:00:18.000Z</time>
      </trkpt>
      <trkpt lat="43.43461" lon="6.04595">
        <ele>274.4</ele>
        <time>2025-10-05T12:00:27.000Z</time>
      </trkpt>
      <trkpt lat="43.4346" lon="6.04608">
        <ele>274.5</ele>
        <time>2025-10-05T12:00:35.000Z</time>
      </trkpt>
      <trkpt lat="43.43459" lon="6.04621">
        <ele>274.5</ele>
        <time>2025-10-05T12:00:44.000Z</time>
      </trkpt>
      <trkpt lat="43.43456" lon="6.04633">
        <ele>274.6</ele>
        <time>2025-10-05T12:00:52.000Z</time>
      </trkpt>
      <trkpt lat="43.43454" lon="6.04645">
        <ele>274.5</ele>
        <time>2025-10-05T12:01:01.000Z</time>
      </trkpt>
      <trkpt lat="43.43452" lon="6.04658">
        <ele>274.4</ele>
        <time>2025-10-05T12:01:10.000Z</time>
      </trkpt>
      <trkpt lat="43.43448" lon="6.0467">
        <ele>274.5</ele>
        <time>2025-10-05T12:01:18.000Z</time>
      </trkpt>
      <trkpt lat="43.43445" lon="6.04683">
        <ele>274.4</ele>
        <time>2025-10-05T12:01:27.000Z</time>
      </trkpt>
      <trkpt lat="43.43444" lon="6.04696">
        <ele>274.4</ele>
        <time>2025-10-05T12:01:35.000Z</time>
      </trkpt>
      <trkpt lat="43.43444" lon="6.04709">
        <ele>274.4</ele>
        <time>2025-10-05T12:01:44.000Z</time>
      </trkpt>
      <trkpt lat="43.43443" lon="6.04721">
        <ele>274.5</ele>
        <time>2025-10-05T12:01:54.000Z</time>
      </trkpt>
      <trkpt lat="43.43442" lon="6.04734">
        <ele>274.5</ele>
        <time>2025-10-05T12:02:02.000Z</time>
      </trkpt>
      <trkpt lat="43.43441" lon="6.04747">
        <ele>274.5</ele>
        <time>2025-10-05T12:02:09.000Z</time>
      </trkpt>
      <trkpt lat="43.4344" lon="6.0476">
        <ele>274.4</ele>
        <time>2025-10-05T12:02:17.000Z</time>
      </trkpt>
      <trkpt lat="43.43438" lon="6.04774">
        <ele>274.2</ele>
        <time>2025-10-05T12:02:26.000Z</time>
      </trkpt>
      <trkpt lat="43.43437" lon="6.04787">
        <ele>274.1</ele>
        <time>2025-10-05T12:02:35.000Z</time>
      </trkpt>
      <trkpt lat="43.43435" lon="6.048">
        <ele>273.6</ele>
        <time>2025-10-05T12:02:44.000Z</time>
      </trkpt>
      <trkpt lat="43.43433" lon="6.04814">
        <ele>273.3</ele>
        <time>2025-10-05T12:02:53.000Z</time>
      </trkpt>
      <trkpt lat="43.43434" lon="6.04828">
        <ele>273.2</ele>
        <time>2025-10-05T12:03:01.000Z</time>
      </trkpt>
      <trkpt lat="43.43434" lon="6.04841">
        <ele>273.1</ele>
        <time>2025-10-05T12:03:11.000Z</time>
      </trkpt>
      <trkpt lat="43.43433" lon="6.04855">
        <ele>273</ele>
        <time>2025-10-05T12:03:20.000Z</time>
      </trkpt>
      <trkpt lat="43.43431" lon="6.04867">
        <ele>273</ele>
        <time>2025-10-05T12:03:30.000Z</time>
      </trkpt>
      <trkpt lat="43.4343" lon="6.0488">
        <ele>272.8</ele>
        <time>2025-10-05T12:03:39.000Z</time>
      </trkpt>
      <trkpt lat="43.4343" lon="6.04892">
        <ele>272.5</ele>
        <time>2025-10-05T12:03:47.000Z</time>
      </trkpt>
      <trkpt lat="43.4343" lon="6.04905">
        <ele>272.3</ele>
        <time>2025-10-05T12:03:55.000Z</time>
      </trkpt>
      <trkpt lat="43.4343" lon="6.04918">
        <ele>272.2</ele>
        <time>2025-10-05T12:04:04.000Z</time>
      </trkpt>
      <trkpt lat="43.43429" lon="6.04932">
        <ele>271.9</ele>
        <time>2025-10-05T12:04:14.000Z</time>
      </trkpt>
      <trkpt lat="43.43427" lon="6.04946">
        <ele>271.6</ele>
        <time>2025-10-05T12:04:23.000Z</time>
      </trkpt>
      <trkpt lat="43.43426" lon="6.04959">
        <ele>271.4</ele>
        <time>2025-10-05T12:04:32.000Z</time>
      </trkpt>
      <trkpt lat="43.43424" lon="6.04972">
        <ele>271.3</ele>
        <time>2025-10-05T12:04:41.000Z</time>
      </trkpt>
      <trkpt lat="43.43422" lon="6.04985">
        <ele>271.4</ele>
        <time>2025-10-05T12:04:51.000Z</time>
      </trkpt>
      <trkpt lat="43.43419" lon="6.04997">
        <ele>271.6</ele>
        <time>2025-10-05T12:05:00.000Z</time>
      </trkpt>
      <trkpt lat="43.43417" lon="6.0501">
        <ele>271.6</ele>
        <time>2025-10-05T12:05:09.000Z</time>
      </trkpt>
      <trkpt lat="43.43415" lon="6.05023">
        <ele>271.6</ele>
        <time>2025-10-05T12:05:19.000Z</time>
      </trkpt>
      <trkpt lat="43.43413" lon="6.05037">
        <ele>271.9</ele>
        <time>2025-10-05T12:05:29.000Z</time>
      </trkpt>
      <trkpt lat="43.43412" lon="6.05049">
        <ele>273</ele>
        <time>2025-10-05T12:05:40.000Z</time>
      </trkpt>
      <trkpt lat="43.43409" lon="6.05062">
        <ele>274</ele>
        <time>2025-10-05T12:05:49.000Z</time>
      </trkpt>
      <trkpt lat="43.43406" lon="6.05075">
        <ele>274.4</ele>
        <time>2025-10-05T12:05:58.000Z</time>
      </trkpt>
      <trkpt lat="43.43403" lon="6.05087">
        <ele>275.1</ele>
        <time>2025-10-05T12:06:09.000Z</time>
      </trkpt>
      <trkpt lat="43.43398" lon="6.05099">
        <ele>275.4</ele>
        <time>2025-10-05T12:06:20.000Z</time>
      </trkpt>
      <trkpt lat="43.43392" lon="6.05109">
        <ele>275.7</ele>
        <time>2025-10-05T12:06:31.000Z</time>
      </trkpt>
      <trkpt lat="43.4339" lon="6.05113">
        <ele>276</ele>
        <time>2025-10-05T12:06:40.000Z</time>
      </trkpt>
      <trkpt lat="43.4339" lon="6.05113">
        <ele>276</ele>
        <time>2025-10-05T12:06:41.000Z</time>
      </trkpt>
      <trkpt lat="43.4339" lon="6.05115">
        <ele>276</ele>
        <time>2025-10-05T12:06:42.000Z</time>
      </trkpt>
      <trkpt lat="43.43389" lon="6.05128">
        <ele>275.9</ele>
        <time>2025-10-05T12:06:53.000Z</time>
      </trkpt>
      <trkpt lat="43.43386" lon="6.0514">
        <ele>275.8</ele>
        <time>2025-10-05T12:07:04.000Z</time>
      </trkpt>
      <trkpt lat="43.43379" lon="6.05146">
        <ele>275.4</ele>
        <time>2025-10-05T12:07:15.000Z</time>
      </trkpt>
      <trkpt lat="43.43369" lon="6.05145">
        <ele>274.7</ele>
        <time>2025-10-05T12:07:28.000Z</time>
      </trkpt>
      <trkpt lat="43.4336" lon="6.05143">
        <ele>274.2</ele>
        <time>2025-10-05T12:07:40.000Z</time>
      </trkpt>
      <trkpt lat="43.43352" lon="6.05138">
        <ele>273.8</ele>
        <time>2025-10-05T12:07:51.000Z</time>
      </trkpt>
      <trkpt lat="43.43343" lon="6.05132">
        <ele>274.2</ele>
        <time>2025-10-05T12:08:07.000Z</time>
      </trkpt>
      <trkpt lat="43.43335" lon="6.05127">
        <ele>274.5</ele>
        <time>2025-10-05T12:08:17.000Z</time>
      </trkpt>
      <trkpt lat="43.43328" lon="6.05118">
        <ele>275.1</ele>
        <time>2025-10-05T12:08:31.000Z</time>
      </trkpt>
      <trkpt lat="43.4332" lon="6.05109">
        <ele>275.6</ele>
        <time>2025-10-05T12:08:45.000Z</time>
      </trkpt>
      <trkpt lat="43.43314" lon="6.051">
        <ele>276.1</ele>
        <time>2025-10-05T12:08:55.000Z</time>
      </trkpt>
      <trkpt lat="43.43306" lon="6.05094">
        <ele>276.4</ele>
        <time>2025-10-05T12:09:03.000Z</time>
      </trkpt>
      <trkpt lat="43.43297" lon="6.05089">
        <ele>277.2</ele>
        <time>2025-10-05T12:09:14.000Z</time>
      </trkpt>
      <trkpt lat="43.43289" lon="6.05082">
        <ele>278.6</ele>
        <time>2025-10-05T12:09:27.000Z</time>
      </trkpt>
      <trkpt lat="43.43282" lon="6.05073">
        <ele>279.3</ele>
        <time>2025-10-05T12:09:39.000Z</time>
      </trkpt>
      <trkpt lat="43.43279" lon="6.05072">
        <ele>279.4</ele>
        <time>2025-10-05T12:09:44.000Z</time>
      </trkpt>
      <trkpt lat="43.43279" lon="6.05072">
        <ele>279.4</ele>
        <time>2025-10-05T12:09:45.000Z</time>
      </trkpt>
      <trkpt lat="43.43279" lon="6.05072">
        <ele>279.4</ele>
        <time>2025-10-05T12:09:46.000Z</time>
      </trkpt>
      <trkpt lat="43.43279" lon="6.05072">
        <ele>279.4</ele>
        <time>2025-10-05T12:09:47.000Z</time>
      </trkpt>
      <trkpt lat="43.43279" lon="6.05072">
        <ele>279.4</ele>
        <time>2025-10-05T12:09:48.000Z</time>
      </trkpt>
      <trkpt lat="43.43279" lon="6.05072">
        <ele>279.5</ele>
        <time>2025-10-05T12:09:49.000Z</time>
      </trkpt>
      <trkpt lat="43.43279" lon="6.05072">
        <ele>279.5</ele>
        <time>2025-10-05T12:09:50.000Z</time>
      </trkpt>
      <trkpt lat="43.43278" lon="6.05072">
        <ele>279.5</ele>
        <time>2025-10-05T12:09:51.000Z</time>
      </trkpt>
      <trkpt lat="43.43277" lon="6.05072">
        <ele>279.5</ele>
        <time>2025-10-05T12:09:52.000Z</time>
      </trkpt>
      <trkpt lat="43.43277" lon="6.05073">
        <ele>279.6</ele>
        <time>2025-10-05T12:09:53.000Z</time>
      </trkpt>
      <trkpt lat="43.43276" lon="6.05073">
        <ele>279.6</ele>
        <time>2025-10-05T12:09:54.000Z</time>
      </trkpt>
      <trkpt lat="43.43267" lon="6.05076">
        <ele>279.8</ele>
        <time>2025-10-05T12:10:05.000Z</time>
      </trkpt>
      <trkpt lat="43.43257" lon="6.05076">
        <ele>280.3</ele>
        <time>2025-10-05T12:10:17.000Z</time>
      </trkpt>
      <trkpt lat="43.43248" lon="6.05073">
        <ele>280.9</ele>
        <time>2025-10-05T12:10:28.000Z</time>
      </trkpt>
      <trkpt lat="43.43239" lon="6.05074">
        <ele>281.7</ele>
        <time>2025-10-05T12:10:39.000Z</time>
      </trkpt>
      <trkpt lat="43.43229" lon="6.05074">
        <ele>282.7</ele>
        <time>2025-10-05T12:10:49.000Z</time>
      </trkpt>
      <trkpt lat="43.4322" lon="6.05076">
        <ele>283.3</ele>
        <time>2025-10-05T12:11:01.000Z</time>
      </trkpt>
      <trkpt lat="43.43211" lon="6.05076">
        <ele>283.2</ele>
        <time>2025-10-05T12:11:11.000Z</time>
      </trkpt>
      <trkpt lat="43.43202" lon="6.05077">
        <ele>283.8</ele>
        <time>2025-10-05T12:11:26.000Z</time>
      </trkpt>
      <trkpt lat="43.43193" lon="6.05072">
        <ele>284.1</ele>
        <time>2025-10-05T12:11:41.000Z</time>
      </trkpt>
      <trkpt lat="43.43184" lon="6.05071">
        <ele>284.7</ele>
        <time>2025-10-05T12:11:52.000Z</time>
      </trkpt>
      <trkpt lat="43.43175" lon="6.05067">
        <ele>285.7</ele>
        <time>2025-10-05T12:12:03.000Z</time>
      </trkpt>
      <trkpt lat="43.43165" lon="6.05064">
        <ele>286.6</ele>
        <time>2025-10-05T12:12:16.000Z</time>
      </trkpt>
      <trkpt lat="43.43156" lon="6.05061">
        <ele>286.8</ele>
        <time>2025-10-05T12:12:26.000Z</time>
      </trkpt>
      <trkpt lat="43.43148" lon="6.05054">
        <ele>287.4</ele>
        <time>2025-10-05T12:12:38.000Z</time>
      </trkpt>
      <trkpt lat="43.4314" lon="6.05046">
        <ele>288.3</ele>
        <time>2025-10-05T12:12:51.000Z</time>
      </trkpt>
      <trkpt lat="43.43134" lon="6.05036">
        <ele>289.2</ele>
        <time>2025-10-05T12:13:02.000Z</time>
      </trkpt>
      <trkpt lat="43.43128" lon="6.05025">
        <ele>290.5</ele>
        <time>2025-10-05T12:13:16.000Z</time>
      </trkpt>
      <trkpt lat="43.43121" lon="6.05016">
        <ele>291.4</ele>
        <time>2025-10-05T12:13:27.000Z</time>
      </trkpt>
      <trkpt lat="43.43113" lon="6.0501">
        <ele>292.2</ele>
        <time>2025-10-05T12:13:37.000Z</time>
      </trkpt>
      <trkpt lat="43.43108" lon="6.04999">
        <ele>293</ele>
        <time>2025-10-05T12:13:47.000Z</time>
      </trkpt>
      <trkpt lat="43.43104" lon="6.04988">
        <ele>293.3</ele>
        <time>2025-10-05T12:13:58.000Z</time>
      </trkpt>
      <trkpt lat="43.43096" lon="6.04979">
        <ele>293.7</ele>
        <time>2025-10-05T12:14:09.000Z</time>
      </trkpt>
      <trkpt lat="43.43091" lon="6.04969">
        <ele>294.7</ele>
        <time>2025-10-05T12:14:21.000Z</time>
      </trkpt>
      <trkpt lat="43.43084" lon="6.0496">
        <ele>295.4</ele>
        <time>2025-10-05T12:14:30.000Z</time>
      </trkpt>
      <trkpt lat="43.43079" lon="6.0495">
        <ele>295.8</ele>
        <time>2025-10-05T12:14:40.000Z</time>
      </trkpt>
      <trkpt lat="43.43073" lon="6.0494">
        <ele>296.4</ele>
        <time>2025-10-05T12:14:50.000Z</time>
      </trkpt>
      <trkpt lat="43.43066" lon="6.04932">
        <ele>297</ele>
        <time>2025-10-05T12:15:01.000Z</time>
      </trkpt>
      <trkpt lat="43.43061" lon="6.04921">
        <ele>297.6</ele>
        <time>2025-10-05T12:15:13.000Z</time>
      </trkpt>
      <trkpt lat="43.43056" lon="6.0491">
        <ele>298.7</ele>
        <time>2025-10-05T12:15:25.000Z</time>
      </trkpt>
      <trkpt lat="43.43052" lon="6.04898">
        <ele>299.7</ele>
        <time>2025-10-05T12:15:37.000Z</time>
      </trkpt>
      <trkpt lat="43.43047" lon="6.04888">
        <ele>300.4</ele>
        <time>2025-10-05T12:15:48.000Z</time>
      </trkpt>
      <trkpt lat="43.43041" lon="6.04878">
        <ele>300.6</ele>
        <time>2025-10-05T12:15:58.000Z</time>
      </trkpt>
      <trkpt lat="43.43037" lon="6.04867">
        <ele>301</ele>
        <time>2025-10-05T12:16:09.000Z</time>
      </trkpt>
      <trkpt lat="43.43032" lon="6.04855">
        <ele>302.2</ele>
        <time>2025-10-05T12:16:21.000Z</time>
      </trkpt>
      <trkpt lat="43.43032" lon="6.04842">
        <ele>303.2</ele>
        <time>2025-10-05T12:16:36.000Z</time>
      </trkpt>
      <trkpt lat="43.43032" lon="6.04829">
        <ele>303.8</ele>
        <time>2025-10-05T12:16:49.000Z</time>
      </trkpt>
      <trkpt lat="43.43034" lon="6.04817">
        <ele>304.5</ele>
        <time>2025-10-05T12:17:00.000Z</time>
      </trkpt>
      <trkpt lat="43.43035" lon="6.04803">
        <ele>305.2</ele>
        <time>2025-10-05T12:17:11.000Z</time>
      </trkpt>
      <trkpt lat="43.43036" lon="6.04791">
        <ele>305.8</ele>
        <time>2025-10-05T12:17:23.000Z</time>
      </trkpt>
      <trkpt lat="43.43032" lon="6.04781">
        <ele>306.5</ele>
        <time>2025-10-05T12:17:45.000Z</time>
      </trkpt>
      <trkpt lat="43.43032" lon="6.04781">
        <ele>306.5</ele>
        <time>2025-10-05T12:17:46.000Z</time>
      </trkpt>
      <trkpt lat="43.43032" lon="6.04781">
        <ele>306.5</ele>
        <time>2025-10-05T12:17:47.000Z</time>
      </trkpt>
      <trkpt lat="43.43031" lon="6.04781">
        <ele>306.8</ele>
        <time>2025-10-05T12:17:53.000Z</time>
      </trkpt>
      <trkpt lat="43.43031" lon="6.04781">
        <ele>306.9</ele>
        <time>2025-10-05T12:17:54.000Z</time>
      </trkpt>
      <trkpt lat="43.43031" lon="6.04781">
        <ele>307.1</ele>
        <time>2025-10-05T12:17:58.000Z</time>
      </trkpt>
      <trkpt lat="43.43031" lon="6.04781">
        <ele>307.2</ele>
        <time>2025-10-05T12:17:59.000Z</time>
      </trkpt>
      <trkpt lat="43.43031" lon="6.04781">
        <ele>307.2</ele>
        <time>2025-10-05T12:18:00.000Z</time>
      </trkpt>
      <trkpt lat="43.43031" lon="6.04781">
        <ele>307.3</ele>
        <time>2025-10-05T12:18:01.000Z</time>
      </trkpt>
      <trkpt lat="43.43031" lon="6.0478">
        <ele>307.3</ele>
        <time>2025-10-05T12:18:02.000Z</time>
      </trkpt>
      <trkpt lat="43.43031" lon="6.04779">
        <ele>307.2</ele>
        <time>2025-10-05T12:18:12.000Z</time>
      </trkpt>
      <trkpt lat="43.43031" lon="6.04779">
        <ele>307.2</ele>
        <time>2025-10-05T12:18:13.000Z</time>
      </trkpt>
      <trkpt lat="43.43029" lon="6.04779">
        <ele>307</ele>
        <time>2025-10-05T12:18:22.000Z</time>
      </trkpt>
      <trkpt lat="43.43028" lon="6.04779">
        <ele>307</ele>
        <time>2025-10-05T12:18:23.000Z</time>
      </trkpt>
      <trkpt lat="43.43019" lon="6.04781">
        <ele>307.4</ele>
        <time>2025-10-05T12:18:38.000Z</time>
      </trkpt>
      <trkpt lat="43.43011" lon="6.04786">
        <ele>308.9</ele>
        <time>2025-10-05T12:18:57.000Z</time>
      </trkpt>
      <trkpt lat="43.43002" lon="6.04791">
        <ele>312.5</ele>
        <time>2025-10-05T12:19:19.000Z</time>
      </trkpt>
      <trkpt lat="43.42996" lon="6.048">
        <ele>314.2</ele>
        <time>2025-10-05T12:19:34.000Z</time>
      </trkpt>
      <trkpt lat="43.42992" lon="6.04813">
        <ele>315</ele>
        <time>2025-10-05T12:19:46.000Z</time>
      </trkpt>
      <trkpt lat="43.4299" lon="6.04825">
        <ele>315.1</ele>
        <time>2025-10-05T12:19:55.000Z</time>
      </trkpt>
      <trkpt lat="43.42983" lon="6.04834">
        <ele>315.3</ele>
        <time>2025-10-05T12:20:08.000Z</time>
      </trkpt>
      <trkpt lat="43.42976" lon="6.04841">
        <ele>316.1</ele>
        <time>2025-10-05T12:20:25.000Z</time>
      </trkpt>
      <trkpt lat="43.42967" lon="6.04847">
        <ele>319.5</ele>
        <time>2025-10-05T12:20:42.000Z</time>
      </trkpt>
      <trkpt lat="43.42962" lon="6.04858">
        <ele>321.1</ele>
        <time>2025-10-05T12:20:59.000Z</time>
      </trkpt>
      <trkpt lat="43.42954" lon="6.04864">
        <ele>322.1</ele>
        <time>2025-10-05T12:21:14.000Z</time>
      </trkpt>
      <trkpt lat="43.42946" lon="6.04867">
        <ele>323.4</ele>
        <time>2025-10-05T12:21:32.000Z</time>
      </trkpt>
      <trkpt lat="43.42946" lon="6.04867">
        <ele>323.3</ele>
        <time>2025-10-05T12:21:33.000Z</time>
      </trkpt>
      <trkpt lat="43.42946" lon="6.04867">
        <ele>323.5</ele>
        <time>2025-10-05T12:21:42.000Z</time>
      </trkpt>
      <trkpt lat="43.42947" lon="6.04867">
        <ele>323.6</ele>
        <time>2025-10-05T12:21:43.000Z</time>
      </trkpt>
      <trkpt lat="43.42947" lon="6.04868">
        <ele>323.7</ele>
        <time>2025-10-05T12:21:44.000Z</time>
      </trkpt>
      <trkpt lat="43.42947" lon="6.04869">
        <ele>324.4</ele>
        <time>2025-10-05T12:21:57.000Z</time>
      </trkpt>
      <trkpt lat="43.42947" lon="6.04869">
        <ele>324.4</ele>
        <time>2025-10-05T12:21:58.000Z</time>
      </trkpt>
      <trkpt lat="43.4294" lon="6.04878">
        <ele>324.6</ele>
        <time>2025-10-05T12:22:18.000Z</time>
      </trkpt>
      <trkpt lat="43.42933" lon="6.04886">
        <ele>325.6</ele>
        <time>2025-10-05T12:22:33.000Z</time>
      </trkpt>
      <trkpt lat="43.42932" lon="6.04899">
        <ele>328.8</ele>
        <time>2025-10-05T12:22:45.000Z</time>
      </trkpt>
      <trkpt lat="43.42931" lon="6.04911">
        <ele>330</ele>
        <time>2025-10-05T12:22:57.000Z</time>
      </trkpt>
      <trkpt lat="43.42923" lon="6.04919">
        <ele>330.7</ele>
        <time>2025-10-05T12:23:08.000Z</time>
      </trkpt>
      <trkpt lat="43.42914" lon="6.04922">
        <ele>330.5</ele>
        <time>2025-10-05T12:23:21.000Z</time>
      </trkpt>
      <trkpt lat="43.42905" lon="6.04922">
        <ele>330.2</ele>
        <time>2025-10-05T12:23:29.000Z</time>
      </trkpt>
      <trkpt lat="43.42896" lon="6.04923">
        <ele>330</ele>
        <time>2025-10-05T12:23:38.000Z</time>
      </trkpt>
      <trkpt lat="43.42887" lon="6.04923">
        <ele>329.9</ele>
        <time>2025-10-05T12:23:49.000Z</time>
      </trkpt>
      <trkpt lat="43.42878" lon="6.04917">
        <ele>329.6</ele>
        <time>2025-10-05T12:24:00.000Z</time>
      </trkpt>
      <trkpt lat="43.42874" lon="6.04905">
        <ele>329.6</ele>
        <time>2025-10-05T12:24:09.000Z</time>
      </trkpt>
      <trkpt lat="43.42872" lon="6.04892">
        <ele>329.6</ele>
        <time>2025-10-05T12:24:19.000Z</time>
      </trkpt>
      <trkpt lat="43.42865" lon="6.04884">
        <ele>329.6</ele>
        <time>2025-10-05T12:24:29.000Z</time>
      </trkpt>
      <trkpt lat="43.42859" lon="6.04872">
        <ele>329.8</ele>
        <time>2025-10-05T12:24:39.000Z</time>
      </trkpt>
      <trkpt lat="43.42852" lon="6.04863">
        <ele>329.9</ele>
        <time>2025-10-05T12:24:50.000Z</time>
      </trkpt>
      <trkpt lat="43.42844" lon="6.04857">
        <ele>329.8</ele>
        <time>2025-10-05T12:24:59.000Z</time>
      </trkpt>
      <trkpt lat="43.42835" lon="6.04853">
        <ele>329.1</ele>
        <time>2025-10-05T12:25:10.000Z</time>
      </trkpt>
      <trkpt lat="43.42825" lon="6.04853">
        <ele>328.1</ele>
        <time>2025-10-05T12:25:21.000Z</time>
      </trkpt>
      <trkpt lat="43.42816" lon="6.04853">
        <ele>326.3</ele>
        <time>2025-10-05T12:25:33.000Z</time>
      </trkpt>
      <trkpt lat="43.42807" lon="6.04847">
        <ele>324.9</ele>
        <time>2025-10-05T12:25:43.000Z</time>
      </trkpt>
      <trkpt lat="43.428" lon="6.0484">
        <ele>324.5</ele>
        <time>2025-10-05T12:25:52.000Z</time>
      </trkpt>
      <trkpt lat="43.42792" lon="6.04832">
        <ele>324.2</ele>
        <time>2025-10-05T12:26:02.000Z</time>
      </trkpt>
      <trkpt lat="43.42783" lon="6.0483">
        <ele>323.6</ele>
        <time>2025-10-05T12:26:19.000Z</time>
      </trkpt>
      <trkpt lat="43.42777" lon="6.04841">
        <ele>323.3</ele>
        <time>2025-10-05T12:26:37.000Z</time>
      </trkpt>
      <trkpt lat="43.42775" lon="6.04853">
        <ele>323.1</ele>
        <time>2025-10-05T12:26:47.000Z</time>
      </trkpt>
      <trkpt lat="43.42772" lon="6.04865">
        <ele>322.5</ele>
        <time>2025-10-05T12:26:58.000Z</time>
      </trkpt>
      <trkpt lat="43.42768" lon="6.04877">
        <ele>321.8</ele>
        <time>2025-10-05T12:27:07.000Z</time>
      </trkpt>
      <trkpt lat="43.42763" lon="6.04888">
        <ele>320.7</ele>
        <time>2025-10-05T12:27:16.000Z</time>
      </trkpt>
      <trkpt lat="43.42758" lon="6.04897">
        <ele>319.9</ele>
        <time>2025-10-05T12:27:26.000Z</time>
      </trkpt>
      <trkpt lat="43.42754" lon="6.04909">
        <ele>319.3</ele>
        <time>2025-10-05T12:27:35.000Z</time>
      </trkpt>
      <trkpt lat="43.42757" lon="6.04922">
        <ele>318.8</ele>
        <time>2025-10-05T12:27:45.000Z</time>
      </trkpt>
      <trkpt lat="43.42761" lon="6.04934">
        <ele>318.2</ele>
        <time>2025-10-05T12:27:54.000Z</time>
      </trkpt>
      <trkpt lat="43.42761" lon="6.04946">
        <ele>317.3</ele>
        <time>2025-10-05T12:28:04.000Z</time>
      </trkpt>
      <trkpt lat="43.42762" lon="6.04959">
        <ele>316.9</ele>
        <time>2025-10-05T12:28:13.000Z</time>
      </trkpt>
      <trkpt lat="43.42761" lon="6.04972">
        <ele>316.2</ele>
        <time>2025-10-05T12:28:22.000Z</time>
      </trkpt>
      <trkpt lat="43.42761" lon="6.04984">
        <ele>315.4</ele>
        <time>2025-10-05T12:28:30.000Z</time>
      </trkpt>
      <trkpt lat="43.42762" lon="6.04997">
        <ele>314.9</ele>
        <time>2025-10-05T12:28:38.000Z</time>
      </trkpt>
      <trkpt lat="43.42765" lon="6.0501">
        <ele>314.3</ele>
        <time>2025-10-05T12:28:48.000Z</time>
      </trkpt>
      <trkpt lat="43.42766" lon="6.05023">
        <ele>313.9</ele>
        <time>2025-10-05T12:28:57.000Z</time>
      </trkpt>
      <trkpt lat="43.42762" lon="6.05035">
        <ele>313.3</ele>
        <time>2025-10-05T12:29:06.000Z</time>
      </trkpt>
      <trkpt lat="43.42756" lon="6.05046">
        <ele>313.1</ele>
        <time>2025-10-05T12:29:16.000Z</time>
      </trkpt>
      <trkpt lat="43.42753" lon="6.05058">
        <ele>313.1</ele>
        <time>2025-10-05T12:29:25.000Z</time>
      </trkpt>
      <trkpt lat="43.4275" lon="6.0507">
        <ele>312.7</ele>
        <time>2025-10-05T12:29:35.000Z</time>
      </trkpt>
      <trkpt lat="43.42747" lon="6.05082">
        <ele>311.9</ele>
        <time>2025-10-05T12:29:46.000Z</time>
      </trkpt>
      <trkpt lat="43.42747" lon="6.05095">
        <ele>311.1</ele>
        <time>2025-10-05T12:29:57.000Z</time>
      </trkpt>
      <trkpt lat="43.42751" lon="6.05108">
        <ele>310.8</ele>
        <time>2025-10-05T12:30:05.000Z</time>
      </trkpt>
      <trkpt lat="43.42753" lon="6.0512">
        <ele>310.2</ele>
        <time>2025-10-05T12:30:15.000Z</time>
      </trkpt>
      <trkpt lat="43.42746" lon="6.05129">
        <ele>309.4</ele>
        <time>2025-10-05T12:30:26.000Z</time>
      </trkpt>
      <trkpt lat="43.4274" lon="6.05139">
        <ele>309</ele>
        <time>2025-10-05T12:30:36.000Z</time>
      </trkpt>
      <trkpt lat="43.42734" lon="6.05149">
        <ele>308.8</ele>
        <time>2025-10-05T12:30:45.000Z</time>
      </trkpt>
      <trkpt lat="43.4274" lon="6.05151">
        <ele>308.3</ele>
        <time>2025-10-05T12:31:12.000Z</time>
      </trkpt>
      <trkpt lat="43.4274" lon="6.05151">
        <ele>308.3</ele>
        <time>2025-10-05T12:31:13.000Z</time>
      </trkpt>
      <trkpt lat="43.4274" lon="6.05151">
        <ele>308.3</ele>
        <time>2025-10-05T12:31:24.000Z</time>
      </trkpt>
      <trkpt lat="43.4274" lon="6.05152">
        <ele>308.3</ele>
        <time>2025-10-05T12:31:25.000Z</time>
      </trkpt>
      <trkpt lat="43.4274" lon="6.05152">
        <ele>308.3</ele>
        <time>2025-10-05T12:31:26.000Z</time>
      </trkpt>
      <trkpt lat="43.4274" lon="6.05152">
        <ele>308.3</ele>
        <time>2025-10-05T12:31:29.000Z</time>
      </trkpt>
      <trkpt lat="43.4274" lon="6.05152">
        <ele>308.2</ele>
        <time>2025-10-05T12:31:30.000Z</time>
      </trkpt>
      <trkpt lat="43.4274" lon="6.05152">
        <ele>308.2</ele>
        <time>2025-10-05T12:31:31.000Z</time>
      </trkpt>
      <trkpt lat="43.4274" lon="6.05153">
        <ele>308.3</ele>
        <time>2025-10-05T12:32:22.000Z</time>
      </trkpt>
      <trkpt lat="43.4274" lon="6.05153">
        <ele>308.3</ele>
        <time>2025-10-05T12:32:23.000Z</time>
      </trkpt>
      <trkpt lat="43.4274" lon="6.05153">
        <ele>308.3</ele>
        <time>2025-10-05T12:32:24.000Z</time>
      </trkpt>
      <trkpt lat="43.4274" lon="6.05153">
        <ele>308.3</ele>
        <time>2025-10-05T12:32:25.000Z</time>
      </trkpt>
      <trkpt lat="43.4274" lon="6.05153">
        <ele>308.3</ele>
        <time>2025-10-05T12:32:26.000Z</time>
      </trkpt>
      <trkpt lat="43.4274" lon="6.05154">
        <ele>308.3</ele>
        <time>2025-10-05T12:32:27.000Z</time>
      </trkpt>
      <trkpt lat="43.4274" lon="6.05154">
        <ele>308.3</ele>
        <time>2025-10-05T12:32:28.000Z</time>
      </trkpt>
      <trkpt lat="43.4274" lon="6.05154">
        <ele>308.3</ele>
        <time>2025-10-05T12:32:29.000Z</time>
      </trkpt>
      <trkpt lat="43.4274" lon="6.05154">
        <ele>308.3</ele>
        <time>2025-10-05T12:32:30.000Z</time>
      </trkpt>
      <trkpt lat="43.4274" lon="6.05154">
        <ele>308.3</ele>
        <time>2025-10-05T12:32:31.000Z</time>
      </trkpt>
      <trkpt lat="43.4274" lon="6.05154">
        <ele>308.3</ele>
        <time>2025-10-05T12:33:04.000Z</time>
      </trkpt>
      <trkpt lat="43.4274" lon="6.05154">
        <ele>308.3</ele>
        <time>2025-10-05T12:33:05.000Z</time>
      </trkpt>
      <trkpt lat="43.42741" lon="6.05154">
        <ele>308.3</ele>
        <time>2025-10-05T12:33:06.000Z</time>
      </trkpt>
      <trkpt lat="43.42741" lon="6.05154">
        <ele>308.4</ele>
        <time>2025-10-05T12:33:09.000Z</time>
      </trkpt>
      <trkpt lat="43.42741" lon="6.05154">
        <ele>308.4</ele>
        <time>2025-10-05T12:33:10.000Z</time>
      </trkpt>
      <trkpt lat="43.42741" lon="6.05154">
        <ele>308.4</ele>
        <time>2025-10-05T12:33:11.000Z</time>
      </trkpt>
      <trkpt lat="43.4274" lon="6.05155">
        <ele>308.6</ele>
        <time>2025-10-05T12:33:50.000Z</time>
      </trkpt>
      <trkpt lat="43.42739" lon="6.05155">
        <ele>308.6</ele>
        <time>2025-10-05T12:33:51.000Z</time>
      </trkpt>
      <trkpt lat="43.42731" lon="6.0516">
        <ele>308.2</ele>
        <time>2025-10-05T12:34:07.000Z</time>
      </trkpt>
      <trkpt lat="43.42727" lon="6.05173">
        <ele>307</ele>
        <time>2025-10-05T12:34:22.000Z</time>
      </trkpt>
      <trkpt lat="43.42725" lon="6.0518">
        <ele>305.3</ele>
        <time>2025-10-05T12:34:39.000Z</time>
      </trkpt>
      <trkpt lat="43.42725" lon="6.05179">
        <ele>305.3</ele>
        <time>2025-10-05T12:34:40.000Z</time>
      </trkpt>
      <trkpt lat="43.42725" lon="6.05179">
        <ele>305.3</ele>
        <time>2025-10-05T12:34:41.000Z</time>
      </trkpt>
      <trkpt lat="43.42726" lon="6.05179">
        <ele>305.2</ele>
        <time>2025-10-05T12:34:44.000Z</time>
      </trkpt>
      <trkpt lat="43.42727" lon="6.05178">
        <ele>305.2</ele>
        <time>2025-10-05T12:34:45.000Z</time>
      </trkpt>
      <trkpt lat="43.42728" lon="6.05178">
        <ele>305.2</ele>
        <time>2025-10-05T12:34:46.000Z</time>
      </trkpt>
      <trkpt lat="43.42728" lon="6.05179">
        <ele>305.1</ele>
        <time>2025-10-05T12:34:50.000Z</time>
      </trkpt>
      <trkpt lat="43.42728" lon="6.05179">
        <ele>305.1</ele>
        <time>2025-10-05T12:34:51.000Z</time>
      </trkpt>
      <trkpt lat="43.42729" lon="6.05179">
        <ele>305.1</ele>
        <time>2025-10-05T12:34:52.000Z</time>
      </trkpt>
      <trkpt lat="43.42729" lon="6.05179">
        <ele>305.1</ele>
        <time>2025-10-05T12:34:53.000Z</time>
      </trkpt>
      <trkpt lat="43.42729" lon="6.05179">
        <ele>305.1</ele>
        <time>2025-10-05T12:34:54.000Z</time>
      </trkpt>
      <trkpt lat="43.42729" lon="6.05179">
        <ele>305.1</ele>
        <time>2025-10-05T12:34:55.000Z</time>
      </trkpt>
      <trkpt lat="43.42729" lon="6.0518">
        <ele>305.1</ele>
        <time>2025-10-05T12:34:56.000Z</time>
      </trkpt>
      <trkpt lat="43.42728" lon="6.05183">
        <ele>305.1</ele>
        <time>2025-10-05T12:35:00.000Z</time>
      </trkpt>
      <trkpt lat="43.42727" lon="6.05184">
        <ele>305</ele>
        <time>2025-10-05T12:35:01.000Z</time>
      </trkpt>
      <trkpt lat="43.42722" lon="6.05195">
        <ele>304.6</ele>
        <time>2025-10-05T12:35:14.000Z</time>
      </trkpt>
      <trkpt lat="43.42713" lon="6.05201">
        <ele>303.8</ele>
        <time>2025-10-05T12:35:24.000Z</time>
      </trkpt>
      <trkpt lat="43.42705" lon="6.05208">
        <ele>303.1</ele>
        <time>2025-10-05T12:35:34.000Z</time>
      </trkpt>
      <trkpt lat="43.42697" lon="6.05212">
        <ele>302.5</ele>
        <time>2025-10-05T12:35:45.000Z</time>
      </trkpt>
      <trkpt lat="43.42687" lon="6.05215">
        <ele>302.1</ele>
        <time>2025-10-05T12:35:56.000Z</time>
      </trkpt>
      <trkpt lat="43.42679" lon="6.0522">
        <ele>301.1</ele>
        <time>2025-10-05T12:36:10.000Z</time>
      </trkpt>
      <trkpt lat="43.42672" lon="6.05228">
        <ele>299.4</ele>
        <time>2025-10-05T12:36:22.000Z</time>
      </trkpt>
      <trkpt lat="43.42663" lon="6.05234">
        <ele>298.7</ele>
        <time>2025-10-05T12:36:32.000Z</time>
      </trkpt>
      <trkpt lat="43.42655" lon="6.05241">
        <ele>298.3</ele>
        <time>2025-10-05T12:36:43.000Z</time>
      </trkpt>
      <trkpt lat="43.42647" lon="6.05249">
        <ele>297.8</ele>
        <time>2025-10-05T12:36:54.000Z</time>
      </trkpt>
      <trkpt lat="43.42645" lon="6.05261">
        <ele>297</ele>
        <time>2025-10-05T12:37:05.000Z</time>
      </trkpt>
      <trkpt lat="43.42645" lon="6.05261">
        <ele>296.9</ele>
        <time>2025-10-05T12:37:06.000Z</time>
      </trkpt>
      <trkpt lat="43.42645" lon="6.05261">
        <ele>296.9</ele>
        <time>2025-10-05T12:37:07.000Z</time>
      </trkpt>
      <trkpt lat="43.42644" lon="6.05262">
        <ele>296.6</ele>
        <time>2025-10-05T12:37:12.000Z</time>
      </trkpt>
      <trkpt lat="43.42644" lon="6.05262">
        <ele>296.6</ele>
        <time>2025-10-05T12:37:13.000Z</time>
      </trkpt>
      <trkpt lat="43.42636" lon="6.0527">
        <ele>296.3</ele>
        <time>2025-10-05T12:37:25.000Z</time>
      </trkpt>
      <trkpt lat="43.42633" lon="6.05267">
        <ele>295.9</ele>
        <time>2025-10-05T12:37:42.000Z</time>
      </trkpt>
      <trkpt lat="43.42633" lon="6.05267">
        <ele>295.9</ele>
        <time>2025-10-05T12:37:43.000Z</time>
      </trkpt>
      <trkpt lat="43.42633" lon="6.05266">
        <ele>295.8</ele>
        <time>2025-10-05T12:37:50.000Z</time>
      </trkpt>
      <trkpt lat="43.42633" lon="6.05266">
        <ele>295.8</ele>
        <time>2025-10-05T12:37:51.000Z</time>
      </trkpt>
      <trkpt lat="43.42634" lon="6.05267">
        <ele>295.8</ele>
        <time>2025-10-05T12:37:52.000Z</time>
      </trkpt>
      <trkpt lat="43.42634" lon="6.05267">
        <ele>295.8</ele>
        <time>2025-10-05T12:37:53.000Z</time>
      </trkpt>
      <trkpt lat="43.42634" lon="6.05266">
        <ele>295.8</ele>
        <time>2025-10-05T12:37:57.000Z</time>
      </trkpt>
      <trkpt lat="43.42634" lon="6.05266">
        <ele>295.8</ele>
        <time>2025-10-05T12:37:58.000Z</time>
      </trkpt>
      <trkpt lat="43.42633" lon="6.05265">
        <ele>295.8</ele>
        <time>2025-10-05T12:38:02.000Z</time>
      </trkpt>
      <trkpt lat="43.42633" lon="6.05265">
        <ele>295.8</ele>
        <time>2025-10-05T12:38:03.000Z</time>
      </trkpt>
      <trkpt lat="43.42633" lon="6.05265">
        <ele>295.8</ele>
        <time>2025-10-05T12:38:04.000Z</time>
      </trkpt>
      <trkpt lat="43.42633" lon="6.05265">
        <ele>295.7</ele>
        <time>2025-10-05T12:38:29.000Z</time>
      </trkpt>
      <trkpt lat="43.42633" lon="6.05265">
        <ele>295.7</ele>
        <time>2025-10-05T12:38:30.000Z</time>
      </trkpt>
      <trkpt lat="43.42633" lon="6.05265">
        <ele>295.7</ele>
        <time>2025-10-05T12:38:31.000Z</time>
      </trkpt>
      <trkpt lat="43.42633" lon="6.05265">
        <ele>295.7</ele>
        <time>2025-10-05T12:38:32.000Z</time>
      </trkpt>
      <trkpt lat="43.42632" lon="6.05265">
        <ele>295.7</ele>
        <time>2025-10-05T12:38:33.000Z</time>
      </trkpt>
      <trkpt lat="43.42632" lon="6.05266">
        <ele>295.7</ele>
        <time>2025-10-05T12:38:34.000Z</time>
      </trkpt>
      <trkpt lat="43.42632" lon="6.05266">
        <ele>295.7</ele>
        <time>2025-10-05T12:38:35.000Z</time>
      </trkpt>
      <trkpt lat="43.42632" lon="6.05266">
        <ele>295.7</ele>
        <time>2025-10-05T12:38:36.000Z</time>
      </trkpt>
      <trkpt lat="43.42632" lon="6.05266">
        <ele>295.7</ele>
        <time>2025-10-05T12:38:37.000Z</time>
      </trkpt>
      <trkpt lat="43.42632" lon="6.05266">
        <ele>295.7</ele>
        <time>2025-10-05T12:38:38.000Z</time>
      </trkpt>
      <trkpt lat="43.42632" lon="6.05266">
        <ele>295.7</ele>
        <time>2025-10-05T12:38:39.000Z</time>
      </trkpt>
      <trkpt lat="43.42633" lon="6.05266">
        <ele>295.7</ele>
        <time>2025-10-05T12:38:42.000Z</time>
      </trkpt>
      <trkpt lat="43.42633" lon="6.05266">
        <ele>295.7</ele>
        <time>2025-10-05T12:38:43.000Z</time>
      </trkpt>
      <trkpt lat="43.42633" lon="6.05266">
        <ele>295.7</ele>
        <time>2025-10-05T12:38:44.000Z</time>
      </trkpt>
      <trkpt lat="43.42633" lon="6.05266">
        <ele>295.7</ele>
        <time>2025-10-05T12:38:45.000Z</time>
      </trkpt>
      <trkpt lat="43.42633" lon="6.05266">
        <ele>295.8</ele>
        <time>2025-10-05T12:38:46.000Z</time>
      </trkpt>
      <trkpt lat="43.42633" lon="6.05266">
        <ele>295.8</ele>
        <time>2025-10-05T12:38:47.000Z</time>
      </trkpt>
      <trkpt lat="43.42633" lon="6.05266">
        <ele>295.8</ele>
        <time>2025-10-05T12:38:48.000Z</time>
      </trkpt>
      <trkpt lat="43.42633" lon="6.05266">
        <ele>295.8</ele>
        <time>2025-10-05T12:38:49.000Z</time>
      </trkpt>
      <trkpt lat="43.42633" lon="6.05266">
        <ele>295.8</ele>
        <time>2025-10-05T12:38:50.000Z</time>
      </trkpt>
      <trkpt lat="43.42633" lon="6.05266">
        <ele>295.8</ele>
        <time>2025-10-05T12:38:51.000Z</time>
      </trkpt>
      <trkpt lat="43.42634" lon="6.05267">
        <ele>296.1</ele>
        <time>2025-10-05T12:39:25.000Z</time>
      </trkpt>
      <trkpt lat="43.42635" lon="6.05267">
        <ele>296.1</ele>
        <time>2025-10-05T12:39:26.000Z</time>
      </trkpt>
      <trkpt lat="43.42638" lon="6.05279">
        <ele>296.3</ele>
        <time>2025-10-05T12:39:40.000Z</time>
      </trkpt>
      <trkpt lat="43.42646" lon="6.05287">
        <ele>296.5</ele>
        <time>2025-10-05T12:39:50.000Z</time>
      </trkpt>
      <trkpt lat="43.42652" lon="6.05297">
        <ele>297</ele>
        <time>2025-10-05T12:40:02.000Z</time>
      </trkpt>
      <trkpt lat="43.42657" lon="6.05308">
        <ele>297.4</ele>
        <time>2025-10-05T12:40:12.000Z</time>
      </trkpt>
      <trkpt lat="43.42664" lon="6.05318">
        <ele>297.8</ele>
        <time>2025-10-05T12:40:24.000Z</time>
      </trkpt>
      <trkpt lat="43.42671" lon="6.05327">
        <ele>298.3</ele>
        <time>2025-10-05T12:40:35.000Z</time>
      </trkpt>
      <trkpt lat="43.42676" lon="6.05337">
        <ele>299.5</ele>
        <time>2025-10-05T12:40:48.000Z</time>
      </trkpt>
      <trkpt lat="43.42682" lon="6.05347">
        <ele>300.5</ele>
        <time>2025-10-05T12:40:58.000Z</time>
      </trkpt>
      <trkpt lat="43.4269" lon="6.05352">
        <ele>301.1</ele>
        <time>2025-10-05T12:41:08.000Z</time>
      </trkpt>
      <trkpt lat="43.427" lon="6.05353">
        <ele>301.5</ele>
        <time>2025-10-05T12:41:18.000Z</time>
      </trkpt>
      <trkpt lat="43.42709" lon="6.05349">
        <ele>301.9</ele>
        <time>2025-10-05T12:41:27.000Z</time>
      </trkpt>
      <trkpt lat="43.42718" lon="6.05346">
        <ele>302.8</ele>
        <time>2025-10-05T12:41:37.000Z</time>
      </trkpt>
      <trkpt lat="43.42722" lon="6.05357">
        <ele>303.3</ele>
        <time>2025-10-05T12:41:49.000Z</time>
      </trkpt>
      <trkpt lat="43.42719" lon="6.0537">
        <ele>303.8</ele>
        <time>2025-10-05T12:42:00.000Z</time>
      </trkpt>
      <trkpt lat="43.42718" lon="6.05382">
        <ele>304.5</ele>
        <time>2025-10-05T12:42:12.000Z</time>
      </trkpt>
      <trkpt lat="43.4272" lon="6.05396">
        <ele>305.1</ele>
        <time>2025-10-05T12:42:23.000Z</time>
      </trkpt>
      <trkpt lat="43.42724" lon="6.05407">
        <ele>305.7</ele>
        <time>2025-10-05T12:42:35.000Z</time>
      </trkpt>
      <trkpt lat="43.42728" lon="6.05419">
        <ele>306.5</ele>
        <time>2025-10-05T12:42:49.000Z</time>
      </trkpt>
      <trkpt lat="43.42731" lon="6.05431">
        <ele>307.7</ele>
        <time>2025-10-05T12:43:01.000Z</time>
      </trkpt>
      <trkpt lat="43.42729" lon="6.05444">
        <ele>308.3</ele>
        <time>2025-10-05T12:43:16.000Z</time>
      </trkpt>
      <trkpt lat="43.42724" lon="6.05455">
        <ele>308.8</ele>
        <time>2025-10-05T12:43:30.000Z</time>
      </trkpt>
      <trkpt lat="43.42719" lon="6.05466">
        <ele>309.4</ele>
        <time>2025-10-05T12:43:42.000Z</time>
      </trkpt>
      <trkpt lat="43.42719" lon="6.05472">
        <ele>310.1</ele>
        <time>2025-10-05T12:43:55.000Z</time>
      </trkpt>
      <trkpt lat="43.42719" lon="6.05472">
        <ele>310.1</ele>
        <time>2025-10-05T12:43:56.000Z</time>
      </trkpt>
      <trkpt lat="43.42719" lon="6.05472">
        <ele>310.3</ele>
        <time>2025-10-05T12:44:02.000Z</time>
      </trkpt>
      <trkpt lat="43.42719" lon="6.05472">
        <ele>310.4</ele>
        <time>2025-10-05T12:44:03.000Z</time>
      </trkpt>
      <trkpt lat="43.42719" lon="6.05472">
        <ele>310.4</ele>
        <time>2025-10-05T12:44:04.000Z</time>
      </trkpt>
      <trkpt lat="43.42719" lon="6.05472">
        <ele>310.4</ele>
        <time>2025-10-05T12:44:05.000Z</time>
      </trkpt>
      <trkpt lat="43.42719" lon="6.05472">
        <ele>310.4</ele>
        <time>2025-10-05T12:44:06.000Z</time>
      </trkpt>
      <trkpt lat="43.4272" lon="6.05472">
        <ele>310.5</ele>
        <time>2025-10-05T12:44:10.000Z</time>
      </trkpt>
      <trkpt lat="43.4272" lon="6.05472">
        <ele>310.5</ele>
        <time>2025-10-05T12:44:11.000Z</time>
      </trkpt>
      <trkpt lat="43.4272" lon="6.05472">
        <ele>310.5</ele>
        <time>2025-10-05T12:44:12.000Z</time>
      </trkpt>
      <trkpt lat="43.4272" lon="6.05472">
        <ele>310.5</ele>
        <time>2025-10-05T12:44:13.000Z</time>
      </trkpt>
      <trkpt lat="43.4272" lon="6.05472">
        <ele>310.5</ele>
        <time>2025-10-05T12:44:14.000Z</time>
      </trkpt>
      <trkpt lat="43.4272" lon="6.05472">
        <ele>310.5</ele>
        <time>2025-10-05T12:44:15.000Z</time>
      </trkpt>
      <trkpt lat="43.4272" lon="6.05472">
        <ele>310.5</ele>
        <time>2025-10-05T12:44:16.000Z</time>
      </trkpt>
      <trkpt lat="43.4272" lon="6.05472">
        <ele>310.6</ele>
        <time>2025-10-05T12:44:19.000Z</time>
      </trkpt>
      <trkpt lat="43.4272" lon="6.05472">
        <ele>310.6</ele>
        <time>2025-10-05T12:44:20.000Z</time>
      </trkpt>
      <trkpt lat="43.4272" lon="6.05472">
        <ele>310.6</ele>
        <time>2025-10-05T12:44:21.000Z</time>
      </trkpt>
      <trkpt lat="43.4272" lon="6.05473">
        <ele>310.7</ele>
        <time>2025-10-05T12:44:28.000Z</time>
      </trkpt>
      <trkpt lat="43.4272" lon="6.05473">
        <ele>310.7</ele>
        <time>2025-10-05T12:44:29.000Z</time>
      </trkpt>
      <trkpt lat="43.42711" lon="6.05479">
        <ele>311.1</ele>
        <time>2025-10-05T12:44:43.000Z</time>
      </trkpt>
      <trkpt lat="43.42704" lon="6.05487">
        <ele>311.9</ele>
        <time>2025-10-05T12:44:56.000Z</time>
      </trkpt>
      <trkpt lat="43.427" lon="6.05499">
        <ele>312.9</ele>
        <time>2025-10-05T12:45:09.000Z</time>
      </trkpt>
      <trkpt lat="43.42699" lon="6.05512">
        <ele>313.7</ele>
        <time>2025-10-05T12:45:21.000Z</time>
      </trkpt>
      <trkpt lat="43.42694" lon="6.05523">
        <ele>315.6</ele>
        <time>2025-10-05T12:45:37.000Z</time>
      </trkpt>
      <trkpt lat="43.42687" lon="6.05532">
        <ele>316.4</ele>
        <time>2025-10-05T12:45:52.000Z</time>
      </trkpt>
      <trkpt lat="43.4268" lon="6.0554">
        <ele>317.5</ele>
        <time>2025-10-05T12:46:10.000Z</time>
      </trkpt>
      <trkpt lat="43.42673" lon="6.05549">
        <ele>318.1</ele>
        <time>2025-10-05T12:46:27.000Z</time>
      </trkpt>
      <trkpt lat="43.42667" lon="6.05558">
        <ele>320.2</ele>
        <time>2025-10-05T12:46:42.000Z</time>
      </trkpt>
      <trkpt lat="43.42664" lon="6.0557">
        <ele>321.1</ele>
        <time>2025-10-05T12:46:56.000Z</time>
      </trkpt>
      <trkpt lat="43.42657" lon="6.05578">
        <ele>321.8</ele>
        <time>2025-10-05T12:47:10.000Z</time>
      </trkpt>
      <trkpt lat="43.42651" lon="6.05588">
        <ele>322.6</ele>
        <time>2025-10-05T12:47:25.000Z</time>
      </trkpt>
      <trkpt lat="43.42643" lon="6.05592">
        <ele>323.5</ele>
        <time>2025-10-05T12:47:41.000Z</time>
      </trkpt>
      <trkpt lat="43.42636" lon="6.05599">
        <ele>324.6</ele>
        <time>2025-10-05T12:48:02.000Z</time>
      </trkpt>
      <trkpt lat="43.42636" lon="6.05599">
        <ele>324.6</ele>
        <time>2025-10-05T12:48:03.000Z</time>
      </trkpt>
      <trkpt lat="43.42636" lon="6.05599">
        <ele>324.6</ele>
        <time>2025-10-05T12:48:04.000Z</time>
      </trkpt>
      <trkpt lat="43.42636" lon="6.05599">
        <ele>324.6</ele>
        <time>2025-10-05T12:48:05.000Z</time>
      </trkpt>
      <trkpt lat="43.42636" lon="6.05599">
        <ele>324.6</ele>
        <time>2025-10-05T12:48:06.000Z</time>
      </trkpt>
      <trkpt lat="43.42636" lon="6.05599">
        <ele>324.6</ele>
        <time>2025-10-05T12:48:07.000Z</time>
      </trkpt>
      <trkpt lat="43.42636" lon="6.05599">
        <ele>324.6</ele>
        <time>2025-10-05T12:48:08.000Z</time>
      </trkpt>
      <trkpt lat="43.42636" lon="6.05598">
        <ele>324.7</ele>
        <time>2025-10-05T12:48:09.000Z</time>
      </trkpt>
      <trkpt lat="43.42635" lon="6.05599">
        <ele>324.7</ele>
        <time>2025-10-05T12:48:10.000Z</time>
      </trkpt>
      <trkpt lat="43.42635" lon="6.05599">
        <ele>324.7</ele>
        <time>2025-10-05T12:48:11.000Z</time>
      </trkpt>
      <trkpt lat="43.42626" lon="6.05601">
        <ele>326</ele>
        <time>2025-10-05T12:48:29.000Z</time>
      </trkpt>
      <trkpt lat="43.42617" lon="6.05599">
        <ele>327.5</ele>
        <time>2025-10-05T12:48:43.000Z</time>
      </trkpt>
      <trkpt lat="43.42614" lon="6.05604">
        <ele>329.1</ele>
        <time>2025-10-05T12:48:59.000Z</time>
      </trkpt>
      <trkpt lat="43.42614" lon="6.05604">
        <ele>329.1</ele>
        <time>2025-10-05T12:49:00.000Z</time>
      </trkpt>
      <trkpt lat="43.42614" lon="6.05604">
        <ele>329.2</ele>
        <time>2025-10-05T12:49:01.000Z</time>
      </trkpt>
      <trkpt lat="43.42614" lon="6.05604">
        <ele>329.4</ele>
        <time>2025-10-05T12:49:19.000Z</time>
      </trkpt>
      <trkpt lat="43.42614" lon="6.05604">
        <ele>329.4</ele>
        <time>2025-10-05T12:49:20.000Z</time>
      </trkpt>
      <trkpt lat="43.42614" lon="6.05604">
        <ele>329.4</ele>
        <time>2025-10-05T12:49:21.000Z</time>
      </trkpt>
      <trkpt lat="43.42604" lon="6.05604">
        <ele>330.9</ele>
        <time>2025-10-05T12:49:39.000Z</time>
      </trkpt>
      <trkpt lat="43.42595" lon="6.05603">
        <ele>332.3</ele>
        <time>2025-10-05T12:49:56.000Z</time>
      </trkpt>
      <trkpt lat="43.42586" lon="6.05603">
        <ele>333.6</ele>
        <time>2025-10-05T12:50:15.000Z</time>
      </trkpt>
      <trkpt lat="43.42577" lon="6.05601">
        <ele>334.1</ele>
        <time>2025-10-05T12:50:26.000Z</time>
      </trkpt>
      <trkpt lat="43.42577" lon="6.056">
        <ele>334</ele>
        <time>2025-10-05T12:50:33.000Z</time>
      </trkpt>
      <trkpt lat="43.42577" lon="6.05601">
        <ele>334</ele>
        <time>2025-10-05T12:50:34.000Z</time>
      </trkpt>
      <trkpt lat="43.42577" lon="6.056">
        <ele>334</ele>
        <time>2025-10-05T12:50:35.000Z</time>
      </trkpt>
      <trkpt lat="43.42577" lon="6.056">
        <ele>334</ele>
        <time>2025-10-05T12:50:36.000Z</time>
      </trkpt>
      <trkpt lat="43.42577" lon="6.05602">
        <ele>334.5</ele>
        <time>2025-10-05T12:50:45.000Z</time>
      </trkpt>
      <trkpt lat="43.42578" lon="6.05603">
        <ele>334.9</ele>
        <time>2025-10-05T12:50:53.000Z</time>
      </trkpt>
      <trkpt lat="43.42578" lon="6.05604">
        <ele>335</ele>
        <time>2025-10-05T12:50:54.000Z</time>
      </trkpt>
      <trkpt lat="43.42579" lon="6.05602">
        <ele>335</ele>
        <time>2025-10-05T12:51:02.000Z</time>
      </trkpt>
      <trkpt lat="43.42579" lon="6.05602">
        <ele>335</ele>
        <time>2025-10-05T12:51:03.000Z</time>
      </trkpt>
      <trkpt lat="43.42579" lon="6.056">
        <ele>335</ele>
        <time>2025-10-05T12:51:07.000Z</time>
      </trkpt>
      <trkpt lat="43.42579" lon="6.05599">
        <ele>335</ele>
        <time>2025-10-05T12:51:08.000Z</time>
      </trkpt>
      <trkpt lat="43.42578" lon="6.05598">
        <ele>335</ele>
        <time>2025-10-05T12:51:09.000Z</time>
      </trkpt>
      <trkpt lat="43.4258" lon="6.05586">
        <ele>335.5</ele>
        <time>2025-10-05T12:51:33.000Z</time>
      </trkpt>
      <trkpt lat="43.42575" lon="6.05575">
        <ele>336.4</ele>
        <time>2025-10-05T12:51:48.000Z</time>
      </trkpt>
      <trkpt lat="43.42573" lon="6.05563">
        <ele>337.6</ele>
        <time>2025-10-05T12:52:11.000Z</time>
      </trkpt>
      <trkpt lat="43.42565" lon="6.05557">
        <ele>339.4</ele>
        <time>2025-10-05T12:52:43.000Z</time>
      </trkpt>
      <trkpt lat="43.42565" lon="6.05556">
        <ele>339.9</ele>
        <time>2025-10-05T12:53:00.000Z</time>
      </trkpt>
      <trkpt lat="43.42565" lon="6.05556">
        <ele>339.9</ele>
        <time>2025-10-05T12:53:01.000Z</time>
      </trkpt>
      <trkpt lat="43.42566" lon="6.05556">
        <ele>339.9</ele>
        <time>2025-10-05T12:53:02.000Z</time>
      </trkpt>
      <trkpt lat="43.42566" lon="6.05556">
        <ele>340</ele>
        <time>2025-10-05T12:53:03.000Z</time>
      </trkpt>
      <trkpt lat="43.42565" lon="6.05555">
        <ele>340</ele>
        <time>2025-10-05T12:53:04.000Z</time>
      </trkpt>
      <trkpt lat="43.42563" lon="6.05556">
        <ele>340.1</ele>
        <time>2025-10-05T12:53:12.000Z</time>
      </trkpt>
      <trkpt lat="43.42563" lon="6.05556">
        <ele>340.1</ele>
        <time>2025-10-05T12:53:13.000Z</time>
      </trkpt>
      <trkpt lat="43.42563" lon="6.05556">
        <ele>340.4</ele>
        <time>2025-10-05T12:53:25.000Z</time>
      </trkpt>
      <trkpt lat="43.42564" lon="6.05555">
        <ele>340.4</ele>
        <time>2025-10-05T12:53:26.000Z</time>
      </trkpt>
      <trkpt lat="43.42563" lon="6.05549">
        <ele>341</ele>
        <time>2025-10-05T12:53:43.000Z</time>
      </trkpt>
      <trkpt lat="43.42562" lon="6.05549">
        <ele>341</ele>
        <time>2025-10-05T12:53:44.000Z</time>
      </trkpt>
      <trkpt lat="43.42562" lon="6.05548">
        <ele>341</ele>
        <time>2025-10-05T12:53:45.000Z</time>
      </trkpt>
      <trkpt lat="43.42562" lon="6.05548">
        <ele>341.1</ele>
        <time>2025-10-05T12:53:46.000Z</time>
      </trkpt>
      <trkpt lat="43.42562" lon="6.05548">
        <ele>341.1</ele>
        <time>2025-10-05T12:53:47.000Z</time>
      </trkpt>
      <trkpt lat="43.42562" lon="6.05548">
        <ele>341.2</ele>
        <time>2025-10-05T12:53:48.000Z</time>
      </trkpt>
      <trkpt lat="43.42562" lon="6.05548">
        <ele>341.2</ele>
        <time>2025-10-05T12:53:49.000Z</time>
      </trkpt>
      <trkpt lat="43.42561" lon="6.05547">
        <ele>341.4</ele>
        <time>2025-10-05T12:54:02.000Z</time>
      </trkpt>
      <trkpt lat="43.42561" lon="6.05547">
        <ele>341.5</ele>
        <time>2025-10-05T12:54:03.000Z</time>
      </trkpt>
      <trkpt lat="43.4256" lon="6.05538">
        <ele>343.3</ele>
        <time>2025-10-05T12:54:45.000Z</time>
      </trkpt>
      <trkpt lat="43.4256" lon="6.05538">
        <ele>343.4</ele>
        <time>2025-10-05T12:54:46.000Z</time>
      </trkpt>
      <trkpt lat="43.4256" lon="6.05538">
        <ele>343.5</ele>
        <time>2025-10-05T12:54:47.000Z</time>
      </trkpt>
      <trkpt lat="43.4256" lon="6.05538">
        <ele>343.7</ele>
        <time>2025-10-05T12:54:48.000Z</time>
      </trkpt>
      <trkpt lat="43.42559" lon="6.05537">
        <ele>343.8</ele>
        <time>2025-10-05T12:54:49.000Z</time>
      </trkpt>
      <trkpt lat="43.42559" lon="6.05524">
        <ele>344.9</ele>
        <time>2025-10-05T12:55:12.000Z</time>
      </trkpt>
      <trkpt lat="43.42554" lon="6.05514">
        <ele>346.4</ele>
        <time>2025-10-05T12:55:43.000Z</time>
      </trkpt>
      <trkpt lat="43.42546" lon="6.05507">
        <ele>347.8</ele>
        <time>2025-10-05T12:55:58.000Z</time>
      </trkpt>
      <trkpt lat="43.42545" lon="6.05508">
        <ele>348.3</ele>
        <time>2025-10-05T12:56:08.000Z</time>
      </trkpt>
      <trkpt lat="43.42545" lon="6.05508">
        <ele>348.3</ele>
        <time>2025-10-05T12:56:09.000Z</time>
      </trkpt>
      <trkpt lat="43.42546" lon="6.05507">
        <ele>348.3</ele>
        <time>2025-10-05T12:56:12.000Z</time>
      </trkpt>
      <trkpt lat="43.42546" lon="6.05507">
        <ele>348.3</ele>
        <time>2025-10-05T12:56:13.000Z</time>
      </trkpt>
      <trkpt lat="43.42541" lon="6.05497">
        <ele>349.5</ele>
        <time>2025-10-05T12:56:35.000Z</time>
      </trkpt>
      <trkpt lat="43.42532" lon="6.05494">
        <ele>350.6</ele>
        <time>2025-10-05T12:56:57.000Z</time>
      </trkpt>
      <trkpt lat="43.42526" lon="6.05484">
        <ele>352.2</ele>
        <time>2025-10-05T12:57:20.000Z</time>
      </trkpt>
      <trkpt lat="43.42519" lon="6.05476">
        <ele>353.1</ele>
        <time>2025-10-05T12:57:35.000Z</time>
      </trkpt>
      <trkpt lat="43.42509" lon="6.05473">
        <ele>354.9</ele>
        <time>2025-10-05T12:57:55.000Z</time>
      </trkpt>
      <trkpt lat="43.42504" lon="6.05474">
        <ele>356.5</ele>
        <time>2025-10-05T12:58:15.000Z</time>
      </trkpt>
      <trkpt lat="43.42504" lon="6.05474">
        <ele>356.6</ele>
        <time>2025-10-05T12:58:16.000Z</time>
      </trkpt>
      <trkpt lat="43.42504" lon="6.05473">
        <ele>356.7</ele>
        <time>2025-10-05T12:58:17.000Z</time>
      </trkpt>
      <trkpt lat="43.42504" lon="6.05473">
        <ele>356.7</ele>
        <time>2025-10-05T12:58:18.000Z</time>
      </trkpt>
      <trkpt lat="43.42504" lon="6.05473">
        <ele>356.7</ele>
        <time>2025-10-05T12:58:19.000Z</time>
      </trkpt>
      <trkpt lat="43.425" lon="6.05471">
        <ele>358.2</ele>
        <time>2025-10-05T12:58:38.000Z</time>
      </trkpt>
      <trkpt lat="43.425" lon="6.05471">
        <ele>358.3</ele>
        <time>2025-10-05T12:58:39.000Z</time>
      </trkpt>
      <trkpt lat="43.42499" lon="6.05472">
        <ele>358.4</ele>
        <time>2025-10-05T12:58:44.000Z</time>
      </trkpt>
      <trkpt lat="43.42499" lon="6.05472">
        <ele>358.4</ele>
        <time>2025-10-05T12:58:45.000Z</time>
      </trkpt>
      <trkpt lat="43.42499" lon="6.05472">
        <ele>358.4</ele>
        <time>2025-10-05T12:58:46.000Z</time>
      </trkpt>
      <trkpt lat="43.42499" lon="6.05473">
        <ele>358.5</ele>
        <time>2025-10-05T12:58:52.000Z</time>
      </trkpt>
      <trkpt lat="43.42499" lon="6.05473">
        <ele>358.5</ele>
        <time>2025-10-05T12:58:53.000Z</time>
      </trkpt>
      <trkpt lat="43.42499" lon="6.05473">
        <ele>358.6</ele>
        <time>2025-10-05T12:59:00.000Z</time>
      </trkpt>
      <trkpt lat="43.42499" lon="6.05473">
        <ele>358.6</ele>
        <time>2025-10-05T12:59:01.000Z</time>
      </trkpt>
      <trkpt lat="43.42498" lon="6.05475">
        <ele>358.6</ele>
        <time>2025-10-05T12:59:10.000Z</time>
      </trkpt>
      <trkpt lat="43.42498" lon="6.05475">
        <ele>358.6</ele>
        <time>2025-10-05T12:59:11.000Z</time>
      </trkpt>
      <trkpt lat="43.42498" lon="6.05475">
        <ele>358.7</ele>
        <time>2025-10-05T12:59:12.000Z</time>
      </trkpt>
      <trkpt lat="43.42498" lon="6.05475">
        <ele>358.7</ele>
        <time>2025-10-05T12:59:13.000Z</time>
      </trkpt>
      <trkpt lat="43.42498" lon="6.05475">
        <ele>358.7</ele>
        <time>2025-10-05T12:59:14.000Z</time>
      </trkpt>
      <trkpt lat="43.42497" lon="6.05475">
        <ele>358.7</ele>
        <time>2025-10-05T12:59:15.000Z</time>
      </trkpt>
      <trkpt lat="43.42497" lon="6.05475">
        <ele>358.7</ele>
        <time>2025-10-05T12:59:16.000Z</time>
      </trkpt>
      <trkpt lat="43.42496" lon="6.05475">
        <ele>358.8</ele>
        <time>2025-10-05T12:59:43.000Z</time>
      </trkpt>
      <trkpt lat="43.42496" lon="6.05475">
        <ele>358.8</ele>
        <time>2025-10-05T12:59:44.000Z</time>
      </trkpt>
      <trkpt lat="43.42496" lon="6.05475">
        <ele>358.8</ele>
        <time>2025-10-05T12:59:45.000Z</time>
      </trkpt>
      <trkpt lat="43.42496" lon="6.05475">
        <ele>358.8</ele>
        <time>2025-10-05T12:59:46.000Z</time>
      </trkpt>
      <trkpt lat="43.42496" lon="6.05475">
        <ele>358.8</ele>
        <time>2025-10-05T12:59:47.000Z</time>
      </trkpt>
      <trkpt lat="43.42496" lon="6.05475">
        <ele>358.8</ele>
        <time>2025-10-05T12:59:48.000Z</time>
      </trkpt>
      <trkpt lat="43.42496" lon="6.05475">
        <ele>358.8</ele>
        <time>2025-10-05T12:59:49.000Z</time>
      </trkpt>
      <trkpt lat="43.42496" lon="6.05475">
        <ele>358.8</ele>
        <time>2025-10-05T12:59:50.000Z</time>
      </trkpt>
      <trkpt lat="43.42496" lon="6.05475">
        <ele>358.8</ele>
        <time>2025-10-05T12:59:51.000Z</time>
      </trkpt>
      <trkpt lat="43.42496" lon="6.05475">
        <ele>358.8</ele>
        <time>2025-10-05T12:59:52.000Z</time>
      </trkpt>
      <trkpt lat="43.42496" lon="6.05475">
        <ele>358.9</ele>
        <time>2025-10-05T12:59:57.000Z</time>
      </trkpt>
      <trkpt lat="43.42496" lon="6.05475">
        <ele>358.9</ele>
        <time>2025-10-05T12:59:58.000Z</time>
      </trkpt>
      <trkpt lat="43.42496" lon="6.05475">
        <ele>358.9</ele>
        <time>2025-10-05T12:59:59.000Z</time>
      </trkpt>
      <trkpt lat="43.42496" lon="6.05475">
        <ele>358.9</ele>
        <time>2025-10-05T13:00:00.000Z</time>
      </trkpt>
      <trkpt lat="43.42496" lon="6.05475">
        <ele>358.9</ele>
        <time>2025-10-05T13:00:01.000Z</time>
      </trkpt>
      <trkpt lat="43.42496" lon="6.05475">
        <ele>358.9</ele>
        <time>2025-10-05T13:00:02.000Z</time>
      </trkpt>
      <trkpt lat="43.42495" lon="6.05475">
        <ele>358.9</ele>
        <time>2025-10-05T13:00:07.000Z</time>
      </trkpt>
      <trkpt lat="43.42495" lon="6.05475">
        <ele>358.9</ele>
        <time>2025-10-05T13:00:08.000Z</time>
      </trkpt>
      <trkpt lat="43.42495" lon="6.05475">
        <ele>358.9</ele>
        <time>2025-10-05T13:00:09.000Z</time>
      </trkpt>
      <trkpt lat="43.42495" lon="6.05475">
        <ele>358.9</ele>
        <time>2025-10-05T13:00:10.000Z</time>
      </trkpt>
      <trkpt lat="43.42495" lon="6.05475">
        <ele>358.9</ele>
        <time>2025-10-05T13:00:11.000Z</time>
      </trkpt>
      <trkpt lat="43.42495" lon="6.05475">
        <ele>359</ele>
        <time>2025-10-05T13:00:19.000Z</time>
      </trkpt>
      <trkpt lat="43.42495" lon="6.05475">
        <ele>359</ele>
        <time>2025-10-05T13:00:20.000Z</time>
      </trkpt>
      <trkpt lat="43.42495" lon="6.05475">
        <ele>359</ele>
        <time>2025-10-05T13:00:21.000Z</time>
      </trkpt>
      <trkpt lat="43.42495" lon="6.05475">
        <ele>359</ele>
        <time>2025-10-05T13:00:25.000Z</time>
      </trkpt>
      <trkpt lat="43.42495" lon="6.05475">
        <ele>359</ele>
        <time>2025-10-05T13:00:26.000Z</time>
      </trkpt>
      <trkpt lat="43.42495" lon="6.05475">
        <ele>359.1</ele>
        <time>2025-10-05T13:00:39.000Z</time>
      </trkpt>
      <trkpt lat="43.42495" lon="6.05475">
        <ele>359.1</ele>
        <time>2025-10-05T13:00:40.000Z</time>
      </trkpt>
      <trkpt lat="43.42495" lon="6.05475">
        <ele>359.1</ele>
        <time>2025-10-05T13:00:41.000Z</time>
      </trkpt>
      <trkpt lat="43.42495" lon="6.05475">
        <ele>359.1</ele>
        <time>2025-10-05T13:00:42.000Z</time>
      </trkpt>
      <trkpt lat="43.42495" lon="6.05475">
        <ele>359.1</ele>
        <time>2025-10-05T13:00:43.000Z</time>
      </trkpt>
      <trkpt lat="43.42495" lon="6.05475">
        <ele>359.2</ele>
        <time>2025-10-05T13:00:49.000Z</time>
      </trkpt>
      <trkpt lat="43.42495" lon="6.05475">
        <ele>359.2</ele>
        <time>2025-10-05T13:00:50.000Z</time>
      </trkpt>
      <trkpt lat="43.42495" lon="6.05475">
        <ele>359.2</ele>
        <time>2025-10-05T13:00:51.000Z</time>
      </trkpt>
      <trkpt lat="43.42495" lon="6.05475">
        <ele>359.2</ele>
        <time>2025-10-05T13:00:52.000Z</time>
      </trkpt>
      <trkpt lat="43.42495" lon="6.05475">
        <ele>359.2</ele>
        <time>2025-10-05T13:00:53.000Z</time>
      </trkpt>
      <trkpt lat="43.42496" lon="6.05475">
        <ele>358.8</ele>
        <time>2025-10-05T13:02:32.000Z</time>
      </trkpt>
      <trkpt lat="43.42496" lon="6.05475">
        <ele>358.8</ele>
        <time>2025-10-05T13:02:33.000Z</time>
      </trkpt>
      <trkpt lat="43.42496" lon="6.05475">
        <ele>358.8</ele>
        <time>2025-10-05T13:02:34.000Z</time>
      </trkpt>
      <trkpt lat="43.42496" lon="6.05475">
        <ele>358.7</ele>
        <time>2025-10-05T13:02:35.000Z</time>
      </trkpt>
      <trkpt lat="43.42496" lon="6.05475">
        <ele>358.7</ele>
        <time>2025-10-05T13:02:36.000Z</time>
      </trkpt>
      <trkpt lat="43.42496" lon="6.05475">
        <ele>358.7</ele>
        <time>2025-10-05T13:02:52.000Z</time>
      </trkpt>
      <trkpt lat="43.42496" lon="6.05475">
        <ele>358.7</ele>
        <time>2025-10-05T13:02:53.000Z</time>
      </trkpt>
      <trkpt lat="43.42496" lon="6.05475">
        <ele>358.7</ele>
        <time>2025-10-05T13:02:54.000Z</time>
      </trkpt>
      <trkpt lat="43.42496" lon="6.05475">
        <ele>358.7</ele>
        <time>2025-10-05T13:02:55.000Z</time>
      </trkpt>
      <trkpt lat="43.42496" lon="6.05475">
        <ele>358.7</ele>
        <time>2025-10-05T13:02:56.000Z</time>
      </trkpt>
      <trkpt lat="43.42496" lon="6.05475">
        <ele>358.7</ele>
        <time>2025-10-05T13:02:57.000Z</time>
      </trkpt>
      <trkpt lat="43.42496" lon="6.05475">
        <ele>358.7</ele>
        <time>2025-10-05T13:03:04.000Z</time>
      </trkpt>
      <trkpt lat="43.42496" lon="6.05475">
        <ele>358.7</ele>
        <time>2025-10-05T13:03:05.000Z</time>
      </trkpt>
      <trkpt lat="43.42496" lon="6.05475">
        <ele>358.7</ele>
        <time>2025-10-05T13:03:06.000Z</time>
      </trkpt>
      <trkpt lat="43.42496" lon="6.05475">
        <ele>358.7</ele>
        <time>2025-10-05T13:03:10.000Z</time>
      </trkpt>
      <trkpt lat="43.42496" lon="6.05475">
        <ele>358.7</ele>
        <time>2025-10-05T13:03:11.000Z</time>
      </trkpt>
      <trkpt lat="43.42496" lon="6.05475">
        <ele>358.8</ele>
        <time>2025-10-05T13:03:14.000Z</time>
      </trkpt>
      <trkpt lat="43.42496" lon="6.05475">
        <ele>358.8</ele>
        <time>2025-10-05T13:03:15.000Z</time>
      </trkpt>
      <trkpt lat="43.42496" lon="6.05475">
        <ele>358.8</ele>
        <time>2025-10-05T13:03:16.000Z</time>
      </trkpt>
      <trkpt lat="43.42496" lon="6.05474">
        <ele>359</ele>
        <time>2025-10-05T13:03:27.000Z</time>
      </trkpt>
      <trkpt lat="43.42496" lon="6.05474">
        <ele>359</ele>
        <time>2025-10-05T13:03:28.000Z</time>
      </trkpt>
      <trkpt lat="43.42496" lon="6.05474">
        <ele>359</ele>
        <time>2025-10-05T13:03:29.000Z</time>
      </trkpt>
      <trkpt lat="43.42496" lon="6.05474">
        <ele>359</ele>
        <time>2025-10-05T13:03:30.000Z</time>
      </trkpt>
      <trkpt lat="43.42496" lon="6.05474">
        <ele>358.9</ele>
        <time>2025-10-05T13:03:31.000Z</time>
      </trkpt>
      <trkpt lat="43.42496" lon="6.05474">
        <ele>358.9</ele>
        <time>2025-10-05T13:03:32.000Z</time>
      </trkpt>
      <trkpt lat="43.42496" lon="6.05474">
        <ele>358.9</ele>
        <time>2025-10-05T13:03:33.000Z</time>
      </trkpt>
      <trkpt lat="43.42496" lon="6.05474">
        <ele>358.9</ele>
        <time>2025-10-05T13:03:34.000Z</time>
      </trkpt>
      <trkpt lat="43.42496" lon="6.05474">
        <ele>358.9</ele>
        <time>2025-10-05T13:03:45.000Z</time>
      </trkpt>
      <trkpt lat="43.42495" lon="6.05473">
        <ele>358.9</ele>
        <time>2025-10-05T13:03:46.000Z</time>
      </trkpt>
      <trkpt lat="43.42486" lon="6.05476">
        <ele>358.9</ele>
        <time>2025-10-05T13:04:11.000Z</time>
      </trkpt>
      <trkpt lat="43.42479" lon="6.05484">
        <ele>358.6</ele>
        <time>2025-10-05T13:04:29.000Z</time>
      </trkpt>
      <trkpt lat="43.42472" lon="6.05492">
        <ele>358.3</ele>
        <time>2025-10-05T13:04:45.000Z</time>
      </trkpt>
      <trkpt lat="43.42464" lon="6.05499">
        <ele>357.2</ele>
        <time>2025-10-05T13:05:03.000Z</time>
      </trkpt>
      <trkpt lat="43.42464" lon="6.05499">
        <ele>356.8</ele>
        <time>2025-10-05T13:05:07.000Z</time>
      </trkpt>
      <trkpt lat="43.42464" lon="6.05499">
        <ele>356.8</ele>
        <time>2025-10-05T13:05:08.000Z</time>
      </trkpt>
      <trkpt lat="43.42464" lon="6.05499">
        <ele>356.7</ele>
        <time>2025-10-05T13:05:09.000Z</time>
      </trkpt>
      <trkpt lat="43.42464" lon="6.05499">
        <ele>356.6</ele>
        <time>2025-10-05T13:05:15.000Z</time>
      </trkpt>
      <trkpt lat="43.42464" lon="6.05499">
        <ele>356.6</ele>
        <time>2025-10-05T13:05:16.000Z</time>
      </trkpt>
      <trkpt lat="43.42455" lon="6.05499">
        <ele>355.1</ele>
        <time>2025-10-05T13:05:40.000Z</time>
      </trkpt>
      <trkpt lat="43.42447" lon="6.05506">
        <ele>353.5</ele>
        <time>2025-10-05T13:06:00.000Z</time>
      </trkpt>
      <trkpt lat="43.42438" lon="6.05511">
        <ele>352.6</ele>
        <time>2025-10-05T13:06:18.000Z</time>
      </trkpt>
      <trkpt lat="43.4244" lon="6.05511">
        <ele>351.6</ele>
        <time>2025-10-05T13:06:32.000Z</time>
      </trkpt>
      <trkpt lat="43.4244" lon="6.05511">
        <ele>351.6</ele>
        <time>2025-10-05T13:06:33.000Z</time>
      </trkpt>
      <trkpt lat="43.4244" lon="6.05511">
        <ele>351.5</ele>
        <time>2025-10-05T13:06:34.000Z</time>
      </trkpt>
      <trkpt lat="43.4244" lon="6.05512">
        <ele>351.3</ele>
        <time>2025-10-05T13:06:42.000Z</time>
      </trkpt>
      <trkpt lat="43.4244" lon="6.05512">
        <ele>351.3</ele>
        <time>2025-10-05T13:06:43.000Z</time>
      </trkpt>
      <trkpt lat="43.42437" lon="6.05515">
        <ele>351.1</ele>
        <time>2025-10-05T13:06:55.000Z</time>
      </trkpt>
      <trkpt lat="43.42437" lon="6.05515">
        <ele>351.1</ele>
        <time>2025-10-05T13:06:56.000Z</time>
      </trkpt>
      <trkpt lat="43.42436" lon="6.05515">
        <ele>351.1</ele>
        <time>2025-10-05T13:07:07.000Z</time>
      </trkpt>
      <trkpt lat="43.42436" lon="6.05516">
        <ele>351.2</ele>
        <time>2025-10-05T13:07:08.000Z</time>
      </trkpt>
      <trkpt lat="43.42437" lon="6.05515">
        <ele>351.2</ele>
        <time>2025-10-05T13:07:14.000Z</time>
      </trkpt>
      <trkpt lat="43.42437" lon="6.05515">
        <ele>351.2</ele>
        <time>2025-10-05T13:07:15.000Z</time>
      </trkpt>
      <trkpt lat="43.42437" lon="6.05515">
        <ele>351.2</ele>
        <time>2025-10-05T13:07:16.000Z</time>
      </trkpt>
      <trkpt lat="43.42437" lon="6.05515">
        <ele>351.3</ele>
        <time>2025-10-05T13:07:17.000Z</time>
      </trkpt>
      <trkpt lat="43.42438" lon="6.05515">
        <ele>351.3</ele>
        <time>2025-10-05T13:07:18.000Z</time>
      </trkpt>
      <trkpt lat="43.42441" lon="6.05512">
        <ele>351.3</ele>
        <time>2025-10-05T13:07:27.000Z</time>
      </trkpt>
      <trkpt lat="43.42441" lon="6.05512">
        <ele>351.3</ele>
        <time>2025-10-05T13:07:28.000Z</time>
      </trkpt>
      <trkpt lat="43.42441" lon="6.05512">
        <ele>351.3</ele>
        <time>2025-10-05T13:07:29.000Z</time>
      </trkpt>
      <trkpt lat="43.42442" lon="6.05512">
        <ele>351.2</ele>
        <time>2025-10-05T13:07:40.000Z</time>
      </trkpt>
      <trkpt lat="43.42442" lon="6.05512">
        <ele>351.2</ele>
        <time>2025-10-05T13:07:41.000Z</time>
      </trkpt>
      <trkpt lat="43.42442" lon="6.05511">
        <ele>351.2</ele>
        <time>2025-10-05T13:07:42.000Z</time>
      </trkpt>
      <trkpt lat="43.42433" lon="6.05509">
        <ele>351.2</ele>
        <time>2025-10-05T13:08:01.000Z</time>
      </trkpt>
      <trkpt lat="43.42424" lon="6.05511">
        <ele>350.9</ele>
        <time>2025-10-05T13:08:15.000Z</time>
      </trkpt>
      <trkpt lat="43.42414" lon="6.05514">
        <ele>349.6</ele>
        <time>2025-10-05T13:08:30.000Z</time>
      </trkpt>
      <trkpt lat="43.42406" lon="6.05517">
        <ele>349.1</ele>
        <time>2025-10-05T13:08:52.000Z</time>
      </trkpt>
      <trkpt lat="43.42405" lon="6.05518">
        <ele>349</ele>
        <time>2025-10-05T13:09:00.000Z</time>
      </trkpt>
      <trkpt lat="43.42405" lon="6.05518">
        <ele>349</ele>
        <time>2025-10-05T13:09:01.000Z</time>
      </trkpt>
      <trkpt lat="43.42404" lon="6.05518">
        <ele>349.1</ele>
        <time>2025-10-05T13:09:04.000Z</time>
      </trkpt>
      <trkpt lat="43.42403" lon="6.05518">
        <ele>349</ele>
        <time>2025-10-05T13:09:05.000Z</time>
      </trkpt>
      <trkpt lat="43.42403" lon="6.05518">
        <ele>349</ele>
        <time>2025-10-05T13:09:06.000Z</time>
      </trkpt>
      <trkpt lat="43.42394" lon="6.05518">
        <ele>348.9</ele>
        <time>2025-10-05T13:09:22.000Z</time>
      </trkpt>
      <trkpt lat="43.42392" lon="6.05523">
        <ele>348.5</ele>
        <time>2025-10-05T13:09:37.000Z</time>
      </trkpt>
      <trkpt lat="43.42392" lon="6.05523">
        <ele>348.5</ele>
        <time>2025-10-05T13:09:38.000Z</time>
      </trkpt>
      <trkpt lat="43.42392" lon="6.05523">
        <ele>348.5</ele>
        <time>2025-10-05T13:09:39.000Z</time>
      </trkpt>
      <trkpt lat="43.42392" lon="6.05524">
        <ele>348.5</ele>
        <time>2025-10-05T13:09:45.000Z</time>
      </trkpt>
      <trkpt lat="43.42392" lon="6.05524">
        <ele>348.5</ele>
        <time>2025-10-05T13:09:46.000Z</time>
      </trkpt>
      <trkpt lat="43.42392" lon="6.05524">
        <ele>348.5</ele>
        <time>2025-10-05T13:09:49.000Z</time>
      </trkpt>
      <trkpt lat="43.42392" lon="6.05524">
        <ele>348.5</ele>
        <time>2025-10-05T13:09:50.000Z</time>
      </trkpt>
      <trkpt lat="43.42392" lon="6.05524">
        <ele>348.5</ele>
        <time>2025-10-05T13:09:51.000Z</time>
      </trkpt>
      <trkpt lat="43.42392" lon="6.05524">
        <ele>348.4</ele>
        <time>2025-10-05T13:10:05.000Z</time>
      </trkpt>
      <trkpt lat="43.42392" lon="6.05524">
        <ele>348.4</ele>
        <time>2025-10-05T13:10:06.000Z</time>
      </trkpt>
      <trkpt lat="43.42392" lon="6.05524">
        <ele>348.4</ele>
        <time>2025-10-05T13:10:07.000Z</time>
      </trkpt>
      <trkpt lat="43.42392" lon="6.05524">
        <ele>348.4</ele>
        <time>2025-10-05T13:10:08.000Z</time>
      </trkpt>
      <trkpt lat="43.42392" lon="6.05524">
        <ele>348.4</ele>
        <time>2025-10-05T13:10:09.000Z</time>
      </trkpt>
      <trkpt lat="43.42392" lon="6.05525">
        <ele>348.3</ele>
        <time>2025-10-05T13:11:05.000Z</time>
      </trkpt>
      <trkpt lat="43.42392" lon="6.05525">
        <ele>348.3</ele>
        <time>2025-10-05T13:11:06.000Z</time>
      </trkpt>
      <trkpt lat="43.42392" lon="6.05525">
        <ele>348.3</ele>
        <time>2025-10-05T13:11:07.000Z</time>
      </trkpt>
      <trkpt lat="43.42392" lon="6.05525">
        <ele>348.3</ele>
        <time>2025-10-05T13:11:08.000Z</time>
      </trkpt>
      <trkpt lat="43.42392" lon="6.05525">
        <ele>348.4</ele>
        <time>2025-10-05T13:11:09.000Z</time>
      </trkpt>
      <trkpt lat="43.42392" lon="6.05525">
        <ele>348.4</ele>
        <time>2025-10-05T13:11:12.000Z</time>
      </trkpt>
      <trkpt lat="43.42392" lon="6.05524">
        <ele>348.4</ele>
        <time>2025-10-05T13:11:13.000Z</time>
      </trkpt>
      <trkpt lat="43.42392" lon="6.05522">
        <ele>348.3</ele>
        <time>2025-10-05T13:11:24.000Z</time>
      </trkpt>
      <trkpt lat="43.42392" lon="6.05522">
        <ele>348.3</ele>
        <time>2025-10-05T13:11:25.000Z</time>
      </trkpt>
      <trkpt lat="43.42392" lon="6.05522">
        <ele>348.3</ele>
        <time>2025-10-05T13:11:26.000Z</time>
      </trkpt>
      <trkpt lat="43.42392" lon="6.05522">
        <ele>348.3</ele>
        <time>2025-10-05T13:11:29.000Z</time>
      </trkpt>
      <trkpt lat="43.42392" lon="6.05522">
        <ele>348.3</ele>
        <time>2025-10-05T13:11:30.000Z</time>
      </trkpt>
      <trkpt lat="43.42392" lon="6.05522">
        <ele>348.3</ele>
        <time>2025-10-05T13:11:31.000Z</time>
      </trkpt>
      <trkpt lat="43.42392" lon="6.05522">
        <ele>348.3</ele>
        <time>2025-10-05T13:11:32.000Z</time>
      </trkpt>
      <trkpt lat="43.42392" lon="6.05522">
        <ele>348.3</ele>
        <time>2025-10-05T13:11:33.000Z</time>
      </trkpt>
      <trkpt lat="43.42392" lon="6.05522">
        <ele>348.3</ele>
        <time>2025-10-05T13:11:34.000Z</time>
      </trkpt>
      <trkpt lat="43.42392" lon="6.05522">
        <ele>348</ele>
        <time>2025-10-05T13:12:27.000Z</time>
      </trkpt>
      <trkpt lat="43.42392" lon="6.05522">
        <ele>348</ele>
        <time>2025-10-05T13:12:28.000Z</time>
      </trkpt>
      <trkpt lat="43.42392" lon="6.05522">
        <ele>348</ele>
        <time>2025-10-05T13:12:29.000Z</time>
      </trkpt>
      <trkpt lat="43.42392" lon="6.05523">
        <ele>348</ele>
        <time>2025-10-05T13:12:35.000Z</time>
      </trkpt>
      <trkpt lat="43.42392" lon="6.05523">
        <ele>348</ele>
        <time>2025-10-05T13:12:36.000Z</time>
      </trkpt>
      <trkpt lat="43.42392" lon="6.05523">
        <ele>348</ele>
        <time>2025-10-05T13:12:37.000Z</time>
      </trkpt>
      <trkpt lat="43.42392" lon="6.05523">
        <ele>347.8</ele>
        <time>2025-10-05T13:12:55.000Z</time>
      </trkpt>
      <trkpt lat="43.42392" lon="6.05523">
        <ele>347.7</ele>
        <time>2025-10-05T13:12:56.000Z</time>
      </trkpt>
      <trkpt lat="43.42392" lon="6.05522">
        <ele>347.6</ele>
        <time>2025-10-05T13:13:00.000Z</time>
      </trkpt>
      <trkpt lat="43.42392" lon="6.05522">
        <ele>347.6</ele>
        <time>2025-10-05T13:13:01.000Z</time>
      </trkpt>
      <trkpt lat="43.42392" lon="6.05522">
        <ele>347.5</ele>
        <time>2025-10-05T13:13:04.000Z</time>
      </trkpt>
      <trkpt lat="43.42392" lon="6.05522">
        <ele>347.5</ele>
        <time>2025-10-05T13:13:05.000Z</time>
      </trkpt>
      <trkpt lat="43.42392" lon="6.05522">
        <ele>347.5</ele>
        <time>2025-10-05T13:13:06.000Z</time>
      </trkpt>
      <trkpt lat="43.42392" lon="6.05522">
        <ele>347.5</ele>
        <time>2025-10-05T13:13:10.000Z</time>
      </trkpt>
      <trkpt lat="43.42392" lon="6.05522">
        <ele>347.5</ele>
        <time>2025-10-05T13:13:11.000Z</time>
      </trkpt>
      <trkpt lat="43.42392" lon="6.05523">
        <ele>347.2</ele>
        <time>2025-10-05T13:13:35.000Z</time>
      </trkpt>
      <trkpt lat="43.42392" lon="6.05523">
        <ele>347.2</ele>
        <time>2025-10-05T13:13:36.000Z</time>
      </trkpt>
      <trkpt lat="43.42392" lon="6.05523">
        <ele>347.2</ele>
        <time>2025-10-05T13:13:37.000Z</time>
      </trkpt>
      <trkpt lat="43.42392" lon="6.05523">
        <ele>347.2</ele>
        <time>2025-10-05T13:13:38.000Z</time>
      </trkpt>
      <trkpt lat="43.42392" lon="6.05523">
        <ele>347</ele>
        <time>2025-10-05T13:14:02.000Z</time>
      </trkpt>
      <trkpt lat="43.42392" lon="6.05522">
        <ele>346.9</ele>
        <time>2025-10-05T13:14:03.000Z</time>
      </trkpt>
      <trkpt lat="43.42392" lon="6.05521">
        <ele>346.9</ele>
        <time>2025-10-05T13:14:04.000Z</time>
      </trkpt>
      <trkpt lat="43.4239" lon="6.05509">
        <ele>347</ele>
        <time>2025-10-05T13:14:20.000Z</time>
      </trkpt>
      <trkpt lat="43.42386" lon="6.05501">
        <ele>346.9</ele>
        <time>2025-10-05T13:14:53.000Z</time>
      </trkpt>
      <trkpt lat="43.42386" lon="6.05501">
        <ele>347</ele>
        <time>2025-10-05T13:14:54.000Z</time>
      </trkpt>
      <trkpt lat="43.42387" lon="6.05502">
        <ele>346.9</ele>
        <time>2025-10-05T13:15:29.000Z</time>
      </trkpt>
      <trkpt lat="43.42387" lon="6.05502">
        <ele>346.9</ele>
        <time>2025-10-05T13:15:30.000Z</time>
      </trkpt>
      <trkpt lat="43.42387" lon="6.05502">
        <ele>346.9</ele>
        <time>2025-10-05T13:15:31.000Z</time>
      </trkpt>
      <trkpt lat="43.42387" lon="6.05502">
        <ele>346.9</ele>
        <time>2025-10-05T13:15:32.000Z</time>
      </trkpt>
      <trkpt lat="43.42387" lon="6.05502">
        <ele>346.9</ele>
        <time>2025-10-05T13:15:33.000Z</time>
      </trkpt>
      <trkpt lat="43.42387" lon="6.05502">
        <ele>347</ele>
        <time>2025-10-05T13:15:34.000Z</time>
      </trkpt>
      <trkpt lat="43.42387" lon="6.05502">
        <ele>346.9</ele>
        <time>2025-10-05T13:15:48.000Z</time>
      </trkpt>
      <trkpt lat="43.42387" lon="6.05502">
        <ele>346.8</ele>
        <time>2025-10-05T13:15:49.000Z</time>
      </trkpt>
      <trkpt lat="43.42387" lon="6.05502">
        <ele>346.8</ele>
        <time>2025-10-05T13:15:50.000Z</time>
      </trkpt>
      <trkpt lat="43.42387" lon="6.05502">
        <ele>346.9</ele>
        <time>2025-10-05T13:15:51.000Z</time>
      </trkpt>
      <trkpt lat="43.42387" lon="6.05502">
        <ele>347.2</ele>
        <time>2025-10-05T13:16:02.000Z</time>
      </trkpt>
      <trkpt lat="43.42387" lon="6.05502">
        <ele>347.2</ele>
        <time>2025-10-05T13:16:03.000Z</time>
      </trkpt>
      <trkpt lat="43.42387" lon="6.05502">
        <ele>347.2</ele>
        <time>2025-10-05T13:16:04.000Z</time>
      </trkpt>
      <trkpt lat="43.42387" lon="6.05502">
        <ele>347.2</ele>
        <time>2025-10-05T13:16:05.000Z</time>
      </trkpt>
      <trkpt lat="43.42387" lon="6.05502">
        <ele>347.3</ele>
        <time>2025-10-05T13:16:06.000Z</time>
      </trkpt>
      <trkpt lat="43.42387" lon="6.05502">
        <ele>347.4</ele>
        <time>2025-10-05T13:16:59.000Z</time>
      </trkpt>
      <trkpt lat="43.42387" lon="6.05502">
        <ele>347.4</ele>
        <time>2025-10-05T13:17:00.000Z</time>
      </trkpt>
      <trkpt lat="43.42387" lon="6.05502">
        <ele>347.4</ele>
        <time>2025-10-05T13:17:01.000Z</time>
      </trkpt>
      <trkpt lat="43.42387" lon="6.05502">
        <ele>347.4</ele>
        <time>2025-10-05T13:17:02.000Z</time>
      </trkpt>
      <trkpt lat="43.42387" lon="6.05502">
        <ele>347.4</ele>
        <time>2025-10-05T13:17:03.000Z</time>
      </trkpt>
      <trkpt lat="43.42387" lon="6.05502">
        <ele>347.4</ele>
        <time>2025-10-05T13:17:04.000Z</time>
      </trkpt>
      <trkpt lat="43.42387" lon="6.05502">
        <ele>347.6</ele>
        <time>2025-10-05T13:17:39.000Z</time>
      </trkpt>
      <trkpt lat="43.42387" lon="6.05502">
        <ele>347.6</ele>
        <time>2025-10-05T13:17:40.000Z</time>
      </trkpt>
      <trkpt lat="43.42387" lon="6.05502">
        <ele>347.6</ele>
        <time>2025-10-05T13:17:41.000Z</time>
      </trkpt>
      <trkpt lat="43.42386" lon="6.05502">
        <ele>347.6</ele>
        <time>2025-10-05T13:17:44.000Z</time>
      </trkpt>
      <trkpt lat="43.42386" lon="6.05503">
        <ele>347.6</ele>
        <time>2025-10-05T13:17:45.000Z</time>
      </trkpt>
      <trkpt lat="43.42386" lon="6.05503">
        <ele>347.6</ele>
        <time>2025-10-05T13:17:46.000Z</time>
      </trkpt>
      <trkpt lat="43.42386" lon="6.05503">
        <ele>347.6</ele>
        <time>2025-10-05T13:17:50.000Z</time>
      </trkpt>
      <trkpt lat="43.42386" lon="6.05503">
        <ele>347.7</ele>
        <time>2025-10-05T13:17:51.000Z</time>
      </trkpt>
      <trkpt lat="43.42386" lon="6.05503">
        <ele>347.7</ele>
        <time>2025-10-05T13:17:52.000Z</time>
      </trkpt>
      <trkpt lat="43.42386" lon="6.05503">
        <ele>347.7</ele>
        <time>2025-10-05T13:17:55.000Z</time>
      </trkpt>
      <trkpt lat="43.42386" lon="6.05503">
        <ele>347.7</ele>
        <time>2025-10-05T13:17:56.000Z</time>
      </trkpt>
      <trkpt lat="43.42386" lon="6.05503">
        <ele>347.7</ele>
        <time>2025-10-05T13:17:59.000Z</time>
      </trkpt>
      <trkpt lat="43.42386" lon="6.05503">
        <ele>347.7</ele>
        <time>2025-10-05T13:18:00.000Z</time>
      </trkpt>
      <trkpt lat="43.42386" lon="6.05503">
        <ele>347.7</ele>
        <time>2025-10-05T13:18:01.000Z</time>
      </trkpt>
      <trkpt lat="43.42386" lon="6.05503">
        <ele>347.6</ele>
        <time>2025-10-05T13:18:02.000Z</time>
      </trkpt>
      <trkpt lat="43.42386" lon="6.05503">
        <ele>347.6</ele>
        <time>2025-10-05T13:18:03.000Z</time>
      </trkpt>
      <trkpt lat="43.42386" lon="6.05503">
        <ele>347.6</ele>
        <time>2025-10-05T13:18:04.000Z</time>
      </trkpt>
      <trkpt lat="43.42386" lon="6.05503">
        <ele>347.6</ele>
        <time>2025-10-05T13:18:05.000Z</time>
      </trkpt>
      <trkpt lat="43.42386" lon="6.05503">
        <ele>347.7</ele>
        <time>2025-10-05T13:18:06.000Z</time>
      </trkpt>
      <trkpt lat="43.42386" lon="6.05503">
        <ele>347.7</ele>
        <time>2025-10-05T13:18:09.000Z</time>
      </trkpt>
      <trkpt lat="43.42386" lon="6.05503">
        <ele>347.7</ele>
        <time>2025-10-05T13:18:10.000Z</time>
      </trkpt>
      <trkpt lat="43.42386" lon="6.05503">
        <ele>347.7</ele>
        <time>2025-10-05T13:18:11.000Z</time>
      </trkpt>
      <trkpt lat="43.42386" lon="6.05503">
        <ele>347.5</ele>
        <time>2025-10-05T13:18:50.000Z</time>
      </trkpt>
      <trkpt lat="43.42386" lon="6.05503">
        <ele>347.5</ele>
        <time>2025-10-05T13:18:51.000Z</time>
      </trkpt>
      <trkpt lat="43.42386" lon="6.05503">
        <ele>347.4</ele>
        <time>2025-10-05T13:18:54.000Z</time>
      </trkpt>
      <trkpt lat="43.42386" lon="6.05503">
        <ele>347.4</ele>
        <time>2025-10-05T13:18:55.000Z</time>
      </trkpt>
      <trkpt lat="43.42386" lon="6.05503">
        <ele>347.4</ele>
        <time>2025-10-05T13:18:56.000Z</time>
      </trkpt>
      <trkpt lat="43.42386" lon="6.05503">
        <ele>347.5</ele>
        <time>2025-10-05T13:19:17.000Z</time>
      </trkpt>
      <trkpt lat="43.42386" lon="6.05503">
        <ele>347.4</ele>
        <time>2025-10-05T13:19:18.000Z</time>
      </trkpt>
      <trkpt lat="43.42386" lon="6.05503">
        <ele>347.4</ele>
        <time>2025-10-05T13:19:19.000Z</time>
      </trkpt>
      <trkpt lat="43.42386" lon="6.05503">
        <ele>347.4</ele>
        <time>2025-10-05T13:19:20.000Z</time>
      </trkpt>
      <trkpt lat="43.42386" lon="6.05503">
        <ele>347.4</ele>
        <time>2025-10-05T13:19:21.000Z</time>
      </trkpt>
      <trkpt lat="43.42386" lon="6.05502">
        <ele>347.7</ele>
        <time>2025-10-05T13:19:50.000Z</time>
      </trkpt>
      <trkpt lat="43.42386" lon="6.05502">
        <ele>347.7</ele>
        <time>2025-10-05T13:19:51.000Z</time>
      </trkpt>
      <trkpt lat="43.42386" lon="6.05502">
        <ele>347.7</ele>
        <time>2025-10-05T13:19:52.000Z</time>
      </trkpt>
      <trkpt lat="43.42386" lon="6.05502">
        <ele>347.7</ele>
        <time>2025-10-05T13:19:53.000Z</time>
      </trkpt>
      <trkpt lat="43.42387" lon="6.05503">
        <ele>347.8</ele>
        <time>2025-10-05T13:20:18.000Z</time>
      </trkpt>
      <trkpt lat="43.42387" lon="6.05503">
        <ele>347.8</ele>
        <time>2025-10-05T13:20:19.000Z</time>
      </trkpt>
      <trkpt lat="43.42387" lon="6.05503">
        <ele>347.8</ele>
        <time>2025-10-05T13:20:20.000Z</time>
      </trkpt>
      <trkpt lat="43.42387" lon="6.05503">
        <ele>347.8</ele>
        <time>2025-10-05T13:20:21.000Z</time>
      </trkpt>
      <trkpt lat="43.42388" lon="6.05503">
        <ele>347.9</ele>
        <time>2025-10-05T13:21:09.000Z</time>
      </trkpt>
      <trkpt lat="43.42387" lon="6.05503">
        <ele>347.9</ele>
        <time>2025-10-05T13:21:10.000Z</time>
      </trkpt>
      <trkpt lat="43.42386" lon="6.05504">
        <ele>347.9</ele>
        <time>2025-10-05T13:21:11.000Z</time>
      </trkpt>
      <trkpt lat="43.42386" lon="6.05505">
        <ele>348</ele>
        <time>2025-10-05T13:21:15.000Z</time>
      </trkpt>
      <trkpt lat="43.42386" lon="6.05505">
        <ele>348</ele>
        <time>2025-10-05T13:21:16.000Z</time>
      </trkpt>
      <trkpt lat="43.42385" lon="6.05506">
        <ele>348.8</ele>
        <time>2025-10-05T13:22:27.000Z</time>
      </trkpt>
      <trkpt lat="43.42384" lon="6.05508">
        <ele>348.8</ele>
        <time>2025-10-05T13:22:28.000Z</time>
      </trkpt>
      <trkpt lat="43.42386" lon="6.05506">
        <ele>348.8</ele>
        <time>2025-10-05T13:22:35.000Z</time>
      </trkpt>
      <trkpt lat="43.42386" lon="6.05506">
        <ele>348.8</ele>
        <time>2025-10-05T13:22:36.000Z</time>
      </trkpt>
      <trkpt lat="43.42386" lon="6.05506">
        <ele>348.8</ele>
        <time>2025-10-05T13:22:37.000Z</time>
      </trkpt>
      <trkpt lat="43.42386" lon="6.05506">
        <ele>349</ele>
        <time>2025-10-05T13:22:54.000Z</time>
      </trkpt>
      <trkpt lat="43.42386" lon="6.05506">
        <ele>349</ele>
        <time>2025-10-05T13:22:55.000Z</time>
      </trkpt>
      <trkpt lat="43.42386" lon="6.05506">
        <ele>349</ele>
        <time>2025-10-05T13:22:56.000Z</time>
      </trkpt>
      <trkpt lat="43.42389" lon="6.05518">
        <ele>349.6</ele>
        <time>2025-10-05T13:23:27.000Z</time>
      </trkpt>
      <trkpt lat="43.42391" lon="6.0553">
        <ele>350</ele>
        <time>2025-10-05T13:23:48.000Z</time>
      </trkpt>
      <trkpt lat="43.42388" lon="6.05532">
        <ele>350</ele>
        <time>2025-10-05T13:24:08.000Z</time>
      </trkpt>
      <trkpt lat="43.42389" lon="6.05532">
        <ele>350</ele>
        <time>2025-10-05T13:24:09.000Z</time>
      </trkpt>
      <trkpt lat="43.42389" lon="6.05532">
        <ele>350</ele>
        <time>2025-10-05T13:24:10.000Z</time>
      </trkpt>
      <trkpt lat="43.42389" lon="6.05532">
        <ele>350</ele>
        <time>2025-10-05T13:24:11.000Z</time>
      </trkpt>
      <trkpt lat="43.42389" lon="6.05532">
        <ele>350</ele>
        <time>2025-10-05T13:24:12.000Z</time>
      </trkpt>
      <trkpt lat="43.42389" lon="6.05532">
        <ele>350</ele>
        <time>2025-10-05T13:24:13.000Z</time>
      </trkpt>
      <trkpt lat="43.42389" lon="6.05532">
        <ele>350</ele>
        <time>2025-10-05T13:24:14.000Z</time>
      </trkpt>
      <trkpt lat="43.42389" lon="6.05532">
        <ele>349.9</ele>
        <time>2025-10-05T13:24:15.000Z</time>
      </trkpt>
      <trkpt lat="43.42389" lon="6.05532">
        <ele>349.9</ele>
        <time>2025-10-05T13:24:16.000Z</time>
      </trkpt>
      <trkpt lat="43.4239" lon="6.05534">
        <ele>349.8</ele>
        <time>2025-10-05T13:24:52.000Z</time>
      </trkpt>
      <trkpt lat="43.4239" lon="6.05534">
        <ele>349.7</ele>
        <time>2025-10-05T13:24:53.000Z</time>
      </trkpt>
      <trkpt lat="43.4239" lon="6.05534">
        <ele>349.6</ele>
        <time>2025-10-05T13:24:54.000Z</time>
      </trkpt>
      <trkpt lat="43.4239" lon="6.05534">
        <ele>349.6</ele>
        <time>2025-10-05T13:24:55.000Z</time>
      </trkpt>
      <trkpt lat="43.4239" lon="6.05534">
        <ele>349.7</ele>
        <time>2025-10-05T13:24:56.000Z</time>
      </trkpt>
      <trkpt lat="43.4239" lon="6.05534">
        <ele>349.8</ele>
        <time>2025-10-05T13:24:57.000Z</time>
      </trkpt>
      <trkpt lat="43.4239" lon="6.05533">
        <ele>349.7</ele>
        <time>2025-10-05T13:25:02.000Z</time>
      </trkpt>
      <trkpt lat="43.4239" lon="6.05533">
        <ele>349.6</ele>
        <time>2025-10-05T13:25:03.000Z</time>
      </trkpt>
      <trkpt lat="43.42391" lon="6.05533">
        <ele>349.6</ele>
        <time>2025-10-05T13:25:04.000Z</time>
      </trkpt>
      <trkpt lat="43.42391" lon="6.05532">
        <ele>349.4</ele>
        <time>2025-10-05T13:25:05.000Z</time>
      </trkpt>
      <trkpt lat="43.42391" lon="6.05532">
        <ele>349.2</ele>
        <time>2025-10-05T13:25:06.000Z</time>
      </trkpt>
      <trkpt lat="43.4239" lon="6.05545">
        <ele>349</ele>
        <time>2025-10-05T13:25:28.000Z</time>
      </trkpt>
      <trkpt lat="43.4239" lon="6.05558">
        <ele>347.2</ele>
        <time>2025-10-05T13:26:04.000Z</time>
      </trkpt>
      <trkpt lat="43.42389" lon="6.05563">
        <ele>346.1</ele>
        <time>2025-10-05T13:26:17.000Z</time>
      </trkpt>
      <trkpt lat="43.4239" lon="6.05563">
        <ele>346.1</ele>
        <time>2025-10-05T13:26:18.000Z</time>
      </trkpt>
      <trkpt lat="43.4239" lon="6.05564">
        <ele>346.1</ele>
        <time>2025-10-05T13:26:19.000Z</time>
      </trkpt>
      <trkpt lat="43.4239" lon="6.05565">
        <ele>346.1</ele>
        <time>2025-10-05T13:26:20.000Z</time>
      </trkpt>
      <trkpt lat="43.4239" lon="6.05565">
        <ele>346.1</ele>
        <time>2025-10-05T13:26:21.000Z</time>
      </trkpt>
      <trkpt lat="43.42391" lon="6.05567">
        <ele>345.6</ele>
        <time>2025-10-05T13:26:30.000Z</time>
      </trkpt>
      <trkpt lat="43.42391" lon="6.05567">
        <ele>345.7</ele>
        <time>2025-10-05T13:26:31.000Z</time>
      </trkpt>
      <trkpt lat="43.4239" lon="6.05567">
        <ele>345.8</ele>
        <time>2025-10-05T13:26:34.000Z</time>
      </trkpt>
      <trkpt lat="43.4239" lon="6.05568">
        <ele>345.7</ele>
        <time>2025-10-05T13:26:35.000Z</time>
      </trkpt>
      <trkpt lat="43.4239" lon="6.05568">
        <ele>345.7</ele>
        <time>2025-10-05T13:26:36.000Z</time>
      </trkpt>
      <trkpt lat="43.4239" lon="6.05571">
        <ele>345</ele>
        <time>2025-10-05T13:26:45.000Z</time>
      </trkpt>
      <trkpt lat="43.4239" lon="6.05571">
        <ele>345</ele>
        <time>2025-10-05T13:26:46.000Z</time>
      </trkpt>
      <trkpt lat="43.4239" lon="6.05571">
        <ele>345</ele>
        <time>2025-10-05T13:26:47.000Z</time>
      </trkpt>
      <trkpt lat="43.42389" lon="6.05572">
        <ele>344.1</ele>
        <time>2025-10-05T13:26:57.000Z</time>
      </trkpt>
      <trkpt lat="43.42389" lon="6.05572">
        <ele>344.1</ele>
        <time>2025-10-05T13:26:58.000Z</time>
      </trkpt>
      <trkpt lat="43.4239" lon="6.05573">
        <ele>344.1</ele>
        <time>2025-10-05T13:26:59.000Z</time>
      </trkpt>
      <trkpt lat="43.42389" lon="6.05572">
        <ele>344.2</ele>
        <time>2025-10-05T13:27:02.000Z</time>
      </trkpt>
      <trkpt lat="43.42389" lon="6.05572">
        <ele>344.2</ele>
        <time>2025-10-05T13:27:03.000Z</time>
      </trkpt>
      <trkpt lat="43.42389" lon="6.05573">
        <ele>344.2</ele>
        <time>2025-10-05T13:27:04.000Z</time>
      </trkpt>
      <trkpt lat="43.42389" lon="6.05573">
        <ele>344.2</ele>
        <time>2025-10-05T13:27:05.000Z</time>
      </trkpt>
      <trkpt lat="43.42389" lon="6.05573">
        <ele>344.2</ele>
        <time>2025-10-05T13:27:06.000Z</time>
      </trkpt>
      <trkpt lat="43.42391" lon="6.05586">
        <ele>342.2</ele>
        <time>2025-10-05T13:27:37.000Z</time>
      </trkpt>
      <trkpt lat="43.42397" lon="6.05595">
        <ele>340.5</ele>
        <time>2025-10-05T13:27:59.000Z</time>
      </trkpt>
      <trkpt lat="43.424" lon="6.05607">
        <ele>337.8</ele>
        <time>2025-10-05T13:28:29.000Z</time>
      </trkpt>
      <trkpt lat="43.42407" lon="6.05617">
        <ele>335.9</ele>
        <time>2025-10-05T13:28:49.000Z</time>
      </trkpt>
      <trkpt lat="43.42405" lon="6.05627">
        <ele>332.7</ele>
        <time>2025-10-05T13:29:40.000Z</time>
      </trkpt>
      <trkpt lat="43.42405" lon="6.05627">
        <ele>332.6</ele>
        <time>2025-10-05T13:29:41.000Z</time>
      </trkpt>
      <trkpt lat="43.42405" lon="6.05627">
        <ele>332.2</ele>
        <time>2025-10-05T13:30:15.000Z</time>
      </trkpt>
      <trkpt lat="43.42404" lon="6.05627">
        <ele>332.2</ele>
        <time>2025-10-05T13:30:16.000Z</time>
      </trkpt>
      <trkpt lat="43.42395" lon="6.0563">
        <ele>332</ele>
        <time>2025-10-05T13:30:29.000Z</time>
      </trkpt>
      <trkpt lat="43.42385" lon="6.05629">
        <ele>331.8</ele>
        <time>2025-10-05T13:30:42.000Z</time>
      </trkpt>
      <trkpt lat="43.42375" lon="6.05627">
        <ele>331.3</ele>
        <time>2025-10-05T13:30:54.000Z</time>
      </trkpt>
      <trkpt lat="43.42366" lon="6.05626">
        <ele>330.6</ele>
        <time>2025-10-05T13:31:08.000Z</time>
      </trkpt>
      <trkpt lat="43.42361" lon="6.05625">
        <ele>328.9</ele>
        <time>2025-10-05T13:31:27.000Z</time>
      </trkpt>
      <trkpt lat="43.42361" lon="6.05625">
        <ele>328.9</ele>
        <time>2025-10-05T13:31:28.000Z</time>
      </trkpt>
      <trkpt lat="43.4236" lon="6.05625">
        <ele>328.4</ele>
        <time>2025-10-05T13:31:35.000Z</time>
      </trkpt>
      <trkpt lat="43.4236" lon="6.05624">
        <ele>328.3</ele>
        <time>2025-10-05T13:31:36.000Z</time>
      </trkpt>
      <trkpt lat="43.42359" lon="6.05624">
        <ele>328.3</ele>
        <time>2025-10-05T13:31:37.000Z</time>
      </trkpt>
      <trkpt lat="43.42352" lon="6.05616">
        <ele>327.4</ele>
        <time>2025-10-05T13:31:52.000Z</time>
      </trkpt>
      <trkpt lat="43.42346" lon="6.05606">
        <ele>326</ele>
        <time>2025-10-05T13:32:06.000Z</time>
      </trkpt>
      <trkpt lat="43.4234" lon="6.05596">
        <ele>324.9</ele>
        <time>2025-10-05T13:32:19.000Z</time>
      </trkpt>
      <trkpt lat="43.42335" lon="6.05586">
        <ele>323.6</ele>
        <time>2025-10-05T13:32:33.000Z</time>
      </trkpt>
      <trkpt lat="43.42326" lon="6.05579">
        <ele>322.4</ele>
        <time>2025-10-05T13:32:44.000Z</time>
      </trkpt>
      <trkpt lat="43.42317" lon="6.05576">
        <ele>321</ele>
        <time>2025-10-05T13:32:57.000Z</time>
      </trkpt>
      <trkpt lat="43.42307" lon="6.05579">
        <ele>319.5</ele>
        <time>2025-10-05T13:33:08.000Z</time>
      </trkpt>
      <trkpt lat="43.42299" lon="6.05585">
        <ele>317.9</ele>
        <time>2025-10-05T13:33:18.000Z</time>
      </trkpt>
      <trkpt lat="43.4229" lon="6.05582">
        <ele>316.2</ele>
        <time>2025-10-05T13:33:31.000Z</time>
      </trkpt>
      <trkpt lat="43.42281" lon="6.05581">
        <ele>315</ele>
        <time>2025-10-05T13:33:44.000Z</time>
      </trkpt>
      <trkpt lat="43.42273" lon="6.05575">
        <ele>312.9</ele>
        <time>2025-10-05T13:33:57.000Z</time>
      </trkpt>
      <trkpt lat="43.42264" lon="6.05571">
        <ele>311.8</ele>
        <time>2025-10-05T13:34:07.000Z</time>
      </trkpt>
      <trkpt lat="43.42255" lon="6.0557">
        <ele>310.1</ele>
        <time>2025-10-05T13:34:22.000Z</time>
      </trkpt>
      <trkpt lat="43.42246" lon="6.0557">
        <ele>308.5</ele>
        <time>2025-10-05T13:34:37.000Z</time>
      </trkpt>
      <trkpt lat="43.42246" lon="6.05565">
        <ele>307.2</ele>
        <time>2025-10-05T13:34:58.000Z</time>
      </trkpt>
      <trkpt lat="43.42246" lon="6.05565">
        <ele>307.2</ele>
        <time>2025-10-05T13:34:59.000Z</time>
      </trkpt>
      <trkpt lat="43.42246" lon="6.05565">
        <ele>307.2</ele>
        <time>2025-10-05T13:35:00.000Z</time>
      </trkpt>
      <trkpt lat="43.42246" lon="6.05565">
        <ele>307.2</ele>
        <time>2025-10-05T13:35:01.000Z</time>
      </trkpt>
      <trkpt lat="43.42246" lon="6.05565">
        <ele>307.2</ele>
        <time>2025-10-05T13:35:02.000Z</time>
      </trkpt>
      <trkpt lat="43.42246" lon="6.05565">
        <ele>307.2</ele>
        <time>2025-10-05T13:35:03.000Z</time>
      </trkpt>
      <trkpt lat="43.42246" lon="6.05565">
        <ele>307.1</ele>
        <time>2025-10-05T13:35:04.000Z</time>
      </trkpt>
      <trkpt lat="43.42246" lon="6.05565">
        <ele>307</ele>
        <time>2025-10-05T13:35:12.000Z</time>
      </trkpt>
      <trkpt lat="43.42246" lon="6.05565">
        <ele>307</ele>
        <time>2025-10-05T13:35:13.000Z</time>
      </trkpt>
      <trkpt lat="43.42246" lon="6.05565">
        <ele>307</ele>
        <time>2025-10-05T13:35:17.000Z</time>
      </trkpt>
      <trkpt lat="43.42246" lon="6.05565">
        <ele>306.9</ele>
        <time>2025-10-05T13:35:18.000Z</time>
      </trkpt>
      <trkpt lat="43.42245" lon="6.05565">
        <ele>306.3</ele>
        <time>2025-10-05T13:35:53.000Z</time>
      </trkpt>
      <trkpt lat="43.42245" lon="6.05564">
        <ele>306.3</ele>
        <time>2025-10-05T13:35:54.000Z</time>
      </trkpt>
      <trkpt lat="43.42237" lon="6.05557">
        <ele>305.3</ele>
        <time>2025-10-05T13:36:07.000Z</time>
      </trkpt>
      <trkpt lat="43.4223" lon="6.05548">
        <ele>303.4</ele>
        <time>2025-10-05T13:36:21.000Z</time>
      </trkpt>
      <trkpt lat="43.42222" lon="6.05541">
        <ele>301.4</ele>
        <time>2025-10-05T13:36:33.000Z</time>
      </trkpt>
      <trkpt lat="43.42215" lon="6.05532">
        <ele>300.1</ele>
        <time>2025-10-05T13:36:48.000Z</time>
      </trkpt>
      <trkpt lat="43.42207" lon="6.05526">
        <ele>299.5</ele>
        <time>2025-10-05T13:37:03.000Z</time>
      </trkpt>
      <trkpt lat="43.42203" lon="6.05515">
        <ele>298.7</ele>
        <time>2025-10-05T13:37:19.000Z</time>
      </trkpt>
      <trkpt lat="43.42197" lon="6.05505">
        <ele>298.5</ele>
        <time>2025-10-05T13:37:32.000Z</time>
      </trkpt>
      <trkpt lat="43.42193" lon="6.05494">
        <ele>298.3</ele>
        <time>2025-10-05T13:37:48.000Z</time>
      </trkpt>
      <trkpt lat="43.42189" lon="6.05482">
        <ele>297.9</ele>
        <time>2025-10-05T13:37:59.000Z</time>
      </trkpt>
      <trkpt lat="43.42183" lon="6.05472">
        <ele>297.3</ele>
        <time>2025-10-05T13:38:07.000Z</time>
      </trkpt>
      <trkpt lat="43.42175" lon="6.05466">
        <ele>296.3</ele>
        <time>2025-10-05T13:38:18.000Z</time>
      </trkpt>
      <trkpt lat="43.42173" lon="6.05454">
        <ele>295.2</ele>
        <time>2025-10-05T13:38:40.000Z</time>
      </trkpt>
      <trkpt lat="43.42167" lon="6.05444">
        <ele>294.5</ele>
        <time>2025-10-05T13:38:56.000Z</time>
      </trkpt>
      <trkpt lat="43.42162" lon="6.05434">
        <ele>294.2</ele>
        <time>2025-10-05T13:39:15.000Z</time>
      </trkpt>
      <trkpt lat="43.42154" lon="6.05428">
        <ele>292.3</ele>
        <time>2025-10-05T13:39:30.000Z</time>
      </trkpt>
      <trkpt lat="43.42149" lon="6.05426">
        <ele>291.1</ele>
        <time>2025-10-05T13:39:42.000Z</time>
      </trkpt>
      <trkpt lat="43.42149" lon="6.05426">
        <ele>291.1</ele>
        <time>2025-10-05T13:39:43.000Z</time>
      </trkpt>
      <trkpt lat="43.42149" lon="6.05427">
        <ele>291.1</ele>
        <time>2025-10-05T13:39:47.000Z</time>
      </trkpt>
      <trkpt lat="43.42148" lon="6.05427">
        <ele>291.1</ele>
        <time>2025-10-05T13:39:48.000Z</time>
      </trkpt>
      <trkpt lat="43.4214" lon="6.05421">
        <ele>289.9</ele>
        <time>2025-10-05T13:40:06.000Z</time>
      </trkpt>
      <trkpt lat="43.42146" lon="6.05411">
        <ele>288.3</ele>
        <time>2025-10-05T13:40:33.000Z</time>
      </trkpt>
      <trkpt lat="43.42154" lon="6.05404">
        <ele>287</ele>
        <time>2025-10-05T13:40:44.000Z</time>
      </trkpt>
      <trkpt lat="43.42162" lon="6.05396">
        <ele>284.9</ele>
        <time>2025-10-05T13:40:57.000Z</time>
      </trkpt>
      <trkpt lat="43.42169" lon="6.0539">
        <ele>282.8</ele>
        <time>2025-10-05T13:41:14.000Z</time>
      </trkpt>
      <trkpt lat="43.4217" lon="6.05377">
        <ele>281.4</ele>
        <time>2025-10-05T13:41:26.000Z</time>
      </trkpt>
      <trkpt lat="43.42173" lon="6.05365">
        <ele>280.5</ele>
        <time>2025-10-05T13:41:35.000Z</time>
      </trkpt>
      <trkpt lat="43.4217" lon="6.05353">
        <ele>280</ele>
        <time>2025-10-05T13:41:44.000Z</time>
      </trkpt>
      <trkpt lat="43.42166" lon="6.05342">
        <ele>279.3</ele>
        <time>2025-10-05T13:41:54.000Z</time>
      </trkpt>
      <trkpt lat="43.42159" lon="6.05337">
        <ele>278.9</ele>
        <time>2025-10-05T13:41:59.000Z</time>
      </trkpt>
      <trkpt lat="43.42159" lon="6.05337">
        <ele>278.8</ele>
        <time>2025-10-05T13:42:00.000Z</time>
      </trkpt>
      <trkpt lat="43.42159" lon="6.05337">
        <ele>278.8</ele>
        <time>2025-10-05T13:42:01.000Z</time>
      </trkpt>
      <trkpt lat="43.42157" lon="6.05337">
        <ele>278.3</ele>
        <time>2025-10-05T13:42:10.000Z</time>
      </trkpt>
      <trkpt lat="43.42156" lon="6.05336">
        <ele>278.2</ele>
        <time>2025-10-05T13:42:11.000Z</time>
      </trkpt>
      <trkpt lat="43.42156" lon="6.05323">
        <ele>276.5</ele>
        <time>2025-10-05T13:42:30.000Z</time>
      </trkpt>
      <trkpt lat="43.42156" lon="6.05309">
        <ele>274</ele>
        <time>2025-10-05T13:42:44.000Z</time>
      </trkpt>
      <trkpt lat="43.42159" lon="6.05297">
        <ele>273.3</ele>
        <time>2025-10-05T13:42:55.000Z</time>
      </trkpt>
      <trkpt lat="43.42158" lon="6.05283">
        <ele>271.5</ele>
        <time>2025-10-05T13:43:09.000Z</time>
      </trkpt>
      <trkpt lat="43.42162" lon="6.05271">
        <ele>270.1</ele>
        <time>2025-10-05T13:43:21.000Z</time>
      </trkpt>
      <trkpt lat="43.42168" lon="6.05261">
        <ele>269.3</ele>
        <time>2025-10-05T13:43:32.000Z</time>
      </trkpt>
      <trkpt lat="43.42171" lon="6.05249">
        <ele>268.2</ele>
        <time>2025-10-05T13:43:41.000Z</time>
      </trkpt>
      <trkpt lat="43.42177" lon="6.05239">
        <ele>267</ele>
        <time>2025-10-05T13:43:51.000Z</time>
      </trkpt>
      <trkpt lat="43.42183" lon="6.05229">
        <ele>266</ele>
        <time>2025-10-05T13:44:02.000Z</time>
      </trkpt>
      <trkpt lat="43.42184" lon="6.05217">
        <ele>264.5</ele>
        <time>2025-10-05T13:44:15.000Z</time>
      </trkpt>
      <trkpt lat="43.42185" lon="6.05205">
        <ele>263.8</ele>
        <time>2025-10-05T13:44:26.000Z</time>
      </trkpt>
      <trkpt lat="43.42189" lon="6.05192">
        <ele>263.3</ele>
        <time>2025-10-05T13:44:38.000Z</time>
      </trkpt>
      <trkpt lat="43.42189" lon="6.05179">
        <ele>263.2</ele>
        <time>2025-10-05T13:44:46.000Z</time>
      </trkpt>
      <trkpt lat="43.42189" lon="6.05167">
        <ele>263</ele>
        <time>2025-10-05T13:44:55.000Z</time>
      </trkpt>
      <trkpt lat="43.42184" lon="6.05165">
        <ele>262.7</ele>
        <time>2025-10-05T13:45:00.000Z</time>
      </trkpt>
      <trkpt lat="43.42184" lon="6.05165">
        <ele>262.7</ele>
        <time>2025-10-05T13:45:01.000Z</time>
      </trkpt>
      <trkpt lat="43.42182" lon="6.05167">
        <ele>262.4</ele>
        <time>2025-10-05T13:45:08.000Z</time>
      </trkpt>
      <trkpt lat="43.42182" lon="6.05167">
        <ele>262.4</ele>
        <time>2025-10-05T13:45:09.000Z</time>
      </trkpt>
      <trkpt lat="43.42182" lon="6.05167">
        <ele>262.4</ele>
        <time>2025-10-05T13:45:10.000Z</time>
      </trkpt>
      <trkpt lat="43.42182" lon="6.05167">
        <ele>262.4</ele>
        <time>2025-10-05T13:45:11.000Z</time>
      </trkpt>
      <trkpt lat="43.42182" lon="6.05169">
        <ele>262.3</ele>
        <time>2025-10-05T13:45:17.000Z</time>
      </trkpt>
      <trkpt lat="43.42182" lon="6.05169">
        <ele>262.3</ele>
        <time>2025-10-05T13:45:18.000Z</time>
      </trkpt>
      <trkpt lat="43.42182" lon="6.05169">
        <ele>262.3</ele>
        <time>2025-10-05T13:45:19.000Z</time>
      </trkpt>
      <trkpt lat="43.42182" lon="6.05169">
        <ele>262.3</ele>
        <time>2025-10-05T13:45:20.000Z</time>
      </trkpt>
      <trkpt lat="43.42182" lon="6.05169">
        <ele>262.3</ele>
        <time>2025-10-05T13:45:21.000Z</time>
      </trkpt>
      <trkpt lat="43.42181" lon="6.05169">
        <ele>262.1</ele>
        <time>2025-10-05T13:45:45.000Z</time>
      </trkpt>
      <trkpt lat="43.42181" lon="6.05169">
        <ele>262.1</ele>
        <time>2025-10-05T13:45:46.000Z</time>
      </trkpt>
      <trkpt lat="43.42181" lon="6.05169">
        <ele>262</ele>
        <time>2025-10-05T13:45:47.000Z</time>
      </trkpt>
      <trkpt lat="43.42181" lon="6.05169">
        <ele>262</ele>
        <time>2025-10-05T13:45:48.000Z</time>
      </trkpt>
      <trkpt lat="43.4218" lon="6.0517">
        <ele>261.9</ele>
        <time>2025-10-05T13:46:02.000Z</time>
      </trkpt>
      <trkpt lat="43.42179" lon="6.0517">
        <ele>261.9</ele>
        <time>2025-10-05T13:46:03.000Z</time>
      </trkpt>
      <trkpt lat="43.42178" lon="6.0517">
        <ele>261.8</ele>
        <time>2025-10-05T13:46:04.000Z</time>
      </trkpt>
      <trkpt lat="43.4217" lon="6.05162">
        <ele>261.5</ele>
        <time>2025-10-05T13:46:13.000Z</time>
      </trkpt>
      <trkpt lat="43.42162" lon="6.05156">
        <ele>261.1</ele>
        <time>2025-10-05T13:46:23.000Z</time>
      </trkpt>
      <trkpt lat="43.42154" lon="6.05148">
        <ele>261.1</ele>
        <time>2025-10-05T13:46:33.000Z</time>
      </trkpt>
      <trkpt lat="43.42146" lon="6.05141">
        <ele>260.8</ele>
        <time>2025-10-05T13:46:44.000Z</time>
      </trkpt>
      <trkpt lat="43.4214" lon="6.05131">
        <ele>260.5</ele>
        <time>2025-10-05T13:46:54.000Z</time>
      </trkpt>
      <trkpt lat="43.42139" lon="6.05127">
        <ele>259.9</ele>
        <time>2025-10-05T13:47:08.000Z</time>
      </trkpt>
      <trkpt lat="43.4214" lon="6.05128">
        <ele>259.9</ele>
        <time>2025-10-05T13:47:09.000Z</time>
      </trkpt>
      <trkpt lat="43.4214" lon="6.05128">
        <ele>259.8</ele>
        <time>2025-10-05T13:47:10.000Z</time>
      </trkpt>
      <trkpt lat="43.4214" lon="6.05129">
        <ele>259.8</ele>
        <time>2025-10-05T13:47:11.000Z</time>
      </trkpt>
      <trkpt lat="43.4214" lon="6.05129">
        <ele>259.8</ele>
        <time>2025-10-05T13:47:12.000Z</time>
      </trkpt>
      <trkpt lat="43.4214" lon="6.05129">
        <ele>259.8</ele>
        <time>2025-10-05T13:47:13.000Z</time>
      </trkpt>
      <trkpt lat="43.4214" lon="6.05129">
        <ele>259.8</ele>
        <time>2025-10-05T13:47:14.000Z</time>
      </trkpt>
      <trkpt lat="43.4214" lon="6.05131">
        <ele>259.7</ele>
        <time>2025-10-05T13:47:18.000Z</time>
      </trkpt>
      <trkpt lat="43.4214" lon="6.05132">
        <ele>259.8</ele>
        <time>2025-10-05T13:47:19.000Z</time>
      </trkpt>
      <trkpt lat="43.4214" lon="6.05133">
        <ele>259.8</ele>
        <time>2025-10-05T13:47:24.000Z</time>
      </trkpt>
      <trkpt lat="43.4214" lon="6.05133">
        <ele>259.8</ele>
        <time>2025-10-05T13:47:25.000Z</time>
      </trkpt>
      <trkpt lat="43.4214" lon="6.05133">
        <ele>259.8</ele>
        <time>2025-10-05T13:47:26.000Z</time>
      </trkpt>
      <trkpt lat="43.42139" lon="6.05135">
        <ele>259.7</ele>
        <time>2025-10-05T13:47:35.000Z</time>
      </trkpt>
      <trkpt lat="43.42139" lon="6.05135">
        <ele>259.7</ele>
        <time>2025-10-05T13:47:36.000Z</time>
      </trkpt>
      <trkpt lat="43.42139" lon="6.05135">
        <ele>259.7</ele>
        <time>2025-10-05T13:47:37.000Z</time>
      </trkpt>
      <trkpt lat="43.42139" lon="6.05135">
        <ele>259.7</ele>
        <time>2025-10-05T13:47:38.000Z</time>
      </trkpt>
      <trkpt lat="43.42139" lon="6.05135">
        <ele>259.7</ele>
        <time>2025-10-05T13:47:39.000Z</time>
      </trkpt>
      <trkpt lat="43.42139" lon="6.05135">
        <ele>259.8</ele>
        <time>2025-10-05T13:47:40.000Z</time>
      </trkpt>
      <trkpt lat="43.42139" lon="6.05135">
        <ele>259.8</ele>
        <time>2025-10-05T13:47:41.000Z</time>
      </trkpt>
      <trkpt lat="43.42139" lon="6.05135">
        <ele>259.8</ele>
        <time>2025-10-05T13:47:42.000Z</time>
      </trkpt>
      <trkpt lat="43.42139" lon="6.05135">
        <ele>259.8</ele>
        <time>2025-10-05T13:47:43.000Z</time>
      </trkpt>
      <trkpt lat="43.42139" lon="6.05135">
        <ele>259.8</ele>
        <time>2025-10-05T13:47:44.000Z</time>
      </trkpt>
      <trkpt lat="43.42139" lon="6.05135">
        <ele>259.8</ele>
        <time>2025-10-05T13:47:45.000Z</time>
      </trkpt>
      <trkpt lat="43.42139" lon="6.05136">
        <ele>259.8</ele>
        <time>2025-10-05T13:47:46.000Z</time>
      </trkpt>
      <trkpt lat="43.42135" lon="6.05123">
        <ele>259.6</ele>
        <time>2025-10-05T13:47:55.000Z</time>
      </trkpt>
      <trkpt lat="43.42133" lon="6.05118">
        <ele>259</ele>
        <time>2025-10-05T13:48:09.000Z</time>
      </trkpt>
      <trkpt lat="43.42133" lon="6.05118">
        <ele>259.1</ele>
        <time>2025-10-05T13:48:10.000Z</time>
      </trkpt>
      <trkpt lat="43.42134" lon="6.05119">
        <ele>259.1</ele>
        <time>2025-10-05T13:48:11.000Z</time>
      </trkpt>
      <trkpt lat="43.42134" lon="6.0512">
        <ele>259.1</ele>
        <time>2025-10-05T13:48:12.000Z</time>
      </trkpt>
      <trkpt lat="43.42134" lon="6.05121">
        <ele>259.2</ele>
        <time>2025-10-05T13:48:13.000Z</time>
      </trkpt>
      <trkpt lat="43.42134" lon="6.05122">
        <ele>259.2</ele>
        <time>2025-10-05T13:48:14.000Z</time>
      </trkpt>
      <trkpt lat="43.42136" lon="6.05124">
        <ele>259.4</ele>
        <time>2025-10-05T13:48:33.000Z</time>
      </trkpt>
      <trkpt lat="43.42136" lon="6.05124">
        <ele>259.3</ele>
        <time>2025-10-05T13:48:34.000Z</time>
      </trkpt>
      <trkpt lat="43.42136" lon="6.05124">
        <ele>259.3</ele>
        <time>2025-10-05T13:48:35.000Z</time>
      </trkpt>
      <trkpt lat="43.42136" lon="6.05124">
        <ele>259.2</ele>
        <time>2025-10-05T13:48:36.000Z</time>
      </trkpt>
      <trkpt lat="43.42136" lon="6.05124">
        <ele>259.2</ele>
        <time>2025-10-05T13:48:37.000Z</time>
      </trkpt>
      <trkpt lat="43.42136" lon="6.05124">
        <ele>259.2</ele>
        <time>2025-10-05T13:48:37.000Z</time>
      </trkpt>
      <trkpt lat="43.42136" lon="6.05124">
        <ele>259.2</ele>
        <time>2025-10-05T13:48:37.000Z</time>
      </trkpt>
      <trkpt lat="43.42136" lon="6.05124">
        <ele>259.2</ele>
        <time>2025-10-05T13:48:37.000Z</time>
      </trkpt>
    </trkseg>
  </trk>
</gpx>